<?xml version="1.0" encoding="UTF-8" standalone="no" ?>
<gpx xmlns="http://www.topografix.com/GPX/1/1" xmlns:xsi="http://www.w3.org/2001/XMLSchema-instance" xsi:schemaLocation="http://www.topografix.com/GPX/1/1 http://www.topografix.com/GPX/1/1/gpx.xsd" version="1.1" creator="VisuGPX - https://www.visugpx.com">
  <metadata>
    <name>SLDV NICE ESCARENE LUCERAM LANTOSQUE</name>
    <desc><![CDATA[112 Km D 1730m
Jolie sortie d'avril avec le soleil.
Col de Nice pour arriver à l'Escarene puis prendre le début du Turini jusqu’à Luceram et ensuite le col St Roch, continuer sur Col de Porte puis redescendre sur la vésubie pour arriver à Lantosque. 
Ensuite longer la vésubie jusqu'a la route qui remonte sur Nice en passant par Duranus et Levens.
Retour par la vallée du var et au pont de la Manda récupérer la piste cyclable rive droite coté St Laurent.]]></desc>
  </metadata>
  <trk>
    <name><![CDATA[20180424161349-LH5oN]]></name>
    <trkseg>
      <trkpt lat="44.07928" lon="7.4044">
        <ele>1752</ele>
        <time>2018-04-21T05:29:34.000Z</time>
      </trkpt>
      <trkpt lat="44.07929" lon="7.4044">
        <ele>1752</ele>
        <time>2018-04-21T05:29:40.000Z</time>
      </trkpt>
      <trkpt lat="44.07931" lon="7.40441">
        <ele>1753</ele>
        <time>2018-04-21T05:29:44.000Z</time>
      </trkpt>
      <trkpt lat="44.07933" lon="7.40443">
        <ele>1753</ele>
        <time>2018-04-21T05:29:48.000Z</time>
      </trkpt>
      <trkpt lat="44.07934" lon="7.40442">
        <ele>1753</ele>
        <time>2018-04-21T05:29:49.000Z</time>
      </trkpt>
      <trkpt lat="44.07936" lon="7.40443">
        <ele>1754</ele>
        <time>2018-04-21T05:29:52.000Z</time>
      </trkpt>
      <trkpt lat="44.07939" lon="7.40443">
        <ele>1754</ele>
        <time>2018-04-21T05:29:55.000Z</time>
      </trkpt>
      <trkpt lat="44.07941" lon="7.40442">
        <ele>1754</ele>
        <time>2018-04-21T05:29:58.000Z</time>
      </trkpt>
      <trkpt lat="44.07942" lon="7.40442">
        <ele>1754</ele>
        <time>2018-04-21T05:30:03.000Z</time>
      </trkpt>
      <trkpt lat="44.07946" lon="7.40445">
        <ele>1755</ele>
        <time>2018-04-21T05:30:09.000Z</time>
      </trkpt>
      <trkpt lat="44.07948" lon="7.40447">
        <ele>1756</ele>
        <time>2018-04-21T05:30:12.000Z</time>
      </trkpt>
      <trkpt lat="44.07948" lon="7.40447">
        <ele>1756</ele>
        <time>2018-04-21T05:30:13.000Z</time>
      </trkpt>
      <trkpt lat="44.0795" lon="7.40448">
        <ele>1756</ele>
        <time>2018-04-21T05:30:15.000Z</time>
      </trkpt>
      <trkpt lat="44.0795" lon="7.40448">
        <ele>1756</ele>
        <time>2018-04-21T05:30:18.000Z</time>
      </trkpt>
      <trkpt lat="44.0795" lon="7.40447">
        <ele>1756</ele>
        <time>2018-04-21T05:30:22.000Z</time>
      </trkpt>
      <trkpt lat="44.07952" lon="7.40448">
        <ele>1756</ele>
        <time>2018-04-21T05:30:26.000Z</time>
      </trkpt>
      <trkpt lat="44.07954" lon="7.40449">
        <ele>1757</ele>
        <time>2018-04-21T05:30:27.000Z</time>
      </trkpt>
      <trkpt lat="44.07955" lon="7.4045">
        <ele>1757</ele>
        <time>2018-04-21T05:30:30.000Z</time>
      </trkpt>
      <trkpt lat="44.07957" lon="7.4045">
        <ele>1757</ele>
        <time>2018-04-21T05:30:33.000Z</time>
      </trkpt>
      <trkpt lat="44.07958" lon="7.4045">
        <ele>1757</ele>
        <time>2018-04-21T05:30:34.000Z</time>
      </trkpt>
      <trkpt lat="44.07959" lon="7.40451">
        <ele>1757</ele>
        <time>2018-04-21T05:30:35.000Z</time>
      </trkpt>
      <trkpt lat="44.07959" lon="7.40451">
        <ele>1757</ele>
        <time>2018-04-21T05:30:37.000Z</time>
      </trkpt>
      <trkpt lat="44.07961" lon="7.40451">
        <ele>1757</ele>
        <time>2018-04-21T05:30:38.000Z</time>
      </trkpt>
      <trkpt lat="44.07962" lon="7.4045">
        <ele>1757</ele>
        <time>2018-04-21T05:30:41.000Z</time>
      </trkpt>
      <trkpt lat="44.07964" lon="7.40449">
        <ele>1757</ele>
        <time>2018-04-21T05:30:43.000Z</time>
      </trkpt>
      <trkpt lat="44.07967" lon="7.40447">
        <ele>1757</ele>
        <time>2018-04-21T05:30:48.000Z</time>
      </trkpt>
      <trkpt lat="44.07968" lon="7.40447">
        <ele>1757</ele>
        <time>2018-04-21T05:30:49.000Z</time>
      </trkpt>
      <trkpt lat="44.07969" lon="7.40448">
        <ele>1757</ele>
        <time>2018-04-21T05:30:53.000Z</time>
      </trkpt>
      <trkpt lat="44.07972" lon="7.40449">
        <ele>1758</ele>
        <time>2018-04-21T05:30:56.000Z</time>
      </trkpt>
      <trkpt lat="44.07972" lon="7.40449">
        <ele>1758</ele>
        <time>2018-04-21T05:30:57.000Z</time>
      </trkpt>
      <trkpt lat="44.07974" lon="7.40447">
        <ele>1757</ele>
        <time>2018-04-21T05:31:02.000Z</time>
      </trkpt>
      <trkpt lat="44.07974" lon="7.40447">
        <ele>1757</ele>
        <time>2018-04-21T05:31:04.000Z</time>
      </trkpt>
      <trkpt lat="44.07976" lon="7.40447">
        <ele>1758</ele>
        <time>2018-04-21T05:31:07.000Z</time>
      </trkpt>
      <trkpt lat="44.07979" lon="7.40449">
        <ele>1758</ele>
        <time>2018-04-21T05:31:10.000Z</time>
      </trkpt>
      <trkpt lat="44.07983" lon="7.40452">
        <ele>1758</ele>
        <time>2018-04-21T05:31:15.000Z</time>
      </trkpt>
      <trkpt lat="44.07985" lon="7.40453">
        <ele>1759</ele>
        <time>2018-04-21T05:31:16.000Z</time>
      </trkpt>
      <trkpt lat="44.07987" lon="7.40453">
        <ele>1759</ele>
        <time>2018-04-21T05:31:18.000Z</time>
      </trkpt>
      <trkpt lat="44.07989" lon="7.40453">
        <ele>1759</ele>
        <time>2018-04-21T05:31:21.000Z</time>
      </trkpt>
      <trkpt lat="44.07991" lon="7.40452">
        <ele>1759</ele>
        <time>2018-04-21T05:31:25.000Z</time>
      </trkpt>
      <trkpt lat="44.07992" lon="7.40451">
        <ele>1759</ele>
        <time>2018-04-21T05:31:26.000Z</time>
      </trkpt>
      <trkpt lat="44.07994" lon="7.40449">
        <ele>1758</ele>
        <time>2018-04-21T05:31:30.000Z</time>
      </trkpt>
      <trkpt lat="44.07995" lon="7.40449">
        <ele>1758</ele>
        <time>2018-04-21T05:31:31.000Z</time>
      </trkpt>
      <trkpt lat="44.07995" lon="7.40449">
        <ele>1758</ele>
        <time>2018-04-21T05:31:33.000Z</time>
      </trkpt>
      <trkpt lat="44.08002" lon="7.40447">
        <ele>1766</ele>
        <time>2018-04-21T05:31:38.000Z</time>
      </trkpt>
      <trkpt lat="44.08006" lon="7.40444">
        <ele>1766</ele>
        <time>2018-04-21T05:31:43.000Z</time>
      </trkpt>
      <trkpt lat="44.0801" lon="7.40442">
        <ele>1766</ele>
        <time>2018-04-21T05:31:47.000Z</time>
      </trkpt>
      <trkpt lat="44.08014" lon="7.4044">
        <ele>1766</ele>
        <time>2018-04-21T05:31:52.000Z</time>
      </trkpt>
      <trkpt lat="44.08016" lon="7.40439">
        <ele>1766</ele>
        <time>2018-04-21T05:31:54.000Z</time>
      </trkpt>
      <trkpt lat="44.08018" lon="7.40437">
        <ele>1766</ele>
        <time>2018-04-21T05:31:57.000Z</time>
      </trkpt>
      <trkpt lat="44.08021" lon="7.40436">
        <ele>1766</ele>
        <time>2018-04-21T05:32:02.000Z</time>
      </trkpt>
      <trkpt lat="44.08026" lon="7.40433">
        <ele>1767</ele>
        <time>2018-04-21T05:32:07.000Z</time>
      </trkpt>
      <trkpt lat="44.0803" lon="7.40432">
        <ele>1767</ele>
        <time>2018-04-21T05:32:11.000Z</time>
      </trkpt>
      <trkpt lat="44.08032" lon="7.40429">
        <ele>1767</ele>
        <time>2018-04-21T05:32:15.000Z</time>
      </trkpt>
      <trkpt lat="44.08034" lon="7.40428">
        <ele>1768</ele>
        <time>2018-04-21T05:32:17.000Z</time>
      </trkpt>
      <trkpt lat="44.08039" lon="7.40424">
        <ele>1768</ele>
        <time>2018-04-21T05:32:23.000Z</time>
      </trkpt>
      <trkpt lat="44.08041" lon="7.40423">
        <ele>1768</ele>
        <time>2018-04-21T05:32:25.000Z</time>
      </trkpt>
      <trkpt lat="44.08044" lon="7.40421">
        <ele>1769</ele>
        <time>2018-04-21T05:32:29.000Z</time>
      </trkpt>
      <trkpt lat="44.08048" lon="7.40418">
        <ele>1769</ele>
        <time>2018-04-21T05:32:34.000Z</time>
      </trkpt>
      <trkpt lat="44.0805" lon="7.40417">
        <ele>1769</ele>
        <time>2018-04-21T05:32:36.000Z</time>
      </trkpt>
      <trkpt lat="44.08053" lon="7.40414">
        <ele>1756</ele>
        <time>2018-04-21T05:32:40.000Z</time>
      </trkpt>
      <trkpt lat="44.08058" lon="7.40411">
        <ele>1758</ele>
        <time>2018-04-21T05:32:46.000Z</time>
      </trkpt>
      <trkpt lat="44.08061" lon="7.40409">
        <ele>1758</ele>
        <time>2018-04-21T05:32:50.000Z</time>
      </trkpt>
      <trkpt lat="44.08062" lon="7.40408">
        <ele>1758</ele>
        <time>2018-04-21T05:32:51.000Z</time>
      </trkpt>
      <trkpt lat="44.08065" lon="7.40407">
        <ele>1759</ele>
        <time>2018-04-21T05:32:55.000Z</time>
      </trkpt>
      <trkpt lat="44.0807" lon="7.40404">
        <ele>1760</ele>
        <time>2018-04-21T05:33:00.000Z</time>
      </trkpt>
      <trkpt lat="44.08071" lon="7.40402">
        <ele>1760</ele>
        <time>2018-04-21T05:33:02.000Z</time>
      </trkpt>
      <trkpt lat="44.08073" lon="7.404">
        <ele>1759</ele>
        <time>2018-04-21T05:33:04.000Z</time>
      </trkpt>
      <trkpt lat="44.08074" lon="7.40397">
        <ele>1759</ele>
        <time>2018-04-21T05:33:06.000Z</time>
      </trkpt>
      <trkpt lat="44.08075" lon="7.40392">
        <ele>1757</ele>
        <time>2018-04-21T05:33:11.000Z</time>
      </trkpt>
      <trkpt lat="44.08078" lon="7.40393">
        <ele>1758</ele>
        <time>2018-04-21T05:33:16.000Z</time>
      </trkpt>
      <trkpt lat="44.08083" lon="7.40393">
        <ele>1758</ele>
        <time>2018-04-21T05:33:21.000Z</time>
      </trkpt>
      <trkpt lat="44.08087" lon="7.40392">
        <ele>1767</ele>
        <time>2018-04-21T05:33:26.000Z</time>
      </trkpt>
      <trkpt lat="44.08091" lon="7.40391">
        <ele>1767</ele>
        <time>2018-04-21T05:33:30.000Z</time>
      </trkpt>
      <trkpt lat="44.08096" lon="7.40388">
        <ele>1767</ele>
        <time>2018-04-21T05:33:35.000Z</time>
      </trkpt>
      <trkpt lat="44.08101" lon="7.40385">
        <ele>1766</ele>
        <time>2018-04-21T05:33:41.000Z</time>
      </trkpt>
      <trkpt lat="44.08104" lon="7.40382">
        <ele>1766</ele>
        <time>2018-04-21T05:33:45.000Z</time>
      </trkpt>
      <trkpt lat="44.08108" lon="7.4038">
        <ele>1766</ele>
        <time>2018-04-21T05:33:49.000Z</time>
      </trkpt>
      <trkpt lat="44.08113" lon="7.40378">
        <ele>1766</ele>
        <time>2018-04-21T05:33:54.000Z</time>
      </trkpt>
      <trkpt lat="44.08114" lon="7.40377">
        <ele>1766</ele>
        <time>2018-04-21T05:33:56.000Z</time>
      </trkpt>
      <trkpt lat="44.08116" lon="7.40376">
        <ele>1766</ele>
        <time>2018-04-21T05:33:58.000Z</time>
      </trkpt>
      <trkpt lat="44.0812" lon="7.40376">
        <ele>1766</ele>
        <time>2018-04-21T05:34:03.000Z</time>
      </trkpt>
      <trkpt lat="44.08124" lon="7.40376">
        <ele>1767</ele>
        <time>2018-04-21T05:34:07.000Z</time>
      </trkpt>
      <trkpt lat="44.08129" lon="7.40377">
        <ele>1767</ele>
        <time>2018-04-21T05:34:13.000Z</time>
      </trkpt>
      <trkpt lat="44.08133" lon="7.40376">
        <ele>1768</ele>
        <time>2018-04-21T05:34:18.000Z</time>
      </trkpt>
      <trkpt lat="44.08133" lon="7.40376">
        <ele>1768</ele>
        <time>2018-04-21T05:34:19.000Z</time>
      </trkpt>
      <trkpt lat="44.08138" lon="7.40375">
        <ele>1768</ele>
        <time>2018-04-21T05:34:25.000Z</time>
      </trkpt>
      <trkpt lat="44.08141" lon="7.40375">
        <ele>1768</ele>
        <time>2018-04-21T05:34:28.000Z</time>
      </trkpt>
      <trkpt lat="44.08142" lon="7.40376">
        <ele>1768</ele>
        <time>2018-04-21T05:34:29.000Z</time>
      </trkpt>
      <trkpt lat="44.08143" lon="7.40377">
        <ele>1768</ele>
        <time>2018-04-21T05:34:31.000Z</time>
      </trkpt>
      <trkpt lat="44.08148" lon="7.40377">
        <ele>1769</ele>
        <time>2018-04-21T05:34:36.000Z</time>
      </trkpt>
      <trkpt lat="44.08152" lon="7.40378">
        <ele>1769</ele>
        <time>2018-04-21T05:34:41.000Z</time>
      </trkpt>
      <trkpt lat="44.08155" lon="7.40377">
        <ele>1769</ele>
        <time>2018-04-21T05:34:45.000Z</time>
      </trkpt>
      <trkpt lat="44.08159" lon="7.40378">
        <ele>1770</ele>
        <time>2018-04-21T05:34:50.000Z</time>
      </trkpt>
      <trkpt lat="44.08161" lon="7.40379">
        <ele>1770</ele>
        <time>2018-04-21T05:34:52.000Z</time>
      </trkpt>
      <trkpt lat="44.08163" lon="7.40379">
        <ele>1770</ele>
        <time>2018-04-21T05:34:54.000Z</time>
      </trkpt>
      <trkpt lat="44.08166" lon="7.40379">
        <ele>1770</ele>
        <time>2018-04-21T05:34:58.000Z</time>
      </trkpt>
      <trkpt lat="44.0817" lon="7.40379">
        <ele>1779</ele>
        <time>2018-04-21T05:35:03.000Z</time>
      </trkpt>
      <trkpt lat="44.08171" lon="7.40379">
        <ele>1779</ele>
        <time>2018-04-21T05:35:05.000Z</time>
      </trkpt>
      <trkpt lat="44.08173" lon="7.40379">
        <ele>1779</ele>
        <time>2018-04-21T05:35:08.000Z</time>
      </trkpt>
      <trkpt lat="44.08176" lon="7.4038">
        <ele>1779</ele>
        <time>2018-04-21T05:35:14.000Z</time>
      </trkpt>
      <trkpt lat="44.08179" lon="7.4038">
        <ele>1779</ele>
        <time>2018-04-21T05:35:20.000Z</time>
      </trkpt>
      <trkpt lat="44.08179" lon="7.4038">
        <ele>1779</ele>
        <time>2018-04-21T05:35:21.000Z</time>
      </trkpt>
      <trkpt lat="44.08183" lon="7.40379">
        <ele>1779</ele>
        <time>2018-04-21T05:35:26.000Z</time>
      </trkpt>
      <trkpt lat="44.08187" lon="7.40378">
        <ele>1780</ele>
        <time>2018-04-21T05:35:30.000Z</time>
      </trkpt>
      <trkpt lat="44.08189" lon="7.40379">
        <ele>1780</ele>
        <time>2018-04-21T05:35:37.000Z</time>
      </trkpt>
      <trkpt lat="44.0819" lon="7.4038">
        <ele>1780</ele>
        <time>2018-04-21T05:35:43.000Z</time>
      </trkpt>
      <trkpt lat="44.08192" lon="7.40379">
        <ele>1780</ele>
        <time>2018-04-21T05:35:48.000Z</time>
      </trkpt>
      <trkpt lat="44.08194" lon="7.40377">
        <ele>1780</ele>
        <time>2018-04-21T05:35:51.000Z</time>
      </trkpt>
      <trkpt lat="44.08198" lon="7.40373">
        <ele>1780</ele>
        <time>2018-04-21T05:35:56.000Z</time>
      </trkpt>
      <trkpt lat="44.08201" lon="7.40372">
        <ele>1780</ele>
        <time>2018-04-21T05:36:01.000Z</time>
      </trkpt>
      <trkpt lat="44.08203" lon="7.4037">
        <ele>1780</ele>
        <time>2018-04-21T05:36:04.000Z</time>
      </trkpt>
      <trkpt lat="44.08203" lon="7.4037">
        <ele>1780</ele>
        <time>2018-04-21T05:36:07.000Z</time>
      </trkpt>
      <trkpt lat="44.08204" lon="7.40369">
        <ele>1780</ele>
        <time>2018-04-21T05:36:14.000Z</time>
      </trkpt>
      <trkpt lat="44.08205" lon="7.40368">
        <ele>1780</ele>
        <time>2018-04-21T05:36:19.000Z</time>
      </trkpt>
      <trkpt lat="44.08207" lon="7.40368">
        <ele>1780</ele>
        <time>2018-04-21T05:36:22.000Z</time>
      </trkpt>
      <trkpt lat="44.08208" lon="7.40368">
        <ele>1780</ele>
        <time>2018-04-21T05:36:24.000Z</time>
      </trkpt>
      <trkpt lat="44.08212" lon="7.40368">
        <ele>1780</ele>
        <time>2018-04-21T05:36:28.000Z</time>
      </trkpt>
      <trkpt lat="44.08214" lon="7.40368">
        <ele>1780</ele>
        <time>2018-04-21T05:36:30.000Z</time>
      </trkpt>
      <trkpt lat="44.08215" lon="7.40367">
        <ele>1780</ele>
        <time>2018-04-21T05:36:32.000Z</time>
      </trkpt>
      <trkpt lat="44.08219" lon="7.40365">
        <ele>1780</ele>
        <time>2018-04-21T05:36:37.000Z</time>
      </trkpt>
      <trkpt lat="44.08222" lon="7.40363">
        <ele>1780</ele>
        <time>2018-04-21T05:36:39.000Z</time>
      </trkpt>
      <trkpt lat="44.08224" lon="7.4036">
        <ele>1780</ele>
        <time>2018-04-21T05:36:42.000Z</time>
      </trkpt>
      <trkpt lat="44.08229" lon="7.40355">
        <ele>1780</ele>
        <time>2018-04-21T05:36:48.000Z</time>
      </trkpt>
      <trkpt lat="44.08233" lon="7.40352">
        <ele>1779</ele>
        <time>2018-04-21T05:36:53.000Z</time>
      </trkpt>
      <trkpt lat="44.08237" lon="7.4035">
        <ele>1779</ele>
        <time>2018-04-21T05:36:57.000Z</time>
      </trkpt>
      <trkpt lat="44.08237" lon="7.40349">
        <ele>1779</ele>
        <time>2018-04-21T05:36:58.000Z</time>
      </trkpt>
      <trkpt lat="44.08241" lon="7.40348">
        <ele>1779</ele>
        <time>2018-04-21T05:37:02.000Z</time>
      </trkpt>
      <trkpt lat="44.08243" lon="7.40347">
        <ele>1779</ele>
        <time>2018-04-21T05:37:05.000Z</time>
      </trkpt>
      <trkpt lat="44.08244" lon="7.40347">
        <ele>1779</ele>
        <time>2018-04-21T05:37:06.000Z</time>
      </trkpt>
      <trkpt lat="44.08246" lon="7.40346">
        <ele>1779</ele>
        <time>2018-04-21T05:37:08.000Z</time>
      </trkpt>
      <trkpt lat="44.08249" lon="7.40343">
        <ele>1778</ele>
        <time>2018-04-21T05:37:11.000Z</time>
      </trkpt>
      <trkpt lat="44.08253" lon="7.40342">
        <ele>1783</ele>
        <time>2018-04-21T05:37:16.000Z</time>
      </trkpt>
      <trkpt lat="44.08258" lon="7.4034">
        <ele>1784</ele>
        <time>2018-04-21T05:37:21.000Z</time>
      </trkpt>
      <trkpt lat="44.08264" lon="7.40338">
        <ele>1786</ele>
        <time>2018-04-21T05:37:27.000Z</time>
      </trkpt>
      <trkpt lat="44.08263" lon="7.40338">
        <ele>1786</ele>
        <time>2018-04-21T05:37:28.000Z</time>
      </trkpt>
      <trkpt lat="44.08267" lon="7.40336">
        <ele>1787</ele>
        <time>2018-04-21T05:37:32.000Z</time>
      </trkpt>
      <trkpt lat="44.08268" lon="7.40336">
        <ele>1787</ele>
        <time>2018-04-21T05:37:37.000Z</time>
      </trkpt>
      <trkpt lat="44.08274" lon="7.40334">
        <ele>1789</ele>
        <time>2018-04-21T05:37:44.000Z</time>
      </trkpt>
      <trkpt lat="44.08275" lon="7.40333">
        <ele>1790</ele>
        <time>2018-04-21T05:37:46.000Z</time>
      </trkpt>
      <trkpt lat="44.08278" lon="7.40332">
        <ele>1781</ele>
        <time>2018-04-21T05:37:49.000Z</time>
      </trkpt>
      <trkpt lat="44.08281" lon="7.40332">
        <ele>1781</ele>
        <time>2018-04-21T05:37:53.000Z</time>
      </trkpt>
      <trkpt lat="44.08282" lon="7.40332">
        <ele>1781</ele>
        <time>2018-04-21T05:37:54.000Z</time>
      </trkpt>
      <trkpt lat="44.08285" lon="7.4033">
        <ele>1782</ele>
        <time>2018-04-21T05:37:58.000Z</time>
      </trkpt>
      <trkpt lat="44.08291" lon="7.40329">
        <ele>1783</ele>
        <time>2018-04-21T05:38:04.000Z</time>
      </trkpt>
      <trkpt lat="44.08293" lon="7.40328">
        <ele>1783</ele>
        <time>2018-04-21T05:38:06.000Z</time>
      </trkpt>
      <trkpt lat="44.08296" lon="7.40327">
        <ele>1784</ele>
        <time>2018-04-21T05:38:08.000Z</time>
      </trkpt>
      <trkpt lat="44.083" lon="7.40327">
        <ele>1785</ele>
        <time>2018-04-21T05:38:12.000Z</time>
      </trkpt>
      <trkpt lat="44.08305" lon="7.40328">
        <ele>1786</ele>
        <time>2018-04-21T05:38:17.000Z</time>
      </trkpt>
      <trkpt lat="44.08308" lon="7.40328">
        <ele>1787</ele>
        <time>2018-04-21T05:38:22.000Z</time>
      </trkpt>
      <trkpt lat="44.08311" lon="7.40326">
        <ele>1787</ele>
        <time>2018-04-21T05:38:28.000Z</time>
      </trkpt>
      <trkpt lat="44.08311" lon="7.40325">
        <ele>1787</ele>
        <time>2018-04-21T05:38:37.000Z</time>
      </trkpt>
      <trkpt lat="44.08311" lon="7.40325">
        <ele>1787</ele>
        <time>2018-04-21T05:38:42.000Z</time>
      </trkpt>
      <trkpt lat="44.08311" lon="7.40325">
        <ele>1787</ele>
        <time>2018-04-21T05:38:44.000Z</time>
      </trkpt>
      <trkpt lat="44.0831" lon="7.40324">
        <ele>1787</ele>
        <time>2018-04-21T05:38:50.000Z</time>
      </trkpt>
      <trkpt lat="44.0831" lon="7.40324">
        <ele>1787</ele>
        <time>2018-04-21T05:38:51.000Z</time>
      </trkpt>
      <trkpt lat="44.08312" lon="7.40319">
        <ele>1787</ele>
        <time>2018-04-21T05:38:56.000Z</time>
      </trkpt>
      <trkpt lat="44.08314" lon="7.40318">
        <ele>1787</ele>
        <time>2018-04-21T05:38:57.000Z</time>
      </trkpt>
      <trkpt lat="44.08317" lon="7.40317">
        <ele>1787</ele>
        <time>2018-04-21T05:39:01.000Z</time>
      </trkpt>
      <trkpt lat="44.08321" lon="7.40313">
        <ele>1787</ele>
        <time>2018-04-21T05:39:07.000Z</time>
      </trkpt>
      <trkpt lat="44.08323" lon="7.40311">
        <ele>1787</ele>
        <time>2018-04-21T05:39:10.000Z</time>
      </trkpt>
      <trkpt lat="44.08326" lon="7.40308">
        <ele>1787</ele>
        <time>2018-04-21T05:39:14.000Z</time>
      </trkpt>
      <trkpt lat="44.08328" lon="7.40307">
        <ele>1786</ele>
        <time>2018-04-21T05:39:16.000Z</time>
      </trkpt>
      <trkpt lat="44.08331" lon="7.40303">
        <ele>1786</ele>
        <time>2018-04-21T05:39:20.000Z</time>
      </trkpt>
      <trkpt lat="44.08331" lon="7.40302">
        <ele>1786</ele>
        <time>2018-04-21T05:39:21.000Z</time>
      </trkpt>
      <trkpt lat="44.08332" lon="7.40301">
        <ele>1786</ele>
        <time>2018-04-21T05:39:27.000Z</time>
      </trkpt>
      <trkpt lat="44.08332" lon="7.40302">
        <ele>1786</ele>
        <time>2018-04-21T05:39:34.000Z</time>
      </trkpt>
      <trkpt lat="44.08332" lon="7.40302">
        <ele>1786</ele>
        <time>2018-04-21T05:39:36.000Z</time>
      </trkpt>
      <trkpt lat="44.08332" lon="7.40301">
        <ele>1786</ele>
        <time>2018-04-21T05:39:44.000Z</time>
      </trkpt>
      <trkpt lat="44.08332" lon="7.40302">
        <ele>1786</ele>
        <time>2018-04-21T05:39:53.000Z</time>
      </trkpt>
      <trkpt lat="44.08332" lon="7.40301">
        <ele>1786</ele>
        <time>2018-04-21T05:39:59.000Z</time>
      </trkpt>
      <trkpt lat="44.08333" lon="7.40302">
        <ele>1786</ele>
        <time>2018-04-21T05:40:07.000Z</time>
      </trkpt>
      <trkpt lat="44.08334" lon="7.403">
        <ele>1794</ele>
        <time>2018-04-21T05:40:12.000Z</time>
      </trkpt>
      <trkpt lat="44.08336" lon="7.40299">
        <ele>1794</ele>
        <time>2018-04-21T05:40:15.000Z</time>
      </trkpt>
      <trkpt lat="44.08338" lon="7.40297">
        <ele>1794</ele>
        <time>2018-04-21T05:40:17.000Z</time>
      </trkpt>
      <trkpt lat="44.08339" lon="7.40296">
        <ele>1794</ele>
        <time>2018-04-21T05:40:19.000Z</time>
      </trkpt>
      <trkpt lat="44.08345" lon="7.40295">
        <ele>1794</ele>
        <time>2018-04-21T05:40:24.000Z</time>
      </trkpt>
      <trkpt lat="44.08349" lon="7.40294">
        <ele>1794</ele>
        <time>2018-04-21T05:40:28.000Z</time>
      </trkpt>
      <trkpt lat="44.08351" lon="7.40294">
        <ele>1794</ele>
        <time>2018-04-21T05:40:30.000Z</time>
      </trkpt>
      <trkpt lat="44.08353" lon="7.40293">
        <ele>1794</ele>
        <time>2018-04-21T05:40:32.000Z</time>
      </trkpt>
      <trkpt lat="44.08354" lon="7.40293">
        <ele>1794</ele>
        <time>2018-04-21T05:40:34.000Z</time>
      </trkpt>
      <trkpt lat="44.08358" lon="7.40292">
        <ele>1794</ele>
        <time>2018-04-21T05:40:36.000Z</time>
      </trkpt>
      <trkpt lat="44.08361" lon="7.40291">
        <ele>1794</ele>
        <time>2018-04-21T05:40:39.000Z</time>
      </trkpt>
      <trkpt lat="44.08367" lon="7.4029">
        <ele>1794</ele>
        <time>2018-04-21T05:40:44.000Z</time>
      </trkpt>
      <trkpt lat="44.08372" lon="7.40289">
        <ele>1794</ele>
        <time>2018-04-21T05:40:48.000Z</time>
      </trkpt>
      <trkpt lat="44.08377" lon="7.40288">
        <ele>1795</ele>
        <time>2018-04-21T05:40:52.000Z</time>
      </trkpt>
      <trkpt lat="44.08378" lon="7.40288">
        <ele>1795</ele>
        <time>2018-04-21T05:40:53.000Z</time>
      </trkpt>
      <trkpt lat="44.08382" lon="7.40288">
        <ele>1795</ele>
        <time>2018-04-21T05:40:56.000Z</time>
      </trkpt>
      <trkpt lat="44.08389" lon="7.40288">
        <ele>1795</ele>
        <time>2018-04-21T05:41:03.000Z</time>
      </trkpt>
      <trkpt lat="44.08392" lon="7.40288">
        <ele>1796</ele>
        <time>2018-04-21T05:41:09.000Z</time>
      </trkpt>
      <trkpt lat="44.08397" lon="7.40288">
        <ele>1796</ele>
        <time>2018-04-21T05:41:13.000Z</time>
      </trkpt>
      <trkpt lat="44.08403" lon="7.40288">
        <ele>1796</ele>
        <time>2018-04-21T05:41:19.000Z</time>
      </trkpt>
      <trkpt lat="44.08406" lon="7.40288">
        <ele>1796</ele>
        <time>2018-04-21T05:41:24.000Z</time>
      </trkpt>
      <trkpt lat="44.08406" lon="7.40288">
        <ele>1796</ele>
        <time>2018-04-21T05:41:25.000Z</time>
      </trkpt>
      <trkpt lat="44.08405" lon="7.40287">
        <ele>1796</ele>
        <time>2018-04-21T05:41:35.000Z</time>
      </trkpt>
      <trkpt lat="44.08405" lon="7.40287">
        <ele>1796</ele>
        <time>2018-04-21T05:41:40.000Z</time>
      </trkpt>
      <trkpt lat="44.08406" lon="7.40288">
        <ele>1796</ele>
        <time>2018-04-21T05:41:45.000Z</time>
      </trkpt>
      <trkpt lat="44.08407" lon="7.40288">
        <ele>1796</ele>
        <time>2018-04-21T05:41:46.000Z</time>
      </trkpt>
      <trkpt lat="44.08408" lon="7.40292">
        <ele>1797</ele>
        <time>2018-04-21T05:41:49.000Z</time>
      </trkpt>
      <trkpt lat="44.0841" lon="7.40293">
        <ele>1797</ele>
        <time>2018-04-21T05:41:51.000Z</time>
      </trkpt>
      <trkpt lat="44.08409" lon="7.40293">
        <ele>1797</ele>
        <time>2018-04-21T05:41:52.000Z</time>
      </trkpt>
      <trkpt lat="44.08412" lon="7.40294">
        <ele>1797</ele>
        <time>2018-04-21T05:41:54.000Z</time>
      </trkpt>
      <trkpt lat="44.08416" lon="7.40296">
        <ele>1798</ele>
        <time>2018-04-21T05:42:00.000Z</time>
      </trkpt>
      <trkpt lat="44.08418" lon="7.40296">
        <ele>1805</ele>
        <time>2018-04-21T05:42:02.000Z</time>
      </trkpt>
      <trkpt lat="44.08419" lon="7.40297">
        <ele>1805</ele>
        <time>2018-04-21T05:42:04.000Z</time>
      </trkpt>
      <trkpt lat="44.08419" lon="7.40296">
        <ele>1805</ele>
        <time>2018-04-21T05:42:05.000Z</time>
      </trkpt>
      <trkpt lat="44.0842" lon="7.40301">
        <ele>1806</ele>
        <time>2018-04-21T05:42:10.000Z</time>
      </trkpt>
      <trkpt lat="44.08419" lon="7.40303">
        <ele>1806</ele>
        <time>2018-04-21T05:42:14.000Z</time>
      </trkpt>
      <trkpt lat="44.08418" lon="7.40303">
        <ele>1806</ele>
        <time>2018-04-21T05:42:16.000Z</time>
      </trkpt>
      <trkpt lat="44.08419" lon="7.40304">
        <ele>1807</ele>
        <time>2018-04-21T05:42:22.000Z</time>
      </trkpt>
      <trkpt lat="44.08419" lon="7.40305">
        <ele>1807</ele>
        <time>2018-04-21T05:42:23.000Z</time>
      </trkpt>
      <trkpt lat="44.0842" lon="7.40305">
        <ele>1807</ele>
        <time>2018-04-21T05:42:27.000Z</time>
      </trkpt>
      <trkpt lat="44.0842" lon="7.40305">
        <ele>1807</ele>
        <time>2018-04-21T05:42:30.000Z</time>
      </trkpt>
      <trkpt lat="44.0842" lon="7.40305">
        <ele>1807</ele>
        <time>2018-04-21T05:42:40.000Z</time>
      </trkpt>
      <trkpt lat="44.0842" lon="7.40305">
        <ele>1807</ele>
        <time>2018-04-21T05:42:51.000Z</time>
      </trkpt>
      <trkpt lat="44.08421" lon="7.40306">
        <ele>1807</ele>
        <time>2018-04-21T05:43:00.000Z</time>
      </trkpt>
      <trkpt lat="44.08422" lon="7.40305">
        <ele>1807</ele>
        <time>2018-04-21T05:43:05.000Z</time>
      </trkpt>
      <trkpt lat="44.08422" lon="7.40304">
        <ele>1807</ele>
        <time>2018-04-21T05:43:12.000Z</time>
      </trkpt>
      <trkpt lat="44.08424" lon="7.40305">
        <ele>1807</ele>
        <time>2018-04-21T05:43:18.000Z</time>
      </trkpt>
      <trkpt lat="44.08424" lon="7.40306">
        <ele>1807</ele>
        <time>2018-04-21T05:43:19.000Z</time>
      </trkpt>
      <trkpt lat="44.08427" lon="7.40308">
        <ele>1807</ele>
        <time>2018-04-21T05:43:24.000Z</time>
      </trkpt>
      <trkpt lat="44.08429" lon="7.4031">
        <ele>1808</ele>
        <time>2018-04-21T05:43:28.000Z</time>
      </trkpt>
      <trkpt lat="44.08431" lon="7.40311">
        <ele>1808</ele>
        <time>2018-04-21T05:43:32.000Z</time>
      </trkpt>
      <trkpt lat="44.08432" lon="7.40312">
        <ele>1808</ele>
        <time>2018-04-21T05:43:35.000Z</time>
      </trkpt>
      <trkpt lat="44.08432" lon="7.40313">
        <ele>1808</ele>
        <time>2018-04-21T05:43:37.000Z</time>
      </trkpt>
      <trkpt lat="44.08434" lon="7.40316">
        <ele>1808</ele>
        <time>2018-04-21T05:43:44.000Z</time>
      </trkpt>
      <trkpt lat="44.08434" lon="7.40316">
        <ele>1808</ele>
        <time>2018-04-21T05:43:45.000Z</time>
      </trkpt>
      <trkpt lat="44.08435" lon="7.40316">
        <ele>1808</ele>
        <time>2018-04-21T05:43:51.000Z</time>
      </trkpt>
      <trkpt lat="44.08435" lon="7.40316">
        <ele>1808</ele>
        <time>2018-04-21T05:43:53.000Z</time>
      </trkpt>
      <trkpt lat="44.08435" lon="7.40317">
        <ele>1809</ele>
        <time>2018-04-21T05:43:57.000Z</time>
      </trkpt>
      <trkpt lat="44.08437" lon="7.40319">
        <ele>1809</ele>
        <time>2018-04-21T05:44:02.000Z</time>
      </trkpt>
      <trkpt lat="44.08438" lon="7.4032">
        <ele>1809</ele>
        <time>2018-04-21T05:44:06.000Z</time>
      </trkpt>
      <trkpt lat="44.08439" lon="7.40321">
        <ele>1809</ele>
        <time>2018-04-21T05:44:07.000Z</time>
      </trkpt>
      <trkpt lat="44.08441" lon="7.40322">
        <ele>1809</ele>
        <time>2018-04-21T05:44:12.000Z</time>
      </trkpt>
      <trkpt lat="44.08441" lon="7.40323">
        <ele>1809</ele>
        <time>2018-04-21T05:44:14.000Z</time>
      </trkpt>
      <trkpt lat="44.08441" lon="7.40324">
        <ele>1809</ele>
        <time>2018-04-21T05:44:18.000Z</time>
      </trkpt>
      <trkpt lat="44.08441" lon="7.40324">
        <ele>1809</ele>
        <time>2018-04-21T05:44:20.000Z</time>
      </trkpt>
      <trkpt lat="44.08441" lon="7.40324">
        <ele>1809</ele>
        <time>2018-04-21T05:44:30.000Z</time>
      </trkpt>
      <trkpt lat="44.08441" lon="7.40325">
        <ele>1809</ele>
        <time>2018-04-21T05:44:35.000Z</time>
      </trkpt>
      <trkpt lat="44.08441" lon="7.40326">
        <ele>1809</ele>
        <time>2018-04-21T05:44:44.000Z</time>
      </trkpt>
      <trkpt lat="44.08441" lon="7.40326">
        <ele>1809</ele>
        <time>2018-04-21T05:44:48.000Z</time>
      </trkpt>
      <trkpt lat="44.08441" lon="7.40326">
        <ele>1809</ele>
        <time>2018-04-21T05:44:50.000Z</time>
      </trkpt>
      <trkpt lat="44.08439" lon="7.40327">
        <ele>1809</ele>
        <time>2018-04-21T05:44:55.000Z</time>
      </trkpt>
      <trkpt lat="44.08436" lon="7.40329">
        <ele>1810</ele>
        <time>2018-04-21T05:45:02.000Z</time>
      </trkpt>
      <trkpt lat="44.08435" lon="7.40331">
        <ele>1810</ele>
        <time>2018-04-21T05:45:06.000Z</time>
      </trkpt>
      <trkpt lat="44.08436" lon="7.40331">
        <ele>1810</ele>
        <time>2018-04-21T05:45:08.000Z</time>
      </trkpt>
      <trkpt lat="44.08437" lon="7.40331">
        <ele>1810</ele>
        <time>2018-04-21T05:45:16.000Z</time>
      </trkpt>
      <trkpt lat="44.08439" lon="7.40331">
        <ele>1810</ele>
        <time>2018-04-21T05:45:18.000Z</time>
      </trkpt>
      <trkpt lat="44.08441" lon="7.40332">
        <ele>1810</ele>
        <time>2018-04-21T05:45:21.000Z</time>
      </trkpt>
      <trkpt lat="44.08441" lon="7.40332">
        <ele>1810</ele>
        <time>2018-04-21T05:45:22.000Z</time>
      </trkpt>
      <trkpt lat="44.08443" lon="7.40332">
        <ele>1810</ele>
        <time>2018-04-21T05:45:25.000Z</time>
      </trkpt>
      <trkpt lat="44.08444" lon="7.40331">
        <ele>1810</ele>
        <time>2018-04-21T05:45:28.000Z</time>
      </trkpt>
      <trkpt lat="44.08446" lon="7.40332">
        <ele>1810</ele>
        <time>2018-04-21T05:45:29.000Z</time>
      </trkpt>
      <trkpt lat="44.08449" lon="7.40332">
        <ele>1810</ele>
        <time>2018-04-21T05:45:34.000Z</time>
      </trkpt>
      <trkpt lat="44.08449" lon="7.40332">
        <ele>1810</ele>
        <time>2018-04-21T05:45:35.000Z</time>
      </trkpt>
      <trkpt lat="44.08452" lon="7.40333">
        <ele>1810</ele>
        <time>2018-04-21T05:45:40.000Z</time>
      </trkpt>
      <trkpt lat="44.08455" lon="7.40334">
        <ele>1823</ele>
        <time>2018-04-21T05:45:43.000Z</time>
      </trkpt>
      <trkpt lat="44.08455" lon="7.40334">
        <ele>1823</ele>
        <time>2018-04-21T05:45:44.000Z</time>
      </trkpt>
      <trkpt lat="44.08458" lon="7.40336">
        <ele>1824</ele>
        <time>2018-04-21T05:45:50.000Z</time>
      </trkpt>
      <trkpt lat="44.0846" lon="7.40337">
        <ele>1824</ele>
        <time>2018-04-21T05:45:54.000Z</time>
      </trkpt>
      <trkpt lat="44.08461" lon="7.40337">
        <ele>1824</ele>
        <time>2018-04-21T05:45:59.000Z</time>
      </trkpt>
      <trkpt lat="44.08465" lon="7.40339">
        <ele>1824</ele>
        <time>2018-04-21T05:46:05.000Z</time>
      </trkpt>
      <trkpt lat="44.08467" lon="7.40341">
        <ele>1824</ele>
        <time>2018-04-21T05:46:09.000Z</time>
      </trkpt>
      <trkpt lat="44.0847" lon="7.40343">
        <ele>1825</ele>
        <time>2018-04-21T05:46:15.000Z</time>
      </trkpt>
      <trkpt lat="44.08471" lon="7.40343">
        <ele>1825</ele>
        <time>2018-04-21T05:46:18.000Z</time>
      </trkpt>
      <trkpt lat="44.08474" lon="7.40343">
        <ele>1825</ele>
        <time>2018-04-21T05:46:21.000Z</time>
      </trkpt>
      <trkpt lat="44.08475" lon="7.40343">
        <ele>1825</ele>
        <time>2018-04-21T05:46:24.000Z</time>
      </trkpt>
      <trkpt lat="44.08477" lon="7.40343">
        <ele>1825</ele>
        <time>2018-04-21T05:46:26.000Z</time>
      </trkpt>
      <trkpt lat="44.08479" lon="7.40344">
        <ele>1825</ele>
        <time>2018-04-21T05:46:30.000Z</time>
      </trkpt>
      <trkpt lat="44.0848" lon="7.40344">
        <ele>1825</ele>
        <time>2018-04-21T05:46:32.000Z</time>
      </trkpt>
      <trkpt lat="44.08483" lon="7.40346">
        <ele>1825</ele>
        <time>2018-04-21T05:46:37.000Z</time>
      </trkpt>
      <trkpt lat="44.08485" lon="7.40348">
        <ele>1825</ele>
        <time>2018-04-21T05:46:41.000Z</time>
      </trkpt>
      <trkpt lat="44.08485" lon="7.40349">
        <ele>1825</ele>
        <time>2018-04-21T05:46:42.000Z</time>
      </trkpt>
      <trkpt lat="44.08487" lon="7.40353">
        <ele>1825</ele>
        <time>2018-04-21T05:46:47.000Z</time>
      </trkpt>
      <trkpt lat="44.08488" lon="7.40357">
        <ele>1826</ele>
        <time>2018-04-21T05:46:52.000Z</time>
      </trkpt>
      <trkpt lat="44.08488" lon="7.40356">
        <ele>1826</ele>
        <time>2018-04-21T05:46:53.000Z</time>
      </trkpt>
      <trkpt lat="44.08489" lon="7.40358">
        <ele>1826</ele>
        <time>2018-04-21T05:46:54.000Z</time>
      </trkpt>
      <trkpt lat="44.08491" lon="7.40361">
        <ele>1827</ele>
        <time>2018-04-21T05:46:58.000Z</time>
      </trkpt>
      <trkpt lat="44.08492" lon="7.40362">
        <ele>1827</ele>
        <time>2018-04-21T05:47:00.000Z</time>
      </trkpt>
      <trkpt lat="44.08495" lon="7.40364">
        <ele>1827</ele>
        <time>2018-04-21T05:47:03.000Z</time>
      </trkpt>
      <trkpt lat="44.08495" lon="7.40365">
        <ele>1827</ele>
        <time>2018-04-21T05:47:04.000Z</time>
      </trkpt>
      <trkpt lat="44.08499" lon="7.40368">
        <ele>1828</ele>
        <time>2018-04-21T05:47:11.000Z</time>
      </trkpt>
      <trkpt lat="44.085" lon="7.40369">
        <ele>1828</ele>
        <time>2018-04-21T05:47:13.000Z</time>
      </trkpt>
      <trkpt lat="44.08501" lon="7.4037">
        <ele>1837</ele>
        <time>2018-04-21T05:47:17.000Z</time>
      </trkpt>
      <trkpt lat="44.08502" lon="7.4037">
        <ele>1837</ele>
        <time>2018-04-21T05:47:19.000Z</time>
      </trkpt>
      <trkpt lat="44.08502" lon="7.4037">
        <ele>1837</ele>
        <time>2018-04-21T05:47:21.000Z</time>
      </trkpt>
      <trkpt lat="44.08504" lon="7.40371">
        <ele>1838</ele>
        <time>2018-04-21T05:47:24.000Z</time>
      </trkpt>
      <trkpt lat="44.08505" lon="7.40371">
        <ele>1838</ele>
        <time>2018-04-21T05:47:27.000Z</time>
      </trkpt>
      <trkpt lat="44.08506" lon="7.40373">
        <ele>1838</ele>
        <time>2018-04-21T05:47:31.000Z</time>
      </trkpt>
      <trkpt lat="44.08507" lon="7.40373">
        <ele>1838</ele>
        <time>2018-04-21T05:47:33.000Z</time>
      </trkpt>
      <trkpt lat="44.08508" lon="7.40373">
        <ele>1838</ele>
        <time>2018-04-21T05:47:38.000Z</time>
      </trkpt>
      <trkpt lat="44.08509" lon="7.40373">
        <ele>1838</ele>
        <time>2018-04-21T05:47:40.000Z</time>
      </trkpt>
      <trkpt lat="44.08511" lon="7.40373">
        <ele>1839</ele>
        <time>2018-04-21T05:47:45.000Z</time>
      </trkpt>
      <trkpt lat="44.08513" lon="7.4037">
        <ele>1838</ele>
        <time>2018-04-21T05:47:50.000Z</time>
      </trkpt>
      <trkpt lat="44.08514" lon="7.40368">
        <ele>1838</ele>
        <time>2018-04-21T05:47:53.000Z</time>
      </trkpt>
      <trkpt lat="44.08515" lon="7.40368">
        <ele>1838</ele>
        <time>2018-04-21T05:47:54.000Z</time>
      </trkpt>
      <trkpt lat="44.08516" lon="7.40367">
        <ele>1838</ele>
        <time>2018-04-21T05:47:56.000Z</time>
      </trkpt>
      <trkpt lat="44.08517" lon="7.40368">
        <ele>1838</ele>
        <time>2018-04-21T05:47:57.000Z</time>
      </trkpt>
      <trkpt lat="44.08517" lon="7.40368">
        <ele>1838</ele>
        <time>2018-04-21T05:47:58.000Z</time>
      </trkpt>
      <trkpt lat="44.0852" lon="7.40366">
        <ele>1838</ele>
        <time>2018-04-21T05:48:02.000Z</time>
      </trkpt>
      <trkpt lat="44.08524" lon="7.40364">
        <ele>1839</ele>
        <time>2018-04-21T05:48:09.000Z</time>
      </trkpt>
      <trkpt lat="44.08528" lon="7.40363">
        <ele>1839</ele>
        <time>2018-04-21T05:48:13.000Z</time>
      </trkpt>
      <trkpt lat="44.08531" lon="7.40361">
        <ele>1839</ele>
        <time>2018-04-21T05:48:18.000Z</time>
      </trkpt>
      <trkpt lat="44.08535" lon="7.40357">
        <ele>1839</ele>
        <time>2018-04-21T05:48:25.000Z</time>
      </trkpt>
      <trkpt lat="44.08539" lon="7.40353">
        <ele>1839</ele>
        <time>2018-04-21T05:48:31.000Z</time>
      </trkpt>
      <trkpt lat="44.08539" lon="7.40352">
        <ele>1839</ele>
        <time>2018-04-21T05:48:32.000Z</time>
      </trkpt>
      <trkpt lat="44.0854" lon="7.4035">
        <ele>1839</ele>
        <time>2018-04-21T05:48:35.000Z</time>
      </trkpt>
      <trkpt lat="44.0854" lon="7.40349">
        <ele>1839</ele>
        <time>2018-04-21T05:48:36.000Z</time>
      </trkpt>
      <trkpt lat="44.08541" lon="7.40348">
        <ele>1839</ele>
        <time>2018-04-21T05:48:38.000Z</time>
      </trkpt>
      <trkpt lat="44.08542" lon="7.40346">
        <ele>1840</ele>
        <time>2018-04-21T05:48:41.000Z</time>
      </trkpt>
      <trkpt lat="44.08544" lon="7.40342">
        <ele>1840</ele>
        <time>2018-04-21T05:48:46.000Z</time>
      </trkpt>
      <trkpt lat="44.08547" lon="7.40339">
        <ele>1840</ele>
        <time>2018-04-21T05:48:51.000Z</time>
      </trkpt>
      <trkpt lat="44.08548" lon="7.40339">
        <ele>1840</ele>
        <time>2018-04-21T05:48:53.000Z</time>
      </trkpt>
      <trkpt lat="44.0855" lon="7.40337">
        <ele>1840</ele>
        <time>2018-04-21T05:48:57.000Z</time>
      </trkpt>
      <trkpt lat="44.08551" lon="7.40337">
        <ele>1841</ele>
        <time>2018-04-21T05:48:59.000Z</time>
      </trkpt>
      <trkpt lat="44.08554" lon="7.40338">
        <ele>1841</ele>
        <time>2018-04-21T05:49:04.000Z</time>
      </trkpt>
      <trkpt lat="44.08557" lon="7.40339">
        <ele>1842</ele>
        <time>2018-04-21T05:49:09.000Z</time>
      </trkpt>
      <trkpt lat="44.08558" lon="7.40339">
        <ele>1842</ele>
        <time>2018-04-21T05:49:10.000Z</time>
      </trkpt>
      <trkpt lat="44.08561" lon="7.40339">
        <ele>1842</ele>
        <time>2018-04-21T05:49:16.000Z</time>
      </trkpt>
      <trkpt lat="44.08562" lon="7.40339">
        <ele>1842</ele>
        <time>2018-04-21T05:49:17.000Z</time>
      </trkpt>
      <trkpt lat="44.08564" lon="7.40339">
        <ele>1842</ele>
        <time>2018-04-21T05:49:21.000Z</time>
      </trkpt>
      <trkpt lat="44.08567" lon="7.40339">
        <ele>1843</ele>
        <time>2018-04-21T05:49:25.000Z</time>
      </trkpt>
      <trkpt lat="44.08568" lon="7.40339">
        <ele>1843</ele>
        <time>2018-04-21T05:49:26.000Z</time>
      </trkpt>
      <trkpt lat="44.08571" lon="7.40339">
        <ele>1843</ele>
        <time>2018-04-21T05:49:30.000Z</time>
      </trkpt>
      <trkpt lat="44.08573" lon="7.40339">
        <ele>1843</ele>
        <time>2018-04-21T05:49:34.000Z</time>
      </trkpt>
      <trkpt lat="44.08576" lon="7.40339">
        <ele>1843</ele>
        <time>2018-04-21T05:49:38.000Z</time>
      </trkpt>
      <trkpt lat="44.08579" lon="7.40339">
        <ele>1844</ele>
        <time>2018-04-21T05:49:43.000Z</time>
      </trkpt>
      <trkpt lat="44.08582" lon="7.40339">
        <ele>1844</ele>
        <time>2018-04-21T05:49:48.000Z</time>
      </trkpt>
      <trkpt lat="44.08585" lon="7.40339">
        <ele>1851</ele>
        <time>2018-04-21T05:49:53.000Z</time>
      </trkpt>
      <trkpt lat="44.08586" lon="7.40339">
        <ele>1852</ele>
        <time>2018-04-21T05:49:54.000Z</time>
      </trkpt>
      <trkpt lat="44.08587" lon="7.40339">
        <ele>1852</ele>
        <time>2018-04-21T05:49:57.000Z</time>
      </trkpt>
      <trkpt lat="44.08589" lon="7.40339">
        <ele>1854</ele>
        <time>2018-04-21T05:50:00.000Z</time>
      </trkpt>
      <trkpt lat="44.08589" lon="7.40339">
        <ele>1853</ele>
        <time>2018-04-21T05:50:01.000Z</time>
      </trkpt>
      <trkpt lat="44.08593" lon="7.40339">
        <ele>1856</ele>
        <time>2018-04-21T05:50:06.000Z</time>
      </trkpt>
      <trkpt lat="44.08597" lon="7.40337">
        <ele>1859</ele>
        <time>2018-04-21T05:50:13.000Z</time>
      </trkpt>
      <trkpt lat="44.08598" lon="7.40336">
        <ele>1859</ele>
        <time>2018-04-21T05:50:15.000Z</time>
      </trkpt>
      <trkpt lat="44.08598" lon="7.40335">
        <ele>1860</ele>
        <time>2018-04-21T05:50:16.000Z</time>
      </trkpt>
      <trkpt lat="44.08599" lon="7.40334">
        <ele>1860</ele>
        <time>2018-04-21T05:50:19.000Z</time>
      </trkpt>
      <trkpt lat="44.08602" lon="7.40331">
        <ele>1853</ele>
        <time>2018-04-21T05:50:24.000Z</time>
      </trkpt>
      <trkpt lat="44.08602" lon="7.4033">
        <ele>1853</ele>
        <time>2018-04-21T05:50:29.000Z</time>
      </trkpt>
      <trkpt lat="44.08604" lon="7.40329">
        <ele>1854</ele>
        <time>2018-04-21T05:50:33.000Z</time>
      </trkpt>
      <trkpt lat="44.08604" lon="7.40329">
        <ele>1854</ele>
        <time>2018-04-21T05:50:34.000Z</time>
      </trkpt>
      <trkpt lat="44.08606" lon="7.40327">
        <ele>1855</ele>
        <time>2018-04-21T05:50:38.000Z</time>
      </trkpt>
      <trkpt lat="44.08607" lon="7.40326">
        <ele>1855</ele>
        <time>2018-04-21T05:50:39.000Z</time>
      </trkpt>
      <trkpt lat="44.0861" lon="7.40324">
        <ele>1856</ele>
        <time>2018-04-21T05:50:43.000Z</time>
      </trkpt>
      <trkpt lat="44.08611" lon="7.40322">
        <ele>1856</ele>
        <time>2018-04-21T05:50:47.000Z</time>
      </trkpt>
      <trkpt lat="44.08612" lon="7.40321">
        <ele>1857</ele>
        <time>2018-04-21T05:50:48.000Z</time>
      </trkpt>
      <trkpt lat="44.08614" lon="7.40319">
        <ele>1857</ele>
        <time>2018-04-21T05:50:53.000Z</time>
      </trkpt>
      <trkpt lat="44.08615" lon="7.40318">
        <ele>1858</ele>
        <time>2018-04-21T05:50:55.000Z</time>
      </trkpt>
      <trkpt lat="44.08616" lon="7.40317">
        <ele>1858</ele>
        <time>2018-04-21T05:50:58.000Z</time>
      </trkpt>
      <trkpt lat="44.08617" lon="7.40315">
        <ele>1858</ele>
        <time>2018-04-21T05:51:06.000Z</time>
      </trkpt>
      <trkpt lat="44.08619" lon="7.40314">
        <ele>1859</ele>
        <time>2018-04-21T05:51:09.000Z</time>
      </trkpt>
      <trkpt lat="44.08621" lon="7.40312">
        <ele>1859</ele>
        <time>2018-04-21T05:51:13.000Z</time>
      </trkpt>
      <trkpt lat="44.08622" lon="7.40311">
        <ele>1859</ele>
        <time>2018-04-21T05:51:16.000Z</time>
      </trkpt>
      <trkpt lat="44.08623" lon="7.40309">
        <ele>1860</ele>
        <time>2018-04-21T05:51:18.000Z</time>
      </trkpt>
      <trkpt lat="44.08626" lon="7.40307">
        <ele>1860</ele>
        <time>2018-04-21T05:51:23.000Z</time>
      </trkpt>
      <trkpt lat="44.08627" lon="7.40306">
        <ele>1861</ele>
        <time>2018-04-21T05:51:25.000Z</time>
      </trkpt>
      <trkpt lat="44.08629" lon="7.40305">
        <ele>1861</ele>
        <time>2018-04-21T05:51:28.000Z</time>
      </trkpt>
      <trkpt lat="44.0863" lon="7.40304">
        <ele>1861</ele>
        <time>2018-04-21T05:51:30.000Z</time>
      </trkpt>
      <trkpt lat="44.08632" lon="7.40301">
        <ele>1861</ele>
        <time>2018-04-21T05:51:35.000Z</time>
      </trkpt>
      <trkpt lat="44.08633" lon="7.403">
        <ele>1862</ele>
        <time>2018-04-21T05:51:38.000Z</time>
      </trkpt>
      <trkpt lat="44.08634" lon="7.40299">
        <ele>1862</ele>
        <time>2018-04-21T05:51:40.000Z</time>
      </trkpt>
      <trkpt lat="44.08636" lon="7.40297">
        <ele>1862</ele>
        <time>2018-04-21T05:51:45.000Z</time>
      </trkpt>
      <trkpt lat="44.08638" lon="7.40293">
        <ele>1862</ele>
        <time>2018-04-21T05:51:50.000Z</time>
      </trkpt>
      <trkpt lat="44.08639" lon="7.40293">
        <ele>1862</ele>
        <time>2018-04-21T05:51:51.000Z</time>
      </trkpt>
      <trkpt lat="44.08639" lon="7.40291">
        <ele>1862</ele>
        <time>2018-04-21T05:51:56.000Z</time>
      </trkpt>
      <trkpt lat="44.08639" lon="7.40291">
        <ele>1862</ele>
        <time>2018-04-21T05:51:58.000Z</time>
      </trkpt>
      <trkpt lat="44.0864" lon="7.40289">
        <ele>1862</ele>
        <time>2018-04-21T05:52:10.000Z</time>
      </trkpt>
      <trkpt lat="44.08642" lon="7.40287">
        <ele>1862</ele>
        <time>2018-04-21T05:52:14.000Z</time>
      </trkpt>
      <trkpt lat="44.08643" lon="7.40285">
        <ele>1862</ele>
        <time>2018-04-21T05:52:16.000Z</time>
      </trkpt>
      <trkpt lat="44.08645" lon="7.40281">
        <ele>1863</ele>
        <time>2018-04-21T05:52:21.000Z</time>
      </trkpt>
      <trkpt lat="44.08648" lon="7.40277">
        <ele>1863</ele>
        <time>2018-04-21T05:52:27.000Z</time>
      </trkpt>
      <trkpt lat="44.08652" lon="7.40276">
        <ele>1864</ele>
        <time>2018-04-21T05:52:33.000Z</time>
      </trkpt>
      <trkpt lat="44.08652" lon="7.40276">
        <ele>1864</ele>
        <time>2018-04-21T05:52:34.000Z</time>
      </trkpt>
      <trkpt lat="44.08655" lon="7.40275">
        <ele>1864</ele>
        <time>2018-04-21T05:52:40.000Z</time>
      </trkpt>
      <trkpt lat="44.08655" lon="7.40275">
        <ele>1864</ele>
        <time>2018-04-21T05:52:41.000Z</time>
      </trkpt>
      <trkpt lat="44.08657" lon="7.40275">
        <ele>1865</ele>
        <time>2018-04-21T05:52:47.000Z</time>
      </trkpt>
      <trkpt lat="44.08658" lon="7.40274">
        <ele>1865</ele>
        <time>2018-04-21T05:52:48.000Z</time>
      </trkpt>
      <trkpt lat="44.08661" lon="7.40274">
        <ele>1865</ele>
        <time>2018-04-21T05:52:53.000Z</time>
      </trkpt>
      <trkpt lat="44.08662" lon="7.40274">
        <ele>1865</ele>
        <time>2018-04-21T05:52:56.000Z</time>
      </trkpt>
      <trkpt lat="44.08664" lon="7.40273">
        <ele>1865</ele>
        <time>2018-04-21T05:53:00.000Z</time>
      </trkpt>
      <trkpt lat="44.08665" lon="7.40273">
        <ele>1866</ele>
        <time>2018-04-21T05:53:02.000Z</time>
      </trkpt>
      <trkpt lat="44.08667" lon="7.40273">
        <ele>1889</ele>
        <time>2018-04-21T05:53:06.000Z</time>
      </trkpt>
      <trkpt lat="44.0867" lon="7.40272">
        <ele>1889</ele>
        <time>2018-04-21T05:53:10.000Z</time>
      </trkpt>
      <trkpt lat="44.08669" lon="7.40272">
        <ele>1889</ele>
        <time>2018-04-21T05:53:15.000Z</time>
      </trkpt>
      <trkpt lat="44.0867" lon="7.40272">
        <ele>1889</ele>
        <time>2018-04-21T05:53:16.000Z</time>
      </trkpt>
      <trkpt lat="44.08671" lon="7.40272">
        <ele>1889</ele>
        <time>2018-04-21T05:53:18.000Z</time>
      </trkpt>
      <trkpt lat="44.08673" lon="7.40271">
        <ele>1889</ele>
        <time>2018-04-21T05:53:23.000Z</time>
      </trkpt>
      <trkpt lat="44.08673" lon="7.40271">
        <ele>1889</ele>
        <time>2018-04-21T05:53:31.000Z</time>
      </trkpt>
      <trkpt lat="44.08673" lon="7.4027">
        <ele>1889</ele>
        <time>2018-04-21T05:53:43.000Z</time>
      </trkpt>
      <trkpt lat="44.08673" lon="7.40269">
        <ele>1889</ele>
        <time>2018-04-21T05:53:52.000Z</time>
      </trkpt>
      <trkpt lat="44.08673" lon="7.40269">
        <ele>1889</ele>
        <time>2018-04-21T05:53:59.000Z</time>
      </trkpt>
      <trkpt lat="44.08673" lon="7.40269">
        <ele>1888</ele>
        <time>2018-04-21T05:54:08.000Z</time>
      </trkpt>
      <trkpt lat="44.08673" lon="7.40269">
        <ele>1888</ele>
        <time>2018-04-21T05:54:14.000Z</time>
      </trkpt>
      <trkpt lat="44.08673" lon="7.40268">
        <ele>1888</ele>
        <time>2018-04-21T05:54:20.000Z</time>
      </trkpt>
      <trkpt lat="44.08672" lon="7.40268">
        <ele>1888</ele>
        <time>2018-04-21T05:54:26.000Z</time>
      </trkpt>
      <trkpt lat="44.08672" lon="7.40268">
        <ele>1887</ele>
        <time>2018-04-21T05:54:31.000Z</time>
      </trkpt>
      <trkpt lat="44.08672" lon="7.40267">
        <ele>1887</ele>
        <time>2018-04-21T05:54:33.000Z</time>
      </trkpt>
      <trkpt lat="44.0867" lon="7.40265">
        <ele>1886</ele>
        <time>2018-04-21T05:54:40.000Z</time>
      </trkpt>
      <trkpt lat="44.0867" lon="7.40265">
        <ele>1886</ele>
        <time>2018-04-21T05:54:46.000Z</time>
      </trkpt>
      <trkpt lat="44.08671" lon="7.40267">
        <ele>1887</ele>
        <time>2018-04-21T05:55:03.000Z</time>
      </trkpt>
      <trkpt lat="44.08671" lon="7.40268">
        <ele>1887</ele>
        <time>2018-04-21T05:55:11.000Z</time>
      </trkpt>
      <trkpt lat="44.08671" lon="7.40268">
        <ele>1887</ele>
        <time>2018-04-21T05:55:19.000Z</time>
      </trkpt>
      <trkpt lat="44.08674" lon="7.40268">
        <ele>1888</ele>
        <time>2018-04-21T05:55:29.000Z</time>
      </trkpt>
      <trkpt lat="44.08674" lon="7.40267">
        <ele>1888</ele>
        <time>2018-04-21T05:55:34.000Z</time>
      </trkpt>
      <trkpt lat="44.08673" lon="7.40267">
        <ele>1888</ele>
        <time>2018-04-21T05:55:38.000Z</time>
      </trkpt>
      <trkpt lat="44.08674" lon="7.40268">
        <ele>1888</ele>
        <time>2018-04-21T05:55:53.000Z</time>
      </trkpt>
      <trkpt lat="44.08673" lon="7.40269">
        <ele>1888</ele>
        <time>2018-04-21T05:56:03.000Z</time>
      </trkpt>
      <trkpt lat="44.08672" lon="7.40269">
        <ele>1888</ele>
        <time>2018-04-21T05:56:10.000Z</time>
      </trkpt>
      <trkpt lat="44.08672" lon="7.40269">
        <ele>1888</ele>
        <time>2018-04-21T05:56:15.000Z</time>
      </trkpt>
      <trkpt lat="44.08672" lon="7.40269">
        <ele>1888</ele>
        <time>2018-04-21T05:56:22.000Z</time>
      </trkpt>
      <trkpt lat="44.08672" lon="7.40269">
        <ele>1888</ele>
        <time>2018-04-21T05:56:29.000Z</time>
      </trkpt>
      <trkpt lat="44.08672" lon="7.40269">
        <ele>1888</ele>
        <time>2018-04-21T05:56:36.000Z</time>
      </trkpt>
      <trkpt lat="44.08673" lon="7.4027">
        <ele>1889</ele>
        <time>2018-04-21T05:56:41.000Z</time>
      </trkpt>
      <trkpt lat="44.08672" lon="7.40269">
        <ele>1888</ele>
        <time>2018-04-21T05:56:46.000Z</time>
      </trkpt>
      <trkpt lat="44.08671" lon="7.40268">
        <ele>1887</ele>
        <time>2018-04-21T05:56:50.000Z</time>
      </trkpt>
      <trkpt lat="44.08671" lon="7.40268">
        <ele>1887</ele>
        <time>2018-04-21T05:56:52.000Z</time>
      </trkpt>
      <trkpt lat="44.0867" lon="7.40268">
        <ele>1887</ele>
        <time>2018-04-21T05:56:58.000Z</time>
      </trkpt>
      <trkpt lat="44.08669" lon="7.40269">
        <ele>1888</ele>
        <time>2018-04-21T05:57:05.000Z</time>
      </trkpt>
      <trkpt lat="44.08668" lon="7.40269">
        <ele>1887</ele>
        <time>2018-04-21T05:57:11.000Z</time>
      </trkpt>
      <trkpt lat="44.08668" lon="7.40268">
        <ele>1887</ele>
        <time>2018-04-21T05:57:17.000Z</time>
      </trkpt>
      <trkpt lat="44.08669" lon="7.40269">
        <ele>1888</ele>
        <time>2018-04-21T05:57:22.000Z</time>
      </trkpt>
      <trkpt lat="44.08669" lon="7.40269">
        <ele>1887</ele>
        <time>2018-04-21T05:57:30.000Z</time>
      </trkpt>
      <trkpt lat="44.08669" lon="7.40269">
        <ele>1888</ele>
        <time>2018-04-21T05:57:37.000Z</time>
      </trkpt>
      <trkpt lat="44.0867" lon="7.40269">
        <ele>1888</ele>
        <time>2018-04-21T05:57:54.000Z</time>
      </trkpt>
      <trkpt lat="44.0867" lon="7.4027">
        <ele>1888</ele>
        <time>2018-04-21T05:58:00.000Z</time>
      </trkpt>
      <trkpt lat="44.0867" lon="7.4027">
        <ele>1888</ele>
        <time>2018-04-21T05:58:09.000Z</time>
      </trkpt>
      <trkpt lat="44.08673" lon="7.40271">
        <ele>1889</ele>
        <time>2018-04-21T05:58:17.000Z</time>
      </trkpt>
      <trkpt lat="44.08672" lon="7.4027">
        <ele>1889</ele>
        <time>2018-04-21T05:58:26.000Z</time>
      </trkpt>
      <trkpt lat="44.08672" lon="7.4027">
        <ele>1889</ele>
        <time>2018-04-21T05:58:27.000Z</time>
      </trkpt>
      <trkpt lat="44.08672" lon="7.40271">
        <ele>1889</ele>
        <time>2018-04-21T05:58:35.000Z</time>
      </trkpt>
      <trkpt lat="44.08672" lon="7.40271">
        <ele>1889</ele>
        <time>2018-04-21T05:58:47.000Z</time>
      </trkpt>
      <trkpt lat="44.08674" lon="7.40269">
        <ele>1889</ele>
        <time>2018-04-21T05:58:55.000Z</time>
      </trkpt>
      <trkpt lat="44.08678" lon="7.40267">
        <ele>1889</ele>
        <time>2018-04-21T05:59:04.000Z</time>
      </trkpt>
      <trkpt lat="44.08683" lon="7.40265">
        <ele>1890</ele>
        <time>2018-04-21T05:59:11.000Z</time>
      </trkpt>
      <trkpt lat="44.08685" lon="7.40264">
        <ele>1891</ele>
        <time>2018-04-21T05:59:16.000Z</time>
      </trkpt>
      <trkpt lat="44.08686" lon="7.40263">
        <ele>1891</ele>
        <time>2018-04-21T05:59:21.000Z</time>
      </trkpt>
      <trkpt lat="44.08686" lon="7.40262">
        <ele>1891</ele>
        <time>2018-04-21T05:59:28.000Z</time>
      </trkpt>
      <trkpt lat="44.08685" lon="7.40262">
        <ele>1890</ele>
        <time>2018-04-21T05:59:35.000Z</time>
      </trkpt>
      <trkpt lat="44.08686" lon="7.40264">
        <ele>1892</ele>
        <time>2018-04-21T05:59:38.000Z</time>
      </trkpt>
      <trkpt lat="44.08683" lon="7.40264">
        <ele>1890</ele>
        <time>2018-04-21T05:59:44.000Z</time>
      </trkpt>
      <trkpt lat="44.0868" lon="7.40264">
        <ele>1888</ele>
        <time>2018-04-21T05:59:50.000Z</time>
      </trkpt>
      <trkpt lat="44.08677" lon="7.40264">
        <ele>1888</ele>
        <time>2018-04-21T06:00:00.000Z</time>
      </trkpt>
      <trkpt lat="44.08676" lon="7.40265">
        <ele>1887</ele>
        <time>2018-04-21T06:00:13.000Z</time>
      </trkpt>
      <trkpt lat="44.08674" lon="7.40266">
        <ele>1887</ele>
        <time>2018-04-21T06:00:29.000Z</time>
      </trkpt>
      <trkpt lat="44.08675" lon="7.40267">
        <ele>1888</ele>
        <time>2018-04-21T06:00:34.000Z</time>
      </trkpt>
      <trkpt lat="44.08675" lon="7.40267">
        <ele>1888</ele>
        <time>2018-04-21T06:00:42.000Z</time>
      </trkpt>
      <trkpt lat="44.08675" lon="7.40267">
        <ele>1888</ele>
        <time>2018-04-21T06:00:48.000Z</time>
      </trkpt>
      <trkpt lat="44.08673" lon="7.40267">
        <ele>1888</ele>
        <time>2018-04-21T06:00:52.000Z</time>
      </trkpt>
      <trkpt lat="44.08673" lon="7.40268">
        <ele>1888</ele>
        <time>2018-04-21T06:00:57.000Z</time>
      </trkpt>
      <trkpt lat="44.08672" lon="7.40268">
        <ele>1888</ele>
        <time>2018-04-21T06:01:06.000Z</time>
      </trkpt>
      <trkpt lat="44.08672" lon="7.40268">
        <ele>1888</ele>
        <time>2018-04-21T06:01:12.000Z</time>
      </trkpt>
      <trkpt lat="44.08673" lon="7.40268">
        <ele>1888</ele>
        <time>2018-04-21T06:01:16.000Z</time>
      </trkpt>
      <trkpt lat="44.08673" lon="7.4027">
        <ele>1889</ele>
        <time>2018-04-21T06:01:23.000Z</time>
      </trkpt>
      <trkpt lat="44.08672" lon="7.40272">
        <ele>1890</ele>
        <time>2018-04-21T06:01:28.000Z</time>
      </trkpt>
      <trkpt lat="44.0867" lon="7.40274">
        <ele>1890</ele>
        <time>2018-04-21T06:01:33.000Z</time>
      </trkpt>
      <trkpt lat="44.0867" lon="7.40275">
        <ele>1890</ele>
        <time>2018-04-21T06:01:34.000Z</time>
      </trkpt>
      <trkpt lat="44.08667" lon="7.4028">
        <ele>1892</ele>
        <time>2018-04-21T06:01:40.000Z</time>
      </trkpt>
      <trkpt lat="44.08666" lon="7.40284">
        <ele>1866</ele>
        <time>2018-04-21T06:01:44.000Z</time>
      </trkpt>
      <trkpt lat="44.08666" lon="7.40285">
        <ele>1866</ele>
        <time>2018-04-21T06:01:45.000Z</time>
      </trkpt>
      <trkpt lat="44.08665" lon="7.40287">
        <ele>1866</ele>
        <time>2018-04-21T06:01:47.000Z</time>
      </trkpt>
      <trkpt lat="44.08665" lon="7.40291">
        <ele>1866</ele>
        <time>2018-04-21T06:01:51.000Z</time>
      </trkpt>
      <trkpt lat="44.08665" lon="7.40292">
        <ele>1867</ele>
        <time>2018-04-21T06:01:52.000Z</time>
      </trkpt>
      <trkpt lat="44.08665" lon="7.40297">
        <ele>1868</ele>
        <time>2018-04-21T06:01:58.000Z</time>
      </trkpt>
      <trkpt lat="44.08665" lon="7.40297">
        <ele>1868</ele>
        <time>2018-04-21T06:02:03.000Z</time>
      </trkpt>
      <trkpt lat="44.08666" lon="7.40297">
        <ele>1868</ele>
        <time>2018-04-21T06:02:05.000Z</time>
      </trkpt>
      <trkpt lat="44.08668" lon="7.40296">
        <ele>1895</ele>
        <time>2018-04-21T06:02:09.000Z</time>
      </trkpt>
      <trkpt lat="44.08669" lon="7.40295">
        <ele>1896</ele>
        <time>2018-04-21T06:02:11.000Z</time>
      </trkpt>
      <trkpt lat="44.08671" lon="7.40294">
        <ele>1896</ele>
        <time>2018-04-21T06:02:14.000Z</time>
      </trkpt>
      <trkpt lat="44.08672" lon="7.40294">
        <ele>1896</ele>
        <time>2018-04-21T06:02:18.000Z</time>
      </trkpt>
      <trkpt lat="44.08673" lon="7.40293">
        <ele>1896</ele>
        <time>2018-04-21T06:02:20.000Z</time>
      </trkpt>
      <trkpt lat="44.08674" lon="7.40293">
        <ele>1896</ele>
        <time>2018-04-21T06:02:23.000Z</time>
      </trkpt>
      <trkpt lat="44.08675" lon="7.40293">
        <ele>1896</ele>
        <time>2018-04-21T06:02:26.000Z</time>
      </trkpt>
      <trkpt lat="44.08677" lon="7.40291">
        <ele>1896</ele>
        <time>2018-04-21T06:02:28.000Z</time>
      </trkpt>
      <trkpt lat="44.08679" lon="7.4029">
        <ele>1896</ele>
        <time>2018-04-21T06:02:31.000Z</time>
      </trkpt>
      <trkpt lat="44.0868" lon="7.40289">
        <ele>1896</ele>
        <time>2018-04-21T06:02:33.000Z</time>
      </trkpt>
      <trkpt lat="44.08681" lon="7.40289">
        <ele>1896</ele>
        <time>2018-04-21T06:02:34.000Z</time>
      </trkpt>
      <trkpt lat="44.08681" lon="7.40289">
        <ele>1896</ele>
        <time>2018-04-21T06:02:35.000Z</time>
      </trkpt>
      <trkpt lat="44.08684" lon="7.40288">
        <ele>1897</ele>
        <time>2018-04-21T06:02:40.000Z</time>
      </trkpt>
      <trkpt lat="44.08684" lon="7.40287">
        <ele>1897</ele>
        <time>2018-04-21T06:02:41.000Z</time>
      </trkpt>
      <trkpt lat="44.08685" lon="7.40287">
        <ele>1897</ele>
        <time>2018-04-21T06:02:43.000Z</time>
      </trkpt>
      <trkpt lat="44.08686" lon="7.40287">
        <ele>1897</ele>
        <time>2018-04-21T06:02:46.000Z</time>
      </trkpt>
      <trkpt lat="44.08688" lon="7.40286">
        <ele>1898</ele>
        <time>2018-04-21T06:02:48.000Z</time>
      </trkpt>
      <trkpt lat="44.08691" lon="7.40284">
        <ele>1898</ele>
        <time>2018-04-21T06:02:54.000Z</time>
      </trkpt>
      <trkpt lat="44.08692" lon="7.40284">
        <ele>1898</ele>
        <time>2018-04-21T06:02:56.000Z</time>
      </trkpt>
      <trkpt lat="44.08694" lon="7.40283">
        <ele>1899</ele>
        <time>2018-04-21T06:02:58.000Z</time>
      </trkpt>
      <trkpt lat="44.08695" lon="7.4028">
        <ele>1899</ele>
        <time>2018-04-21T06:03:02.000Z</time>
      </trkpt>
      <trkpt lat="44.08696" lon="7.40279">
        <ele>1899</ele>
        <time>2018-04-21T06:03:04.000Z</time>
      </trkpt>
      <trkpt lat="44.08697" lon="7.40278">
        <ele>1899</ele>
        <time>2018-04-21T06:03:07.000Z</time>
      </trkpt>
      <trkpt lat="44.08697" lon="7.40277">
        <ele>1899</ele>
        <time>2018-04-21T06:03:09.000Z</time>
      </trkpt>
      <trkpt lat="44.08698" lon="7.40276">
        <ele>1899</ele>
        <time>2018-04-21T06:03:12.000Z</time>
      </trkpt>
      <trkpt lat="44.08698" lon="7.40275">
        <ele>1899</ele>
        <time>2018-04-21T06:03:15.000Z</time>
      </trkpt>
      <trkpt lat="44.08699" lon="7.40274">
        <ele>1899</ele>
        <time>2018-04-21T06:03:16.000Z</time>
      </trkpt>
      <trkpt lat="44.08699" lon="7.40273">
        <ele>1898</ele>
        <time>2018-04-21T06:03:17.000Z</time>
      </trkpt>
      <trkpt lat="44.08701" lon="7.40271">
        <ele>1899</ele>
        <time>2018-04-21T06:03:23.000Z</time>
      </trkpt>
      <trkpt lat="44.08701" lon="7.40269">
        <ele>1899</ele>
        <time>2018-04-21T06:03:25.000Z</time>
      </trkpt>
      <trkpt lat="44.08701" lon="7.40267">
        <ele>1899</ele>
        <time>2018-04-21T06:03:28.000Z</time>
      </trkpt>
      <trkpt lat="44.08702" lon="7.40266">
        <ele>1899</ele>
        <time>2018-04-21T06:03:30.000Z</time>
      </trkpt>
      <trkpt lat="44.08702" lon="7.40265">
        <ele>1898</ele>
        <time>2018-04-21T06:03:31.000Z</time>
      </trkpt>
      <trkpt lat="44.08702" lon="7.40265">
        <ele>1898</ele>
        <time>2018-04-21T06:03:32.000Z</time>
      </trkpt>
      <trkpt lat="44.08704" lon="7.40262">
        <ele>1899</ele>
        <time>2018-04-21T06:03:36.000Z</time>
      </trkpt>
      <trkpt lat="44.08706" lon="7.40262">
        <ele>1900</ele>
        <time>2018-04-21T06:03:39.000Z</time>
      </trkpt>
      <trkpt lat="44.08708" lon="7.40261">
        <ele>1900</ele>
        <time>2018-04-21T06:03:43.000Z</time>
      </trkpt>
      <trkpt lat="44.08712" lon="7.4026">
        <ele>1902</ele>
        <time>2018-04-21T06:03:46.000Z</time>
      </trkpt>
      <trkpt lat="44.08714" lon="7.40259">
        <ele>1902</ele>
        <time>2018-04-21T06:03:48.000Z</time>
      </trkpt>
      <trkpt lat="44.08715" lon="7.40257">
        <ele>1903</ele>
        <time>2018-04-21T06:03:51.000Z</time>
      </trkpt>
      <trkpt lat="44.08715" lon="7.40256">
        <ele>1903</ele>
        <time>2018-04-21T06:03:56.000Z</time>
      </trkpt>
      <trkpt lat="44.08716" lon="7.40257">
        <ele>1903</ele>
        <time>2018-04-21T06:04:02.000Z</time>
      </trkpt>
      <trkpt lat="44.08717" lon="7.40256">
        <ele>1903</ele>
        <time>2018-04-21T06:04:05.000Z</time>
      </trkpt>
      <trkpt lat="44.08717" lon="7.40256">
        <ele>1903</ele>
        <time>2018-04-21T06:04:06.000Z</time>
      </trkpt>
      <trkpt lat="44.0872" lon="7.40254">
        <ele>1904</ele>
        <time>2018-04-21T06:04:11.000Z</time>
      </trkpt>
      <trkpt lat="44.08722" lon="7.4025">
        <ele>1905</ele>
        <time>2018-04-21T06:04:15.000Z</time>
      </trkpt>
      <trkpt lat="44.08722" lon="7.40249">
        <ele>1897</ele>
        <time>2018-04-21T06:04:16.000Z</time>
      </trkpt>
      <trkpt lat="44.08722" lon="7.40245">
        <ele>1897</ele>
        <time>2018-04-21T06:04:20.000Z</time>
      </trkpt>
      <trkpt lat="44.08725" lon="7.40242">
        <ele>1898</ele>
        <time>2018-04-21T06:04:25.000Z</time>
      </trkpt>
      <trkpt lat="44.08726" lon="7.4024">
        <ele>1898</ele>
        <time>2018-04-21T06:04:29.000Z</time>
      </trkpt>
      <trkpt lat="44.08726" lon="7.4024">
        <ele>1898</ele>
        <time>2018-04-21T06:04:30.000Z</time>
      </trkpt>
      <trkpt lat="44.08728" lon="7.40238">
        <ele>1898</ele>
        <time>2018-04-21T06:04:35.000Z</time>
      </trkpt>
      <trkpt lat="44.08729" lon="7.40236">
        <ele>1898</ele>
        <time>2018-04-21T06:04:36.000Z</time>
      </trkpt>
      <trkpt lat="44.0873" lon="7.40234">
        <ele>1899</ele>
        <time>2018-04-21T06:04:41.000Z</time>
      </trkpt>
      <trkpt lat="44.0873" lon="7.40233">
        <ele>1899</ele>
        <time>2018-04-21T06:04:42.000Z</time>
      </trkpt>
      <trkpt lat="44.08729" lon="7.40231">
        <ele>1898</ele>
        <time>2018-04-21T06:04:45.000Z</time>
      </trkpt>
      <trkpt lat="44.08728" lon="7.40228">
        <ele>1897</ele>
        <time>2018-04-21T06:04:47.000Z</time>
      </trkpt>
      <trkpt lat="44.08728" lon="7.40226">
        <ele>1897</ele>
        <time>2018-04-21T06:04:50.000Z</time>
      </trkpt>
      <trkpt lat="44.08732" lon="7.40228">
        <ele>1898</ele>
        <time>2018-04-21T06:04:57.000Z</time>
      </trkpt>
      <trkpt lat="44.08733" lon="7.40228">
        <ele>1898</ele>
        <time>2018-04-21T06:04:58.000Z</time>
      </trkpt>
      <trkpt lat="44.08734" lon="7.40229">
        <ele>1899</ele>
        <time>2018-04-21T06:04:59.000Z</time>
      </trkpt>
      <trkpt lat="44.08735" lon="7.40228">
        <ele>1899</ele>
        <time>2018-04-21T06:05:01.000Z</time>
      </trkpt>
      <trkpt lat="44.08738" lon="7.40226">
        <ele>1899</ele>
        <time>2018-04-21T06:05:05.000Z</time>
      </trkpt>
      <trkpt lat="44.08739" lon="7.40226">
        <ele>1899</ele>
        <time>2018-04-21T06:05:07.000Z</time>
      </trkpt>
      <trkpt lat="44.0874" lon="7.40225">
        <ele>1900</ele>
        <time>2018-04-21T06:05:09.000Z</time>
      </trkpt>
      <trkpt lat="44.08742" lon="7.40223">
        <ele>1900</ele>
        <time>2018-04-21T06:05:13.000Z</time>
      </trkpt>
      <trkpt lat="44.08743" lon="7.40223">
        <ele>1900</ele>
        <time>2018-04-21T06:05:16.000Z</time>
      </trkpt>
      <trkpt lat="44.08745" lon="7.40221">
        <ele>1900</ele>
        <time>2018-04-21T06:05:21.000Z</time>
      </trkpt>
      <trkpt lat="44.08747" lon="7.4022">
        <ele>1900</ele>
        <time>2018-04-21T06:05:22.000Z</time>
      </trkpt>
      <trkpt lat="44.08747" lon="7.4022">
        <ele>1900</ele>
        <time>2018-04-21T06:05:25.000Z</time>
      </trkpt>
      <trkpt lat="44.08749" lon="7.40218">
        <ele>1900</ele>
        <time>2018-04-21T06:05:29.000Z</time>
      </trkpt>
      <trkpt lat="44.08749" lon="7.40218">
        <ele>1900</ele>
        <time>2018-04-21T06:05:30.000Z</time>
      </trkpt>
      <trkpt lat="44.08751" lon="7.40216">
        <ele>1927</ele>
        <time>2018-04-21T06:05:34.000Z</time>
      </trkpt>
      <trkpt lat="44.08752" lon="7.40214">
        <ele>1927</ele>
        <time>2018-04-21T06:05:37.000Z</time>
      </trkpt>
      <trkpt lat="44.08752" lon="7.40214">
        <ele>1927</ele>
        <time>2018-04-21T06:05:39.000Z</time>
      </trkpt>
      <trkpt lat="44.08754" lon="7.40213">
        <ele>1927</ele>
        <time>2018-04-21T06:05:41.000Z</time>
      </trkpt>
      <trkpt lat="44.08754" lon="7.40213">
        <ele>1927</ele>
        <time>2018-04-21T06:05:43.000Z</time>
      </trkpt>
      <trkpt lat="44.08755" lon="7.40213">
        <ele>1927</ele>
        <time>2018-04-21T06:05:44.000Z</time>
      </trkpt>
      <trkpt lat="44.08755" lon="7.40212">
        <ele>1927</ele>
        <time>2018-04-21T06:05:46.000Z</time>
      </trkpt>
      <trkpt lat="44.08755" lon="7.40212">
        <ele>1927</ele>
        <time>2018-04-21T06:05:47.000Z</time>
      </trkpt>
      <trkpt lat="44.08757" lon="7.4021">
        <ele>1928</ele>
        <time>2018-04-21T06:05:50.000Z</time>
      </trkpt>
      <trkpt lat="44.08757" lon="7.4021">
        <ele>1928</ele>
        <time>2018-04-21T06:05:52.000Z</time>
      </trkpt>
      <trkpt lat="44.08759" lon="7.40207">
        <ele>1928</ele>
        <time>2018-04-21T06:05:56.000Z</time>
      </trkpt>
      <trkpt lat="44.08759" lon="7.40206">
        <ele>1928</ele>
        <time>2018-04-21T06:05:58.000Z</time>
      </trkpt>
      <trkpt lat="44.0876" lon="7.40205">
        <ele>1928</ele>
        <time>2018-04-21T06:06:01.000Z</time>
      </trkpt>
      <trkpt lat="44.0876" lon="7.40203">
        <ele>1928</ele>
        <time>2018-04-21T06:06:04.000Z</time>
      </trkpt>
      <trkpt lat="44.08761" lon="7.40202">
        <ele>1928</ele>
        <time>2018-04-21T06:06:06.000Z</time>
      </trkpt>
      <trkpt lat="44.08763" lon="7.40199">
        <ele>1928</ele>
        <time>2018-04-21T06:06:11.000Z</time>
      </trkpt>
      <trkpt lat="44.08763" lon="7.402">
        <ele>1928</ele>
        <time>2018-04-21T06:06:12.000Z</time>
      </trkpt>
      <trkpt lat="44.08765" lon="7.40196">
        <ele>1928</ele>
        <time>2018-04-21T06:06:18.000Z</time>
      </trkpt>
      <trkpt lat="44.08765" lon="7.40195">
        <ele>1928</ele>
        <time>2018-04-21T06:06:22.000Z</time>
      </trkpt>
      <trkpt lat="44.08765" lon="7.40195">
        <ele>1928</ele>
        <time>2018-04-21T06:06:23.000Z</time>
      </trkpt>
      <trkpt lat="44.08766" lon="7.40194">
        <ele>1928</ele>
        <time>2018-04-21T06:06:26.000Z</time>
      </trkpt>
      <trkpt lat="44.08766" lon="7.40194">
        <ele>1928</ele>
        <time>2018-04-21T06:06:27.000Z</time>
      </trkpt>
      <trkpt lat="44.08767" lon="7.40192">
        <ele>1928</ele>
        <time>2018-04-21T06:06:32.000Z</time>
      </trkpt>
      <trkpt lat="44.08772" lon="7.4019">
        <ele>1929</ele>
        <time>2018-04-21T06:06:36.000Z</time>
      </trkpt>
      <trkpt lat="44.08773" lon="7.40189">
        <ele>1929</ele>
        <time>2018-04-21T06:06:38.000Z</time>
      </trkpt>
      <trkpt lat="44.08776" lon="7.40187">
        <ele>1930</ele>
        <time>2018-04-21T06:06:43.000Z</time>
      </trkpt>
      <trkpt lat="44.08778" lon="7.40186">
        <ele>1931</ele>
        <time>2018-04-21T06:06:47.000Z</time>
      </trkpt>
      <trkpt lat="44.08779" lon="7.40186">
        <ele>1931</ele>
        <time>2018-04-21T06:06:49.000Z</time>
      </trkpt>
      <trkpt lat="44.0878" lon="7.40185">
        <ele>1931</ele>
        <time>2018-04-21T06:06:53.000Z</time>
      </trkpt>
      <trkpt lat="44.08782" lon="7.40185">
        <ele>1932</ele>
        <time>2018-04-21T06:06:57.000Z</time>
      </trkpt>
      <trkpt lat="44.08783" lon="7.40186">
        <ele>1933</ele>
        <time>2018-04-21T06:07:01.000Z</time>
      </trkpt>
      <trkpt lat="44.08783" lon="7.40187">
        <ele>1933</ele>
        <time>2018-04-21T06:07:04.000Z</time>
      </trkpt>
      <trkpt lat="44.08784" lon="7.40188">
        <ele>1933</ele>
        <time>2018-04-21T06:07:09.000Z</time>
      </trkpt>
      <trkpt lat="44.08785" lon="7.4019">
        <ele>1933</ele>
        <time>2018-04-21T06:07:15.000Z</time>
      </trkpt>
      <trkpt lat="44.08785" lon="7.40193">
        <ele>1933</ele>
        <time>2018-04-21T06:07:21.000Z</time>
      </trkpt>
      <trkpt lat="44.08785" lon="7.40193">
        <ele>1933</ele>
        <time>2018-04-21T06:07:24.000Z</time>
      </trkpt>
      <trkpt lat="44.08785" lon="7.40193">
        <ele>1933</ele>
        <time>2018-04-21T06:07:26.000Z</time>
      </trkpt>
      <trkpt lat="44.08785" lon="7.40191">
        <ele>1934</ele>
        <time>2018-04-21T06:07:31.000Z</time>
      </trkpt>
      <trkpt lat="44.08785" lon="7.40191">
        <ele>1934</ele>
        <time>2018-04-21T06:07:32.000Z</time>
      </trkpt>
      <trkpt lat="44.08786" lon="7.4019">
        <ele>1934</ele>
        <time>2018-04-21T06:07:34.000Z</time>
      </trkpt>
      <trkpt lat="44.08786" lon="7.40188">
        <ele>1934</ele>
        <time>2018-04-21T06:07:36.000Z</time>
      </trkpt>
      <trkpt lat="44.08788" lon="7.40186">
        <ele>1934</ele>
        <time>2018-04-21T06:07:41.000Z</time>
      </trkpt>
      <trkpt lat="44.08788" lon="7.40186">
        <ele>1934</ele>
        <time>2018-04-21T06:07:42.000Z</time>
      </trkpt>
      <trkpt lat="44.08789" lon="7.40183">
        <ele>1935</ele>
        <time>2018-04-21T06:07:47.000Z</time>
      </trkpt>
      <trkpt lat="44.08789" lon="7.40182">
        <ele>1935</ele>
        <time>2018-04-21T06:07:49.000Z</time>
      </trkpt>
      <trkpt lat="44.08791" lon="7.40181">
        <ele>1935</ele>
        <time>2018-04-21T06:07:52.000Z</time>
      </trkpt>
      <trkpt lat="44.08791" lon="7.40181">
        <ele>1935</ele>
        <time>2018-04-21T06:07:53.000Z</time>
      </trkpt>
      <trkpt lat="44.08793" lon="7.40178">
        <ele>1936</ele>
        <time>2018-04-21T06:07:56.000Z</time>
      </trkpt>
      <trkpt lat="44.08794" lon="7.40177">
        <ele>1936</ele>
        <time>2018-04-21T06:07:59.000Z</time>
      </trkpt>
      <trkpt lat="44.08794" lon="7.40176">
        <ele>1937</ele>
        <time>2018-04-21T06:08:00.000Z</time>
      </trkpt>
      <trkpt lat="44.08795" lon="7.40175">
        <ele>1937</ele>
        <time>2018-04-21T06:08:06.000Z</time>
      </trkpt>
      <trkpt lat="44.08796" lon="7.40175">
        <ele>1937</ele>
        <time>2018-04-21T06:08:12.000Z</time>
      </trkpt>
      <trkpt lat="44.08797" lon="7.40176">
        <ele>1938</ele>
        <time>2018-04-21T06:08:15.000Z</time>
      </trkpt>
      <trkpt lat="44.08798" lon="7.40176">
        <ele>1938</ele>
        <time>2018-04-21T06:08:17.000Z</time>
      </trkpt>
      <trkpt lat="44.088" lon="7.40179">
        <ele>1939</ele>
        <time>2018-04-21T06:08:22.000Z</time>
      </trkpt>
      <trkpt lat="44.08801" lon="7.4018">
        <ele>1939</ele>
        <time>2018-04-21T06:08:25.000Z</time>
      </trkpt>
      <trkpt lat="44.08801" lon="7.40181">
        <ele>1939</ele>
        <time>2018-04-21T06:08:27.000Z</time>
      </trkpt>
      <trkpt lat="44.08802" lon="7.40185">
        <ele>1939</ele>
        <time>2018-04-21T06:08:32.000Z</time>
      </trkpt>
      <trkpt lat="44.08802" lon="7.40187">
        <ele>1939</ele>
        <time>2018-04-21T06:08:34.000Z</time>
      </trkpt>
      <trkpt lat="44.08803" lon="7.4019">
        <ele>1939</ele>
        <time>2018-04-21T06:08:38.000Z</time>
      </trkpt>
      <trkpt lat="44.08804" lon="7.40194">
        <ele>1939</ele>
        <time>2018-04-21T06:08:44.000Z</time>
      </trkpt>
      <trkpt lat="44.08804" lon="7.40194">
        <ele>1939</ele>
        <time>2018-04-21T06:08:45.000Z</time>
      </trkpt>
      <trkpt lat="44.08804" lon="7.40195">
        <ele>1939</ele>
        <time>2018-04-21T06:08:49.000Z</time>
      </trkpt>
      <trkpt lat="44.08804" lon="7.40195">
        <ele>1939</ele>
        <time>2018-04-21T06:08:52.000Z</time>
      </trkpt>
      <trkpt lat="44.08804" lon="7.40194">
        <ele>1939</ele>
        <time>2018-04-21T06:08:53.000Z</time>
      </trkpt>
      <trkpt lat="44.08805" lon="7.40193">
        <ele>1940</ele>
        <time>2018-04-21T06:08:56.000Z</time>
      </trkpt>
      <trkpt lat="44.08805" lon="7.40193">
        <ele>1940</ele>
        <time>2018-04-21T06:08:57.000Z</time>
      </trkpt>
      <trkpt lat="44.08808" lon="7.40191">
        <ele>1941</ele>
        <time>2018-04-21T06:09:01.000Z</time>
      </trkpt>
      <trkpt lat="44.08809" lon="7.4019">
        <ele>1941</ele>
        <time>2018-04-21T06:09:03.000Z</time>
      </trkpt>
      <trkpt lat="44.08811" lon="7.40188">
        <ele>1942</ele>
        <time>2018-04-21T06:09:06.000Z</time>
      </trkpt>
      <trkpt lat="44.08812" lon="7.40187">
        <ele>1942</ele>
        <time>2018-04-21T06:09:10.000Z</time>
      </trkpt>
      <trkpt lat="44.08812" lon="7.40188">
        <ele>1942</ele>
        <time>2018-04-21T06:09:16.000Z</time>
      </trkpt>
      <trkpt lat="44.08812" lon="7.40192">
        <ele>1942</ele>
        <time>2018-04-21T06:09:23.000Z</time>
      </trkpt>
      <trkpt lat="44.08812" lon="7.40197">
        <ele>1941</ele>
        <time>2018-04-21T06:09:30.000Z</time>
      </trkpt>
      <trkpt lat="44.08812" lon="7.40199">
        <ele>1941</ele>
        <time>2018-04-21T06:09:32.000Z</time>
      </trkpt>
      <trkpt lat="44.08812" lon="7.402">
        <ele>1941</ele>
        <time>2018-04-21T06:09:35.000Z</time>
      </trkpt>
      <trkpt lat="44.08812" lon="7.40204">
        <ele>1941</ele>
        <time>2018-04-21T06:09:38.000Z</time>
      </trkpt>
      <trkpt lat="44.08812" lon="7.40208">
        <ele>1941</ele>
        <time>2018-04-21T06:09:44.000Z</time>
      </trkpt>
      <trkpt lat="44.08812" lon="7.40211">
        <ele>1941</ele>
        <time>2018-04-21T06:09:47.000Z</time>
      </trkpt>
      <trkpt lat="44.08812" lon="7.40212">
        <ele>1941</ele>
        <time>2018-04-21T06:09:48.000Z</time>
      </trkpt>
      <trkpt lat="44.08812" lon="7.40213">
        <ele>1941</ele>
        <time>2018-04-21T06:09:49.000Z</time>
      </trkpt>
      <trkpt lat="44.08812" lon="7.40214">
        <ele>1941</ele>
        <time>2018-04-21T06:09:52.000Z</time>
      </trkpt>
      <trkpt lat="44.08813" lon="7.40214">
        <ele>1941</ele>
        <time>2018-04-21T06:09:56.000Z</time>
      </trkpt>
      <trkpt lat="44.08813" lon="7.40214">
        <ele>1941</ele>
        <time>2018-04-21T06:09:57.000Z</time>
      </trkpt>
      <trkpt lat="44.08814" lon="7.40211">
        <ele>1942</ele>
        <time>2018-04-21T06:10:01.000Z</time>
      </trkpt>
      <trkpt lat="44.08814" lon="7.40211">
        <ele>1942</ele>
        <time>2018-04-21T06:10:02.000Z</time>
      </trkpt>
      <trkpt lat="44.08815" lon="7.4021">
        <ele>1942</ele>
        <time>2018-04-21T06:10:05.000Z</time>
      </trkpt>
      <trkpt lat="44.08816" lon="7.40212">
        <ele>1942</ele>
        <time>2018-04-21T06:10:09.000Z</time>
      </trkpt>
      <trkpt lat="44.08816" lon="7.40212">
        <ele>1942</ele>
        <time>2018-04-21T06:10:11.000Z</time>
      </trkpt>
      <trkpt lat="44.08817" lon="7.40212">
        <ele>1942</ele>
        <time>2018-04-21T06:10:14.000Z</time>
      </trkpt>
      <trkpt lat="44.0882" lon="7.4021">
        <ele>1943</ele>
        <time>2018-04-21T06:10:20.000Z</time>
      </trkpt>
      <trkpt lat="44.08821" lon="7.4021">
        <ele>1943</ele>
        <time>2018-04-21T06:10:23.000Z</time>
      </trkpt>
      <trkpt lat="44.08822" lon="7.40209">
        <ele>1943</ele>
        <time>2018-04-21T06:10:27.000Z</time>
      </trkpt>
      <trkpt lat="44.08825" lon="7.40207">
        <ele>1944</ele>
        <time>2018-04-21T06:10:31.000Z</time>
      </trkpt>
      <trkpt lat="44.08827" lon="7.40205">
        <ele>1944</ele>
        <time>2018-04-21T06:10:37.000Z</time>
      </trkpt>
      <trkpt lat="44.08828" lon="7.40204">
        <ele>1944</ele>
        <time>2018-04-21T06:10:38.000Z</time>
      </trkpt>
      <trkpt lat="44.08829" lon="7.40201">
        <ele>1944</ele>
        <time>2018-04-21T06:10:42.000Z</time>
      </trkpt>
      <trkpt lat="44.08829" lon="7.402">
        <ele>1945</ele>
        <time>2018-04-21T06:10:44.000Z</time>
      </trkpt>
      <trkpt lat="44.08831" lon="7.40197">
        <ele>1945</ele>
        <time>2018-04-21T06:10:51.000Z</time>
      </trkpt>
      <trkpt lat="44.08831" lon="7.40197">
        <ele>1945</ele>
        <time>2018-04-21T06:10:52.000Z</time>
      </trkpt>
      <trkpt lat="44.08832" lon="7.40196">
        <ele>1945</ele>
        <time>2018-04-21T06:10:55.000Z</time>
      </trkpt>
      <trkpt lat="44.08832" lon="7.40194">
        <ele>1946</ele>
        <time>2018-04-21T06:10:58.000Z</time>
      </trkpt>
      <trkpt lat="44.08832" lon="7.40194">
        <ele>1946</ele>
        <time>2018-04-21T06:11:00.000Z</time>
      </trkpt>
      <trkpt lat="44.08834" lon="7.40192">
        <ele>1971</ele>
        <time>2018-04-21T06:11:04.000Z</time>
      </trkpt>
      <trkpt lat="44.08834" lon="7.40192">
        <ele>1971</ele>
        <time>2018-04-21T06:11:06.000Z</time>
      </trkpt>
      <trkpt lat="44.08835" lon="7.40191">
        <ele>1971</ele>
        <time>2018-04-21T06:11:11.000Z</time>
      </trkpt>
      <trkpt lat="44.08836" lon="7.40192">
        <ele>1972</ele>
        <time>2018-04-21T06:11:12.000Z</time>
      </trkpt>
      <trkpt lat="44.08835" lon="7.40193">
        <ele>1972</ele>
        <time>2018-04-21T06:11:17.000Z</time>
      </trkpt>
      <trkpt lat="44.08835" lon="7.40192">
        <ele>1972</ele>
        <time>2018-04-21T06:11:23.000Z</time>
      </trkpt>
      <trkpt lat="44.08836" lon="7.40196">
        <ele>1972</ele>
        <time>2018-04-21T06:11:31.000Z</time>
      </trkpt>
      <trkpt lat="44.08837" lon="7.40199">
        <ele>1973</ele>
        <time>2018-04-21T06:11:36.000Z</time>
      </trkpt>
      <trkpt lat="44.08838" lon="7.402">
        <ele>1973</ele>
        <time>2018-04-21T06:11:38.000Z</time>
      </trkpt>
      <trkpt lat="44.08839" lon="7.40203">
        <ele>1974</ele>
        <time>2018-04-21T06:11:44.000Z</time>
      </trkpt>
      <trkpt lat="44.08839" lon="7.40204">
        <ele>1974</ele>
        <time>2018-04-21T06:11:45.000Z</time>
      </trkpt>
      <trkpt lat="44.08839" lon="7.40203">
        <ele>1974</ele>
        <time>2018-04-21T06:11:50.000Z</time>
      </trkpt>
      <trkpt lat="44.08839" lon="7.40203">
        <ele>1974</ele>
        <time>2018-04-21T06:11:51.000Z</time>
      </trkpt>
      <trkpt lat="44.0884" lon="7.40201">
        <ele>1974</ele>
        <time>2018-04-21T06:11:54.000Z</time>
      </trkpt>
      <trkpt lat="44.08841" lon="7.40198">
        <ele>1973</ele>
        <time>2018-04-21T06:11:57.000Z</time>
      </trkpt>
      <trkpt lat="44.08842" lon="7.40197">
        <ele>1973</ele>
        <time>2018-04-21T06:11:59.000Z</time>
      </trkpt>
      <trkpt lat="44.08842" lon="7.40194">
        <ele>1973</ele>
        <time>2018-04-21T06:12:03.000Z</time>
      </trkpt>
      <trkpt lat="44.08843" lon="7.40192">
        <ele>1973</ele>
        <time>2018-04-21T06:12:05.000Z</time>
      </trkpt>
      <trkpt lat="44.08842" lon="7.40191">
        <ele>1972</ele>
        <time>2018-04-21T06:12:08.000Z</time>
      </trkpt>
      <trkpt lat="44.08843" lon="7.40189">
        <ele>1972</ele>
        <time>2018-04-21T06:12:09.000Z</time>
      </trkpt>
      <trkpt lat="44.08843" lon="7.40187">
        <ele>1972</ele>
        <time>2018-04-21T06:12:13.000Z</time>
      </trkpt>
      <trkpt lat="44.08844" lon="7.40185">
        <ele>1971</ele>
        <time>2018-04-21T06:12:15.000Z</time>
      </trkpt>
      <trkpt lat="44.08844" lon="7.40183">
        <ele>1971</ele>
        <time>2018-04-21T06:12:17.000Z</time>
      </trkpt>
      <trkpt lat="44.08843" lon="7.40184">
        <ele>1971</ele>
        <time>2018-04-21T06:12:18.000Z</time>
      </trkpt>
      <trkpt lat="44.08844" lon="7.40182">
        <ele>1970</ele>
        <time>2018-04-21T06:12:20.000Z</time>
      </trkpt>
      <trkpt lat="44.08844" lon="7.4018">
        <ele>1970</ele>
        <time>2018-04-21T06:12:21.000Z</time>
      </trkpt>
      <trkpt lat="44.08845" lon="7.40178">
        <ele>1969</ele>
        <time>2018-04-21T06:12:23.000Z</time>
      </trkpt>
      <trkpt lat="44.08845" lon="7.40176">
        <ele>1969</ele>
        <time>2018-04-21T06:12:25.000Z</time>
      </trkpt>
      <trkpt lat="44.08846" lon="7.40175">
        <ele>1969</ele>
        <time>2018-04-21T06:12:27.000Z</time>
      </trkpt>
      <trkpt lat="44.08846" lon="7.40176">
        <ele>1969</ele>
        <time>2018-04-21T06:12:28.000Z</time>
      </trkpt>
      <trkpt lat="44.08847" lon="7.40175">
        <ele>1970</ele>
        <time>2018-04-21T06:12:29.000Z</time>
      </trkpt>
      <trkpt lat="44.08848" lon="7.40174">
        <ele>1970</ele>
        <time>2018-04-21T06:12:31.000Z</time>
      </trkpt>
      <trkpt lat="44.08847" lon="7.40174">
        <ele>1970</ele>
        <time>2018-04-21T06:12:37.000Z</time>
      </trkpt>
      <trkpt lat="44.08847" lon="7.40174">
        <ele>1969</ele>
        <time>2018-04-21T06:12:43.000Z</time>
      </trkpt>
      <trkpt lat="44.08846" lon="7.40172">
        <ele>1969</ele>
        <time>2018-04-21T06:12:46.000Z</time>
      </trkpt>
      <trkpt lat="44.08846" lon="7.40171">
        <ele>1968</ele>
        <time>2018-04-21T06:12:47.000Z</time>
      </trkpt>
      <trkpt lat="44.08845" lon="7.4017">
        <ele>1967</ele>
        <time>2018-04-21T06:12:52.000Z</time>
      </trkpt>
      <trkpt lat="44.08844" lon="7.40168">
        <ele>1967</ele>
        <time>2018-04-21T06:12:54.000Z</time>
      </trkpt>
      <trkpt lat="44.08844" lon="7.40167">
        <ele>1967</ele>
        <time>2018-04-21T06:12:57.000Z</time>
      </trkpt>
      <trkpt lat="44.08845" lon="7.40166">
        <ele>1968</ele>
        <time>2018-04-21T06:12:58.000Z</time>
      </trkpt>
      <trkpt lat="44.08846" lon="7.40164">
        <ele>1969</ele>
        <time>2018-04-21T06:13:01.000Z</time>
      </trkpt>
      <trkpt lat="44.08846" lon="7.40165">
        <ele>1969</ele>
        <time>2018-04-21T06:13:02.000Z</time>
      </trkpt>
      <trkpt lat="44.08847" lon="7.40162">
        <ele>1970</ele>
        <time>2018-04-21T06:13:07.000Z</time>
      </trkpt>
      <trkpt lat="44.08848" lon="7.40161">
        <ele>1971</ele>
        <time>2018-04-21T06:13:08.000Z</time>
      </trkpt>
      <trkpt lat="44.08849" lon="7.40159">
        <ele>1972</ele>
        <time>2018-04-21T06:13:13.000Z</time>
      </trkpt>
      <trkpt lat="44.0885" lon="7.40157">
        <ele>1972</ele>
        <time>2018-04-21T06:13:14.000Z</time>
      </trkpt>
      <trkpt lat="44.08851" lon="7.40154">
        <ele>1974</ele>
        <time>2018-04-21T06:13:18.000Z</time>
      </trkpt>
      <trkpt lat="44.08851" lon="7.40153">
        <ele>1974</ele>
        <time>2018-04-21T06:13:21.000Z</time>
      </trkpt>
      <trkpt lat="44.08852" lon="7.40151">
        <ele>1974</ele>
        <time>2018-04-21T06:13:23.000Z</time>
      </trkpt>
      <trkpt lat="44.08853" lon="7.40147">
        <ele>1976</ele>
        <time>2018-04-21T06:13:28.000Z</time>
      </trkpt>
      <trkpt lat="44.08853" lon="7.40146">
        <ele>1976</ele>
        <time>2018-04-21T06:13:29.000Z</time>
      </trkpt>
      <trkpt lat="44.08853" lon="7.40142">
        <ele>1977</ele>
        <time>2018-04-21T06:13:34.000Z</time>
      </trkpt>
      <trkpt lat="44.08853" lon="7.4014">
        <ele>1977</ele>
        <time>2018-04-21T06:13:35.000Z</time>
      </trkpt>
      <trkpt lat="44.08854" lon="7.40141">
        <ele>1977</ele>
        <time>2018-04-21T06:13:38.000Z</time>
      </trkpt>
      <trkpt lat="44.08854" lon="7.40141">
        <ele>1977</ele>
        <time>2018-04-21T06:13:45.000Z</time>
      </trkpt>
      <trkpt lat="44.08856" lon="7.40142">
        <ele>1977</ele>
        <time>2018-04-21T06:13:52.000Z</time>
      </trkpt>
      <trkpt lat="44.08857" lon="7.40143">
        <ele>1978</ele>
        <time>2018-04-21T06:13:56.000Z</time>
      </trkpt>
      <trkpt lat="44.08859" lon="7.40144">
        <ele>1978</ele>
        <time>2018-04-21T06:14:01.000Z</time>
      </trkpt>
      <trkpt lat="44.08861" lon="7.40145">
        <ele>1978</ele>
        <time>2018-04-21T06:14:04.000Z</time>
      </trkpt>
      <trkpt lat="44.08862" lon="7.40146">
        <ele>1978</ele>
        <time>2018-04-21T06:14:07.000Z</time>
      </trkpt>
      <trkpt lat="44.08863" lon="7.40147">
        <ele>1979</ele>
        <time>2018-04-21T06:14:10.000Z</time>
      </trkpt>
      <trkpt lat="44.08865" lon="7.40148">
        <ele>1979</ele>
        <time>2018-04-21T06:14:13.000Z</time>
      </trkpt>
      <trkpt lat="44.08865" lon="7.40151">
        <ele>1979</ele>
        <time>2018-04-21T06:14:16.000Z</time>
      </trkpt>
      <trkpt lat="44.08866" lon="7.40152">
        <ele>1979</ele>
        <time>2018-04-21T06:14:20.000Z</time>
      </trkpt>
      <trkpt lat="44.08868" lon="7.40151">
        <ele>1980</ele>
        <time>2018-04-21T06:14:24.000Z</time>
      </trkpt>
      <trkpt lat="44.08869" lon="7.40149">
        <ele>1980</ele>
        <time>2018-04-21T06:14:26.000Z</time>
      </trkpt>
      <trkpt lat="44.08871" lon="7.40147">
        <ele>1981</ele>
        <time>2018-04-21T06:14:32.000Z</time>
      </trkpt>
      <trkpt lat="44.08874" lon="7.40146">
        <ele>1982</ele>
        <time>2018-04-21T06:14:38.000Z</time>
      </trkpt>
      <trkpt lat="44.08876" lon="7.40145">
        <ele>1982</ele>
        <time>2018-04-21T06:14:41.000Z</time>
      </trkpt>
      <trkpt lat="44.08877" lon="7.40145">
        <ele>1983</ele>
        <time>2018-04-21T06:14:44.000Z</time>
      </trkpt>
      <trkpt lat="44.08878" lon="7.40144">
        <ele>1983</ele>
        <time>2018-04-21T06:14:46.000Z</time>
      </trkpt>
      <trkpt lat="44.0888" lon="7.40144">
        <ele>1983</ele>
        <time>2018-04-21T06:14:51.000Z</time>
      </trkpt>
      <trkpt lat="44.0888" lon="7.40144">
        <ele>1983</ele>
        <time>2018-04-21T06:14:53.000Z</time>
      </trkpt>
      <trkpt lat="44.08883" lon="7.40145">
        <ele>1984</ele>
        <time>2018-04-21T06:14:57.000Z</time>
      </trkpt>
      <trkpt lat="44.08885" lon="7.40145">
        <ele>1984</ele>
        <time>2018-04-21T06:15:00.000Z</time>
      </trkpt>
      <trkpt lat="44.08885" lon="7.40145">
        <ele>1985</ele>
        <time>2018-04-21T06:15:03.000Z</time>
      </trkpt>
      <trkpt lat="44.08886" lon="7.40145">
        <ele>1985</ele>
        <time>2018-04-21T06:15:05.000Z</time>
      </trkpt>
      <trkpt lat="44.08886" lon="7.40145">
        <ele>1985</ele>
        <time>2018-04-21T06:15:09.000Z</time>
      </trkpt>
      <trkpt lat="44.08886" lon="7.40144">
        <ele>1985</ele>
        <time>2018-04-21T06:15:13.000Z</time>
      </trkpt>
      <trkpt lat="44.08887" lon="7.40143">
        <ele>1985</ele>
        <time>2018-04-21T06:15:15.000Z</time>
      </trkpt>
      <trkpt lat="44.08889" lon="7.4014">
        <ele>1985</ele>
        <time>2018-04-21T06:15:20.000Z</time>
      </trkpt>
      <trkpt lat="44.08889" lon="7.4014">
        <ele>1985</ele>
        <time>2018-04-21T06:15:24.000Z</time>
      </trkpt>
      <trkpt lat="44.08889" lon="7.40139">
        <ele>1985</ele>
        <time>2018-04-21T06:15:26.000Z</time>
      </trkpt>
      <trkpt lat="44.0889" lon="7.40137">
        <ele>1986</ele>
        <time>2018-04-21T06:15:32.000Z</time>
      </trkpt>
      <trkpt lat="44.0889" lon="7.40137">
        <ele>1986</ele>
        <time>2018-04-21T06:15:36.000Z</time>
      </trkpt>
      <trkpt lat="44.0889" lon="7.40137">
        <ele>1986</ele>
        <time>2018-04-21T06:15:39.000Z</time>
      </trkpt>
      <trkpt lat="44.0889" lon="7.40137">
        <ele>1986</ele>
        <time>2018-04-21T06:15:47.000Z</time>
      </trkpt>
      <trkpt lat="44.08891" lon="7.40135">
        <ele>1986</ele>
        <time>2018-04-21T06:15:53.000Z</time>
      </trkpt>
      <trkpt lat="44.08891" lon="7.40134">
        <ele>1986</ele>
        <time>2018-04-21T06:15:58.000Z</time>
      </trkpt>
      <trkpt lat="44.08893" lon="7.40134">
        <ele>1986</ele>
        <time>2018-04-21T06:15:59.000Z</time>
      </trkpt>
      <trkpt lat="44.08894" lon="7.40134">
        <ele>1987</ele>
        <time>2018-04-21T06:16:02.000Z</time>
      </trkpt>
      <trkpt lat="44.08896" lon="7.40133">
        <ele>1987</ele>
        <time>2018-04-21T06:16:07.000Z</time>
      </trkpt>
      <trkpt lat="44.08898" lon="7.40134">
        <ele>1987</ele>
        <time>2018-04-21T06:16:09.000Z</time>
      </trkpt>
      <trkpt lat="44.089" lon="7.40134">
        <ele>1987</ele>
        <time>2018-04-21T06:16:14.000Z</time>
      </trkpt>
      <trkpt lat="44.08901" lon="7.40135">
        <ele>1988</ele>
        <time>2018-04-21T06:16:15.000Z</time>
      </trkpt>
      <trkpt lat="44.08904" lon="7.40136">
        <ele>1988</ele>
        <time>2018-04-21T06:16:22.000Z</time>
      </trkpt>
      <trkpt lat="44.08906" lon="7.40137">
        <ele>1988</ele>
        <time>2018-04-21T06:16:28.000Z</time>
      </trkpt>
      <trkpt lat="44.08906" lon="7.40137">
        <ele>1988</ele>
        <time>2018-04-21T06:16:29.000Z</time>
      </trkpt>
      <trkpt lat="44.08908" lon="7.40138">
        <ele>1989</ele>
        <time>2018-04-21T06:16:33.000Z</time>
      </trkpt>
      <trkpt lat="44.08909" lon="7.40138">
        <ele>1989</ele>
        <time>2018-04-21T06:16:35.000Z</time>
      </trkpt>
      <trkpt lat="44.0891" lon="7.40137">
        <ele>1989</ele>
        <time>2018-04-21T06:16:39.000Z</time>
      </trkpt>
      <trkpt lat="44.08909" lon="7.40137">
        <ele>1989</ele>
        <time>2018-04-21T06:16:40.000Z</time>
      </trkpt>
      <trkpt lat="44.08911" lon="7.40135">
        <ele>1989</ele>
        <time>2018-04-21T06:16:45.000Z</time>
      </trkpt>
      <trkpt lat="44.08911" lon="7.40134">
        <ele>1989</ele>
        <time>2018-04-21T06:16:46.000Z</time>
      </trkpt>
      <trkpt lat="44.08912" lon="7.40131">
        <ele>1989</ele>
        <time>2018-04-21T06:16:51.000Z</time>
      </trkpt>
      <trkpt lat="44.08912" lon="7.4013">
        <ele>1989</ele>
        <time>2018-04-21T06:16:54.000Z</time>
      </trkpt>
      <trkpt lat="44.08913" lon="7.40129">
        <ele>1989</ele>
        <time>2018-04-21T06:16:57.000Z</time>
      </trkpt>
      <trkpt lat="44.08913" lon="7.40128">
        <ele>1989</ele>
        <time>2018-04-21T06:17:00.000Z</time>
      </trkpt>
      <trkpt lat="44.08914" lon="7.40126">
        <ele>1989</ele>
        <time>2018-04-21T06:17:03.000Z</time>
      </trkpt>
      <trkpt lat="44.08914" lon="7.40126">
        <ele>1989</ele>
        <time>2018-04-21T06:17:07.000Z</time>
      </trkpt>
      <trkpt lat="44.08915" lon="7.40124">
        <ele>1989</ele>
        <time>2018-04-21T06:17:09.000Z</time>
      </trkpt>
      <trkpt lat="44.08915" lon="7.40124">
        <ele>1989</ele>
        <time>2018-04-21T06:17:12.000Z</time>
      </trkpt>
      <trkpt lat="44.08915" lon="7.40122">
        <ele>1990</ele>
        <time>2018-04-21T06:17:16.000Z</time>
      </trkpt>
      <trkpt lat="44.08916" lon="7.4012">
        <ele>1990</ele>
        <time>2018-04-21T06:17:18.000Z</time>
      </trkpt>
      <trkpt lat="44.08916" lon="7.40119">
        <ele>1990</ele>
        <time>2018-04-21T06:17:24.000Z</time>
      </trkpt>
      <trkpt lat="44.08916" lon="7.40118">
        <ele>1990</ele>
        <time>2018-04-21T06:17:25.000Z</time>
      </trkpt>
      <trkpt lat="44.08917" lon="7.40117">
        <ele>1990</ele>
        <time>2018-04-21T06:17:29.000Z</time>
      </trkpt>
      <trkpt lat="44.08917" lon="7.40115">
        <ele>2010</ele>
        <time>2018-04-21T06:17:31.000Z</time>
      </trkpt>
      <trkpt lat="44.08918" lon="7.40114">
        <ele>2010</ele>
        <time>2018-04-21T06:17:34.000Z</time>
      </trkpt>
      <trkpt lat="44.08919" lon="7.40114">
        <ele>2010</ele>
        <time>2018-04-21T06:17:36.000Z</time>
      </trkpt>
      <trkpt lat="44.0892" lon="7.40115">
        <ele>2010</ele>
        <time>2018-04-21T06:17:38.000Z</time>
      </trkpt>
      <trkpt lat="44.08921" lon="7.40115">
        <ele>2010</ele>
        <time>2018-04-21T06:17:42.000Z</time>
      </trkpt>
      <trkpt lat="44.08922" lon="7.40115">
        <ele>2010</ele>
        <time>2018-04-21T06:17:43.000Z</time>
      </trkpt>
      <trkpt lat="44.08921" lon="7.40114">
        <ele>2010</ele>
        <time>2018-04-21T06:17:46.000Z</time>
      </trkpt>
      <trkpt lat="44.08922" lon="7.40114">
        <ele>2010</ele>
        <time>2018-04-21T06:17:47.000Z</time>
      </trkpt>
      <trkpt lat="44.08922" lon="7.40115">
        <ele>2010</ele>
        <time>2018-04-21T06:17:50.000Z</time>
      </trkpt>
      <trkpt lat="44.08923" lon="7.40115">
        <ele>2010</ele>
        <time>2018-04-21T06:17:53.000Z</time>
      </trkpt>
      <trkpt lat="44.08925" lon="7.40115">
        <ele>2010</ele>
        <time>2018-04-21T06:17:57.000Z</time>
      </trkpt>
      <trkpt lat="44.08925" lon="7.40115">
        <ele>2010</ele>
        <time>2018-04-21T06:17:59.000Z</time>
      </trkpt>
      <trkpt lat="44.08928" lon="7.40115">
        <ele>2011</ele>
        <time>2018-04-21T06:18:06.000Z</time>
      </trkpt>
      <trkpt lat="44.08932" lon="7.40115">
        <ele>2011</ele>
        <time>2018-04-21T06:18:12.000Z</time>
      </trkpt>
      <trkpt lat="44.08933" lon="7.40115">
        <ele>2011</ele>
        <time>2018-04-21T06:18:17.000Z</time>
      </trkpt>
      <trkpt lat="44.08936" lon="7.40115">
        <ele>2012</ele>
        <time>2018-04-21T06:18:20.000Z</time>
      </trkpt>
      <trkpt lat="44.08938" lon="7.40115">
        <ele>2012</ele>
        <time>2018-04-21T06:18:23.000Z</time>
      </trkpt>
      <trkpt lat="44.08939" lon="7.40114">
        <ele>2012</ele>
        <time>2018-04-21T06:18:25.000Z</time>
      </trkpt>
      <trkpt lat="44.0894" lon="7.40114">
        <ele>2012</ele>
        <time>2018-04-21T06:18:26.000Z</time>
      </trkpt>
      <trkpt lat="44.08943" lon="7.40113">
        <ele>2013</ele>
        <time>2018-04-21T06:18:31.000Z</time>
      </trkpt>
      <trkpt lat="44.08947" lon="7.40112">
        <ele>2014</ele>
        <time>2018-04-21T06:18:38.000Z</time>
      </trkpt>
      <trkpt lat="44.08949" lon="7.40112">
        <ele>2014</ele>
        <time>2018-04-21T06:18:44.000Z</time>
      </trkpt>
      <trkpt lat="44.08951" lon="7.40111">
        <ele>2014</ele>
        <time>2018-04-21T06:18:46.000Z</time>
      </trkpt>
      <trkpt lat="44.08953" lon="7.4011">
        <ele>2015</ele>
        <time>2018-04-21T06:18:49.000Z</time>
      </trkpt>
      <trkpt lat="44.08955" lon="7.4011">
        <ele>2015</ele>
        <time>2018-04-21T06:18:53.000Z</time>
      </trkpt>
      <trkpt lat="44.08956" lon="7.4011">
        <ele>2015</ele>
        <time>2018-04-21T06:18:54.000Z</time>
      </trkpt>
      <trkpt lat="44.08957" lon="7.40109">
        <ele>2015</ele>
        <time>2018-04-21T06:18:57.000Z</time>
      </trkpt>
      <trkpt lat="44.08958" lon="7.40109">
        <ele>2015</ele>
        <time>2018-04-21T06:18:59.000Z</time>
      </trkpt>
      <trkpt lat="44.08961" lon="7.40108">
        <ele>2016</ele>
        <time>2018-04-21T06:19:04.000Z</time>
      </trkpt>
      <trkpt lat="44.08962" lon="7.40107">
        <ele>2016</ele>
        <time>2018-04-21T06:19:07.000Z</time>
      </trkpt>
      <trkpt lat="44.08962" lon="7.40107">
        <ele>2016</ele>
        <time>2018-04-21T06:19:09.000Z</time>
      </trkpt>
      <trkpt lat="44.08963" lon="7.40105">
        <ele>2016</ele>
        <time>2018-04-21T06:19:11.000Z</time>
      </trkpt>
      <trkpt lat="44.08964" lon="7.40104">
        <ele>2016</ele>
        <time>2018-04-21T06:19:13.000Z</time>
      </trkpt>
      <trkpt lat="44.08964" lon="7.40104">
        <ele>2016</ele>
        <time>2018-04-21T06:19:14.000Z</time>
      </trkpt>
      <trkpt lat="44.08967" lon="7.401">
        <ele>2017</ele>
        <time>2018-04-21T06:19:19.000Z</time>
      </trkpt>
      <trkpt lat="44.08967" lon="7.40099">
        <ele>2017</ele>
        <time>2018-04-21T06:19:20.000Z</time>
      </trkpt>
      <trkpt lat="44.08968" lon="7.40096">
        <ele>2017</ele>
        <time>2018-04-21T06:19:24.000Z</time>
      </trkpt>
      <trkpt lat="44.08969" lon="7.40094">
        <ele>2017</ele>
        <time>2018-04-21T06:19:30.000Z</time>
      </trkpt>
      <trkpt lat="44.08972" lon="7.40091">
        <ele>2018</ele>
        <time>2018-04-21T06:19:38.000Z</time>
      </trkpt>
      <trkpt lat="44.08973" lon="7.40089">
        <ele>2018</ele>
        <time>2018-04-21T06:19:44.000Z</time>
      </trkpt>
      <trkpt lat="44.08975" lon="7.40085">
        <ele>2018</ele>
        <time>2018-04-21T06:19:51.000Z</time>
      </trkpt>
      <trkpt lat="44.08979" lon="7.40078">
        <ele>2014</ele>
        <time>2018-04-21T06:19:59.000Z</time>
      </trkpt>
      <trkpt lat="44.08983" lon="7.40071">
        <ele>2014</ele>
        <time>2018-04-21T06:20:07.000Z</time>
      </trkpt>
      <trkpt lat="44.08987" lon="7.40065">
        <ele>2014</ele>
        <time>2018-04-21T06:20:13.000Z</time>
      </trkpt>
      <trkpt lat="44.0899" lon="7.4006">
        <ele>2013</ele>
        <time>2018-04-21T06:20:18.000Z</time>
      </trkpt>
      <trkpt lat="44.08994" lon="7.40053">
        <ele>2013</ele>
        <time>2018-04-21T06:20:23.000Z</time>
      </trkpt>
      <trkpt lat="44.08994" lon="7.40052">
        <ele>2012</ele>
        <time>2018-04-21T06:20:24.000Z</time>
      </trkpt>
      <trkpt lat="44.08996" lon="7.40048">
        <ele>2012</ele>
        <time>2018-04-21T06:20:27.000Z</time>
      </trkpt>
      <trkpt lat="44.08997" lon="7.40045">
        <ele>2012</ele>
        <time>2018-04-21T06:20:29.000Z</time>
      </trkpt>
      <trkpt lat="44.08998" lon="7.40045">
        <ele>2012</ele>
        <time>2018-04-21T06:20:30.000Z</time>
      </trkpt>
      <trkpt lat="44.08999" lon="7.40043">
        <ele>2012</ele>
        <time>2018-04-21T06:20:31.000Z</time>
      </trkpt>
      <trkpt lat="44.09003" lon="7.40037">
        <ele>2022</ele>
        <time>2018-04-21T06:20:37.000Z</time>
      </trkpt>
      <trkpt lat="44.09005" lon="7.40033">
        <ele>2021</ele>
        <time>2018-04-21T06:20:41.000Z</time>
      </trkpt>
      <trkpt lat="44.09006" lon="7.40031">
        <ele>2021</ele>
        <time>2018-04-21T06:20:42.000Z</time>
      </trkpt>
      <trkpt lat="44.09009" lon="7.40025">
        <ele>2020</ele>
        <time>2018-04-21T06:20:48.000Z</time>
      </trkpt>
      <trkpt lat="44.09009" lon="7.40023">
        <ele>2020</ele>
        <time>2018-04-21T06:20:49.000Z</time>
      </trkpt>
      <trkpt lat="44.0901" lon="7.40021">
        <ele>2019</ele>
        <time>2018-04-21T06:20:53.000Z</time>
      </trkpt>
      <trkpt lat="44.09013" lon="7.40015">
        <ele>2018</ele>
        <time>2018-04-21T06:20:57.000Z</time>
      </trkpt>
      <trkpt lat="44.09015" lon="7.4001">
        <ele>2018</ele>
        <time>2018-04-21T06:21:02.000Z</time>
      </trkpt>
      <trkpt lat="44.09019" lon="7.40005">
        <ele>2018</ele>
        <time>2018-04-21T06:21:08.000Z</time>
      </trkpt>
      <trkpt lat="44.09022" lon="7.40003">
        <ele>2019</ele>
        <time>2018-04-21T06:21:11.000Z</time>
      </trkpt>
      <trkpt lat="44.09023" lon="7.40002">
        <ele>2019</ele>
        <time>2018-04-21T06:21:13.000Z</time>
      </trkpt>
      <trkpt lat="44.09027" lon="7.39999">
        <ele>2018</ele>
        <time>2018-04-21T06:21:18.000Z</time>
      </trkpt>
      <trkpt lat="44.09031" lon="7.39996">
        <ele>2019</ele>
        <time>2018-04-21T06:21:22.000Z</time>
      </trkpt>
      <trkpt lat="44.09034" lon="7.39992">
        <ele>2019</ele>
        <time>2018-04-21T06:21:26.000Z</time>
      </trkpt>
      <trkpt lat="44.09036" lon="7.3999">
        <ele>2019</ele>
        <time>2018-04-21T06:21:28.000Z</time>
      </trkpt>
      <trkpt lat="44.09037" lon="7.39988">
        <ele>2020</ele>
        <time>2018-04-21T06:21:30.000Z</time>
      </trkpt>
      <trkpt lat="44.0904" lon="7.39983">
        <ele>2020</ele>
        <time>2018-04-21T06:21:35.000Z</time>
      </trkpt>
      <trkpt lat="44.09042" lon="7.3998">
        <ele>2020</ele>
        <time>2018-04-21T06:21:39.000Z</time>
      </trkpt>
      <trkpt lat="44.09043" lon="7.39975">
        <ele>2021</ele>
        <time>2018-04-21T06:21:44.000Z</time>
      </trkpt>
      <trkpt lat="44.09043" lon="7.39976">
        <ele>2021</ele>
        <time>2018-04-21T06:21:45.000Z</time>
      </trkpt>
      <trkpt lat="44.09043" lon="7.39971">
        <ele>2021</ele>
        <time>2018-04-21T06:21:47.000Z</time>
      </trkpt>
      <trkpt lat="44.09042" lon="7.39968">
        <ele>2021</ele>
        <time>2018-04-21T06:21:49.000Z</time>
      </trkpt>
      <trkpt lat="44.09041" lon="7.39961">
        <ele>2022</ele>
        <time>2018-04-21T06:21:54.000Z</time>
      </trkpt>
      <trkpt lat="44.0904" lon="7.39953">
        <ele>2022</ele>
        <time>2018-04-21T06:22:00.000Z</time>
      </trkpt>
      <trkpt lat="44.09039" lon="7.39954">
        <ele>2022</ele>
        <time>2018-04-21T06:22:03.000Z</time>
      </trkpt>
      <trkpt lat="44.09039" lon="7.39953">
        <ele>2022</ele>
        <time>2018-04-21T06:22:04.000Z</time>
      </trkpt>
      <trkpt lat="44.0904" lon="7.39954">
        <ele>2022</ele>
        <time>2018-04-21T06:22:09.000Z</time>
      </trkpt>
      <trkpt lat="44.0904" lon="7.39953">
        <ele>2022</ele>
        <time>2018-04-21T06:22:12.000Z</time>
      </trkpt>
      <trkpt lat="44.0904" lon="7.39953">
        <ele>2022</ele>
        <time>2018-04-21T06:22:15.000Z</time>
      </trkpt>
      <trkpt lat="44.0904" lon="7.39947">
        <ele>2023</ele>
        <time>2018-04-21T06:22:20.000Z</time>
      </trkpt>
      <trkpt lat="44.0904" lon="7.39946">
        <ele>2023</ele>
        <time>2018-04-21T06:22:21.000Z</time>
      </trkpt>
      <trkpt lat="44.09041" lon="7.39942">
        <ele>2023</ele>
        <time>2018-04-21T06:22:26.000Z</time>
      </trkpt>
      <trkpt lat="44.09042" lon="7.3994">
        <ele>2023</ele>
        <time>2018-04-21T06:22:29.000Z</time>
      </trkpt>
      <trkpt lat="44.09043" lon="7.39938">
        <ele>2023</ele>
        <time>2018-04-21T06:22:31.000Z</time>
      </trkpt>
      <trkpt lat="44.09045" lon="7.39933">
        <ele>2023</ele>
        <time>2018-04-21T06:22:36.000Z</time>
      </trkpt>
      <trkpt lat="44.09049" lon="7.39925">
        <ele>2023</ele>
        <time>2018-04-21T06:22:43.000Z</time>
      </trkpt>
      <trkpt lat="44.09055" lon="7.39916">
        <ele>2034</ele>
        <time>2018-04-21T06:22:51.000Z</time>
      </trkpt>
      <trkpt lat="44.09058" lon="7.39911">
        <ele>2033</ele>
        <time>2018-04-21T06:22:57.000Z</time>
      </trkpt>
      <trkpt lat="44.09061" lon="7.39907">
        <ele>2033</ele>
        <time>2018-04-21T06:23:02.000Z</time>
      </trkpt>
      <trkpt lat="44.09061" lon="7.39907">
        <ele>2033</ele>
        <time>2018-04-21T06:23:03.000Z</time>
      </trkpt>
      <trkpt lat="44.09064" lon="7.39904">
        <ele>2033</ele>
        <time>2018-04-21T06:23:07.000Z</time>
      </trkpt>
      <trkpt lat="44.09066" lon="7.399">
        <ele>2033</ele>
        <time>2018-04-21T06:23:11.000Z</time>
      </trkpt>
      <trkpt lat="44.09066" lon="7.39899">
        <ele>2033</ele>
        <time>2018-04-21T06:23:12.000Z</time>
      </trkpt>
      <trkpt lat="44.09068" lon="7.39895">
        <ele>2034</ele>
        <time>2018-04-21T06:23:18.000Z</time>
      </trkpt>
      <trkpt lat="44.0907" lon="7.39892">
        <ele>2035</ele>
        <time>2018-04-21T06:23:24.000Z</time>
      </trkpt>
      <trkpt lat="44.09073" lon="7.39889">
        <ele>2036</ele>
        <time>2018-04-21T06:23:30.000Z</time>
      </trkpt>
      <trkpt lat="44.09074" lon="7.39887">
        <ele>2036</ele>
        <time>2018-04-21T06:23:32.000Z</time>
      </trkpt>
      <trkpt lat="44.09076" lon="7.39885">
        <ele>2036</ele>
        <time>2018-04-21T06:23:36.000Z</time>
      </trkpt>
      <trkpt lat="44.09077" lon="7.39884">
        <ele>2037</ele>
        <time>2018-04-21T06:23:39.000Z</time>
      </trkpt>
      <trkpt lat="44.09078" lon="7.39883">
        <ele>2037</ele>
        <time>2018-04-21T06:23:41.000Z</time>
      </trkpt>
      <trkpt lat="44.0908" lon="7.3988">
        <ele>2037</ele>
        <time>2018-04-21T06:23:46.000Z</time>
      </trkpt>
      <trkpt lat="44.09081" lon="7.39879">
        <ele>2038</ele>
        <time>2018-04-21T06:23:48.000Z</time>
      </trkpt>
      <trkpt lat="44.09082" lon="7.39878">
        <ele>2038</ele>
        <time>2018-04-21T06:23:50.000Z</time>
      </trkpt>
      <trkpt lat="44.09082" lon="7.39877">
        <ele>2038</ele>
        <time>2018-04-21T06:23:52.000Z</time>
      </trkpt>
      <trkpt lat="44.09083" lon="7.39876">
        <ele>2038</ele>
        <time>2018-04-21T06:23:54.000Z</time>
      </trkpt>
      <trkpt lat="44.09085" lon="7.39874">
        <ele>2032</ele>
        <time>2018-04-21T06:23:58.000Z</time>
      </trkpt>
      <trkpt lat="44.09085" lon="7.39874">
        <ele>2032</ele>
        <time>2018-04-21T06:23:59.000Z</time>
      </trkpt>
      <trkpt lat="44.09087" lon="7.3987">
        <ele>2033</ele>
        <time>2018-04-21T06:24:05.000Z</time>
      </trkpt>
      <trkpt lat="44.09087" lon="7.3987">
        <ele>2033</ele>
        <time>2018-04-21T06:24:07.000Z</time>
      </trkpt>
      <trkpt lat="44.09088" lon="7.39869">
        <ele>2033</ele>
        <time>2018-04-21T06:24:10.000Z</time>
      </trkpt>
      <trkpt lat="44.09089" lon="7.39866">
        <ele>2034</ele>
        <time>2018-04-21T06:24:13.000Z</time>
      </trkpt>
      <trkpt lat="44.09089" lon="7.39865">
        <ele>2034</ele>
        <time>2018-04-21T06:24:15.000Z</time>
      </trkpt>
      <trkpt lat="44.09091" lon="7.39862">
        <ele>2035</ele>
        <time>2018-04-21T06:24:20.000Z</time>
      </trkpt>
      <trkpt lat="44.09093" lon="7.39858">
        <ele>2036</ele>
        <time>2018-04-21T06:24:26.000Z</time>
      </trkpt>
      <trkpt lat="44.09092" lon="7.39859">
        <ele>2036</ele>
        <time>2018-04-21T06:24:27.000Z</time>
      </trkpt>
      <trkpt lat="44.09093" lon="7.39855">
        <ele>2036</ele>
        <time>2018-04-21T06:24:31.000Z</time>
      </trkpt>
      <trkpt lat="44.09093" lon="7.39855">
        <ele>2036</ele>
        <time>2018-04-21T06:24:32.000Z</time>
      </trkpt>
      <trkpt lat="44.09093" lon="7.39854">
        <ele>2037</ele>
        <time>2018-04-21T06:24:33.000Z</time>
      </trkpt>
      <trkpt lat="44.09095" lon="7.39853">
        <ele>2037</ele>
        <time>2018-04-21T06:24:36.000Z</time>
      </trkpt>
      <trkpt lat="44.09096" lon="7.39852">
        <ele>2037</ele>
        <time>2018-04-21T06:24:38.000Z</time>
      </trkpt>
      <trkpt lat="44.09097" lon="7.3985">
        <ele>2037</ele>
        <time>2018-04-21T06:24:41.000Z</time>
      </trkpt>
      <trkpt lat="44.09097" lon="7.3985">
        <ele>2037</ele>
        <time>2018-04-21T06:24:44.000Z</time>
      </trkpt>
      <trkpt lat="44.09097" lon="7.39849">
        <ele>2037</ele>
        <time>2018-04-21T06:24:47.000Z</time>
      </trkpt>
      <trkpt lat="44.09098" lon="7.39847">
        <ele>2037</ele>
        <time>2018-04-21T06:24:49.000Z</time>
      </trkpt>
      <trkpt lat="44.09097" lon="7.39845">
        <ele>2038</ele>
        <time>2018-04-21T06:24:54.000Z</time>
      </trkpt>
      <trkpt lat="44.09098" lon="7.39843">
        <ele>2038</ele>
        <time>2018-04-21T06:24:58.000Z</time>
      </trkpt>
      <trkpt lat="44.09098" lon="7.39841">
        <ele>2039</ele>
        <time>2018-04-21T06:25:02.000Z</time>
      </trkpt>
      <trkpt lat="44.09098" lon="7.39838">
        <ele>2039</ele>
        <time>2018-04-21T06:25:06.000Z</time>
      </trkpt>
      <trkpt lat="44.09097" lon="7.39837">
        <ele>2039</ele>
        <time>2018-04-21T06:25:09.000Z</time>
      </trkpt>
      <trkpt lat="44.09097" lon="7.39835">
        <ele>2040</ele>
        <time>2018-04-21T06:25:11.000Z</time>
      </trkpt>
      <trkpt lat="44.09097" lon="7.39833">
        <ele>2051</ele>
        <time>2018-04-21T06:25:15.000Z</time>
      </trkpt>
      <trkpt lat="44.09097" lon="7.39831">
        <ele>2051</ele>
        <time>2018-04-21T06:25:18.000Z</time>
      </trkpt>
      <trkpt lat="44.09097" lon="7.39831">
        <ele>2051</ele>
        <time>2018-04-21T06:25:20.000Z</time>
      </trkpt>
      <trkpt lat="44.09097" lon="7.39828">
        <ele>2051</ele>
        <time>2018-04-21T06:25:24.000Z</time>
      </trkpt>
      <trkpt lat="44.09097" lon="7.39828">
        <ele>2051</ele>
        <time>2018-04-21T06:25:26.000Z</time>
      </trkpt>
      <trkpt lat="44.09097" lon="7.39826">
        <ele>2052</ele>
        <time>2018-04-21T06:25:30.000Z</time>
      </trkpt>
      <trkpt lat="44.09097" lon="7.39824">
        <ele>2052</ele>
        <time>2018-04-21T06:25:33.000Z</time>
      </trkpt>
      <trkpt lat="44.09097" lon="7.39823">
        <ele>2052</ele>
        <time>2018-04-21T06:25:34.000Z</time>
      </trkpt>
      <trkpt lat="44.09096" lon="7.3982">
        <ele>2053</ele>
        <time>2018-04-21T06:25:39.000Z</time>
      </trkpt>
      <trkpt lat="44.09096" lon="7.39818">
        <ele>2054</ele>
        <time>2018-04-21T06:25:45.000Z</time>
      </trkpt>
      <trkpt lat="44.09096" lon="7.39815">
        <ele>2055</ele>
        <time>2018-04-21T06:25:50.000Z</time>
      </trkpt>
      <trkpt lat="44.09096" lon="7.39813">
        <ele>2055</ele>
        <time>2018-04-21T06:25:54.000Z</time>
      </trkpt>
      <trkpt lat="44.09096" lon="7.39812">
        <ele>2056</ele>
        <time>2018-04-21T06:25:55.000Z</time>
      </trkpt>
      <trkpt lat="44.09095" lon="7.3981">
        <ele>2056</ele>
        <time>2018-04-21T06:26:01.000Z</time>
      </trkpt>
      <trkpt lat="44.09094" lon="7.39807">
        <ele>2057</ele>
        <time>2018-04-21T06:26:03.000Z</time>
      </trkpt>
      <trkpt lat="44.09094" lon="7.39806">
        <ele>2057</ele>
        <time>2018-04-21T06:26:05.000Z</time>
      </trkpt>
      <trkpt lat="44.09093" lon="7.39804">
        <ele>2058</ele>
        <time>2018-04-21T06:26:10.000Z</time>
      </trkpt>
      <trkpt lat="44.09092" lon="7.39801">
        <ele>2059</ele>
        <time>2018-04-21T06:26:15.000Z</time>
      </trkpt>
      <trkpt lat="44.09095" lon="7.398">
        <ele>2059</ele>
        <time>2018-04-21T06:26:19.000Z</time>
      </trkpt>
      <trkpt lat="44.09094" lon="7.398">
        <ele>2059</ele>
        <time>2018-04-21T06:26:20.000Z</time>
      </trkpt>
      <trkpt lat="44.09098" lon="7.39798">
        <ele>2060</ele>
        <time>2018-04-21T06:26:27.000Z</time>
      </trkpt>
      <trkpt lat="44.09098" lon="7.39798">
        <ele>2060</ele>
        <time>2018-04-21T06:26:28.000Z</time>
      </trkpt>
      <trkpt lat="44.091" lon="7.39796">
        <ele>2060</ele>
        <time>2018-04-21T06:26:33.000Z</time>
      </trkpt>
      <trkpt lat="44.091" lon="7.39796">
        <ele>2061</ele>
        <time>2018-04-21T06:26:36.000Z</time>
      </trkpt>
      <trkpt lat="44.09101" lon="7.39795">
        <ele>2061</ele>
        <time>2018-04-21T06:26:39.000Z</time>
      </trkpt>
      <trkpt lat="44.09102" lon="7.39794">
        <ele>2061</ele>
        <time>2018-04-21T06:26:43.000Z</time>
      </trkpt>
      <trkpt lat="44.09102" lon="7.39794">
        <ele>2061</ele>
        <time>2018-04-21T06:26:44.000Z</time>
      </trkpt>
      <trkpt lat="44.09102" lon="7.39792">
        <ele>2062</ele>
        <time>2018-04-21T06:26:50.000Z</time>
      </trkpt>
      <trkpt lat="44.09102" lon="7.39792">
        <ele>2062</ele>
        <time>2018-04-21T06:26:51.000Z</time>
      </trkpt>
      <trkpt lat="44.09101" lon="7.3979">
        <ele>2062</ele>
        <time>2018-04-21T06:26:52.000Z</time>
      </trkpt>
      <trkpt lat="44.09101" lon="7.3979">
        <ele>2062</ele>
        <time>2018-04-21T06:26:54.000Z</time>
      </trkpt>
      <trkpt lat="44.09099" lon="7.39786">
        <ele>2064</ele>
        <time>2018-04-21T06:26:58.000Z</time>
      </trkpt>
      <trkpt lat="44.09099" lon="7.39786">
        <ele>2064</ele>
        <time>2018-04-21T06:27:01.000Z</time>
      </trkpt>
      <trkpt lat="44.09096" lon="7.39781">
        <ele>2066</ele>
        <time>2018-04-21T06:27:07.000Z</time>
      </trkpt>
      <trkpt lat="44.09097" lon="7.39782">
        <ele>2066</ele>
        <time>2018-04-21T06:27:08.000Z</time>
      </trkpt>
      <trkpt lat="44.09095" lon="7.3978">
        <ele>2067</ele>
        <time>2018-04-21T06:27:12.000Z</time>
      </trkpt>
      <trkpt lat="44.09093" lon="7.39778">
        <ele>2068</ele>
        <time>2018-04-21T06:27:16.000Z</time>
      </trkpt>
      <trkpt lat="44.09093" lon="7.39776">
        <ele>2068</ele>
        <time>2018-04-21T06:27:18.000Z</time>
      </trkpt>
      <trkpt lat="44.09094" lon="7.39775">
        <ele>2069</ele>
        <time>2018-04-21T06:27:22.000Z</time>
      </trkpt>
      <trkpt lat="44.09095" lon="7.39774">
        <ele>2069</ele>
        <time>2018-04-21T06:27:26.000Z</time>
      </trkpt>
      <trkpt lat="44.09097" lon="7.39771">
        <ele>2070</ele>
        <time>2018-04-21T06:27:31.000Z</time>
      </trkpt>
      <trkpt lat="44.09098" lon="7.39771">
        <ele>2070</ele>
        <time>2018-04-21T06:27:34.000Z</time>
      </trkpt>
      <trkpt lat="44.09099" lon="7.3977">
        <ele>2070</ele>
        <time>2018-04-21T06:27:36.000Z</time>
      </trkpt>
      <trkpt lat="44.09101" lon="7.39768">
        <ele>2070</ele>
        <time>2018-04-21T06:27:39.000Z</time>
      </trkpt>
      <trkpt lat="44.09103" lon="7.39767">
        <ele>2070</ele>
        <time>2018-04-21T06:27:43.000Z</time>
      </trkpt>
      <trkpt lat="44.09103" lon="7.39767">
        <ele>2070</ele>
        <time>2018-04-21T06:27:45.000Z</time>
      </trkpt>
      <trkpt lat="44.09104" lon="7.39765">
        <ele>2070</ele>
        <time>2018-04-21T06:27:49.000Z</time>
      </trkpt>
      <trkpt lat="44.09104" lon="7.39764">
        <ele>2070</ele>
        <time>2018-04-21T06:27:52.000Z</time>
      </trkpt>
      <trkpt lat="44.09104" lon="7.39763">
        <ele>2071</ele>
        <time>2018-04-21T06:27:54.000Z</time>
      </trkpt>
      <trkpt lat="44.09102" lon="7.39759">
        <ele>2073</ele>
        <time>2018-04-21T06:27:59.000Z</time>
      </trkpt>
      <trkpt lat="44.09102" lon="7.39758">
        <ele>2073</ele>
        <time>2018-04-21T06:28:00.000Z</time>
      </trkpt>
      <trkpt lat="44.09101" lon="7.39756">
        <ele>2074</ele>
        <time>2018-04-21T06:28:05.000Z</time>
      </trkpt>
      <trkpt lat="44.09098" lon="7.39754">
        <ele>2076</ele>
        <time>2018-04-21T06:28:10.000Z</time>
      </trkpt>
      <trkpt lat="44.09097" lon="7.39753">
        <ele>2077</ele>
        <time>2018-04-21T06:28:11.000Z</time>
      </trkpt>
      <trkpt lat="44.09096" lon="7.39752">
        <ele>2078</ele>
        <time>2018-04-21T06:28:15.000Z</time>
      </trkpt>
      <trkpt lat="44.09094" lon="7.39751">
        <ele>2079</ele>
        <time>2018-04-21T06:28:18.000Z</time>
      </trkpt>
      <trkpt lat="44.09093" lon="7.39751">
        <ele>2080</ele>
        <time>2018-04-21T06:28:21.000Z</time>
      </trkpt>
      <trkpt lat="44.09091" lon="7.3975">
        <ele>2090</ele>
        <time>2018-04-21T06:28:24.000Z</time>
      </trkpt>
      <trkpt lat="44.09091" lon="7.39749">
        <ele>2090</ele>
        <time>2018-04-21T06:28:26.000Z</time>
      </trkpt>
      <trkpt lat="44.09092" lon="7.39749">
        <ele>2090</ele>
        <time>2018-04-21T06:28:27.000Z</time>
      </trkpt>
      <trkpt lat="44.09093" lon="7.39748">
        <ele>2090</ele>
        <time>2018-04-21T06:28:31.000Z</time>
      </trkpt>
      <trkpt lat="44.09096" lon="7.39745">
        <ele>2090</ele>
        <time>2018-04-21T06:28:35.000Z</time>
      </trkpt>
      <trkpt lat="44.09097" lon="7.39743">
        <ele>2091</ele>
        <time>2018-04-21T06:28:39.000Z</time>
      </trkpt>
      <trkpt lat="44.09101" lon="7.39741">
        <ele>2091</ele>
        <time>2018-04-21T06:28:46.000Z</time>
      </trkpt>
      <trkpt lat="44.09106" lon="7.39739">
        <ele>2091</ele>
        <time>2018-04-21T06:28:54.000Z</time>
      </trkpt>
      <trkpt lat="44.09108" lon="7.39738">
        <ele>2091</ele>
        <time>2018-04-21T06:28:57.000Z</time>
      </trkpt>
      <trkpt lat="44.09107" lon="7.39738">
        <ele>2091</ele>
        <time>2018-04-21T06:28:59.000Z</time>
      </trkpt>
      <trkpt lat="44.09108" lon="7.39738">
        <ele>2091</ele>
        <time>2018-04-21T06:29:04.000Z</time>
      </trkpt>
      <trkpt lat="44.09107" lon="7.39738">
        <ele>2091</ele>
        <time>2018-04-21T06:29:06.000Z</time>
      </trkpt>
      <trkpt lat="44.09107" lon="7.39737">
        <ele>2091</ele>
        <time>2018-04-21T06:29:07.000Z</time>
      </trkpt>
      <trkpt lat="44.09106" lon="7.39736">
        <ele>2091</ele>
        <time>2018-04-21T06:29:10.000Z</time>
      </trkpt>
      <trkpt lat="44.09105" lon="7.39735">
        <ele>2091</ele>
        <time>2018-04-21T06:29:13.000Z</time>
      </trkpt>
      <trkpt lat="44.09105" lon="7.39735">
        <ele>2091</ele>
        <time>2018-04-21T06:29:15.000Z</time>
      </trkpt>
      <trkpt lat="44.09102" lon="7.39732">
        <ele>2092</ele>
        <time>2018-04-21T06:29:21.000Z</time>
      </trkpt>
      <trkpt lat="44.091" lon="7.39731">
        <ele>2092</ele>
        <time>2018-04-21T06:29:26.000Z</time>
      </trkpt>
      <trkpt lat="44.09098" lon="7.39729">
        <ele>2092</ele>
        <time>2018-04-21T06:29:32.000Z</time>
      </trkpt>
      <trkpt lat="44.09097" lon="7.39728">
        <ele>2092</ele>
        <time>2018-04-21T06:29:35.000Z</time>
      </trkpt>
      <trkpt lat="44.09095" lon="7.39727">
        <ele>2093</ele>
        <time>2018-04-21T06:29:37.000Z</time>
      </trkpt>
      <trkpt lat="44.09094" lon="7.39725">
        <ele>2093</ele>
        <time>2018-04-21T06:29:40.000Z</time>
      </trkpt>
      <trkpt lat="44.09095" lon="7.39724">
        <ele>2093</ele>
        <time>2018-04-21T06:29:42.000Z</time>
      </trkpt>
      <trkpt lat="44.09096" lon="7.39722">
        <ele>2093</ele>
        <time>2018-04-21T06:29:46.000Z</time>
      </trkpt>
      <trkpt lat="44.09096" lon="7.39722">
        <ele>2093</ele>
        <time>2018-04-21T06:29:47.000Z</time>
      </trkpt>
      <trkpt lat="44.09099" lon="7.3972">
        <ele>2094</ele>
        <time>2018-04-21T06:29:52.000Z</time>
      </trkpt>
      <trkpt lat="44.091" lon="7.39718">
        <ele>2094</ele>
        <time>2018-04-21T06:29:54.000Z</time>
      </trkpt>
      <trkpt lat="44.09101" lon="7.39718">
        <ele>2094</ele>
        <time>2018-04-21T06:29:56.000Z</time>
      </trkpt>
      <trkpt lat="44.09102" lon="7.39717">
        <ele>2094</ele>
        <time>2018-04-21T06:29:57.000Z</time>
      </trkpt>
      <trkpt lat="44.09103" lon="7.39716">
        <ele>2094</ele>
        <time>2018-04-21T06:29:59.000Z</time>
      </trkpt>
      <trkpt lat="44.09105" lon="7.39715">
        <ele>2094</ele>
        <time>2018-04-21T06:30:02.000Z</time>
      </trkpt>
      <trkpt lat="44.09108" lon="7.39714">
        <ele>2094</ele>
        <time>2018-04-21T06:30:07.000Z</time>
      </trkpt>
      <trkpt lat="44.09108" lon="7.39713">
        <ele>2094</ele>
        <time>2018-04-21T06:30:09.000Z</time>
      </trkpt>
      <trkpt lat="44.0911" lon="7.39712">
        <ele>2094</ele>
        <time>2018-04-21T06:30:13.000Z</time>
      </trkpt>
      <trkpt lat="44.09111" lon="7.39712">
        <ele>2094</ele>
        <time>2018-04-21T06:30:18.000Z</time>
      </trkpt>
      <trkpt lat="44.0911" lon="7.39711">
        <ele>2094</ele>
        <time>2018-04-21T06:30:20.000Z</time>
      </trkpt>
      <trkpt lat="44.09109" lon="7.39709">
        <ele>2095</ele>
        <time>2018-04-21T06:30:25.000Z</time>
      </trkpt>
      <trkpt lat="44.09108" lon="7.39707">
        <ele>2095</ele>
        <time>2018-04-21T06:30:30.000Z</time>
      </trkpt>
      <trkpt lat="44.09107" lon="7.39705">
        <ele>2096</ele>
        <time>2018-04-21T06:30:31.000Z</time>
      </trkpt>
      <trkpt lat="44.09107" lon="7.39705">
        <ele>2096</ele>
        <time>2018-04-21T06:30:35.000Z</time>
      </trkpt>
      <trkpt lat="44.09105" lon="7.39702">
        <ele>2097</ele>
        <time>2018-04-21T06:30:40.000Z</time>
      </trkpt>
      <trkpt lat="44.09103" lon="7.39701">
        <ele>2097</ele>
        <time>2018-04-21T06:30:47.000Z</time>
      </trkpt>
      <trkpt lat="44.091" lon="7.39698">
        <ele>2098</ele>
        <time>2018-04-21T06:30:52.000Z</time>
      </trkpt>
      <trkpt lat="44.09098" lon="7.39697">
        <ele>2099</ele>
        <time>2018-04-21T06:30:57.000Z</time>
      </trkpt>
      <trkpt lat="44.09098" lon="7.39695">
        <ele>2099</ele>
        <time>2018-04-21T06:31:00.000Z</time>
      </trkpt>
      <trkpt lat="44.09099" lon="7.39695">
        <ele>2099</ele>
        <time>2018-04-21T06:31:02.000Z</time>
      </trkpt>
      <trkpt lat="44.091" lon="7.39694">
        <ele>2099</ele>
        <time>2018-04-21T06:31:07.000Z</time>
      </trkpt>
      <trkpt lat="44.09103" lon="7.39692">
        <ele>2099</ele>
        <time>2018-04-21T06:31:13.000Z</time>
      </trkpt>
      <trkpt lat="44.09103" lon="7.39692">
        <ele>2099</ele>
        <time>2018-04-21T06:31:14.000Z</time>
      </trkpt>
      <trkpt lat="44.09107" lon="7.39691">
        <ele>2099</ele>
        <time>2018-04-21T06:31:20.000Z</time>
      </trkpt>
      <trkpt lat="44.09111" lon="7.39691">
        <ele>2098</ele>
        <time>2018-04-21T06:31:26.000Z</time>
      </trkpt>
      <trkpt lat="44.09112" lon="7.39691">
        <ele>2098</ele>
        <time>2018-04-21T06:31:28.000Z</time>
      </trkpt>
      <trkpt lat="44.09113" lon="7.39691">
        <ele>2098</ele>
        <time>2018-04-21T06:31:32.000Z</time>
      </trkpt>
      <trkpt lat="44.09117" lon="7.39692">
        <ele>2097</ele>
        <time>2018-04-21T06:31:39.000Z</time>
      </trkpt>
      <trkpt lat="44.09121" lon="7.39696">
        <ele>2096</ele>
        <time>2018-04-21T06:31:46.000Z</time>
      </trkpt>
      <trkpt lat="44.09122" lon="7.39696">
        <ele>2096</ele>
        <time>2018-04-21T06:31:47.000Z</time>
      </trkpt>
      <trkpt lat="44.09124" lon="7.39699">
        <ele>2095</ele>
        <time>2018-04-21T06:31:52.000Z</time>
      </trkpt>
      <trkpt lat="44.09126" lon="7.397">
        <ele>2095</ele>
        <time>2018-04-21T06:31:55.000Z</time>
      </trkpt>
      <trkpt lat="44.09127" lon="7.39701">
        <ele>2094</ele>
        <time>2018-04-21T06:31:59.000Z</time>
      </trkpt>
      <trkpt lat="44.09127" lon="7.397">
        <ele>2094</ele>
        <time>2018-04-21T06:32:02.000Z</time>
      </trkpt>
      <trkpt lat="44.09127" lon="7.39699">
        <ele>2095</ele>
        <time>2018-04-21T06:32:04.000Z</time>
      </trkpt>
      <trkpt lat="44.09126" lon="7.39696">
        <ele>2095</ele>
        <time>2018-04-21T06:32:08.000Z</time>
      </trkpt>
      <trkpt lat="44.09126" lon="7.39693">
        <ele>2096</ele>
        <time>2018-04-21T06:32:11.000Z</time>
      </trkpt>
      <trkpt lat="44.09126" lon="7.39691">
        <ele>2096</ele>
        <time>2018-04-21T06:32:15.000Z</time>
      </trkpt>
      <trkpt lat="44.09126" lon="7.39687">
        <ele>2097</ele>
        <time>2018-04-21T06:32:20.000Z</time>
      </trkpt>
      <trkpt lat="44.09126" lon="7.39684">
        <ele>2097</ele>
        <time>2018-04-21T06:32:26.000Z</time>
      </trkpt>
      <trkpt lat="44.09126" lon="7.39681">
        <ele>2098</ele>
        <time>2018-04-21T06:32:29.000Z</time>
      </trkpt>
      <trkpt lat="44.09125" lon="7.3968">
        <ele>2098</ele>
        <time>2018-04-21T06:32:31.000Z</time>
      </trkpt>
      <trkpt lat="44.09125" lon="7.39677">
        <ele>2098</ele>
        <time>2018-04-21T06:32:37.000Z</time>
      </trkpt>
      <trkpt lat="44.09123" lon="7.39673">
        <ele>2099</ele>
        <time>2018-04-21T06:32:42.000Z</time>
      </trkpt>
      <trkpt lat="44.09123" lon="7.39672">
        <ele>2099</ele>
        <time>2018-04-21T06:32:43.000Z</time>
      </trkpt>
      <trkpt lat="44.09123" lon="7.3967">
        <ele>2099</ele>
        <time>2018-04-21T06:32:47.000Z</time>
      </trkpt>
      <trkpt lat="44.09124" lon="7.3967">
        <ele>2099</ele>
        <time>2018-04-21T06:32:54.000Z</time>
      </trkpt>
      <trkpt lat="44.09126" lon="7.3967">
        <ele>2099</ele>
        <time>2018-04-21T06:32:56.000Z</time>
      </trkpt>
      <trkpt lat="44.09131" lon="7.3967">
        <ele>2098</ele>
        <time>2018-04-21T06:33:03.000Z</time>
      </trkpt>
      <trkpt lat="44.09133" lon="7.39671">
        <ele>2098</ele>
        <time>2018-04-21T06:33:07.000Z</time>
      </trkpt>
      <trkpt lat="44.09136" lon="7.39672">
        <ele>2097</ele>
        <time>2018-04-21T06:33:11.000Z</time>
      </trkpt>
      <trkpt lat="44.09138" lon="7.39672">
        <ele>2097</ele>
        <time>2018-04-21T06:33:15.000Z</time>
      </trkpt>
      <trkpt lat="44.09139" lon="7.39672">
        <ele>2097</ele>
        <time>2018-04-21T06:33:16.000Z</time>
      </trkpt>
      <trkpt lat="44.09141" lon="7.39673">
        <ele>2097</ele>
        <time>2018-04-21T06:33:21.000Z</time>
      </trkpt>
      <trkpt lat="44.09142" lon="7.39673">
        <ele>2097</ele>
        <time>2018-04-21T06:33:22.000Z</time>
      </trkpt>
      <trkpt lat="44.09144" lon="7.39674">
        <ele>2097</ele>
        <time>2018-04-21T06:33:26.000Z</time>
      </trkpt>
      <trkpt lat="44.09146" lon="7.39674">
        <ele>2097</ele>
        <time>2018-04-21T06:33:30.000Z</time>
      </trkpt>
      <trkpt lat="44.09147" lon="7.39674">
        <ele>2097</ele>
        <time>2018-04-21T06:33:32.000Z</time>
      </trkpt>
      <trkpt lat="44.09148" lon="7.39674">
        <ele>2097</ele>
        <time>2018-04-21T06:33:35.000Z</time>
      </trkpt>
      <trkpt lat="44.09148" lon="7.39673">
        <ele>2097</ele>
        <time>2018-04-21T06:33:38.000Z</time>
      </trkpt>
      <trkpt lat="44.09149" lon="7.39672">
        <ele>2097</ele>
        <time>2018-04-21T06:33:42.000Z</time>
      </trkpt>
      <trkpt lat="44.0915" lon="7.39671">
        <ele>2097</ele>
        <time>2018-04-21T06:33:43.000Z</time>
      </trkpt>
      <trkpt lat="44.09152" lon="7.39668">
        <ele>2098</ele>
        <time>2018-04-21T06:33:48.000Z</time>
      </trkpt>
      <trkpt lat="44.09152" lon="7.39668">
        <ele>2098</ele>
        <time>2018-04-21T06:33:49.000Z</time>
      </trkpt>
      <trkpt lat="44.09154" lon="7.39665">
        <ele>2109</ele>
        <time>2018-04-21T06:33:55.000Z</time>
      </trkpt>
      <trkpt lat="44.09156" lon="7.39662">
        <ele>2108</ele>
        <time>2018-04-21T06:34:00.000Z</time>
      </trkpt>
      <trkpt lat="44.09156" lon="7.39662">
        <ele>2108</ele>
        <time>2018-04-21T06:34:02.000Z</time>
      </trkpt>
      <trkpt lat="44.09157" lon="7.39661">
        <ele>2108</ele>
        <time>2018-04-21T06:34:04.000Z</time>
      </trkpt>
      <trkpt lat="44.09158" lon="7.3966">
        <ele>2108</ele>
        <time>2018-04-21T06:34:08.000Z</time>
      </trkpt>
      <trkpt lat="44.09158" lon="7.39659">
        <ele>2108</ele>
        <time>2018-04-21T06:34:10.000Z</time>
      </trkpt>
      <trkpt lat="44.09162" lon="7.39655">
        <ele>2109</ele>
        <time>2018-04-21T06:34:16.000Z</time>
      </trkpt>
      <trkpt lat="44.09161" lon="7.39656">
        <ele>2109</ele>
        <time>2018-04-21T06:34:17.000Z</time>
      </trkpt>
      <trkpt lat="44.09163" lon="7.39652">
        <ele>2110</ele>
        <time>2018-04-21T06:34:22.000Z</time>
      </trkpt>
      <trkpt lat="44.09164" lon="7.39651">
        <ele>2110</ele>
        <time>2018-04-21T06:34:23.000Z</time>
      </trkpt>
      <trkpt lat="44.09165" lon="7.39649">
        <ele>2111</ele>
        <time>2018-04-21T06:34:28.000Z</time>
      </trkpt>
      <trkpt lat="44.09165" lon="7.39649">
        <ele>2111</ele>
        <time>2018-04-21T06:34:29.000Z</time>
      </trkpt>
      <trkpt lat="44.09166" lon="7.39648">
        <ele>2112</ele>
        <time>2018-04-21T06:34:35.000Z</time>
      </trkpt>
      <trkpt lat="44.09168" lon="7.39646">
        <ele>2107</ele>
        <time>2018-04-21T06:34:39.000Z</time>
      </trkpt>
      <trkpt lat="44.09169" lon="7.39645">
        <ele>2107</ele>
        <time>2018-04-21T06:34:40.000Z</time>
      </trkpt>
      <trkpt lat="44.0917" lon="7.39644">
        <ele>2107</ele>
        <time>2018-04-21T06:34:42.000Z</time>
      </trkpt>
      <trkpt lat="44.09171" lon="7.39643">
        <ele>2107</ele>
        <time>2018-04-21T06:34:46.000Z</time>
      </trkpt>
      <trkpt lat="44.09172" lon="7.39641">
        <ele>2108</ele>
        <time>2018-04-21T06:34:49.000Z</time>
      </trkpt>
      <trkpt lat="44.09174" lon="7.39639">
        <ele>2108</ele>
        <time>2018-04-21T06:34:52.000Z</time>
      </trkpt>
      <trkpt lat="44.09174" lon="7.39638">
        <ele>2109</ele>
        <time>2018-04-21T06:34:57.000Z</time>
      </trkpt>
      <trkpt lat="44.09174" lon="7.39638">
        <ele>2109</ele>
        <time>2018-04-21T06:34:58.000Z</time>
      </trkpt>
      <trkpt lat="44.09175" lon="7.39638">
        <ele>2109</ele>
        <time>2018-04-21T06:35:05.000Z</time>
      </trkpt>
      <trkpt lat="44.09178" lon="7.39635">
        <ele>2109</ele>
        <time>2018-04-21T06:35:13.000Z</time>
      </trkpt>
      <trkpt lat="44.09181" lon="7.39633">
        <ele>2110</ele>
        <time>2018-04-21T06:35:19.000Z</time>
      </trkpt>
      <trkpt lat="44.09182" lon="7.39632">
        <ele>2110</ele>
        <time>2018-04-21T06:35:20.000Z</time>
      </trkpt>
      <trkpt lat="44.09184" lon="7.3963">
        <ele>2110</ele>
        <time>2018-04-21T06:35:25.000Z</time>
      </trkpt>
      <trkpt lat="44.09186" lon="7.39628">
        <ele>2111</ele>
        <time>2018-04-21T06:35:29.000Z</time>
      </trkpt>
      <trkpt lat="44.09187" lon="7.39627">
        <ele>2111</ele>
        <time>2018-04-21T06:35:31.000Z</time>
      </trkpt>
      <trkpt lat="44.09188" lon="7.39626">
        <ele>2111</ele>
        <time>2018-04-21T06:35:36.000Z</time>
      </trkpt>
      <trkpt lat="44.09188" lon="7.39625">
        <ele>2111</ele>
        <time>2018-04-21T06:35:37.000Z</time>
      </trkpt>
      <trkpt lat="44.0919" lon="7.39624">
        <ele>2111</ele>
        <time>2018-04-21T06:35:40.000Z</time>
      </trkpt>
      <trkpt lat="44.09191" lon="7.39622">
        <ele>2112</ele>
        <time>2018-04-21T06:35:44.000Z</time>
      </trkpt>
      <trkpt lat="44.09191" lon="7.39623">
        <ele>2112</ele>
        <time>2018-04-21T06:35:45.000Z</time>
      </trkpt>
      <trkpt lat="44.09194" lon="7.39621">
        <ele>2112</ele>
        <time>2018-04-21T06:35:48.000Z</time>
      </trkpt>
      <trkpt lat="44.09193" lon="7.39621">
        <ele>2112</ele>
        <time>2018-04-21T06:35:49.000Z</time>
      </trkpt>
      <trkpt lat="44.09194" lon="7.3962">
        <ele>2112</ele>
        <time>2018-04-21T06:35:51.000Z</time>
      </trkpt>
      <trkpt lat="44.09197" lon="7.39618">
        <ele>2112</ele>
        <time>2018-04-21T06:35:54.000Z</time>
      </trkpt>
      <trkpt lat="44.09198" lon="7.39617">
        <ele>2112</ele>
        <time>2018-04-21T06:35:58.000Z</time>
      </trkpt>
      <trkpt lat="44.092" lon="7.39614">
        <ele>2113</ele>
        <time>2018-04-21T06:36:01.000Z</time>
      </trkpt>
      <trkpt lat="44.09201" lon="7.39613">
        <ele>2113</ele>
        <time>2018-04-21T06:36:06.000Z</time>
      </trkpt>
      <trkpt lat="44.09202" lon="7.39612">
        <ele>2113</ele>
        <time>2018-04-21T06:36:08.000Z</time>
      </trkpt>
      <trkpt lat="44.09204" lon="7.3961">
        <ele>2113</ele>
        <time>2018-04-21T06:36:11.000Z</time>
      </trkpt>
      <trkpt lat="44.09203" lon="7.3961">
        <ele>2113</ele>
        <time>2018-04-21T06:36:12.000Z</time>
      </trkpt>
      <trkpt lat="44.09206" lon="7.39608">
        <ele>2113</ele>
        <time>2018-04-21T06:36:16.000Z</time>
      </trkpt>
      <trkpt lat="44.09207" lon="7.39607">
        <ele>2114</ele>
        <time>2018-04-21T06:36:17.000Z</time>
      </trkpt>
      <trkpt lat="44.0921" lon="7.39604">
        <ele>2114</ele>
        <time>2018-04-21T06:36:21.000Z</time>
      </trkpt>
      <trkpt lat="44.0921" lon="7.39604">
        <ele>2114</ele>
        <time>2018-04-21T06:36:22.000Z</time>
      </trkpt>
      <trkpt lat="44.09213" lon="7.39602">
        <ele>2114</ele>
        <time>2018-04-21T06:36:26.000Z</time>
      </trkpt>
      <trkpt lat="44.09216" lon="7.39599">
        <ele>2115</ele>
        <time>2018-04-21T06:36:31.000Z</time>
      </trkpt>
      <trkpt lat="44.09217" lon="7.39597">
        <ele>2115</ele>
        <time>2018-04-21T06:36:34.000Z</time>
      </trkpt>
      <trkpt lat="44.09219" lon="7.39596">
        <ele>2115</ele>
        <time>2018-04-21T06:36:36.000Z</time>
      </trkpt>
      <trkpt lat="44.09219" lon="7.39595">
        <ele>2115</ele>
        <time>2018-04-21T06:36:39.000Z</time>
      </trkpt>
      <trkpt lat="44.0922" lon="7.39594">
        <ele>2116</ele>
        <time>2018-04-21T06:36:41.000Z</time>
      </trkpt>
      <trkpt lat="44.09222" lon="7.3959">
        <ele>2116</ele>
        <time>2018-04-21T06:36:45.000Z</time>
      </trkpt>
      <trkpt lat="44.09224" lon="7.39587">
        <ele>2116</ele>
        <time>2018-04-21T06:36:50.000Z</time>
      </trkpt>
      <trkpt lat="44.09225" lon="7.39586">
        <ele>2117</ele>
        <time>2018-04-21T06:36:52.000Z</time>
      </trkpt>
      <trkpt lat="44.09226" lon="7.39585">
        <ele>2117</ele>
        <time>2018-04-21T06:36:55.000Z</time>
      </trkpt>
      <trkpt lat="44.09227" lon="7.39584">
        <ele>2117</ele>
        <time>2018-04-21T06:36:56.000Z</time>
      </trkpt>
      <trkpt lat="44.09229" lon="7.39582">
        <ele>2130</ele>
        <time>2018-04-21T06:36:59.000Z</time>
      </trkpt>
      <trkpt lat="44.09232" lon="7.39579">
        <ele>2130</ele>
        <time>2018-04-21T06:37:05.000Z</time>
      </trkpt>
      <trkpt lat="44.09233" lon="7.39578">
        <ele>2130</ele>
        <time>2018-04-21T06:37:06.000Z</time>
      </trkpt>
      <trkpt lat="44.09236" lon="7.39575">
        <ele>2130</ele>
        <time>2018-04-21T06:37:11.000Z</time>
      </trkpt>
      <trkpt lat="44.09236" lon="7.39574">
        <ele>2130</ele>
        <time>2018-04-21T06:37:12.000Z</time>
      </trkpt>
      <trkpt lat="44.09239" lon="7.39572">
        <ele>2130</ele>
        <time>2018-04-21T06:37:17.000Z</time>
      </trkpt>
      <trkpt lat="44.09239" lon="7.39571">
        <ele>2130</ele>
        <time>2018-04-21T06:37:18.000Z</time>
      </trkpt>
      <trkpt lat="44.09239" lon="7.39571">
        <ele>2130</ele>
        <time>2018-04-21T06:37:22.000Z</time>
      </trkpt>
      <trkpt lat="44.0924" lon="7.3957">
        <ele>2130</ele>
        <time>2018-04-21T06:37:31.000Z</time>
      </trkpt>
      <trkpt lat="44.09247" lon="7.39564">
        <ele>2131</ele>
        <time>2018-04-21T06:37:38.000Z</time>
      </trkpt>
      <trkpt lat="44.09252" lon="7.39561">
        <ele>2129</ele>
        <time>2018-04-21T06:37:44.000Z</time>
      </trkpt>
      <trkpt lat="44.09256" lon="7.39559">
        <ele>2129</ele>
        <time>2018-04-21T06:37:50.000Z</time>
      </trkpt>
      <trkpt lat="44.09263" lon="7.39555">
        <ele>2130</ele>
        <time>2018-04-21T06:37:57.000Z</time>
      </trkpt>
      <trkpt lat="44.09268" lon="7.39553">
        <ele>2130</ele>
        <time>2018-04-21T06:38:03.000Z</time>
      </trkpt>
      <trkpt lat="44.09273" lon="7.39551">
        <ele>2130</ele>
        <time>2018-04-21T06:38:09.000Z</time>
      </trkpt>
      <trkpt lat="44.09278" lon="7.39549">
        <ele>2130</ele>
        <time>2018-04-21T06:38:15.000Z</time>
      </trkpt>
      <trkpt lat="44.09285" lon="7.39547">
        <ele>2130</ele>
        <time>2018-04-21T06:38:23.000Z</time>
      </trkpt>
      <trkpt lat="44.09288" lon="7.39545">
        <ele>2130</ele>
        <time>2018-04-21T06:38:26.000Z</time>
      </trkpt>
      <trkpt lat="44.09291" lon="7.39543">
        <ele>2131</ele>
        <time>2018-04-21T06:38:29.000Z</time>
      </trkpt>
      <trkpt lat="44.09291" lon="7.39542">
        <ele>2131</ele>
        <time>2018-04-21T06:38:30.000Z</time>
      </trkpt>
      <trkpt lat="44.09294" lon="7.3954">
        <ele>2131</ele>
        <time>2018-04-21T06:38:33.000Z</time>
      </trkpt>
      <trkpt lat="44.09298" lon="7.39536">
        <ele>2131</ele>
        <time>2018-04-21T06:38:38.000Z</time>
      </trkpt>
      <trkpt lat="44.09299" lon="7.39536">
        <ele>2131</ele>
        <time>2018-04-21T06:38:39.000Z</time>
      </trkpt>
      <trkpt lat="44.09307" lon="7.39532">
        <ele>2131</ele>
        <time>2018-04-21T06:38:47.000Z</time>
      </trkpt>
      <trkpt lat="44.09309" lon="7.39531">
        <ele>2132</ele>
        <time>2018-04-21T06:38:49.000Z</time>
      </trkpt>
      <trkpt lat="44.09313" lon="7.39527">
        <ele>2132</ele>
        <time>2018-04-21T06:38:55.000Z</time>
      </trkpt>
      <trkpt lat="44.09317" lon="7.39524">
        <ele>2132</ele>
        <time>2018-04-21T06:39:00.000Z</time>
      </trkpt>
      <trkpt lat="44.09318" lon="7.39523">
        <ele>2133</ele>
        <time>2018-04-21T06:39:03.000Z</time>
      </trkpt>
      <trkpt lat="44.09319" lon="7.39522">
        <ele>2133</ele>
        <time>2018-04-21T06:39:10.000Z</time>
      </trkpt>
      <trkpt lat="44.09319" lon="7.39523">
        <ele>2133</ele>
        <time>2018-04-21T06:39:22.000Z</time>
      </trkpt>
      <trkpt lat="44.09318" lon="7.39522">
        <ele>2133</ele>
        <time>2018-04-21T06:39:32.000Z</time>
      </trkpt>
      <trkpt lat="44.09323" lon="7.39521">
        <ele>2133</ele>
        <time>2018-04-21T06:39:37.000Z</time>
      </trkpt>
      <trkpt lat="44.09332" lon="7.39522">
        <ele>2133</ele>
        <time>2018-04-21T06:39:45.000Z</time>
      </trkpt>
      <trkpt lat="44.09339" lon="7.39523">
        <ele>2130</ele>
        <time>2018-04-21T06:39:52.000Z</time>
      </trkpt>
      <trkpt lat="44.09345" lon="7.39524">
        <ele>2129</ele>
        <time>2018-04-21T06:39:58.000Z</time>
      </trkpt>
      <trkpt lat="44.09352" lon="7.39526">
        <ele>2128</ele>
        <time>2018-04-21T06:40:05.000Z</time>
      </trkpt>
      <trkpt lat="44.09358" lon="7.39527">
        <ele>2128</ele>
        <time>2018-04-21T06:40:11.000Z</time>
      </trkpt>
      <trkpt lat="44.09362" lon="7.39528">
        <ele>2128</ele>
        <time>2018-04-21T06:40:15.000Z</time>
      </trkpt>
      <trkpt lat="44.09368" lon="7.39529">
        <ele>2127</ele>
        <time>2018-04-21T06:40:21.000Z</time>
      </trkpt>
      <trkpt lat="44.09374" lon="7.39528">
        <ele>2127</ele>
        <time>2018-04-21T06:40:29.000Z</time>
      </trkpt>
      <trkpt lat="44.09379" lon="7.39528">
        <ele>2127</ele>
        <time>2018-04-21T06:40:34.000Z</time>
      </trkpt>
      <trkpt lat="44.09385" lon="7.39527">
        <ele>2127</ele>
        <time>2018-04-21T06:40:41.000Z</time>
      </trkpt>
      <trkpt lat="44.09392" lon="7.39525">
        <ele>2128</ele>
        <time>2018-04-21T06:40:48.000Z</time>
      </trkpt>
      <trkpt lat="44.09398" lon="7.39523">
        <ele>2128</ele>
        <time>2018-04-21T06:40:54.000Z</time>
      </trkpt>
      <trkpt lat="44.09403" lon="7.39522">
        <ele>2129</ele>
        <time>2018-04-21T06:41:00.000Z</time>
      </trkpt>
      <trkpt lat="44.09404" lon="7.39522">
        <ele>2129</ele>
        <time>2018-04-21T06:41:01.000Z</time>
      </trkpt>
      <trkpt lat="44.0941" lon="7.39521">
        <ele>2129</ele>
        <time>2018-04-21T06:41:08.000Z</time>
      </trkpt>
      <trkpt lat="44.09414" lon="7.39521">
        <ele>2129</ele>
        <time>2018-04-21T06:41:13.000Z</time>
      </trkpt>
      <trkpt lat="44.09416" lon="7.39521">
        <ele>2129</ele>
        <time>2018-04-21T06:41:15.000Z</time>
      </trkpt>
      <trkpt lat="44.09419" lon="7.3952">
        <ele>2131</ele>
        <time>2018-04-21T06:41:21.000Z</time>
      </trkpt>
      <trkpt lat="44.09422" lon="7.3952">
        <ele>2131</ele>
        <time>2018-04-21T06:41:24.000Z</time>
      </trkpt>
      <trkpt lat="44.09424" lon="7.39519">
        <ele>2131</ele>
        <time>2018-04-21T06:41:28.000Z</time>
      </trkpt>
      <trkpt lat="44.0943" lon="7.39517">
        <ele>2131</ele>
        <time>2018-04-21T06:41:35.000Z</time>
      </trkpt>
      <trkpt lat="44.09436" lon="7.39516">
        <ele>2130</ele>
        <time>2018-04-21T06:41:41.000Z</time>
      </trkpt>
      <trkpt lat="44.09441" lon="7.39516">
        <ele>2130</ele>
        <time>2018-04-21T06:41:47.000Z</time>
      </trkpt>
      <trkpt lat="44.09447" lon="7.39515">
        <ele>2130</ele>
        <time>2018-04-21T06:41:54.000Z</time>
      </trkpt>
      <trkpt lat="44.09453" lon="7.39514">
        <ele>2130</ele>
        <time>2018-04-21T06:42:01.000Z</time>
      </trkpt>
      <trkpt lat="44.09458" lon="7.39513">
        <ele>2130</ele>
        <time>2018-04-21T06:42:07.000Z</time>
      </trkpt>
      <trkpt lat="44.09465" lon="7.39513">
        <ele>2130</ele>
        <time>2018-04-21T06:42:14.000Z</time>
      </trkpt>
      <trkpt lat="44.09473" lon="7.39514">
        <ele>2131</ele>
        <time>2018-04-21T06:42:22.000Z</time>
      </trkpt>
      <trkpt lat="44.09477" lon="7.39513">
        <ele>2131</ele>
        <time>2018-04-21T06:42:28.000Z</time>
      </trkpt>
      <trkpt lat="44.0948" lon="7.39513">
        <ele>2131</ele>
        <time>2018-04-21T06:42:31.000Z</time>
      </trkpt>
      <trkpt lat="44.09482" lon="7.39513">
        <ele>2131</ele>
        <time>2018-04-21T06:42:34.000Z</time>
      </trkpt>
      <trkpt lat="44.09483" lon="7.39513">
        <ele>2132</ele>
        <time>2018-04-21T06:42:36.000Z</time>
      </trkpt>
      <trkpt lat="44.09486" lon="7.39514">
        <ele>2132</ele>
        <time>2018-04-21T06:42:39.000Z</time>
      </trkpt>
      <trkpt lat="44.09492" lon="7.39514">
        <ele>2132</ele>
        <time>2018-04-21T06:42:46.000Z</time>
      </trkpt>
      <trkpt lat="44.095" lon="7.39514">
        <ele>2133</ele>
        <time>2018-04-21T06:42:53.000Z</time>
      </trkpt>
      <trkpt lat="44.09507" lon="7.39513">
        <ele>2133</ele>
        <time>2018-04-21T06:43:01.000Z</time>
      </trkpt>
      <trkpt lat="44.09514" lon="7.39512">
        <ele>2132</ele>
        <time>2018-04-21T06:43:10.000Z</time>
      </trkpt>
      <trkpt lat="44.09515" lon="7.39512">
        <ele>2132</ele>
        <time>2018-04-21T06:43:15.000Z</time>
      </trkpt>
      <trkpt lat="44.0952" lon="7.39512">
        <ele>2132</ele>
        <time>2018-04-21T06:43:20.000Z</time>
      </trkpt>
      <trkpt lat="44.09522" lon="7.39512">
        <ele>2132</ele>
        <time>2018-04-21T06:43:23.000Z</time>
      </trkpt>
      <trkpt lat="44.0953" lon="7.39511">
        <ele>2131</ele>
        <time>2018-04-21T06:43:32.000Z</time>
      </trkpt>
      <trkpt lat="44.09538" lon="7.39511">
        <ele>2131</ele>
        <time>2018-04-21T06:43:40.000Z</time>
      </trkpt>
      <trkpt lat="44.09543" lon="7.39511">
        <ele>2131</ele>
        <time>2018-04-21T06:43:46.000Z</time>
      </trkpt>
      <trkpt lat="44.0955" lon="7.39513">
        <ele>2131</ele>
        <time>2018-04-21T06:43:53.000Z</time>
      </trkpt>
      <trkpt lat="44.09553" lon="7.39512">
        <ele>2131</ele>
        <time>2018-04-21T06:43:56.000Z</time>
      </trkpt>
      <trkpt lat="44.09556" lon="7.39512">
        <ele>2131</ele>
        <time>2018-04-21T06:44:00.000Z</time>
      </trkpt>
      <trkpt lat="44.09563" lon="7.39511">
        <ele>2131</ele>
        <time>2018-04-21T06:44:07.000Z</time>
      </trkpt>
      <trkpt lat="44.09571" lon="7.3951">
        <ele>2132</ele>
        <time>2018-04-21T06:44:14.000Z</time>
      </trkpt>
      <trkpt lat="44.09572" lon="7.3951">
        <ele>2132</ele>
        <time>2018-04-21T06:44:15.000Z</time>
      </trkpt>
      <trkpt lat="44.09579" lon="7.39506">
        <ele>2133</ele>
        <time>2018-04-21T06:44:22.000Z</time>
      </trkpt>
      <trkpt lat="44.09586" lon="7.39504">
        <ele>2133</ele>
        <time>2018-04-21T06:44:28.000Z</time>
      </trkpt>
      <trkpt lat="44.09588" lon="7.39504">
        <ele>2133</ele>
        <time>2018-04-21T06:44:29.000Z</time>
      </trkpt>
      <trkpt lat="44.09593" lon="7.39504">
        <ele>2132</ele>
        <time>2018-04-21T06:44:34.000Z</time>
      </trkpt>
      <trkpt lat="44.09601" lon="7.39509">
        <ele>2131</ele>
        <time>2018-04-21T06:44:42.000Z</time>
      </trkpt>
      <trkpt lat="44.09606" lon="7.39511">
        <ele>2131</ele>
        <time>2018-04-21T06:44:47.000Z</time>
      </trkpt>
      <trkpt lat="44.09611" lon="7.39513">
        <ele>2131</ele>
        <time>2018-04-21T06:44:51.000Z</time>
      </trkpt>
      <trkpt lat="44.09614" lon="7.39515">
        <ele>2131</ele>
        <time>2018-04-21T06:44:54.000Z</time>
      </trkpt>
      <trkpt lat="44.09621" lon="7.39518">
        <ele>2130</ele>
        <time>2018-04-21T06:45:00.000Z</time>
      </trkpt>
      <trkpt lat="44.09625" lon="7.3952">
        <ele>2130</ele>
        <time>2018-04-21T06:45:03.000Z</time>
      </trkpt>
      <trkpt lat="44.09629" lon="7.39523">
        <ele>2130</ele>
        <time>2018-04-21T06:45:07.000Z</time>
      </trkpt>
      <trkpt lat="44.09629" lon="7.39524">
        <ele>2130</ele>
        <time>2018-04-21T06:45:08.000Z</time>
      </trkpt>
      <trkpt lat="44.09636" lon="7.39528">
        <ele>2130</ele>
        <time>2018-04-21T06:45:15.000Z</time>
      </trkpt>
      <trkpt lat="44.09642" lon="7.39531">
        <ele>2130</ele>
        <time>2018-04-21T06:45:22.000Z</time>
      </trkpt>
      <trkpt lat="44.09647" lon="7.39533">
        <ele>2130</ele>
        <time>2018-04-21T06:45:28.000Z</time>
      </trkpt>
      <trkpt lat="44.09649" lon="7.39533">
        <ele>2130</ele>
        <time>2018-04-21T06:45:30.000Z</time>
      </trkpt>
      <trkpt lat="44.09653" lon="7.39535">
        <ele>2130</ele>
        <time>2018-04-21T06:45:34.000Z</time>
      </trkpt>
      <trkpt lat="44.09658" lon="7.39536">
        <ele>2130</ele>
        <time>2018-04-21T06:45:40.000Z</time>
      </trkpt>
      <trkpt lat="44.09662" lon="7.39538">
        <ele>2130</ele>
        <time>2018-04-21T06:45:46.000Z</time>
      </trkpt>
      <trkpt lat="44.09666" lon="7.39538">
        <ele>2130</ele>
        <time>2018-04-21T06:45:52.000Z</time>
      </trkpt>
      <trkpt lat="44.09667" lon="7.39537">
        <ele>2133</ele>
        <time>2018-04-21T06:45:55.000Z</time>
      </trkpt>
      <trkpt lat="44.09671" lon="7.39537">
        <ele>2134</ele>
        <time>2018-04-21T06:45:58.000Z</time>
      </trkpt>
      <trkpt lat="44.09671" lon="7.39536">
        <ele>2134</ele>
        <time>2018-04-21T06:46:03.000Z</time>
      </trkpt>
      <trkpt lat="44.09671" lon="7.39537">
        <ele>2134</ele>
        <time>2018-04-21T06:46:05.000Z</time>
      </trkpt>
      <trkpt lat="44.09671" lon="7.39536">
        <ele>2134</ele>
        <time>2018-04-21T06:46:07.000Z</time>
      </trkpt>
      <trkpt lat="44.09671" lon="7.39537">
        <ele>2134</ele>
        <time>2018-04-21T06:46:14.000Z</time>
      </trkpt>
      <trkpt lat="44.09673" lon="7.39536">
        <ele>2134</ele>
        <time>2018-04-21T06:46:25.000Z</time>
      </trkpt>
      <trkpt lat="44.09674" lon="7.39536">
        <ele>2134</ele>
        <time>2018-04-21T06:46:34.000Z</time>
      </trkpt>
      <trkpt lat="44.09678" lon="7.39536">
        <ele>2134</ele>
        <time>2018-04-21T06:46:46.000Z</time>
      </trkpt>
      <trkpt lat="44.09677" lon="7.39535">
        <ele>2134</ele>
        <time>2018-04-21T06:46:48.000Z</time>
      </trkpt>
      <trkpt lat="44.09677" lon="7.39535">
        <ele>2134</ele>
        <time>2018-04-21T06:46:51.000Z</time>
      </trkpt>
      <trkpt lat="44.09676" lon="7.39534">
        <ele>2134</ele>
        <time>2018-04-21T06:46:56.000Z</time>
      </trkpt>
      <trkpt lat="44.09674" lon="7.39534">
        <ele>2134</ele>
        <time>2018-04-21T06:47:05.000Z</time>
      </trkpt>
      <trkpt lat="44.09674" lon="7.39534">
        <ele>2134</ele>
        <time>2018-04-21T06:47:12.000Z</time>
      </trkpt>
      <trkpt lat="44.09675" lon="7.39534">
        <ele>2134</ele>
        <time>2018-04-21T06:47:13.000Z</time>
      </trkpt>
      <trkpt lat="44.0968" lon="7.39534">
        <ele>2134</ele>
        <time>2018-04-21T06:47:18.000Z</time>
      </trkpt>
      <trkpt lat="44.09682" lon="7.39535">
        <ele>2134</ele>
        <time>2018-04-21T06:47:21.000Z</time>
      </trkpt>
      <trkpt lat="44.09685" lon="7.39536">
        <ele>2134</ele>
        <time>2018-04-21T06:47:25.000Z</time>
      </trkpt>
      <trkpt lat="44.09691" lon="7.39538">
        <ele>2134</ele>
        <time>2018-04-21T06:47:31.000Z</time>
      </trkpt>
      <trkpt lat="44.09693" lon="7.39539">
        <ele>2134</ele>
        <time>2018-04-21T06:47:33.000Z</time>
      </trkpt>
      <trkpt lat="44.09698" lon="7.39541">
        <ele>2135</ele>
        <time>2018-04-21T06:47:38.000Z</time>
      </trkpt>
      <trkpt lat="44.09704" lon="7.39542">
        <ele>2135</ele>
        <time>2018-04-21T06:47:44.000Z</time>
      </trkpt>
      <trkpt lat="44.09709" lon="7.39542">
        <ele>2135</ele>
        <time>2018-04-21T06:47:50.000Z</time>
      </trkpt>
      <trkpt lat="44.09711" lon="7.39542">
        <ele>2135</ele>
        <time>2018-04-21T06:47:53.000Z</time>
      </trkpt>
      <trkpt lat="44.09715" lon="7.39543">
        <ele>2136</ele>
        <time>2018-04-21T06:47:57.000Z</time>
      </trkpt>
      <trkpt lat="44.09719" lon="7.39544">
        <ele>2136</ele>
        <time>2018-04-21T06:48:02.000Z</time>
      </trkpt>
      <trkpt lat="44.09723" lon="7.39544">
        <ele>2136</ele>
        <time>2018-04-21T06:48:08.000Z</time>
      </trkpt>
      <trkpt lat="44.09727" lon="7.39542">
        <ele>2136</ele>
        <time>2018-04-21T06:48:14.000Z</time>
      </trkpt>
      <trkpt lat="44.09728" lon="7.39541">
        <ele>2137</ele>
        <time>2018-04-21T06:48:15.000Z</time>
      </trkpt>
      <trkpt lat="44.09731" lon="7.3954">
        <ele>2137</ele>
        <time>2018-04-21T06:48:21.000Z</time>
      </trkpt>
      <trkpt lat="44.09732" lon="7.3954">
        <ele>2137</ele>
        <time>2018-04-21T06:48:22.000Z</time>
      </trkpt>
      <trkpt lat="44.09735" lon="7.39539">
        <ele>2137</ele>
        <time>2018-04-21T06:48:27.000Z</time>
      </trkpt>
      <trkpt lat="44.0974" lon="7.39538">
        <ele>2138</ele>
        <time>2018-04-21T06:48:34.000Z</time>
      </trkpt>
      <trkpt lat="44.09741" lon="7.39538">
        <ele>2138</ele>
        <time>2018-04-21T06:48:39.000Z</time>
      </trkpt>
      <trkpt lat="44.09743" lon="7.39538">
        <ele>2138</ele>
        <time>2018-04-21T06:48:42.000Z</time>
      </trkpt>
      <trkpt lat="44.09745" lon="7.39537">
        <ele>2138</ele>
        <time>2018-04-21T06:48:44.000Z</time>
      </trkpt>
      <trkpt lat="44.09744" lon="7.39537">
        <ele>2138</ele>
        <time>2018-04-21T06:48:45.000Z</time>
      </trkpt>
      <trkpt lat="44.09748" lon="7.39533">
        <ele>2139</ele>
        <time>2018-04-21T06:48:51.000Z</time>
      </trkpt>
      <trkpt lat="44.09749" lon="7.39532">
        <ele>2139</ele>
        <time>2018-04-21T06:48:54.000Z</time>
      </trkpt>
      <trkpt lat="44.09752" lon="7.3953">
        <ele>2148</ele>
        <time>2018-04-21T06:48:58.000Z</time>
      </trkpt>
      <trkpt lat="44.09754" lon="7.39529">
        <ele>2148</ele>
        <time>2018-04-21T06:49:02.000Z</time>
      </trkpt>
      <trkpt lat="44.09756" lon="7.39527">
        <ele>2148</ele>
        <time>2018-04-21T06:49:08.000Z</time>
      </trkpt>
      <trkpt lat="44.09758" lon="7.39525">
        <ele>2148</ele>
        <time>2018-04-21T06:49:12.000Z</time>
      </trkpt>
      <trkpt lat="44.0976" lon="7.39524">
        <ele>2149</ele>
        <time>2018-04-21T06:49:16.000Z</time>
      </trkpt>
      <trkpt lat="44.09763" lon="7.39523">
        <ele>2149</ele>
        <time>2018-04-21T06:49:20.000Z</time>
      </trkpt>
      <trkpt lat="44.09765" lon="7.39521">
        <ele>2149</ele>
        <time>2018-04-21T06:49:26.000Z</time>
      </trkpt>
      <trkpt lat="44.09766" lon="7.39521">
        <ele>2149</ele>
        <time>2018-04-21T06:49:28.000Z</time>
      </trkpt>
      <trkpt lat="44.09769" lon="7.39519">
        <ele>2149</ele>
        <time>2018-04-21T06:49:32.000Z</time>
      </trkpt>
      <trkpt lat="44.0977" lon="7.39518">
        <ele>2150</ele>
        <time>2018-04-21T06:49:37.000Z</time>
      </trkpt>
      <trkpt lat="44.09773" lon="7.39517">
        <ele>2150</ele>
        <time>2018-04-21T06:49:42.000Z</time>
      </trkpt>
      <trkpt lat="44.09773" lon="7.39516">
        <ele>2150</ele>
        <time>2018-04-21T06:49:43.000Z</time>
      </trkpt>
      <trkpt lat="44.09775" lon="7.39515">
        <ele>2150</ele>
        <time>2018-04-21T06:49:46.000Z</time>
      </trkpt>
      <trkpt lat="44.09776" lon="7.39515">
        <ele>2150</ele>
        <time>2018-04-21T06:49:47.000Z</time>
      </trkpt>
      <trkpt lat="44.0978" lon="7.39514">
        <ele>2151</ele>
        <time>2018-04-21T06:49:53.000Z</time>
      </trkpt>
      <trkpt lat="44.0978" lon="7.39513">
        <ele>2151</ele>
        <time>2018-04-21T06:49:54.000Z</time>
      </trkpt>
      <trkpt lat="44.09783" lon="7.39512">
        <ele>2151</ele>
        <time>2018-04-21T06:49:59.000Z</time>
      </trkpt>
      <trkpt lat="44.09785" lon="7.39512">
        <ele>2152</ele>
        <time>2018-04-21T06:50:03.000Z</time>
      </trkpt>
      <trkpt lat="44.09786" lon="7.39512">
        <ele>2152</ele>
        <time>2018-04-21T06:50:04.000Z</time>
      </trkpt>
      <trkpt lat="44.09789" lon="7.39511">
        <ele>2152</ele>
        <time>2018-04-21T06:50:10.000Z</time>
      </trkpt>
      <trkpt lat="44.0979" lon="7.39511">
        <ele>2152</ele>
        <time>2018-04-21T06:50:12.000Z</time>
      </trkpt>
      <trkpt lat="44.09793" lon="7.39511">
        <ele>2153</ele>
        <time>2018-04-21T06:50:17.000Z</time>
      </trkpt>
      <trkpt lat="44.09795" lon="7.39511">
        <ele>2153</ele>
        <time>2018-04-21T06:50:20.000Z</time>
      </trkpt>
      <trkpt lat="44.09798" lon="7.3951">
        <ele>2154</ele>
        <time>2018-04-21T06:50:25.000Z</time>
      </trkpt>
      <trkpt lat="44.09799" lon="7.3951">
        <ele>2154</ele>
        <time>2018-04-21T06:50:27.000Z</time>
      </trkpt>
      <trkpt lat="44.09802" lon="7.39508">
        <ele>2155</ele>
        <time>2018-04-21T06:50:32.000Z</time>
      </trkpt>
      <trkpt lat="44.09804" lon="7.39507">
        <ele>2155</ele>
        <time>2018-04-21T06:50:35.000Z</time>
      </trkpt>
      <trkpt lat="44.09805" lon="7.39507">
        <ele>2156</ele>
        <time>2018-04-21T06:50:37.000Z</time>
      </trkpt>
      <trkpt lat="44.09808" lon="7.39504">
        <ele>2157</ele>
        <time>2018-04-21T06:50:42.000Z</time>
      </trkpt>
      <trkpt lat="44.09808" lon="7.39504">
        <ele>2157</ele>
        <time>2018-04-21T06:50:43.000Z</time>
      </trkpt>
      <trkpt lat="44.0981" lon="7.39503">
        <ele>2157</ele>
        <time>2018-04-21T06:50:46.000Z</time>
      </trkpt>
      <trkpt lat="44.09812" lon="7.39503">
        <ele>2158</ele>
        <time>2018-04-21T06:50:50.000Z</time>
      </trkpt>
      <trkpt lat="44.09814" lon="7.39502">
        <ele>2159</ele>
        <time>2018-04-21T06:50:55.000Z</time>
      </trkpt>
      <trkpt lat="44.09814" lon="7.39502">
        <ele>2159</ele>
        <time>2018-04-21T06:50:56.000Z</time>
      </trkpt>
      <trkpt lat="44.09817" lon="7.39502">
        <ele>2160</ele>
        <time>2018-04-21T06:51:01.000Z</time>
      </trkpt>
      <trkpt lat="44.09817" lon="7.39502">
        <ele>2160</ele>
        <time>2018-04-21T06:51:02.000Z</time>
      </trkpt>
      <trkpt lat="44.09821" lon="7.39502">
        <ele>2162</ele>
        <time>2018-04-21T06:51:09.000Z</time>
      </trkpt>
      <trkpt lat="44.09821" lon="7.39501">
        <ele>2162</ele>
        <time>2018-04-21T06:51:10.000Z</time>
      </trkpt>
      <trkpt lat="44.09824" lon="7.39501">
        <ele>2163</ele>
        <time>2018-04-21T06:51:15.000Z</time>
      </trkpt>
      <trkpt lat="44.09826" lon="7.39502">
        <ele>2164</ele>
        <time>2018-04-21T06:51:19.000Z</time>
      </trkpt>
      <trkpt lat="44.09826" lon="7.39502">
        <ele>2165</ele>
        <time>2018-04-21T06:51:20.000Z</time>
      </trkpt>
      <trkpt lat="44.0983" lon="7.395">
        <ele>2167</ele>
        <time>2018-04-21T06:51:26.000Z</time>
      </trkpt>
      <trkpt lat="44.09831" lon="7.395">
        <ele>2168</ele>
        <time>2018-04-21T06:51:27.000Z</time>
      </trkpt>
      <trkpt lat="44.09835" lon="7.39499">
        <ele>2172</ele>
        <time>2018-04-21T06:51:35.000Z</time>
      </trkpt>
      <trkpt lat="44.09836" lon="7.39498">
        <ele>2174</ele>
        <time>2018-04-21T06:51:40.000Z</time>
      </trkpt>
      <trkpt lat="44.09837" lon="7.39498">
        <ele>2176</ele>
        <time>2018-04-21T06:51:41.000Z</time>
      </trkpt>
      <trkpt lat="44.09841" lon="7.39497">
        <ele>2179</ele>
        <time>2018-04-21T06:51:47.000Z</time>
      </trkpt>
      <trkpt lat="44.09845" lon="7.39497">
        <ele>2182</ele>
        <time>2018-04-21T06:51:53.000Z</time>
      </trkpt>
      <trkpt lat="44.09849" lon="7.39496">
        <ele>2186</ele>
        <time>2018-04-21T06:51:59.000Z</time>
      </trkpt>
      <trkpt lat="44.0985" lon="7.39496">
        <ele>2186</ele>
        <time>2018-04-21T06:52:00.000Z</time>
      </trkpt>
      <trkpt lat="44.09856" lon="7.39496">
        <ele>2190</ele>
        <time>2018-04-21T06:52:08.000Z</time>
      </trkpt>
      <trkpt lat="44.09858" lon="7.39496">
        <ele>2191</ele>
        <time>2018-04-21T06:52:13.000Z</time>
      </trkpt>
      <trkpt lat="44.09861" lon="7.39497">
        <ele>2192</ele>
        <time>2018-04-21T06:52:16.000Z</time>
      </trkpt>
      <trkpt lat="44.09863" lon="7.39497">
        <ele>2193</ele>
        <time>2018-04-21T06:52:20.000Z</time>
      </trkpt>
      <trkpt lat="44.09865" lon="7.39497">
        <ele>2194</ele>
        <time>2018-04-21T06:52:25.000Z</time>
      </trkpt>
      <trkpt lat="44.09869" lon="7.39498">
        <ele>2195</ele>
        <time>2018-04-21T06:52:31.000Z</time>
      </trkpt>
      <trkpt lat="44.0987" lon="7.39498">
        <ele>2196</ele>
        <time>2018-04-21T06:52:33.000Z</time>
      </trkpt>
      <trkpt lat="44.09873" lon="7.395">
        <ele>2197</ele>
        <time>2018-04-21T06:52:41.000Z</time>
      </trkpt>
      <trkpt lat="44.09874" lon="7.395">
        <ele>2197</ele>
        <time>2018-04-21T06:52:42.000Z</time>
      </trkpt>
      <trkpt lat="44.09877" lon="7.39502">
        <ele>2183</ele>
        <time>2018-04-21T06:52:48.000Z</time>
      </trkpt>
      <trkpt lat="44.0988" lon="7.39505">
        <ele>2183</ele>
        <time>2018-04-21T06:52:54.000Z</time>
      </trkpt>
      <trkpt lat="44.0988" lon="7.39505">
        <ele>2184</ele>
        <time>2018-04-21T06:52:56.000Z</time>
      </trkpt>
      <trkpt lat="44.09881" lon="7.39507">
        <ele>2184</ele>
        <time>2018-04-21T06:53:00.000Z</time>
      </trkpt>
      <trkpt lat="44.09883" lon="7.39509">
        <ele>2184</ele>
        <time>2018-04-21T06:53:06.000Z</time>
      </trkpt>
      <trkpt lat="44.09884" lon="7.39512">
        <ele>2184</ele>
        <time>2018-04-21T06:53:12.000Z</time>
      </trkpt>
      <trkpt lat="44.09884" lon="7.39513">
        <ele>2184</ele>
        <time>2018-04-21T06:53:13.000Z</time>
      </trkpt>
      <trkpt lat="44.09887" lon="7.39518">
        <ele>2184</ele>
        <time>2018-04-21T06:53:21.000Z</time>
      </trkpt>
      <trkpt lat="44.09887" lon="7.3952">
        <ele>2184</ele>
        <time>2018-04-21T06:53:27.000Z</time>
      </trkpt>
      <trkpt lat="44.09888" lon="7.3952">
        <ele>2184</ele>
        <time>2018-04-21T06:53:35.000Z</time>
      </trkpt>
      <trkpt lat="44.09888" lon="7.3952">
        <ele>2184</ele>
        <time>2018-04-21T06:53:47.000Z</time>
      </trkpt>
      <trkpt lat="44.09889" lon="7.39521">
        <ele>2184</ele>
        <time>2018-04-21T06:53:53.000Z</time>
      </trkpt>
      <trkpt lat="44.09889" lon="7.39522">
        <ele>2184</ele>
        <time>2018-04-21T06:54:03.000Z</time>
      </trkpt>
      <trkpt lat="44.0989" lon="7.39522">
        <ele>2185</ele>
        <time>2018-04-21T06:54:14.000Z</time>
      </trkpt>
      <trkpt lat="44.0989" lon="7.39518">
        <ele>2185</ele>
        <time>2018-04-21T06:54:24.000Z</time>
      </trkpt>
      <trkpt lat="44.09891" lon="7.39517">
        <ele>2186</ele>
        <time>2018-04-21T06:54:36.000Z</time>
      </trkpt>
      <trkpt lat="44.09891" lon="7.39517">
        <ele>2186</ele>
        <time>2018-04-21T06:54:42.000Z</time>
      </trkpt>
      <trkpt lat="44.09891" lon="7.39517">
        <ele>2186</ele>
        <time>2018-04-21T06:54:49.000Z</time>
      </trkpt>
      <trkpt lat="44.09891" lon="7.39518">
        <ele>2186</ele>
        <time>2018-04-21T06:54:56.000Z</time>
      </trkpt>
      <trkpt lat="44.09891" lon="7.39518">
        <ele>2186</ele>
        <time>2018-04-21T06:55:08.000Z</time>
      </trkpt>
      <trkpt lat="44.09891" lon="7.39519">
        <ele>2186</ele>
        <time>2018-04-21T06:55:18.000Z</time>
      </trkpt>
      <trkpt lat="44.09892" lon="7.39518">
        <ele>2186</ele>
        <time>2018-04-21T06:55:34.000Z</time>
      </trkpt>
      <trkpt lat="44.09892" lon="7.39518">
        <ele>2186</ele>
        <time>2018-04-21T06:55:48.000Z</time>
      </trkpt>
      <trkpt lat="44.09892" lon="7.39519">
        <ele>2186</ele>
        <time>2018-04-21T06:55:56.000Z</time>
      </trkpt>
      <trkpt lat="44.09892" lon="7.39518">
        <ele>2186</ele>
        <time>2018-04-21T06:56:09.000Z</time>
      </trkpt>
      <trkpt lat="44.09892" lon="7.39519">
        <ele>2186</ele>
        <time>2018-04-21T06:56:17.000Z</time>
      </trkpt>
      <trkpt lat="44.09892" lon="7.39519">
        <ele>2186</ele>
        <time>2018-04-21T06:56:27.000Z</time>
      </trkpt>
      <trkpt lat="44.09893" lon="7.39517">
        <ele>2187</ele>
        <time>2018-04-21T06:56:29.000Z</time>
      </trkpt>
      <trkpt lat="44.09893" lon="7.39517">
        <ele>2187</ele>
        <time>2018-04-21T06:56:31.000Z</time>
      </trkpt>
      <trkpt lat="44.09893" lon="7.39517">
        <ele>2187</ele>
        <time>2018-04-21T06:56:41.000Z</time>
      </trkpt>
      <trkpt lat="44.09894" lon="7.39517">
        <ele>2187</ele>
        <time>2018-04-21T06:56:49.000Z</time>
      </trkpt>
      <trkpt lat="44.09896" lon="7.39521">
        <ele>2187</ele>
        <time>2018-04-21T06:56:55.000Z</time>
      </trkpt>
      <trkpt lat="44.09896" lon="7.39524">
        <ele>2186</ele>
        <time>2018-04-21T06:56:58.000Z</time>
      </trkpt>
      <trkpt lat="44.09897" lon="7.39526">
        <ele>2186</ele>
        <time>2018-04-21T06:57:01.000Z</time>
      </trkpt>
      <trkpt lat="44.09897" lon="7.39528">
        <ele>2185</ele>
        <time>2018-04-21T06:57:03.000Z</time>
      </trkpt>
      <trkpt lat="44.09898" lon="7.3953">
        <ele>2185</ele>
        <time>2018-04-21T06:57:07.000Z</time>
      </trkpt>
      <trkpt lat="44.09898" lon="7.39531">
        <ele>2184</ele>
        <time>2018-04-21T06:57:08.000Z</time>
      </trkpt>
      <trkpt lat="44.099" lon="7.39535">
        <ele>2184</ele>
        <time>2018-04-21T06:57:15.000Z</time>
      </trkpt>
      <trkpt lat="44.09903" lon="7.39539">
        <ele>2183</ele>
        <time>2018-04-21T06:57:23.000Z</time>
      </trkpt>
      <trkpt lat="44.09906" lon="7.39541">
        <ele>2183</ele>
        <time>2018-04-21T06:57:29.000Z</time>
      </trkpt>
      <trkpt lat="44.09908" lon="7.39542">
        <ele>2183</ele>
        <time>2018-04-21T06:57:32.000Z</time>
      </trkpt>
      <trkpt lat="44.09909" lon="7.39543">
        <ele>2183</ele>
        <time>2018-04-21T06:57:35.000Z</time>
      </trkpt>
      <trkpt lat="44.09911" lon="7.39544">
        <ele>2183</ele>
        <time>2018-04-21T06:57:39.000Z</time>
      </trkpt>
      <trkpt lat="44.09911" lon="7.39544">
        <ele>2183</ele>
        <time>2018-04-21T06:57:40.000Z</time>
      </trkpt>
      <trkpt lat="44.09913" lon="7.39547">
        <ele>2183</ele>
        <time>2018-04-21T06:57:46.000Z</time>
      </trkpt>
      <trkpt lat="44.09915" lon="7.39548">
        <ele>2182</ele>
        <time>2018-04-21T06:57:49.000Z</time>
      </trkpt>
      <trkpt lat="44.09916" lon="7.39551">
        <ele>2182</ele>
        <time>2018-04-21T06:57:53.000Z</time>
      </trkpt>
      <trkpt lat="44.09919" lon="7.39554">
        <ele>2208</ele>
        <time>2018-04-21T06:57:58.000Z</time>
      </trkpt>
      <trkpt lat="44.0992" lon="7.39555">
        <ele>2207</ele>
        <time>2018-04-21T06:58:00.000Z</time>
      </trkpt>
      <trkpt lat="44.09922" lon="7.39559">
        <ele>2206</ele>
        <time>2018-04-21T06:58:05.000Z</time>
      </trkpt>
      <trkpt lat="44.09923" lon="7.39562">
        <ele>2204</ele>
        <time>2018-04-21T06:58:08.000Z</time>
      </trkpt>
      <trkpt lat="44.09923" lon="7.39566">
        <ele>2202</ele>
        <time>2018-04-21T06:58:12.000Z</time>
      </trkpt>
      <trkpt lat="44.09923" lon="7.39567">
        <ele>2201</ele>
        <time>2018-04-21T06:58:13.000Z</time>
      </trkpt>
      <trkpt lat="44.09923" lon="7.3957">
        <ele>2199</ele>
        <time>2018-04-21T06:58:15.000Z</time>
      </trkpt>
      <trkpt lat="44.09923" lon="7.39573">
        <ele>2196</ele>
        <time>2018-04-21T06:58:20.000Z</time>
      </trkpt>
      <trkpt lat="44.09923" lon="7.39579">
        <ele>2192</ele>
        <time>2018-04-21T06:58:24.000Z</time>
      </trkpt>
      <trkpt lat="44.09924" lon="7.39581">
        <ele>2191</ele>
        <time>2018-04-21T06:58:26.000Z</time>
      </trkpt>
      <trkpt lat="44.09928" lon="7.39587">
        <ele>2184</ele>
        <time>2018-04-21T06:58:33.000Z</time>
      </trkpt>
      <trkpt lat="44.09929" lon="7.39589">
        <ele>2184</ele>
        <time>2018-04-21T06:58:35.000Z</time>
      </trkpt>
      <trkpt lat="44.09933" lon="7.39593">
        <ele>2185</ele>
        <time>2018-04-21T06:58:41.000Z</time>
      </trkpt>
      <trkpt lat="44.09935" lon="7.39595">
        <ele>2185</ele>
        <time>2018-04-21T06:58:45.000Z</time>
      </trkpt>
      <trkpt lat="44.09936" lon="7.39595">
        <ele>2186</ele>
        <time>2018-04-21T06:58:46.000Z</time>
      </trkpt>
      <trkpt lat="44.0994" lon="7.39598">
        <ele>2186</ele>
        <time>2018-04-21T06:58:51.000Z</time>
      </trkpt>
      <trkpt lat="44.09944" lon="7.396">
        <ele>2187</ele>
        <time>2018-04-21T06:58:57.000Z</time>
      </trkpt>
      <trkpt lat="44.09947" lon="7.39603">
        <ele>2188</ele>
        <time>2018-04-21T06:59:02.000Z</time>
      </trkpt>
      <trkpt lat="44.09949" lon="7.39604">
        <ele>2188</ele>
        <time>2018-04-21T06:59:04.000Z</time>
      </trkpt>
      <trkpt lat="44.09952" lon="7.39606">
        <ele>2188</ele>
        <time>2018-04-21T06:59:07.000Z</time>
      </trkpt>
      <trkpt lat="44.09955" lon="7.39608">
        <ele>2189</ele>
        <time>2018-04-21T06:59:11.000Z</time>
      </trkpt>
      <trkpt lat="44.09956" lon="7.3961">
        <ele>2189</ele>
        <time>2018-04-21T06:59:13.000Z</time>
      </trkpt>
      <trkpt lat="44.09958" lon="7.39612">
        <ele>2189</ele>
        <time>2018-04-21T06:59:16.000Z</time>
      </trkpt>
      <trkpt lat="44.09963" lon="7.39618">
        <ele>2189</ele>
        <time>2018-04-21T06:59:23.000Z</time>
      </trkpt>
      <trkpt lat="44.09965" lon="7.39621">
        <ele>2189</ele>
        <time>2018-04-21T06:59:26.000Z</time>
      </trkpt>
      <trkpt lat="44.09969" lon="7.39625">
        <ele>2189</ele>
        <time>2018-04-21T06:59:32.000Z</time>
      </trkpt>
      <trkpt lat="44.09975" lon="7.39631">
        <ele>2188</ele>
        <time>2018-04-21T06:59:39.000Z</time>
      </trkpt>
      <trkpt lat="44.09976" lon="7.39632">
        <ele>2188</ele>
        <time>2018-04-21T06:59:40.000Z</time>
      </trkpt>
      <trkpt lat="44.09981" lon="7.39636">
        <ele>2188</ele>
        <time>2018-04-21T06:59:48.000Z</time>
      </trkpt>
      <trkpt lat="44.09985" lon="7.39636">
        <ele>2188</ele>
        <time>2018-04-21T06:59:55.000Z</time>
      </trkpt>
      <trkpt lat="44.0999" lon="7.39636">
        <ele>2189</ele>
        <time>2018-04-21T07:00:02.000Z</time>
      </trkpt>
      <trkpt lat="44.09994" lon="7.39636">
        <ele>2189</ele>
        <time>2018-04-21T07:00:07.000Z</time>
      </trkpt>
      <trkpt lat="44.09997" lon="7.39635">
        <ele>2189</ele>
        <time>2018-04-21T07:00:13.000Z</time>
      </trkpt>
      <trkpt lat="44.09998" lon="7.39634">
        <ele>2190</ele>
        <time>2018-04-21T07:00:16.000Z</time>
      </trkpt>
      <trkpt lat="44.1" lon="7.39634">
        <ele>2199</ele>
        <time>2018-04-21T07:00:19.000Z</time>
      </trkpt>
      <trkpt lat="44.10003" lon="7.39633">
        <ele>2199</ele>
        <time>2018-04-21T07:00:23.000Z</time>
      </trkpt>
      <trkpt lat="44.10004" lon="7.39633">
        <ele>2199</ele>
        <time>2018-04-21T07:00:25.000Z</time>
      </trkpt>
      <trkpt lat="44.10008" lon="7.39632">
        <ele>2199</ele>
        <time>2018-04-21T07:00:33.000Z</time>
      </trkpt>
      <trkpt lat="44.10011" lon="7.39632">
        <ele>2200</ele>
        <time>2018-04-21T07:00:37.000Z</time>
      </trkpt>
      <trkpt lat="44.10013" lon="7.39632">
        <ele>2200</ele>
        <time>2018-04-21T07:00:39.000Z</time>
      </trkpt>
      <trkpt lat="44.10015" lon="7.39632">
        <ele>2200</ele>
        <time>2018-04-21T07:00:46.000Z</time>
      </trkpt>
      <trkpt lat="44.10014" lon="7.39632">
        <ele>2200</ele>
        <time>2018-04-21T07:01:02.000Z</time>
      </trkpt>
      <trkpt lat="44.10014" lon="7.39632">
        <ele>2200</ele>
        <time>2018-04-21T07:01:11.000Z</time>
      </trkpt>
      <trkpt lat="44.10014" lon="7.39633">
        <ele>2200</ele>
        <time>2018-04-21T07:01:36.000Z</time>
      </trkpt>
      <trkpt lat="44.10014" lon="7.39633">
        <ele>2200</ele>
        <time>2018-04-21T07:01:42.000Z</time>
      </trkpt>
      <trkpt lat="44.10014" lon="7.39633">
        <ele>2200</ele>
        <time>2018-04-21T07:01:53.000Z</time>
      </trkpt>
      <trkpt lat="44.10016" lon="7.39631">
        <ele>2200</ele>
        <time>2018-04-21T07:02:00.000Z</time>
      </trkpt>
      <trkpt lat="44.10017" lon="7.39631">
        <ele>2200</ele>
        <time>2018-04-21T07:02:02.000Z</time>
      </trkpt>
      <trkpt lat="44.10022" lon="7.39628">
        <ele>2201</ele>
        <time>2018-04-21T07:02:10.000Z</time>
      </trkpt>
      <trkpt lat="44.10023" lon="7.39629">
        <ele>2201</ele>
        <time>2018-04-21T07:02:21.000Z</time>
      </trkpt>
      <trkpt lat="44.10024" lon="7.3963">
        <ele>2201</ele>
        <time>2018-04-21T07:02:38.000Z</time>
      </trkpt>
      <trkpt lat="44.10024" lon="7.3963">
        <ele>2201</ele>
        <time>2018-04-21T07:02:39.000Z</time>
      </trkpt>
      <trkpt lat="44.10025" lon="7.3963">
        <ele>2201</ele>
        <time>2018-04-21T07:02:55.000Z</time>
      </trkpt>
      <trkpt lat="44.10024" lon="7.3963">
        <ele>2201</ele>
        <time>2018-04-21T07:03:15.000Z</time>
      </trkpt>
      <trkpt lat="44.10022" lon="7.3963">
        <ele>2201</ele>
        <time>2018-04-21T07:03:29.000Z</time>
      </trkpt>
      <trkpt lat="44.1002" lon="7.3963">
        <ele>2201</ele>
        <time>2018-04-21T07:03:36.000Z</time>
      </trkpt>
      <trkpt lat="44.1002" lon="7.3963">
        <ele>2201</ele>
        <time>2018-04-21T07:03:39.000Z</time>
      </trkpt>
      <trkpt lat="44.10019" lon="7.39631">
        <ele>2200</ele>
        <time>2018-04-21T07:03:42.000Z</time>
      </trkpt>
      <trkpt lat="44.10019" lon="7.39633">
        <ele>2200</ele>
        <time>2018-04-21T07:03:47.000Z</time>
      </trkpt>
      <trkpt lat="44.10019" lon="7.39633">
        <ele>2200</ele>
        <time>2018-04-21T07:03:49.000Z</time>
      </trkpt>
      <trkpt lat="44.10017" lon="7.39633">
        <ele>2200</ele>
        <time>2018-04-21T07:04:00.000Z</time>
      </trkpt>
      <trkpt lat="44.10016" lon="7.39633">
        <ele>2200</ele>
        <time>2018-04-21T07:04:16.000Z</time>
      </trkpt>
      <trkpt lat="44.10016" lon="7.39632">
        <ele>2200</ele>
        <time>2018-04-21T07:04:29.000Z</time>
      </trkpt>
      <trkpt lat="44.10015" lon="7.39632">
        <ele>2200</ele>
        <time>2018-04-21T07:04:40.000Z</time>
      </trkpt>
      <trkpt lat="44.10015" lon="7.39632">
        <ele>2200</ele>
        <time>2018-04-21T07:04:54.000Z</time>
      </trkpt>
      <trkpt lat="44.10014" lon="7.39632">
        <ele>2200</ele>
        <time>2018-04-21T07:05:09.000Z</time>
      </trkpt>
      <trkpt lat="44.10013" lon="7.39633">
        <ele>2200</ele>
        <time>2018-04-21T07:05:24.000Z</time>
      </trkpt>
      <trkpt lat="44.10013" lon="7.39632">
        <ele>2200</ele>
        <time>2018-04-21T07:05:39.000Z</time>
      </trkpt>
      <trkpt lat="44.10013" lon="7.39632">
        <ele>2200</ele>
        <time>2018-04-21T07:05:50.000Z</time>
      </trkpt>
      <trkpt lat="44.10014" lon="7.39632">
        <ele>2200</ele>
        <time>2018-04-21T07:05:57.000Z</time>
      </trkpt>
      <trkpt lat="44.10016" lon="7.39631">
        <ele>2200</ele>
        <time>2018-04-21T07:06:01.000Z</time>
      </trkpt>
      <trkpt lat="44.10016" lon="7.39631">
        <ele>2200</ele>
        <time>2018-04-21T07:06:04.000Z</time>
      </trkpt>
      <trkpt lat="44.1002" lon="7.39632">
        <ele>2200</ele>
        <time>2018-04-21T07:06:15.000Z</time>
      </trkpt>
      <trkpt lat="44.10024" lon="7.39631">
        <ele>2201</ele>
        <time>2018-04-21T07:06:21.000Z</time>
      </trkpt>
      <trkpt lat="44.10027" lon="7.39631">
        <ele>2201</ele>
        <time>2018-04-21T07:06:25.000Z</time>
      </trkpt>
      <trkpt lat="44.1003" lon="7.39631">
        <ele>2201</ele>
        <time>2018-04-21T07:06:28.000Z</time>
      </trkpt>
      <trkpt lat="44.10033" lon="7.39631">
        <ele>2201</ele>
        <time>2018-04-21T07:06:32.000Z</time>
      </trkpt>
      <trkpt lat="44.10036" lon="7.3963">
        <ele>2201</ele>
        <time>2018-04-21T07:06:36.000Z</time>
      </trkpt>
      <trkpt lat="44.10037" lon="7.3963">
        <ele>2201</ele>
        <time>2018-04-21T07:06:38.000Z</time>
      </trkpt>
      <trkpt lat="44.10041" lon="7.39629">
        <ele>2201</ele>
        <time>2018-04-21T07:06:43.000Z</time>
      </trkpt>
      <trkpt lat="44.10042" lon="7.39629">
        <ele>2201</ele>
        <time>2018-04-21T07:06:44.000Z</time>
      </trkpt>
      <trkpt lat="44.10043" lon="7.39629">
        <ele>2202</ele>
        <time>2018-04-21T07:06:45.000Z</time>
      </trkpt>
      <trkpt lat="44.10045" lon="7.39628">
        <ele>2202</ele>
        <time>2018-04-21T07:06:48.000Z</time>
      </trkpt>
      <trkpt lat="44.10048" lon="7.39627">
        <ele>2202</ele>
        <time>2018-04-21T07:06:51.000Z</time>
      </trkpt>
      <trkpt lat="44.1005" lon="7.39627">
        <ele>2202</ele>
        <time>2018-04-21T07:06:53.000Z</time>
      </trkpt>
      <trkpt lat="44.10055" lon="7.39626">
        <ele>2202</ele>
        <time>2018-04-21T07:06:59.000Z</time>
      </trkpt>
      <trkpt lat="44.1006" lon="7.39626">
        <ele>2203</ele>
        <time>2018-04-21T07:07:05.000Z</time>
      </trkpt>
      <trkpt lat="44.10066" lon="7.39625">
        <ele>2203</ele>
        <time>2018-04-21T07:07:12.000Z</time>
      </trkpt>
      <trkpt lat="44.10069" lon="7.39625">
        <ele>2203</ele>
        <time>2018-04-21T07:07:16.000Z</time>
      </trkpt>
      <trkpt lat="44.10071" lon="7.39624">
        <ele>2203</ele>
        <time>2018-04-21T07:07:18.000Z</time>
      </trkpt>
      <trkpt lat="44.10074" lon="7.39624">
        <ele>2203</ele>
        <time>2018-04-21T07:07:22.000Z</time>
      </trkpt>
      <trkpt lat="44.10076" lon="7.39624">
        <ele>2203</ele>
        <time>2018-04-21T07:07:24.000Z</time>
      </trkpt>
      <trkpt lat="44.1008" lon="7.39623">
        <ele>2203</ele>
        <time>2018-04-21T07:07:30.000Z</time>
      </trkpt>
      <trkpt lat="44.1008" lon="7.39624">
        <ele>2203</ele>
        <time>2018-04-21T07:07:31.000Z</time>
      </trkpt>
      <trkpt lat="44.10086" lon="7.39622">
        <ele>2202</ele>
        <time>2018-04-21T07:07:38.000Z</time>
      </trkpt>
      <trkpt lat="44.10093" lon="7.3962">
        <ele>2202</ele>
        <time>2018-04-21T07:07:46.000Z</time>
      </trkpt>
      <trkpt lat="44.10094" lon="7.3962">
        <ele>2202</ele>
        <time>2018-04-21T07:07:54.000Z</time>
      </trkpt>
      <trkpt lat="44.10094" lon="7.39619">
        <ele>2202</ele>
        <time>2018-04-21T07:08:02.000Z</time>
      </trkpt>
      <trkpt lat="44.10096" lon="7.39619">
        <ele>2202</ele>
        <time>2018-04-21T07:08:12.000Z</time>
      </trkpt>
      <trkpt lat="44.10102" lon="7.39616">
        <ele>2203</ele>
        <time>2018-04-21T07:08:19.000Z</time>
      </trkpt>
      <trkpt lat="44.10108" lon="7.39612">
        <ele>2203</ele>
        <time>2018-04-21T07:08:26.000Z</time>
      </trkpt>
      <trkpt lat="44.10115" lon="7.3961">
        <ele>2202</ele>
        <time>2018-04-21T07:08:34.000Z</time>
      </trkpt>
      <trkpt lat="44.10121" lon="7.39607">
        <ele>2202</ele>
        <time>2018-04-21T07:08:41.000Z</time>
      </trkpt>
      <trkpt lat="44.10127" lon="7.39605">
        <ele>2202</ele>
        <time>2018-04-21T07:08:48.000Z</time>
      </trkpt>
      <trkpt lat="44.10128" lon="7.39604">
        <ele>2202</ele>
        <time>2018-04-21T07:08:49.000Z</time>
      </trkpt>
      <trkpt lat="44.10132" lon="7.39601">
        <ele>2202</ele>
        <time>2018-04-21T07:08:54.000Z</time>
      </trkpt>
      <trkpt lat="44.10135" lon="7.396">
        <ele>2201</ele>
        <time>2018-04-21T07:09:01.000Z</time>
      </trkpt>
      <trkpt lat="44.10138" lon="7.396">
        <ele>2201</ele>
        <time>2018-04-21T07:09:09.000Z</time>
      </trkpt>
      <trkpt lat="44.10143" lon="7.39599">
        <ele>2201</ele>
        <time>2018-04-21T07:09:16.000Z</time>
      </trkpt>
      <trkpt lat="44.10145" lon="7.39598">
        <ele>2201</ele>
        <time>2018-04-21T07:09:18.000Z</time>
      </trkpt>
      <trkpt lat="44.10149" lon="7.39597">
        <ele>2201</ele>
        <time>2018-04-21T07:09:24.000Z</time>
      </trkpt>
      <trkpt lat="44.10155" lon="7.39595">
        <ele>2201</ele>
        <time>2018-04-21T07:09:32.000Z</time>
      </trkpt>
      <trkpt lat="44.10159" lon="7.39593">
        <ele>2201</ele>
        <time>2018-04-21T07:09:38.000Z</time>
      </trkpt>
      <trkpt lat="44.10158" lon="7.39594">
        <ele>2201</ele>
        <time>2018-04-21T07:09:39.000Z</time>
      </trkpt>
      <trkpt lat="44.10161" lon="7.39592">
        <ele>2201</ele>
        <time>2018-04-21T07:09:43.000Z</time>
      </trkpt>
      <trkpt lat="44.10166" lon="7.3959">
        <ele>2201</ele>
        <time>2018-04-21T07:09:50.000Z</time>
      </trkpt>
      <trkpt lat="44.1017" lon="7.39587">
        <ele>2200</ele>
        <time>2018-04-21T07:09:56.000Z</time>
      </trkpt>
      <trkpt lat="44.10172" lon="7.39587">
        <ele>2200</ele>
        <time>2018-04-21T07:09:58.000Z</time>
      </trkpt>
      <trkpt lat="44.10175" lon="7.39586">
        <ele>2199</ele>
        <time>2018-04-21T07:10:02.000Z</time>
      </trkpt>
      <trkpt lat="44.10178" lon="7.39584">
        <ele>2199</ele>
        <time>2018-04-21T07:10:08.000Z</time>
      </trkpt>
      <trkpt lat="44.10182" lon="7.39582">
        <ele>2214</ele>
        <time>2018-04-21T07:10:12.000Z</time>
      </trkpt>
      <trkpt lat="44.10181" lon="7.39582">
        <ele>2213</ele>
        <time>2018-04-21T07:10:13.000Z</time>
      </trkpt>
      <trkpt lat="44.10184" lon="7.39581">
        <ele>2215</ele>
        <time>2018-04-21T07:10:20.000Z</time>
      </trkpt>
      <trkpt lat="44.10184" lon="7.39581">
        <ele>2215</ele>
        <time>2018-04-21T07:10:29.000Z</time>
      </trkpt>
      <trkpt lat="44.10184" lon="7.39581">
        <ele>2214</ele>
        <time>2018-04-21T07:10:41.000Z</time>
      </trkpt>
      <trkpt lat="44.10184" lon="7.39581">
        <ele>2215</ele>
        <time>2018-04-21T07:10:51.000Z</time>
      </trkpt>
      <trkpt lat="44.10185" lon="7.39581">
        <ele>2215</ele>
        <time>2018-04-21T07:10:52.000Z</time>
      </trkpt>
      <trkpt lat="44.10187" lon="7.3958">
        <ele>2216</ele>
        <time>2018-04-21T07:10:55.000Z</time>
      </trkpt>
      <trkpt lat="44.10191" lon="7.39577">
        <ele>2218</ele>
        <time>2018-04-21T07:11:02.000Z</time>
      </trkpt>
      <trkpt lat="44.10197" lon="7.39575">
        <ele>2219</ele>
        <time>2018-04-21T07:11:08.000Z</time>
      </trkpt>
      <trkpt lat="44.10203" lon="7.39573">
        <ele>2220</ele>
        <time>2018-04-21T07:11:15.000Z</time>
      </trkpt>
      <trkpt lat="44.10207" lon="7.39572">
        <ele>2221</ele>
        <time>2018-04-21T07:11:20.000Z</time>
      </trkpt>
      <trkpt lat="44.10212" lon="7.39571">
        <ele>2221</ele>
        <time>2018-04-21T07:11:26.000Z</time>
      </trkpt>
      <trkpt lat="44.10217" lon="7.3957">
        <ele>2220</ele>
        <time>2018-04-21T07:11:30.000Z</time>
      </trkpt>
      <trkpt lat="44.10219" lon="7.3957">
        <ele>2220</ele>
        <time>2018-04-21T07:11:33.000Z</time>
      </trkpt>
      <trkpt lat="44.10225" lon="7.39569">
        <ele>2220</ele>
        <time>2018-04-21T07:11:38.000Z</time>
      </trkpt>
      <trkpt lat="44.10227" lon="7.39568">
        <ele>2219</ele>
        <time>2018-04-21T07:11:40.000Z</time>
      </trkpt>
      <trkpt lat="44.10229" lon="7.39569">
        <ele>2218</ele>
        <time>2018-04-21T07:11:44.000Z</time>
      </trkpt>
      <trkpt lat="44.1023" lon="7.3957">
        <ele>2218</ele>
        <time>2018-04-21T07:11:45.000Z</time>
      </trkpt>
      <trkpt lat="44.1023" lon="7.39569">
        <ele>2218</ele>
        <time>2018-04-21T07:11:46.000Z</time>
      </trkpt>
      <trkpt lat="44.1023" lon="7.3957">
        <ele>2218</ele>
        <time>2018-04-21T07:11:50.000Z</time>
      </trkpt>
      <trkpt lat="44.1023" lon="7.39571">
        <ele>2218</ele>
        <time>2018-04-21T07:11:55.000Z</time>
      </trkpt>
      <trkpt lat="44.10231" lon="7.39571">
        <ele>2217</ele>
        <time>2018-04-21T07:11:59.000Z</time>
      </trkpt>
      <trkpt lat="44.1023" lon="7.39572">
        <ele>2217</ele>
        <time>2018-04-21T07:12:03.000Z</time>
      </trkpt>
      <trkpt lat="44.10231" lon="7.39571">
        <ele>2217</ele>
        <time>2018-04-21T07:12:10.000Z</time>
      </trkpt>
      <trkpt lat="44.10231" lon="7.39572">
        <ele>2217</ele>
        <time>2018-04-21T07:12:21.000Z</time>
      </trkpt>
      <trkpt lat="44.10231" lon="7.39573">
        <ele>2217</ele>
        <time>2018-04-21T07:12:29.000Z</time>
      </trkpt>
      <trkpt lat="44.10233" lon="7.39573">
        <ele>2216</ele>
        <time>2018-04-21T07:12:35.000Z</time>
      </trkpt>
      <trkpt lat="44.10233" lon="7.39574">
        <ele>2216</ele>
        <time>2018-04-21T07:12:41.000Z</time>
      </trkpt>
      <trkpt lat="44.10231" lon="7.39574">
        <ele>2217</ele>
        <time>2018-04-21T07:12:51.000Z</time>
      </trkpt>
      <trkpt lat="44.10231" lon="7.39572">
        <ele>2217</ele>
        <time>2018-04-21T07:13:07.000Z</time>
      </trkpt>
      <trkpt lat="44.10231" lon="7.39572">
        <ele>2217</ele>
        <time>2018-04-21T07:13:11.000Z</time>
      </trkpt>
      <trkpt lat="44.10231" lon="7.39572">
        <ele>2217</ele>
        <time>2018-04-21T07:13:17.000Z</time>
      </trkpt>
      <trkpt lat="44.10231" lon="7.39572">
        <ele>2217</ele>
        <time>2018-04-21T07:13:30.000Z</time>
      </trkpt>
      <trkpt lat="44.10231" lon="7.39572">
        <ele>2217</ele>
        <time>2018-04-21T07:13:37.000Z</time>
      </trkpt>
      <trkpt lat="44.10231" lon="7.39572">
        <ele>2217</ele>
        <time>2018-04-21T07:13:39.000Z</time>
      </trkpt>
      <trkpt lat="44.1023" lon="7.39571">
        <ele>2217</ele>
        <time>2018-04-21T07:13:49.000Z</time>
      </trkpt>
      <trkpt lat="44.1023" lon="7.39572">
        <ele>2218</ele>
        <time>2018-04-21T07:13:59.000Z</time>
      </trkpt>
      <trkpt lat="44.10231" lon="7.39572">
        <ele>2217</ele>
        <time>2018-04-21T07:14:09.000Z</time>
      </trkpt>
      <trkpt lat="44.10231" lon="7.39572">
        <ele>2217</ele>
        <time>2018-04-21T07:14:10.000Z</time>
      </trkpt>
      <trkpt lat="44.1023" lon="7.39571">
        <ele>2218</ele>
        <time>2018-04-21T07:14:16.000Z</time>
      </trkpt>
      <trkpt lat="44.10231" lon="7.39571">
        <ele>2218</ele>
        <time>2018-04-21T07:14:19.000Z</time>
      </trkpt>
      <trkpt lat="44.10233" lon="7.39569">
        <ele>2217</ele>
        <time>2018-04-21T07:14:24.000Z</time>
      </trkpt>
      <trkpt lat="44.10234" lon="7.39569">
        <ele>2217</ele>
        <time>2018-04-21T07:14:27.000Z</time>
      </trkpt>
      <trkpt lat="44.10235" lon="7.39568">
        <ele>2217</ele>
        <time>2018-04-21T07:14:32.000Z</time>
      </trkpt>
      <trkpt lat="44.10236" lon="7.39568">
        <ele>2217</ele>
        <time>2018-04-21T07:14:42.000Z</time>
      </trkpt>
      <trkpt lat="44.10239" lon="7.39567">
        <ele>2217</ele>
        <time>2018-04-21T07:14:49.000Z</time>
      </trkpt>
      <trkpt lat="44.10244" lon="7.39567">
        <ele>2216</ele>
        <time>2018-04-21T07:14:55.000Z</time>
      </trkpt>
      <trkpt lat="44.10245" lon="7.39567">
        <ele>2216</ele>
        <time>2018-04-21T07:14:57.000Z</time>
      </trkpt>
      <trkpt lat="44.10248" lon="7.39566">
        <ele>2216</ele>
        <time>2018-04-21T07:15:01.000Z</time>
      </trkpt>
      <trkpt lat="44.10248" lon="7.39566">
        <ele>2216</ele>
        <time>2018-04-21T07:15:03.000Z</time>
      </trkpt>
      <trkpt lat="44.10253" lon="7.39564">
        <ele>2213</ele>
        <time>2018-04-21T07:15:08.000Z</time>
      </trkpt>
      <trkpt lat="44.10255" lon="7.39562">
        <ele>2213</ele>
        <time>2018-04-21T07:15:13.000Z</time>
      </trkpt>
      <trkpt lat="44.10256" lon="7.39562">
        <ele>2213</ele>
        <time>2018-04-21T07:15:14.000Z</time>
      </trkpt>
      <trkpt lat="44.10257" lon="7.39562">
        <ele>2214</ele>
        <time>2018-04-21T07:15:20.000Z</time>
      </trkpt>
      <trkpt lat="44.10256" lon="7.39561">
        <ele>2214</ele>
        <time>2018-04-21T07:15:22.000Z</time>
      </trkpt>
      <trkpt lat="44.10256" lon="7.39561">
        <ele>2214</ele>
        <time>2018-04-21T07:15:25.000Z</time>
      </trkpt>
      <trkpt lat="44.10255" lon="7.39559">
        <ele>2214</ele>
        <time>2018-04-21T07:15:30.000Z</time>
      </trkpt>
      <trkpt lat="44.10255" lon="7.3956">
        <ele>2214</ele>
        <time>2018-04-21T07:15:31.000Z</time>
      </trkpt>
      <trkpt lat="44.10252" lon="7.39557">
        <ele>2215</ele>
        <time>2018-04-21T07:15:36.000Z</time>
      </trkpt>
      <trkpt lat="44.1025" lon="7.39554">
        <ele>2222</ele>
        <time>2018-04-21T07:15:42.000Z</time>
      </trkpt>
      <trkpt lat="44.10247" lon="7.3955">
        <ele>2223</ele>
        <time>2018-04-21T07:15:48.000Z</time>
      </trkpt>
      <trkpt lat="44.10247" lon="7.39548">
        <ele>2224</ele>
        <time>2018-04-21T07:15:50.000Z</time>
      </trkpt>
      <trkpt lat="44.10246" lon="7.39548">
        <ele>2224</ele>
        <time>2018-04-21T07:15:52.000Z</time>
      </trkpt>
      <trkpt lat="44.10244" lon="7.39547">
        <ele>2224</ele>
        <time>2018-04-21T07:15:54.000Z</time>
      </trkpt>
      <trkpt lat="44.10244" lon="7.39545">
        <ele>2225</ele>
        <time>2018-04-21T07:15:57.000Z</time>
      </trkpt>
      <trkpt lat="44.10242" lon="7.39541">
        <ele>2227</ele>
        <time>2018-04-21T07:16:04.000Z</time>
      </trkpt>
      <trkpt lat="44.10242" lon="7.3954">
        <ele>2227</ele>
        <time>2018-04-21T07:16:06.000Z</time>
      </trkpt>
      <trkpt lat="44.10241" lon="7.39539">
        <ele>2227</ele>
        <time>2018-04-21T07:16:09.000Z</time>
      </trkpt>
      <trkpt lat="44.1024" lon="7.39536">
        <ele>2228</ele>
        <time>2018-04-21T07:16:14.000Z</time>
      </trkpt>
      <trkpt lat="44.1024" lon="7.39537">
        <ele>2228</ele>
        <time>2018-04-21T07:16:16.000Z</time>
      </trkpt>
      <trkpt lat="44.1024" lon="7.39537">
        <ele>2228</ele>
        <time>2018-04-21T07:16:18.000Z</time>
      </trkpt>
      <trkpt lat="44.10242" lon="7.39536">
        <ele>2228</ele>
        <time>2018-04-21T07:16:28.000Z</time>
      </trkpt>
      <trkpt lat="44.10245" lon="7.39535">
        <ele>2229</ele>
        <time>2018-04-21T07:16:33.000Z</time>
      </trkpt>
      <trkpt lat="44.10246" lon="7.39535">
        <ele>2228</ele>
        <time>2018-04-21T07:16:34.000Z</time>
      </trkpt>
      <trkpt lat="44.10248" lon="7.39536">
        <ele>2228</ele>
        <time>2018-04-21T07:16:39.000Z</time>
      </trkpt>
      <trkpt lat="44.1025" lon="7.39537">
        <ele>2228</ele>
        <time>2018-04-21T07:16:42.000Z</time>
      </trkpt>
      <trkpt lat="44.1025" lon="7.39537">
        <ele>2221</ele>
        <time>2018-04-21T07:16:45.000Z</time>
      </trkpt>
      <trkpt lat="44.10254" lon="7.39537">
        <ele>2221</ele>
        <time>2018-04-21T07:16:50.000Z</time>
      </trkpt>
      <trkpt lat="44.10255" lon="7.39538">
        <ele>2221</ele>
        <time>2018-04-21T07:16:51.000Z</time>
      </trkpt>
      <trkpt lat="44.10259" lon="7.39538">
        <ele>2221</ele>
        <time>2018-04-21T07:16:58.000Z</time>
      </trkpt>
      <trkpt lat="44.10261" lon="7.39537">
        <ele>2221</ele>
        <time>2018-04-21T07:17:05.000Z</time>
      </trkpt>
      <trkpt lat="44.1026" lon="7.39537">
        <ele>2221</ele>
        <time>2018-04-21T07:17:09.000Z</time>
      </trkpt>
      <trkpt lat="44.1026" lon="7.39537">
        <ele>2221</ele>
        <time>2018-04-21T07:17:11.000Z</time>
      </trkpt>
      <trkpt lat="44.1026" lon="7.39538">
        <ele>2221</ele>
        <time>2018-04-21T07:17:17.000Z</time>
      </trkpt>
      <trkpt lat="44.1026" lon="7.39538">
        <ele>2221</ele>
        <time>2018-04-21T07:17:26.000Z</time>
      </trkpt>
      <trkpt lat="44.1026" lon="7.39537">
        <ele>2221</ele>
        <time>2018-04-21T07:17:32.000Z</time>
      </trkpt>
      <trkpt lat="44.10262" lon="7.39537">
        <ele>2221</ele>
        <time>2018-04-21T07:17:45.000Z</time>
      </trkpt>
      <trkpt lat="44.1026" lon="7.39534">
        <ele>2222</ele>
        <time>2018-04-21T07:17:49.000Z</time>
      </trkpt>
      <trkpt lat="44.10258" lon="7.39533">
        <ele>2223</ele>
        <time>2018-04-21T07:17:54.000Z</time>
      </trkpt>
      <trkpt lat="44.10258" lon="7.39531">
        <ele>2223</ele>
        <time>2018-04-21T07:17:59.000Z</time>
      </trkpt>
      <trkpt lat="44.10259" lon="7.39531">
        <ele>2223</ele>
        <time>2018-04-21T07:18:04.000Z</time>
      </trkpt>
      <trkpt lat="44.1026" lon="7.39531">
        <ele>2223</ele>
        <time>2018-04-21T07:18:08.000Z</time>
      </trkpt>
      <trkpt lat="44.10263" lon="7.3953">
        <ele>2223</ele>
        <time>2018-04-21T07:18:14.000Z</time>
      </trkpt>
      <trkpt lat="44.10267" lon="7.3953">
        <ele>2223</ele>
        <time>2018-04-21T07:18:18.000Z</time>
      </trkpt>
      <trkpt lat="44.10266" lon="7.3953">
        <ele>2223</ele>
        <time>2018-04-21T07:18:19.000Z</time>
      </trkpt>
      <trkpt lat="44.10269" lon="7.39529">
        <ele>2223</ele>
        <time>2018-04-21T07:18:23.000Z</time>
      </trkpt>
      <trkpt lat="44.10272" lon="7.39528">
        <ele>2223</ele>
        <time>2018-04-21T07:18:27.000Z</time>
      </trkpt>
      <trkpt lat="44.10273" lon="7.39528">
        <ele>2223</ele>
        <time>2018-04-21T07:18:28.000Z</time>
      </trkpt>
      <trkpt lat="44.10276" lon="7.39527">
        <ele>2223</ele>
        <time>2018-04-21T07:18:33.000Z</time>
      </trkpt>
      <trkpt lat="44.1028" lon="7.39526">
        <ele>2222</ele>
        <time>2018-04-21T07:18:38.000Z</time>
      </trkpt>
      <trkpt lat="44.10279" lon="7.39527">
        <ele>2222</ele>
        <time>2018-04-21T07:18:39.000Z</time>
      </trkpt>
      <trkpt lat="44.10281" lon="7.39526">
        <ele>2222</ele>
        <time>2018-04-21T07:18:41.000Z</time>
      </trkpt>
      <trkpt lat="44.10282" lon="7.39526">
        <ele>2222</ele>
        <time>2018-04-21T07:18:45.000Z</time>
      </trkpt>
      <trkpt lat="44.10283" lon="7.39526">
        <ele>2222</ele>
        <time>2018-04-21T07:18:47.000Z</time>
      </trkpt>
      <trkpt lat="44.10287" lon="7.39525">
        <ele>2222</ele>
        <time>2018-04-21T07:18:52.000Z</time>
      </trkpt>
      <trkpt lat="44.10289" lon="7.39524">
        <ele>2222</ele>
        <time>2018-04-21T07:18:56.000Z</time>
      </trkpt>
      <trkpt lat="44.1029" lon="7.39524">
        <ele>2222</ele>
        <time>2018-04-21T07:18:59.000Z</time>
      </trkpt>
      <trkpt lat="44.10293" lon="7.39524">
        <ele>2222</ele>
        <time>2018-04-21T07:19:05.000Z</time>
      </trkpt>
      <trkpt lat="44.10297" lon="7.39522">
        <ele>2222</ele>
        <time>2018-04-21T07:19:10.000Z</time>
      </trkpt>
      <trkpt lat="44.10298" lon="7.39521">
        <ele>2222</ele>
        <time>2018-04-21T07:19:11.000Z</time>
      </trkpt>
      <trkpt lat="44.10298" lon="7.39521">
        <ele>2222</ele>
        <time>2018-04-21T07:19:13.000Z</time>
      </trkpt>
      <trkpt lat="44.103" lon="7.39521">
        <ele>2222</ele>
        <time>2018-04-21T07:19:15.000Z</time>
      </trkpt>
      <trkpt lat="44.10303" lon="7.3952">
        <ele>2222</ele>
        <time>2018-04-21T07:19:21.000Z</time>
      </trkpt>
      <trkpt lat="44.10303" lon="7.39519">
        <ele>2222</ele>
        <time>2018-04-21T07:19:22.000Z</time>
      </trkpt>
      <trkpt lat="44.10306" lon="7.39518">
        <ele>2222</ele>
        <time>2018-04-21T07:19:28.000Z</time>
      </trkpt>
      <trkpt lat="44.10308" lon="7.39518">
        <ele>2222</ele>
        <time>2018-04-21T07:19:31.000Z</time>
      </trkpt>
      <trkpt lat="44.1031" lon="7.39517">
        <ele>2222</ele>
        <time>2018-04-21T07:19:34.000Z</time>
      </trkpt>
      <trkpt lat="44.10312" lon="7.39516">
        <ele>2222</ele>
        <time>2018-04-21T07:19:38.000Z</time>
      </trkpt>
      <trkpt lat="44.10314" lon="7.39516">
        <ele>2222</ele>
        <time>2018-04-21T07:19:41.000Z</time>
      </trkpt>
      <trkpt lat="44.10316" lon="7.39516">
        <ele>2222</ele>
        <time>2018-04-21T07:19:44.000Z</time>
      </trkpt>
      <trkpt lat="44.10317" lon="7.39515">
        <ele>2222</ele>
        <time>2018-04-21T07:19:46.000Z</time>
      </trkpt>
      <trkpt lat="44.10319" lon="7.39515">
        <ele>2223</ele>
        <time>2018-04-21T07:19:51.000Z</time>
      </trkpt>
      <trkpt lat="44.1032" lon="7.39514">
        <ele>2223</ele>
        <time>2018-04-21T07:19:52.000Z</time>
      </trkpt>
      <trkpt lat="44.10321" lon="7.39513">
        <ele>2223</ele>
        <time>2018-04-21T07:19:58.000Z</time>
      </trkpt>
      <trkpt lat="44.10324" lon="7.39512">
        <ele>2223</ele>
        <time>2018-04-21T07:20:01.000Z</time>
      </trkpt>
      <trkpt lat="44.10326" lon="7.39511">
        <ele>2223</ele>
        <time>2018-04-21T07:20:04.000Z</time>
      </trkpt>
      <trkpt lat="44.10327" lon="7.39511">
        <ele>2224</ele>
        <time>2018-04-21T07:20:08.000Z</time>
      </trkpt>
      <trkpt lat="44.10328" lon="7.3951">
        <ele>2224</ele>
        <time>2018-04-21T07:20:09.000Z</time>
      </trkpt>
      <trkpt lat="44.1033" lon="7.39509">
        <ele>2224</ele>
        <time>2018-04-21T07:20:16.000Z</time>
      </trkpt>
      <trkpt lat="44.10333" lon="7.39508">
        <ele>2224</ele>
        <time>2018-04-21T07:20:22.000Z</time>
      </trkpt>
      <trkpt lat="44.10333" lon="7.39508">
        <ele>2224</ele>
        <time>2018-04-21T07:20:23.000Z</time>
      </trkpt>
      <trkpt lat="44.10335" lon="7.39506">
        <ele>2229</ele>
        <time>2018-04-21T07:20:26.000Z</time>
      </trkpt>
      <trkpt lat="44.10337" lon="7.39504">
        <ele>2229</ele>
        <time>2018-04-21T07:20:32.000Z</time>
      </trkpt>
      <trkpt lat="44.10338" lon="7.39504">
        <ele>2229</ele>
        <time>2018-04-21T07:20:33.000Z</time>
      </trkpt>
      <trkpt lat="44.1034" lon="7.39503">
        <ele>2229</ele>
        <time>2018-04-21T07:20:38.000Z</time>
      </trkpt>
      <trkpt lat="44.10345" lon="7.39501">
        <ele>2231</ele>
        <time>2018-04-21T07:20:46.000Z</time>
      </trkpt>
      <trkpt lat="44.10346" lon="7.395">
        <ele>2247</ele>
        <time>2018-04-21T07:20:48.000Z</time>
      </trkpt>
      <trkpt lat="44.10347" lon="7.39499">
        <ele>2249</ele>
        <time>2018-04-21T07:20:52.000Z</time>
      </trkpt>
      <trkpt lat="44.10349" lon="7.39498">
        <ele>2251</ele>
        <time>2018-04-21T07:20:56.000Z</time>
      </trkpt>
      <trkpt lat="44.10351" lon="7.39498">
        <ele>2253</ele>
        <time>2018-04-21T07:20:59.000Z</time>
      </trkpt>
      <trkpt lat="44.10354" lon="7.39497">
        <ele>2256</ele>
        <time>2018-04-21T07:21:04.000Z</time>
      </trkpt>
      <trkpt lat="44.10357" lon="7.39497">
        <ele>2259</ele>
        <time>2018-04-21T07:21:08.000Z</time>
      </trkpt>
      <trkpt lat="44.10359" lon="7.39496">
        <ele>2261</ele>
        <time>2018-04-21T07:21:13.000Z</time>
      </trkpt>
      <trkpt lat="44.10362" lon="7.39495">
        <ele>2262</ele>
        <time>2018-04-21T07:21:16.000Z</time>
      </trkpt>
      <trkpt lat="44.10363" lon="7.39495">
        <ele>2263</ele>
        <time>2018-04-21T07:21:20.000Z</time>
      </trkpt>
      <trkpt lat="44.10362" lon="7.39495">
        <ele>2263</ele>
        <time>2018-04-21T07:21:21.000Z</time>
      </trkpt>
      <trkpt lat="44.10361" lon="7.39495">
        <ele>2262</ele>
        <time>2018-04-21T07:21:30.000Z</time>
      </trkpt>
      <trkpt lat="44.10362" lon="7.39496">
        <ele>2262</ele>
        <time>2018-04-21T07:21:36.000Z</time>
      </trkpt>
      <trkpt lat="44.10359" lon="7.39494">
        <ele>2261</ele>
        <time>2018-04-21T07:21:41.000Z</time>
      </trkpt>
      <trkpt lat="44.10357" lon="7.39493">
        <ele>2260</ele>
        <time>2018-04-21T07:21:49.000Z</time>
      </trkpt>
      <trkpt lat="44.10355" lon="7.39492">
        <ele>2259</ele>
        <time>2018-04-21T07:21:54.000Z</time>
      </trkpt>
      <trkpt lat="44.10356" lon="7.39491">
        <ele>2259</ele>
        <time>2018-04-21T07:21:59.000Z</time>
      </trkpt>
      <trkpt lat="44.10356" lon="7.39492">
        <ele>2259</ele>
        <time>2018-04-21T07:22:05.000Z</time>
      </trkpt>
      <trkpt lat="44.10356" lon="7.39492">
        <ele>2259</ele>
        <time>2018-04-21T07:22:09.000Z</time>
      </trkpt>
      <trkpt lat="44.10357" lon="7.39491">
        <ele>2261</ele>
        <time>2018-04-21T07:22:13.000Z</time>
      </trkpt>
      <trkpt lat="44.1036" lon="7.39489">
        <ele>2263</ele>
        <time>2018-04-21T07:22:19.000Z</time>
      </trkpt>
      <trkpt lat="44.10365" lon="7.39487">
        <ele>2267</ele>
        <time>2018-04-21T07:22:26.000Z</time>
      </trkpt>
      <trkpt lat="44.10366" lon="7.39487">
        <ele>2267</ele>
        <time>2018-04-21T07:22:27.000Z</time>
      </trkpt>
      <trkpt lat="44.10369" lon="7.39485">
        <ele>2269</ele>
        <time>2018-04-21T07:22:34.000Z</time>
      </trkpt>
      <trkpt lat="44.10369" lon="7.39485">
        <ele>2269</ele>
        <time>2018-04-21T07:22:37.000Z</time>
      </trkpt>
      <trkpt lat="44.10371" lon="7.39484">
        <ele>2270</ele>
        <time>2018-04-21T07:22:40.000Z</time>
      </trkpt>
      <trkpt lat="44.10373" lon="7.39484">
        <ele>2271</ele>
        <time>2018-04-21T07:22:44.000Z</time>
      </trkpt>
      <trkpt lat="44.10374" lon="7.39484">
        <ele>2272</ele>
        <time>2018-04-21T07:22:46.000Z</time>
      </trkpt>
      <trkpt lat="44.10376" lon="7.39483">
        <ele>2273</ele>
        <time>2018-04-21T07:22:51.000Z</time>
      </trkpt>
      <trkpt lat="44.10378" lon="7.39483">
        <ele>2273</ele>
        <time>2018-04-21T07:22:52.000Z</time>
      </trkpt>
      <trkpt lat="44.10382" lon="7.39483">
        <ele>2275</ele>
        <time>2018-04-21T07:22:59.000Z</time>
      </trkpt>
      <trkpt lat="44.10382" lon="7.39483">
        <ele>2274</ele>
        <time>2018-04-21T07:23:00.000Z</time>
      </trkpt>
      <trkpt lat="44.10382" lon="7.39483">
        <ele>2275</ele>
        <time>2018-04-21T07:23:05.000Z</time>
      </trkpt>
      <trkpt lat="44.10381" lon="7.39483">
        <ele>2274</ele>
        <time>2018-04-21T07:23:10.000Z</time>
      </trkpt>
      <trkpt lat="44.10381" lon="7.39482">
        <ele>2274</ele>
        <time>2018-04-21T07:23:11.000Z</time>
      </trkpt>
      <trkpt lat="44.10381" lon="7.39484">
        <ele>2274</ele>
        <time>2018-04-21T07:23:18.000Z</time>
      </trkpt>
      <trkpt lat="44.1038" lon="7.39481">
        <ele>2274</ele>
        <time>2018-04-21T07:23:23.000Z</time>
      </trkpt>
      <trkpt lat="44.10379" lon="7.39479">
        <ele>2275</ele>
        <time>2018-04-21T07:23:28.000Z</time>
      </trkpt>
      <trkpt lat="44.10379" lon="7.39478">
        <ele>2275</ele>
        <time>2018-04-21T07:23:30.000Z</time>
      </trkpt>
      <trkpt lat="44.10379" lon="7.39477">
        <ele>2275</ele>
        <time>2018-04-21T07:23:33.000Z</time>
      </trkpt>
      <trkpt lat="44.10377" lon="7.39475">
        <ele>2275</ele>
        <time>2018-04-21T07:23:35.000Z</time>
      </trkpt>
      <trkpt lat="44.10376" lon="7.39472">
        <ele>2276</ele>
        <time>2018-04-21T07:23:40.000Z</time>
      </trkpt>
      <trkpt lat="44.10374" lon="7.39471">
        <ele>2276</ele>
        <time>2018-04-21T07:23:44.000Z</time>
      </trkpt>
      <trkpt lat="44.10374" lon="7.3947">
        <ele>2276</ele>
        <time>2018-04-21T07:23:46.000Z</time>
      </trkpt>
      <trkpt lat="44.10373" lon="7.39469">
        <ele>2276</ele>
        <time>2018-04-21T07:23:49.000Z</time>
      </trkpt>
      <trkpt lat="44.10372" lon="7.39468">
        <ele>2276</ele>
        <time>2018-04-21T07:23:52.000Z</time>
      </trkpt>
      <trkpt lat="44.10371" lon="7.39468">
        <ele>2276</ele>
        <time>2018-04-21T07:23:55.000Z</time>
      </trkpt>
      <trkpt lat="44.10369" lon="7.39465">
        <ele>2276</ele>
        <time>2018-04-21T07:24:02.000Z</time>
      </trkpt>
      <trkpt lat="44.10365" lon="7.39464">
        <ele>2276</ele>
        <time>2018-04-21T07:24:08.000Z</time>
      </trkpt>
      <trkpt lat="44.10365" lon="7.39463">
        <ele>2276</ele>
        <time>2018-04-21T07:24:12.000Z</time>
      </trkpt>
      <trkpt lat="44.10365" lon="7.39463">
        <ele>2276</ele>
        <time>2018-04-21T07:24:15.000Z</time>
      </trkpt>
      <trkpt lat="44.10366" lon="7.39463">
        <ele>2276</ele>
        <time>2018-04-21T07:24:22.000Z</time>
      </trkpt>
      <trkpt lat="44.10366" lon="7.39463">
        <ele>2276</ele>
        <time>2018-04-21T07:24:29.000Z</time>
      </trkpt>
      <trkpt lat="44.10369" lon="7.3946">
        <ele>2278</ele>
        <time>2018-04-21T07:24:35.000Z</time>
      </trkpt>
      <trkpt lat="44.1037" lon="7.3946">
        <ele>2278</ele>
        <time>2018-04-21T07:24:36.000Z</time>
      </trkpt>
      <trkpt lat="44.10373" lon="7.39459">
        <ele>2279</ele>
        <time>2018-04-21T07:24:40.000Z</time>
      </trkpt>
      <trkpt lat="44.10374" lon="7.39458">
        <ele>2280</ele>
        <time>2018-04-21T07:24:45.000Z</time>
      </trkpt>
      <trkpt lat="44.10378" lon="7.39457">
        <ele>2281</ele>
        <time>2018-04-21T07:24:50.000Z</time>
      </trkpt>
      <trkpt lat="44.10378" lon="7.39457">
        <ele>2281</ele>
        <time>2018-04-21T07:24:53.000Z</time>
      </trkpt>
      <trkpt lat="44.10381" lon="7.39456">
        <ele>2282</ele>
        <time>2018-04-21T07:24:56.000Z</time>
      </trkpt>
      <trkpt lat="44.10384" lon="7.39456">
        <ele>2283</ele>
        <time>2018-04-21T07:25:01.000Z</time>
      </trkpt>
      <trkpt lat="44.10384" lon="7.39455">
        <ele>2283</ele>
        <time>2018-04-21T07:25:04.000Z</time>
      </trkpt>
      <trkpt lat="44.10387" lon="7.39455">
        <ele>2284</ele>
        <time>2018-04-21T07:25:08.000Z</time>
      </trkpt>
      <trkpt lat="44.10387" lon="7.39455">
        <ele>2284</ele>
        <time>2018-04-21T07:25:09.000Z</time>
      </trkpt>
      <trkpt lat="44.10388" lon="7.39454">
        <ele>2284</ele>
        <time>2018-04-21T07:25:13.000Z</time>
      </trkpt>
      <trkpt lat="44.1039" lon="7.39454">
        <ele>2285</ele>
        <time>2018-04-21T07:25:14.000Z</time>
      </trkpt>
      <trkpt lat="44.10391" lon="7.39454">
        <ele>2285</ele>
        <time>2018-04-21T07:25:21.000Z</time>
      </trkpt>
      <trkpt lat="44.10391" lon="7.39454">
        <ele>2285</ele>
        <time>2018-04-21T07:25:23.000Z</time>
      </trkpt>
      <trkpt lat="44.1039" lon="7.39454">
        <ele>2285</ele>
        <time>2018-04-21T07:25:28.000Z</time>
      </trkpt>
      <trkpt lat="44.1039" lon="7.39453">
        <ele>2285</ele>
        <time>2018-04-21T07:25:33.000Z</time>
      </trkpt>
      <trkpt lat="44.10388" lon="7.39452">
        <ele>2285</ele>
        <time>2018-04-21T07:25:38.000Z</time>
      </trkpt>
      <trkpt lat="44.10387" lon="7.39451">
        <ele>2285</ele>
        <time>2018-04-21T07:25:40.000Z</time>
      </trkpt>
      <trkpt lat="44.10386" lon="7.39449">
        <ele>2286</ele>
        <time>2018-04-21T07:25:45.000Z</time>
      </trkpt>
      <trkpt lat="44.10384" lon="7.39447">
        <ele>2286</ele>
        <time>2018-04-21T07:25:50.000Z</time>
      </trkpt>
      <trkpt lat="44.10383" lon="7.39446">
        <ele>2286</ele>
        <time>2018-04-21T07:25:51.000Z</time>
      </trkpt>
      <trkpt lat="44.10381" lon="7.39444">
        <ele>2286</ele>
        <time>2018-04-21T07:25:57.000Z</time>
      </trkpt>
      <trkpt lat="44.1038" lon="7.39444">
        <ele>2286</ele>
        <time>2018-04-21T07:26:00.000Z</time>
      </trkpt>
      <trkpt lat="44.10379" lon="7.39443">
        <ele>2286</ele>
        <time>2018-04-21T07:26:03.000Z</time>
      </trkpt>
      <trkpt lat="44.10378" lon="7.39441">
        <ele>2286</ele>
        <time>2018-04-21T07:26:07.000Z</time>
      </trkpt>
      <trkpt lat="44.10377" lon="7.3944">
        <ele>2286</ele>
        <time>2018-04-21T07:26:09.000Z</time>
      </trkpt>
      <trkpt lat="44.10376" lon="7.39439">
        <ele>2286</ele>
        <time>2018-04-21T07:26:13.000Z</time>
      </trkpt>
      <trkpt lat="44.10375" lon="7.39438">
        <ele>2287</ele>
        <time>2018-04-21T07:26:17.000Z</time>
      </trkpt>
      <trkpt lat="44.10374" lon="7.39437">
        <ele>2287</ele>
        <time>2018-04-21T07:26:20.000Z</time>
      </trkpt>
      <trkpt lat="44.10373" lon="7.39435">
        <ele>2287</ele>
        <time>2018-04-21T07:26:25.000Z</time>
      </trkpt>
      <trkpt lat="44.10373" lon="7.39434">
        <ele>2287</ele>
        <time>2018-04-21T07:26:31.000Z</time>
      </trkpt>
      <trkpt lat="44.10373" lon="7.39434">
        <ele>2287</ele>
        <time>2018-04-21T07:26:41.000Z</time>
      </trkpt>
      <trkpt lat="44.10373" lon="7.39431">
        <ele>2288</ele>
        <time>2018-04-21T07:26:46.000Z</time>
      </trkpt>
      <trkpt lat="44.10373" lon="7.39433">
        <ele>2288</ele>
        <time>2018-04-21T07:26:47.000Z</time>
      </trkpt>
      <trkpt lat="44.10373" lon="7.39433">
        <ele>2287</ele>
        <time>2018-04-21T07:26:58.000Z</time>
      </trkpt>
      <trkpt lat="44.10374" lon="7.39434">
        <ele>2287</ele>
        <time>2018-04-21T07:27:05.000Z</time>
      </trkpt>
      <trkpt lat="44.10374" lon="7.39434">
        <ele>2287</ele>
        <time>2018-04-21T07:27:08.000Z</time>
      </trkpt>
      <trkpt lat="44.10374" lon="7.39433">
        <ele>2288</ele>
        <time>2018-04-21T07:27:13.000Z</time>
      </trkpt>
      <trkpt lat="44.10375" lon="7.39433">
        <ele>2288</ele>
        <time>2018-04-21T07:27:18.000Z</time>
      </trkpt>
      <trkpt lat="44.10375" lon="7.39433">
        <ele>2288</ele>
        <time>2018-04-21T07:27:20.000Z</time>
      </trkpt>
      <trkpt lat="44.10376" lon="7.39432">
        <ele>2288</ele>
        <time>2018-04-21T07:27:29.000Z</time>
      </trkpt>
      <trkpt lat="44.10377" lon="7.39431">
        <ele>2289</ele>
        <time>2018-04-21T07:27:33.000Z</time>
      </trkpt>
      <trkpt lat="44.10378" lon="7.39428">
        <ele>2290</ele>
        <time>2018-04-21T07:27:41.000Z</time>
      </trkpt>
      <trkpt lat="44.1038" lon="7.39427">
        <ele>2291</ele>
        <time>2018-04-21T07:27:49.000Z</time>
      </trkpt>
      <trkpt lat="44.1038" lon="7.39426">
        <ele>2291</ele>
        <time>2018-04-21T07:27:58.000Z</time>
      </trkpt>
      <trkpt lat="44.1038" lon="7.39426">
        <ele>2291</ele>
        <time>2018-04-21T07:28:07.000Z</time>
      </trkpt>
      <trkpt lat="44.10381" lon="7.39426">
        <ele>2291</ele>
        <time>2018-04-21T07:28:12.000Z</time>
      </trkpt>
      <trkpt lat="44.1038" lon="7.39425">
        <ele>2291</ele>
        <time>2018-04-21T07:28:18.000Z</time>
      </trkpt>
      <trkpt lat="44.10381" lon="7.39425">
        <ele>2291</ele>
        <time>2018-04-21T07:28:23.000Z</time>
      </trkpt>
      <trkpt lat="44.1038" lon="7.39425">
        <ele>2291</ele>
        <time>2018-04-21T07:28:31.000Z</time>
      </trkpt>
      <trkpt lat="44.1038" lon="7.39424">
        <ele>2291</ele>
        <time>2018-04-21T07:28:37.000Z</time>
      </trkpt>
      <trkpt lat="44.1038" lon="7.39425">
        <ele>2291</ele>
        <time>2018-04-21T07:28:40.000Z</time>
      </trkpt>
      <trkpt lat="44.10379" lon="7.39425">
        <ele>2291</ele>
        <time>2018-04-21T07:28:49.000Z</time>
      </trkpt>
      <trkpt lat="44.10379" lon="7.39424">
        <ele>2291</ele>
        <time>2018-04-21T07:29:03.000Z</time>
      </trkpt>
      <trkpt lat="44.10379" lon="7.39425">
        <ele>2291</ele>
        <time>2018-04-21T07:29:09.000Z</time>
      </trkpt>
      <trkpt lat="44.1038" lon="7.39425">
        <ele>2291</ele>
        <time>2018-04-21T07:29:14.000Z</time>
      </trkpt>
      <trkpt lat="44.10382" lon="7.39424">
        <ele>2292</ele>
        <time>2018-04-21T07:29:15.000Z</time>
      </trkpt>
      <trkpt lat="44.10384" lon="7.39424">
        <ele>2293</ele>
        <time>2018-04-21T07:29:19.000Z</time>
      </trkpt>
      <trkpt lat="44.10384" lon="7.39424">
        <ele>2293</ele>
        <time>2018-04-21T07:29:21.000Z</time>
      </trkpt>
      <trkpt lat="44.10387" lon="7.39424">
        <ele>2294</ele>
        <time>2018-04-21T07:29:26.000Z</time>
      </trkpt>
      <trkpt lat="44.10387" lon="7.39424">
        <ele>2294</ele>
        <time>2018-04-21T07:29:28.000Z</time>
      </trkpt>
      <trkpt lat="44.10391" lon="7.39424">
        <ele>2296</ele>
        <time>2018-04-21T07:29:32.000Z</time>
      </trkpt>
      <trkpt lat="44.10394" lon="7.39424">
        <ele>2297</ele>
        <time>2018-04-21T07:29:36.000Z</time>
      </trkpt>
      <trkpt lat="44.10397" lon="7.39425">
        <ele>2299</ele>
        <time>2018-04-21T07:29:40.000Z</time>
      </trkpt>
      <trkpt lat="44.10396" lon="7.39425">
        <ele>2298</ele>
        <time>2018-04-21T07:29:41.000Z</time>
      </trkpt>
      <trkpt lat="44.10399" lon="7.39425">
        <ele>2300</ele>
        <time>2018-04-21T07:29:44.000Z</time>
      </trkpt>
      <trkpt lat="44.104" lon="7.39425">
        <ele>2300</ele>
        <time>2018-04-21T07:29:46.000Z</time>
      </trkpt>
      <trkpt lat="44.10404" lon="7.39426">
        <ele>2303</ele>
        <time>2018-04-21T07:29:52.000Z</time>
      </trkpt>
      <trkpt lat="44.10406" lon="7.39426">
        <ele>2304</ele>
        <time>2018-04-21T07:29:58.000Z</time>
      </trkpt>
      <trkpt lat="44.10406" lon="7.39426">
        <ele>2304</ele>
        <time>2018-04-21T07:29:59.000Z</time>
      </trkpt>
      <trkpt lat="44.10405" lon="7.39425">
        <ele>2304</ele>
        <time>2018-04-21T07:30:06.000Z</time>
      </trkpt>
      <trkpt lat="44.10405" lon="7.39426">
        <ele>2304</ele>
        <time>2018-04-21T07:30:13.000Z</time>
      </trkpt>
      <trkpt lat="44.10403" lon="7.39425">
        <ele>2303</ele>
        <time>2018-04-21T07:30:19.000Z</time>
      </trkpt>
      <trkpt lat="44.10401" lon="7.39423">
        <ele>2302</ele>
        <time>2018-04-21T07:30:23.000Z</time>
      </trkpt>
      <trkpt lat="44.104" lon="7.39423">
        <ele>2302</ele>
        <time>2018-04-21T07:30:25.000Z</time>
      </trkpt>
      <trkpt lat="44.10399" lon="7.39421">
        <ele>2301</ele>
        <time>2018-04-21T07:30:30.000Z</time>
      </trkpt>
      <trkpt lat="44.10398" lon="7.3942">
        <ele>2301</ele>
        <time>2018-04-21T07:30:31.000Z</time>
      </trkpt>
      <trkpt lat="44.10397" lon="7.39419">
        <ele>2300</ele>
        <time>2018-04-21T07:30:35.000Z</time>
      </trkpt>
      <trkpt lat="44.10395" lon="7.39417">
        <ele>2300</ele>
        <time>2018-04-21T07:30:38.000Z</time>
      </trkpt>
      <trkpt lat="44.10394" lon="7.39416">
        <ele>2343</ele>
        <time>2018-04-21T07:30:41.000Z</time>
      </trkpt>
      <trkpt lat="44.10394" lon="7.39415">
        <ele>2344</ele>
        <time>2018-04-21T07:30:46.000Z</time>
      </trkpt>
      <trkpt lat="44.10394" lon="7.39415">
        <ele>2343</ele>
        <time>2018-04-21T07:30:48.000Z</time>
      </trkpt>
      <trkpt lat="44.10394" lon="7.39417">
        <ele>2343</ele>
        <time>2018-04-21T07:30:54.000Z</time>
      </trkpt>
      <trkpt lat="44.10395" lon="7.39417">
        <ele>2300</ele>
        <time>2018-04-21T07:31:01.000Z</time>
      </trkpt>
      <trkpt lat="44.10399" lon="7.39419">
        <ele>2302</ele>
        <time>2018-04-21T07:31:07.000Z</time>
      </trkpt>
      <trkpt lat="44.104" lon="7.39419">
        <ele>2303</ele>
        <time>2018-04-21T07:31:11.000Z</time>
      </trkpt>
      <trkpt lat="44.10402" lon="7.39419">
        <ele>2304</ele>
        <time>2018-04-21T07:31:14.000Z</time>
      </trkpt>
      <trkpt lat="44.10405" lon="7.39419">
        <ele>2307</ele>
        <time>2018-04-21T07:31:18.000Z</time>
      </trkpt>
      <trkpt lat="44.10406" lon="7.39418">
        <ele>2308</ele>
        <time>2018-04-21T07:31:20.000Z</time>
      </trkpt>
      <trkpt lat="44.10409" lon="7.39418">
        <ele>2311</ele>
        <time>2018-04-21T07:31:24.000Z</time>
      </trkpt>
      <trkpt lat="44.10411" lon="7.39418">
        <ele>2313</ele>
        <time>2018-04-21T07:31:27.000Z</time>
      </trkpt>
      <trkpt lat="44.10412" lon="7.39417">
        <ele>2315</ele>
        <time>2018-04-21T07:31:31.000Z</time>
      </trkpt>
      <trkpt lat="44.10413" lon="7.39418">
        <ele>2316</ele>
        <time>2018-04-21T07:31:33.000Z</time>
      </trkpt>
      <trkpt lat="44.10416" lon="7.39418">
        <ele>2320</ele>
        <time>2018-04-21T07:31:38.000Z</time>
      </trkpt>
      <trkpt lat="44.10416" lon="7.39418">
        <ele>2320</ele>
        <time>2018-04-21T07:31:40.000Z</time>
      </trkpt>
      <trkpt lat="44.10416" lon="7.39418">
        <ele>2320</ele>
        <time>2018-04-21T07:31:44.000Z</time>
      </trkpt>
      <trkpt lat="44.10418" lon="7.39418">
        <ele>2321</ele>
        <time>2018-04-21T07:31:49.000Z</time>
      </trkpt>
      <trkpt lat="44.10418" lon="7.39418">
        <ele>2321</ele>
        <time>2018-04-21T07:31:51.000Z</time>
      </trkpt>
      <trkpt lat="44.10422" lon="7.39419">
        <ele>2320</ele>
        <time>2018-04-21T07:31:58.000Z</time>
      </trkpt>
      <trkpt lat="44.10423" lon="7.3942">
        <ele>2319</ele>
        <time>2018-04-21T07:32:01.000Z</time>
      </trkpt>
      <trkpt lat="44.10425" lon="7.39421">
        <ele>2318</ele>
        <time>2018-04-21T07:32:05.000Z</time>
      </trkpt>
      <trkpt lat="44.10426" lon="7.39422">
        <ele>2318</ele>
        <time>2018-04-21T07:32:10.000Z</time>
      </trkpt>
      <trkpt lat="44.10427" lon="7.39422">
        <ele>2318</ele>
        <time>2018-04-21T07:32:11.000Z</time>
      </trkpt>
      <trkpt lat="44.10429" lon="7.39424">
        <ele>2317</ele>
        <time>2018-04-21T07:32:18.000Z</time>
      </trkpt>
      <trkpt lat="44.1043" lon="7.39424">
        <ele>2317</ele>
        <time>2018-04-21T07:32:20.000Z</time>
      </trkpt>
      <trkpt lat="44.1043" lon="7.39425">
        <ele>2317</ele>
        <time>2018-04-21T07:32:24.000Z</time>
      </trkpt>
      <trkpt lat="44.10431" lon="7.39425">
        <ele>2317</ele>
        <time>2018-04-21T07:32:31.000Z</time>
      </trkpt>
      <trkpt lat="44.10432" lon="7.39426">
        <ele>2317</ele>
        <time>2018-04-21T07:32:35.000Z</time>
      </trkpt>
      <trkpt lat="44.10433" lon="7.39427">
        <ele>2316</ele>
        <time>2018-04-21T07:32:38.000Z</time>
      </trkpt>
      <trkpt lat="44.10433" lon="7.39427">
        <ele>2316</ele>
        <time>2018-04-21T07:32:39.000Z</time>
      </trkpt>
      <trkpt lat="44.10434" lon="7.39428">
        <ele>2316</ele>
        <time>2018-04-21T07:32:44.000Z</time>
      </trkpt>
      <trkpt lat="44.10435" lon="7.3943">
        <ele>2316</ele>
        <time>2018-04-21T07:32:51.000Z</time>
      </trkpt>
      <trkpt lat="44.10436" lon="7.39431">
        <ele>2315</ele>
        <time>2018-04-21T07:32:56.000Z</time>
      </trkpt>
      <trkpt lat="44.10436" lon="7.39431">
        <ele>2315</ele>
        <time>2018-04-21T07:32:57.000Z</time>
      </trkpt>
      <trkpt lat="44.10436" lon="7.39431">
        <ele>2315</ele>
        <time>2018-04-21T07:33:04.000Z</time>
      </trkpt>
      <trkpt lat="44.10435" lon="7.39431">
        <ele>2315</ele>
        <time>2018-04-21T07:33:10.000Z</time>
      </trkpt>
      <trkpt lat="44.10435" lon="7.3943">
        <ele>2316</ele>
        <time>2018-04-21T07:33:14.000Z</time>
      </trkpt>
      <trkpt lat="44.10432" lon="7.39429">
        <ele>2316</ele>
        <time>2018-04-21T07:33:21.000Z</time>
      </trkpt>
      <trkpt lat="44.1043" lon="7.39424">
        <ele>2317</ele>
        <time>2018-04-21T07:33:30.000Z</time>
      </trkpt>
      <trkpt lat="44.10428" lon="7.39422">
        <ele>2318</ele>
        <time>2018-04-21T07:33:35.000Z</time>
      </trkpt>
      <trkpt lat="44.10427" lon="7.39419">
        <ele>2318</ele>
        <time>2018-04-21T07:33:40.000Z</time>
      </trkpt>
      <trkpt lat="44.10425" lon="7.39416">
        <ele>2337</ele>
        <time>2018-04-21T07:33:46.000Z</time>
      </trkpt>
      <trkpt lat="44.10423" lon="7.39414">
        <ele>2335</ele>
        <time>2018-04-21T07:33:49.000Z</time>
      </trkpt>
      <trkpt lat="44.10422" lon="7.39413">
        <ele>2335</ele>
        <time>2018-04-21T07:33:51.000Z</time>
      </trkpt>
      <trkpt lat="44.10421" lon="7.39411">
        <ele>2336</ele>
        <time>2018-04-21T07:33:56.000Z</time>
      </trkpt>
      <trkpt lat="44.10421" lon="7.3941">
        <ele>2337</ele>
        <time>2018-04-21T07:34:01.000Z</time>
      </trkpt>
      <trkpt lat="44.10421" lon="7.3941">
        <ele>2337</ele>
        <time>2018-04-21T07:34:03.000Z</time>
      </trkpt>
      <trkpt lat="44.10421" lon="7.39409">
        <ele>2339</ele>
        <time>2018-04-21T07:34:06.000Z</time>
      </trkpt>
      <trkpt lat="44.10421" lon="7.39409">
        <ele>2338</ele>
        <time>2018-04-21T07:34:08.000Z</time>
      </trkpt>
      <trkpt lat="44.10421" lon="7.3941">
        <ele>2337</ele>
        <time>2018-04-21T07:34:14.000Z</time>
      </trkpt>
      <trkpt lat="44.10422" lon="7.3941">
        <ele>2338</ele>
        <time>2018-04-21T07:34:24.000Z</time>
      </trkpt>
      <trkpt lat="44.10422" lon="7.39408">
        <ele>2341</ele>
        <time>2018-04-21T07:34:27.000Z</time>
      </trkpt>
      <trkpt lat="44.10422" lon="7.39409">
        <ele>2339</ele>
        <time>2018-04-21T07:34:28.000Z</time>
      </trkpt>
      <trkpt lat="44.10425" lon="7.39409">
        <ele>2342</ele>
        <time>2018-04-21T07:34:34.000Z</time>
      </trkpt>
      <trkpt lat="44.10427" lon="7.3941">
        <ele>2344</ele>
        <time>2018-04-21T07:34:39.000Z</time>
      </trkpt>
      <trkpt lat="44.10428" lon="7.3941">
        <ele>2345</ele>
        <time>2018-04-21T07:34:40.000Z</time>
      </trkpt>
      <trkpt lat="44.10431" lon="7.39411">
        <ele>2346</ele>
        <time>2018-04-21T07:34:44.000Z</time>
      </trkpt>
      <trkpt lat="44.10431" lon="7.39411">
        <ele>2346</ele>
        <time>2018-04-21T07:34:45.000Z</time>
      </trkpt>
      <trkpt lat="44.10434" lon="7.39413">
        <ele>2348</ele>
        <time>2018-04-21T07:34:51.000Z</time>
      </trkpt>
      <trkpt lat="44.10434" lon="7.39414">
        <ele>2348</ele>
        <time>2018-04-21T07:34:53.000Z</time>
      </trkpt>
      <trkpt lat="44.10434" lon="7.39414">
        <ele>2347</ele>
        <time>2018-04-21T07:34:56.000Z</time>
      </trkpt>
      <trkpt lat="44.10434" lon="7.39415">
        <ele>2348</ele>
        <time>2018-04-21T07:34:58.000Z</time>
      </trkpt>
      <trkpt lat="44.10437" lon="7.39417">
        <ele>2317</ele>
        <time>2018-04-21T07:35:04.000Z</time>
      </trkpt>
      <trkpt lat="44.10438" lon="7.39418">
        <ele>2317</ele>
        <time>2018-04-21T07:35:05.000Z</time>
      </trkpt>
      <trkpt lat="44.10439" lon="7.39419">
        <ele>2317</ele>
        <time>2018-04-21T07:35:06.000Z</time>
      </trkpt>
      <trkpt lat="44.10441" lon="7.39421">
        <ele>2317</ele>
        <time>2018-04-21T07:35:10.000Z</time>
      </trkpt>
      <trkpt lat="44.10443" lon="7.39424">
        <ele>2316</ele>
        <time>2018-04-21T07:35:15.000Z</time>
      </trkpt>
      <trkpt lat="44.10445" lon="7.39424">
        <ele>2316</ele>
        <time>2018-04-21T07:35:16.000Z</time>
      </trkpt>
      <trkpt lat="44.10448" lon="7.39427">
        <ele>2316</ele>
        <time>2018-04-21T07:35:21.000Z</time>
      </trkpt>
      <trkpt lat="44.10451" lon="7.3943">
        <ele>2316</ele>
        <time>2018-04-21T07:35:25.000Z</time>
      </trkpt>
      <trkpt lat="44.10452" lon="7.3943">
        <ele>2316</ele>
        <time>2018-04-21T07:35:28.000Z</time>
      </trkpt>
      <trkpt lat="44.10455" lon="7.39433">
        <ele>2316</ele>
        <time>2018-04-21T07:35:34.000Z</time>
      </trkpt>
      <trkpt lat="44.10459" lon="7.39433">
        <ele>2316</ele>
        <time>2018-04-21T07:35:41.000Z</time>
      </trkpt>
      <trkpt lat="44.1046" lon="7.39433">
        <ele>2317</ele>
        <time>2018-04-21T07:35:42.000Z</time>
      </trkpt>
      <trkpt lat="44.10462" lon="7.39434">
        <ele>2317</ele>
        <time>2018-04-21T07:35:46.000Z</time>
      </trkpt>
      <trkpt lat="44.10463" lon="7.39434">
        <ele>2317</ele>
        <time>2018-04-21T07:35:48.000Z</time>
      </trkpt>
      <trkpt lat="44.10465" lon="7.39434">
        <ele>2317</ele>
        <time>2018-04-21T07:35:52.000Z</time>
      </trkpt>
      <trkpt lat="44.10468" lon="7.39435">
        <ele>2318</ele>
        <time>2018-04-21T07:35:58.000Z</time>
      </trkpt>
      <trkpt lat="44.10471" lon="7.39435">
        <ele>2318</ele>
        <time>2018-04-21T07:36:04.000Z</time>
      </trkpt>
      <trkpt lat="44.10472" lon="7.39435">
        <ele>2319</ele>
        <time>2018-04-21T07:36:05.000Z</time>
      </trkpt>
      <trkpt lat="44.10472" lon="7.39435">
        <ele>2318</ele>
        <time>2018-04-21T07:36:06.000Z</time>
      </trkpt>
      <trkpt lat="44.10473" lon="7.39435">
        <ele>2319</ele>
        <time>2018-04-21T07:36:08.000Z</time>
      </trkpt>
      <trkpt lat="44.10477" lon="7.39434">
        <ele>2320</ele>
        <time>2018-04-21T07:36:15.000Z</time>
      </trkpt>
      <trkpt lat="44.10479" lon="7.39433">
        <ele>2321</ele>
        <time>2018-04-21T07:36:21.000Z</time>
      </trkpt>
      <trkpt lat="44.10479" lon="7.39433">
        <ele>2321</ele>
        <time>2018-04-21T07:36:23.000Z</time>
      </trkpt>
      <trkpt lat="44.1048" lon="7.39432">
        <ele>2322</ele>
        <time>2018-04-21T07:36:26.000Z</time>
      </trkpt>
      <trkpt lat="44.10481" lon="7.39432">
        <ele>2322</ele>
        <time>2018-04-21T07:36:27.000Z</time>
      </trkpt>
      <trkpt lat="44.10481" lon="7.39433">
        <ele>2322</ele>
        <time>2018-04-21T07:36:28.000Z</time>
      </trkpt>
      <trkpt lat="44.10481" lon="7.39435">
        <ele>2321</ele>
        <time>2018-04-21T07:36:30.000Z</time>
      </trkpt>
      <trkpt lat="44.10485" lon="7.39435">
        <ele>2322</ele>
        <time>2018-04-21T07:36:36.000Z</time>
      </trkpt>
      <trkpt lat="44.10485" lon="7.39435">
        <ele>2322</ele>
        <time>2018-04-21T07:36:37.000Z</time>
      </trkpt>
      <trkpt lat="44.10487" lon="7.39434">
        <ele>2323</ele>
        <time>2018-04-21T07:36:41.000Z</time>
      </trkpt>
      <trkpt lat="44.10489" lon="7.39434">
        <ele>2324</ele>
        <time>2018-04-21T07:36:45.000Z</time>
      </trkpt>
      <trkpt lat="44.10489" lon="7.39434">
        <ele>2324</ele>
        <time>2018-04-21T07:36:46.000Z</time>
      </trkpt>
      <trkpt lat="44.10491" lon="7.39432">
        <ele>2325</ele>
        <time>2018-04-21T07:36:53.000Z</time>
      </trkpt>
      <trkpt lat="44.10494" lon="7.39431">
        <ele>2327</ele>
        <time>2018-04-21T07:36:57.000Z</time>
      </trkpt>
      <trkpt lat="44.10493" lon="7.39432">
        <ele>2326</ele>
        <time>2018-04-21T07:36:58.000Z</time>
      </trkpt>
      <trkpt lat="44.10494" lon="7.39431">
        <ele>2327</ele>
        <time>2018-04-21T07:36:59.000Z</time>
      </trkpt>
      <trkpt lat="44.10497" lon="7.3943">
        <ele>2328</ele>
        <time>2018-04-21T07:37:04.000Z</time>
      </trkpt>
      <trkpt lat="44.10499" lon="7.39429">
        <ele>2329</ele>
        <time>2018-04-21T07:37:09.000Z</time>
      </trkpt>
      <trkpt lat="44.105" lon="7.39429">
        <ele>2329</ele>
        <time>2018-04-21T07:37:10.000Z</time>
      </trkpt>
      <trkpt lat="44.10502" lon="7.39429">
        <ele>2338</ele>
        <time>2018-04-21T07:37:15.000Z</time>
      </trkpt>
      <trkpt lat="44.10502" lon="7.39429">
        <ele>2338</ele>
        <time>2018-04-21T07:37:16.000Z</time>
      </trkpt>
      <trkpt lat="44.10504" lon="7.39429">
        <ele>2338</ele>
        <time>2018-04-21T07:37:24.000Z</time>
      </trkpt>
      <trkpt lat="44.10503" lon="7.39429">
        <ele>2338</ele>
        <time>2018-04-21T07:37:26.000Z</time>
      </trkpt>
      <trkpt lat="44.10503" lon="7.3943">
        <ele>2338</ele>
        <time>2018-04-21T07:37:31.000Z</time>
      </trkpt>
      <trkpt lat="44.10502" lon="7.39429">
        <ele>2338</ele>
        <time>2018-04-21T07:37:36.000Z</time>
      </trkpt>
      <trkpt lat="44.10502" lon="7.39428">
        <ele>2338</ele>
        <time>2018-04-21T07:37:42.000Z</time>
      </trkpt>
      <trkpt lat="44.105" lon="7.39425">
        <ele>2339</ele>
        <time>2018-04-21T07:37:48.000Z</time>
      </trkpt>
      <trkpt lat="44.105" lon="7.39423">
        <ele>2333</ele>
        <time>2018-04-21T07:37:50.000Z</time>
      </trkpt>
      <trkpt lat="44.105" lon="7.39424">
        <ele>2333</ele>
        <time>2018-04-21T07:37:51.000Z</time>
      </trkpt>
      <trkpt lat="44.10499" lon="7.39422">
        <ele>2334</ele>
        <time>2018-04-21T07:37:53.000Z</time>
      </trkpt>
      <trkpt lat="44.10498" lon="7.3942">
        <ele>2336</ele>
        <time>2018-04-21T07:37:57.000Z</time>
      </trkpt>
      <trkpt lat="44.10498" lon="7.39419">
        <ele>2336</ele>
        <time>2018-04-21T07:37:59.000Z</time>
      </trkpt>
      <trkpt lat="44.10497" lon="7.39416">
        <ele>2344</ele>
        <time>2018-04-21T07:38:04.000Z</time>
      </trkpt>
      <trkpt lat="44.10496" lon="7.39415">
        <ele>2345</ele>
        <time>2018-04-21T07:38:06.000Z</time>
      </trkpt>
      <trkpt lat="44.10495" lon="7.39412">
        <ele>2348</ele>
        <time>2018-04-21T07:38:11.000Z</time>
      </trkpt>
      <trkpt lat="44.10495" lon="7.39409">
        <ele>2350</ele>
        <time>2018-04-21T07:38:13.000Z</time>
      </trkpt>
      <trkpt lat="44.10495" lon="7.3941">
        <ele>2350</ele>
        <time>2018-04-21T07:38:15.000Z</time>
      </trkpt>
      <trkpt lat="44.10494" lon="7.39408">
        <ele>2352</ele>
        <time>2018-04-21T07:38:20.000Z</time>
      </trkpt>
      <trkpt lat="44.10494" lon="7.39407">
        <ele>2352</ele>
        <time>2018-04-21T07:38:21.000Z</time>
      </trkpt>
      <trkpt lat="44.10493" lon="7.39405">
        <ele>2354</ele>
        <time>2018-04-21T07:38:24.000Z</time>
      </trkpt>
      <trkpt lat="44.10492" lon="7.39405">
        <ele>2354</ele>
        <time>2018-04-21T07:38:25.000Z</time>
      </trkpt>
      <trkpt lat="44.10492" lon="7.39403">
        <ele>2356</ele>
        <time>2018-04-21T07:38:30.000Z</time>
      </trkpt>
      <trkpt lat="44.10491" lon="7.39401">
        <ele>2358</ele>
        <time>2018-04-21T07:38:36.000Z</time>
      </trkpt>
      <trkpt lat="44.10492" lon="7.39401">
        <ele>2357</ele>
        <time>2018-04-21T07:38:39.000Z</time>
      </trkpt>
      <trkpt lat="44.10492" lon="7.39401">
        <ele>2358</ele>
        <time>2018-04-21T07:38:41.000Z</time>
      </trkpt>
      <trkpt lat="44.10493" lon="7.39401">
        <ele>2357</ele>
        <time>2018-04-21T07:38:46.000Z</time>
      </trkpt>
      <trkpt lat="44.10497" lon="7.39403">
        <ele>2355</ele>
        <time>2018-04-21T07:38:53.000Z</time>
      </trkpt>
      <trkpt lat="44.10501" lon="7.39404">
        <ele>2354</ele>
        <time>2018-04-21T07:39:00.000Z</time>
      </trkpt>
      <trkpt lat="44.10502" lon="7.39404">
        <ele>2354</ele>
        <time>2018-04-21T07:39:02.000Z</time>
      </trkpt>
      <trkpt lat="44.10505" lon="7.39404">
        <ele>2355</ele>
        <time>2018-04-21T07:39:07.000Z</time>
      </trkpt>
      <trkpt lat="44.10505" lon="7.39404">
        <ele>2355</ele>
        <time>2018-04-21T07:39:08.000Z</time>
      </trkpt>
      <trkpt lat="44.1051" lon="7.39404">
        <ele>2357</ele>
        <time>2018-04-21T07:39:14.000Z</time>
      </trkpt>
      <trkpt lat="44.10512" lon="7.39404">
        <ele>2358</ele>
        <time>2018-04-21T07:39:19.000Z</time>
      </trkpt>
      <trkpt lat="44.10515" lon="7.39404">
        <ele>2359</ele>
        <time>2018-04-21T07:39:25.000Z</time>
      </trkpt>
      <trkpt lat="44.10515" lon="7.39404">
        <ele>2360</ele>
        <time>2018-04-21T07:39:26.000Z</time>
      </trkpt>
      <trkpt lat="44.10518" lon="7.39404">
        <ele>2361</ele>
        <time>2018-04-21T07:39:30.000Z</time>
      </trkpt>
      <trkpt lat="44.10519" lon="7.39404">
        <ele>2361</ele>
        <time>2018-04-21T07:39:33.000Z</time>
      </trkpt>
      <trkpt lat="44.1052" lon="7.39404">
        <ele>2362</ele>
        <time>2018-04-21T07:39:36.000Z</time>
      </trkpt>
      <trkpt lat="44.10524" lon="7.39405">
        <ele>2363</ele>
        <time>2018-04-21T07:39:43.000Z</time>
      </trkpt>
      <trkpt lat="44.10529" lon="7.39406">
        <ele>2364</ele>
        <time>2018-04-21T07:39:50.000Z</time>
      </trkpt>
      <trkpt lat="44.10531" lon="7.39407">
        <ele>2364</ele>
        <time>2018-04-21T07:39:55.000Z</time>
      </trkpt>
      <trkpt lat="44.10532" lon="7.39407">
        <ele>2365</ele>
        <time>2018-04-21T07:40:01.000Z</time>
      </trkpt>
      <trkpt lat="44.10533" lon="7.39407">
        <ele>2365</ele>
        <time>2018-04-21T07:40:03.000Z</time>
      </trkpt>
      <trkpt lat="44.10536" lon="7.39408">
        <ele>2365</ele>
        <time>2018-04-21T07:40:08.000Z</time>
      </trkpt>
      <trkpt lat="44.10539" lon="7.39409">
        <ele>2366</ele>
        <time>2018-04-21T07:40:14.000Z</time>
      </trkpt>
      <trkpt lat="44.1054" lon="7.3941">
        <ele>2366</ele>
        <time>2018-04-21T07:40:16.000Z</time>
      </trkpt>
      <trkpt lat="44.10544" lon="7.39412">
        <ele>2366</ele>
        <time>2018-04-21T07:40:22.000Z</time>
      </trkpt>
      <trkpt lat="44.10549" lon="7.39413">
        <ele>2366</ele>
        <time>2018-04-21T07:40:29.000Z</time>
      </trkpt>
      <trkpt lat="44.10553" lon="7.39415">
        <ele>2366</ele>
        <time>2018-04-21T07:40:34.000Z</time>
      </trkpt>
      <trkpt lat="44.10554" lon="7.39416">
        <ele>2366</ele>
        <time>2018-04-21T07:40:36.000Z</time>
      </trkpt>
      <trkpt lat="44.10556" lon="7.39417">
        <ele>2345</ele>
        <time>2018-04-21T07:40:41.000Z</time>
      </trkpt>
      <trkpt lat="44.1056" lon="7.39419">
        <ele>2346</ele>
        <time>2018-04-21T07:40:46.000Z</time>
      </trkpt>
      <trkpt lat="44.1056" lon="7.39418">
        <ele>2346</ele>
        <time>2018-04-21T07:40:47.000Z</time>
      </trkpt>
      <trkpt lat="44.10566" lon="7.3942">
        <ele>2348</ele>
        <time>2018-04-21T07:40:55.000Z</time>
      </trkpt>
      <trkpt lat="44.10566" lon="7.3942">
        <ele>2348</ele>
        <time>2018-04-21T07:40:56.000Z</time>
      </trkpt>
      <trkpt lat="44.1057" lon="7.3942">
        <ele>2350</ele>
        <time>2018-04-21T07:41:01.000Z</time>
      </trkpt>
      <trkpt lat="44.10571" lon="7.39421">
        <ele>2351</ele>
        <time>2018-04-21T07:41:03.000Z</time>
      </trkpt>
      <trkpt lat="44.10573" lon="7.39421">
        <ele>2351</ele>
        <time>2018-04-21T07:41:06.000Z</time>
      </trkpt>
      <trkpt lat="44.10576" lon="7.39421">
        <ele>2353</ele>
        <time>2018-04-21T07:41:11.000Z</time>
      </trkpt>
      <trkpt lat="44.10577" lon="7.39421">
        <ele>2354</ele>
        <time>2018-04-21T07:41:13.000Z</time>
      </trkpt>
      <trkpt lat="44.10581" lon="7.39421">
        <ele>2355</ele>
        <time>2018-04-21T07:41:19.000Z</time>
      </trkpt>
      <trkpt lat="44.10581" lon="7.39421">
        <ele>2355</ele>
        <time>2018-04-21T07:41:20.000Z</time>
      </trkpt>
      <trkpt lat="44.10581" lon="7.39421">
        <ele>2355</ele>
        <time>2018-04-21T07:41:24.000Z</time>
      </trkpt>
      <trkpt lat="44.10581" lon="7.39421">
        <ele>2355</ele>
        <time>2018-04-21T07:41:28.000Z</time>
      </trkpt>
      <trkpt lat="44.10581" lon="7.39421">
        <ele>2355</ele>
        <time>2018-04-21T07:41:42.000Z</time>
      </trkpt>
      <trkpt lat="44.10581" lon="7.39421">
        <ele>2355</ele>
        <time>2018-04-21T07:41:55.000Z</time>
      </trkpt>
      <trkpt lat="44.10583" lon="7.3942">
        <ele>2356</ele>
        <time>2018-04-21T07:42:04.000Z</time>
      </trkpt>
      <trkpt lat="44.10584" lon="7.39419">
        <ele>2360</ele>
        <time>2018-04-21T07:42:05.000Z</time>
      </trkpt>
      <trkpt lat="44.10587" lon="7.39418">
        <ele>2360</ele>
        <time>2018-04-21T07:42:10.000Z</time>
      </trkpt>
      <trkpt lat="44.10588" lon="7.39417">
        <ele>2360</ele>
        <time>2018-04-21T07:42:14.000Z</time>
      </trkpt>
      <trkpt lat="44.10589" lon="7.39417">
        <ele>2364</ele>
        <time>2018-04-21T07:42:15.000Z</time>
      </trkpt>
      <trkpt lat="44.10591" lon="7.39414">
        <ele>2366</ele>
        <time>2018-04-21T07:42:18.000Z</time>
      </trkpt>
      <trkpt lat="44.10591" lon="7.39413">
        <ele>2367</ele>
        <time>2018-04-21T07:42:20.000Z</time>
      </trkpt>
      <trkpt lat="44.10591" lon="7.39414">
        <ele>2367</ele>
        <time>2018-04-21T07:42:21.000Z</time>
      </trkpt>
      <trkpt lat="44.10592" lon="7.39412">
        <ele>2368</ele>
        <time>2018-04-21T07:42:22.000Z</time>
      </trkpt>
      <trkpt lat="44.10593" lon="7.3941">
        <ele>2369</ele>
        <time>2018-04-21T07:42:27.000Z</time>
      </trkpt>
      <trkpt lat="44.10595" lon="7.39407">
        <ele>2371</ele>
        <time>2018-04-21T07:42:31.000Z</time>
      </trkpt>
      <trkpt lat="44.10596" lon="7.39406">
        <ele>2372</ele>
        <time>2018-04-21T07:42:32.000Z</time>
      </trkpt>
      <trkpt lat="44.10597" lon="7.39404">
        <ele>2373</ele>
        <time>2018-04-21T07:42:36.000Z</time>
      </trkpt>
      <trkpt lat="44.10599" lon="7.39402">
        <ele>2375</ele>
        <time>2018-04-21T07:42:39.000Z</time>
      </trkpt>
      <trkpt lat="44.10599" lon="7.394">
        <ele>2375</ele>
        <time>2018-04-21T07:42:41.000Z</time>
      </trkpt>
      <trkpt lat="44.106" lon="7.394">
        <ele>2376</ele>
        <time>2018-04-21T07:42:44.000Z</time>
      </trkpt>
      <trkpt lat="44.106" lon="7.394">
        <ele>2376</ele>
        <time>2018-04-21T07:42:47.000Z</time>
      </trkpt>
      <trkpt lat="44.106" lon="7.394">
        <ele>2376</ele>
        <time>2018-04-21T07:42:59.000Z</time>
      </trkpt>
      <trkpt lat="44.10601" lon="7.39396">
        <ele>2377</ele>
        <time>2018-04-21T07:43:03.000Z</time>
      </trkpt>
      <trkpt lat="44.106" lon="7.39397">
        <ele>2377</ele>
        <time>2018-04-21T07:43:04.000Z</time>
      </trkpt>
      <trkpt lat="44.10601" lon="7.39395">
        <ele>2378</ele>
        <time>2018-04-21T07:43:05.000Z</time>
      </trkpt>
      <trkpt lat="44.10602" lon="7.39392">
        <ele>2378</ele>
        <time>2018-04-21T07:43:10.000Z</time>
      </trkpt>
      <trkpt lat="44.10605" lon="7.39388">
        <ele>2380</ele>
        <time>2018-04-21T07:43:15.000Z</time>
      </trkpt>
      <trkpt lat="44.10604" lon="7.39389">
        <ele>2380</ele>
        <time>2018-04-21T07:43:16.000Z</time>
      </trkpt>
      <trkpt lat="44.10605" lon="7.39387">
        <ele>2380</ele>
        <time>2018-04-21T07:43:17.000Z</time>
      </trkpt>
      <trkpt lat="44.10607" lon="7.39383">
        <ele>2382</ele>
        <time>2018-04-21T07:43:24.000Z</time>
      </trkpt>
      <trkpt lat="44.10608" lon="7.39382">
        <ele>2382</ele>
        <time>2018-04-21T07:43:26.000Z</time>
      </trkpt>
      <trkpt lat="44.10608" lon="7.39381">
        <ele>2383</ele>
        <time>2018-04-21T07:43:29.000Z</time>
      </trkpt>
      <trkpt lat="44.1061" lon="7.39377">
        <ele>2384</ele>
        <time>2018-04-21T07:43:35.000Z</time>
      </trkpt>
      <trkpt lat="44.10611" lon="7.39376">
        <ele>2384</ele>
        <time>2018-04-21T07:43:36.000Z</time>
      </trkpt>
      <trkpt lat="44.10612" lon="7.39374">
        <ele>2384</ele>
        <time>2018-04-21T07:43:40.000Z</time>
      </trkpt>
      <trkpt lat="44.10613" lon="7.3937">
        <ele>2385</ele>
        <time>2018-04-21T07:43:46.000Z</time>
      </trkpt>
      <trkpt lat="44.10613" lon="7.3937">
        <ele>2385</ele>
        <time>2018-04-21T07:43:47.000Z</time>
      </trkpt>
      <trkpt lat="44.10613" lon="7.39367">
        <ele>2386</ele>
        <time>2018-04-21T07:43:51.000Z</time>
      </trkpt>
      <trkpt lat="44.10613" lon="7.39366">
        <ele>2386</ele>
        <time>2018-04-21T07:43:53.000Z</time>
      </trkpt>
      <trkpt lat="44.10613" lon="7.39364">
        <ele>2386</ele>
        <time>2018-04-21T07:43:57.000Z</time>
      </trkpt>
      <trkpt lat="44.10613" lon="7.39361">
        <ele>2387</ele>
        <time>2018-04-21T07:44:03.000Z</time>
      </trkpt>
      <trkpt lat="44.10612" lon="7.39361">
        <ele>2387</ele>
        <time>2018-04-21T07:44:04.000Z</time>
      </trkpt>
      <trkpt lat="44.10613" lon="7.39358">
        <ele>2387</ele>
        <time>2018-04-21T07:44:10.000Z</time>
      </trkpt>
      <trkpt lat="44.10613" lon="7.39358">
        <ele>2388</ele>
        <time>2018-04-21T07:44:11.000Z</time>
      </trkpt>
      <trkpt lat="44.10615" lon="7.39355">
        <ele>2388</ele>
        <time>2018-04-21T07:44:16.000Z</time>
      </trkpt>
      <trkpt lat="44.10616" lon="7.39354">
        <ele>2388</ele>
        <time>2018-04-21T07:44:19.000Z</time>
      </trkpt>
      <trkpt lat="44.10617" lon="7.39354">
        <ele>2388</ele>
        <time>2018-04-21T07:44:21.000Z</time>
      </trkpt>
      <trkpt lat="44.10619" lon="7.39353">
        <ele>2389</ele>
        <time>2018-04-21T07:44:25.000Z</time>
      </trkpt>
      <trkpt lat="44.10619" lon="7.39353">
        <ele>2389</ele>
        <time>2018-04-21T07:44:26.000Z</time>
      </trkpt>
      <trkpt lat="44.10621" lon="7.39352">
        <ele>2389</ele>
        <time>2018-04-21T07:44:32.000Z</time>
      </trkpt>
      <trkpt lat="44.10622" lon="7.39351">
        <ele>2389</ele>
        <time>2018-04-21T07:44:34.000Z</time>
      </trkpt>
      <trkpt lat="44.10623" lon="7.39351">
        <ele>2389</ele>
        <time>2018-04-21T07:44:38.000Z</time>
      </trkpt>
      <trkpt lat="44.10625" lon="7.39351">
        <ele>2389</ele>
        <time>2018-04-21T07:44:42.000Z</time>
      </trkpt>
      <trkpt lat="44.10627" lon="7.39351">
        <ele>2390</ele>
        <time>2018-04-21T07:44:46.000Z</time>
      </trkpt>
      <trkpt lat="44.10629" lon="7.3935">
        <ele>2390</ele>
        <time>2018-04-21T07:44:52.000Z</time>
      </trkpt>
      <trkpt lat="44.1063" lon="7.3935">
        <ele>2390</ele>
        <time>2018-04-21T07:44:56.000Z</time>
      </trkpt>
      <trkpt lat="44.10629" lon="7.3935">
        <ele>2390</ele>
        <time>2018-04-21T07:44:59.000Z</time>
      </trkpt>
      <trkpt lat="44.10632" lon="7.39352">
        <ele>2390</ele>
        <time>2018-04-21T07:45:05.000Z</time>
      </trkpt>
      <trkpt lat="44.10633" lon="7.39352">
        <ele>2390</ele>
        <time>2018-04-21T07:45:06.000Z</time>
      </trkpt>
      <trkpt lat="44.10635" lon="7.39353">
        <ele>2390</ele>
        <time>2018-04-21T07:45:09.000Z</time>
      </trkpt>
      <trkpt lat="44.10635" lon="7.39352">
        <ele>2390</ele>
        <time>2018-04-21T07:45:10.000Z</time>
      </trkpt>
      <trkpt lat="44.10637" lon="7.39354">
        <ele>2390</ele>
        <time>2018-04-21T07:45:15.000Z</time>
      </trkpt>
      <trkpt lat="44.10637" lon="7.39354">
        <ele>2390</ele>
        <time>2018-04-21T07:45:21.000Z</time>
      </trkpt>
      <trkpt lat="44.10637" lon="7.39353">
        <ele>2391</ele>
        <time>2018-04-21T07:45:25.000Z</time>
      </trkpt>
      <trkpt lat="44.10636" lon="7.39354">
        <ele>2390</ele>
        <time>2018-04-21T07:45:26.000Z</time>
      </trkpt>
      <trkpt lat="44.10636" lon="7.39352">
        <ele>2391</ele>
        <time>2018-04-21T07:45:31.000Z</time>
      </trkpt>
      <trkpt lat="44.10636" lon="7.39351">
        <ele>2391</ele>
        <time>2018-04-21T07:45:33.000Z</time>
      </trkpt>
      <trkpt lat="44.10637" lon="7.39349">
        <ele>2391</ele>
        <time>2018-04-21T07:45:36.000Z</time>
      </trkpt>
      <trkpt lat="44.10639" lon="7.3935">
        <ele>2391</ele>
        <time>2018-04-21T07:45:41.000Z</time>
      </trkpt>
      <trkpt lat="44.10642" lon="7.39351">
        <ele>2391</ele>
        <time>2018-04-21T07:45:47.000Z</time>
      </trkpt>
      <trkpt lat="44.10643" lon="7.39353">
        <ele>2392</ele>
        <time>2018-04-21T07:45:50.000Z</time>
      </trkpt>
      <trkpt lat="44.10644" lon="7.39351">
        <ele>2392</ele>
        <time>2018-04-21T07:45:55.000Z</time>
      </trkpt>
      <trkpt lat="44.10645" lon="7.39349">
        <ele>2393</ele>
        <time>2018-04-21T07:45:57.000Z</time>
      </trkpt>
      <trkpt lat="44.10646" lon="7.39349">
        <ele>2393</ele>
        <time>2018-04-21T07:45:59.000Z</time>
      </trkpt>
      <trkpt lat="44.10648" lon="7.39349">
        <ele>2393</ele>
        <time>2018-04-21T07:46:03.000Z</time>
      </trkpt>
      <trkpt lat="44.10648" lon="7.3935">
        <ele>2393</ele>
        <time>2018-04-21T07:46:07.000Z</time>
      </trkpt>
      <trkpt lat="44.10648" lon="7.39352">
        <ele>2393</ele>
        <time>2018-04-21T07:46:08.000Z</time>
      </trkpt>
      <trkpt lat="44.10648" lon="7.39353">
        <ele>2392</ele>
        <time>2018-04-21T07:46:11.000Z</time>
      </trkpt>
      <trkpt lat="44.10648" lon="7.39353">
        <ele>2392</ele>
        <time>2018-04-21T07:46:12.000Z</time>
      </trkpt>
      <trkpt lat="44.10648" lon="7.39355">
        <ele>2392</ele>
        <time>2018-04-21T07:46:16.000Z</time>
      </trkpt>
      <trkpt lat="44.10649" lon="7.39356">
        <ele>2392</ele>
        <time>2018-04-21T07:46:17.000Z</time>
      </trkpt>
      <trkpt lat="44.10651" lon="7.39359">
        <ele>2391</ele>
        <time>2018-04-21T07:46:24.000Z</time>
      </trkpt>
      <trkpt lat="44.10654" lon="7.39362">
        <ele>2391</ele>
        <time>2018-04-21T07:46:29.000Z</time>
      </trkpt>
      <trkpt lat="44.10654" lon="7.39363">
        <ele>2391</ele>
        <time>2018-04-21T07:46:30.000Z</time>
      </trkpt>
      <trkpt lat="44.10655" lon="7.39364">
        <ele>2391</ele>
        <time>2018-04-21T07:46:35.000Z</time>
      </trkpt>
      <trkpt lat="44.10657" lon="7.39366">
        <ele>2390</ele>
        <time>2018-04-21T07:46:37.000Z</time>
      </trkpt>
      <trkpt lat="44.10658" lon="7.39368">
        <ele>2390</ele>
        <time>2018-04-21T07:46:41.000Z</time>
      </trkpt>
      <trkpt lat="44.1066" lon="7.39371">
        <ele>2389</ele>
        <time>2018-04-21T07:46:46.000Z</time>
      </trkpt>
      <trkpt lat="44.10661" lon="7.39371">
        <ele>2389</ele>
        <time>2018-04-21T07:46:47.000Z</time>
      </trkpt>
      <trkpt lat="44.10663" lon="7.39374">
        <ele>2389</ele>
        <time>2018-04-21T07:46:52.000Z</time>
      </trkpt>
      <trkpt lat="44.10664" lon="7.39375">
        <ele>2389</ele>
        <time>2018-04-21T07:46:54.000Z</time>
      </trkpt>
      <trkpt lat="44.10666" lon="7.39375">
        <ele>2389</ele>
        <time>2018-04-21T07:46:58.000Z</time>
      </trkpt>
      <trkpt lat="44.10667" lon="7.39376">
        <ele>2405</ele>
        <time>2018-04-21T07:47:01.000Z</time>
      </trkpt>
      <trkpt lat="44.10668" lon="7.39375">
        <ele>2405</ele>
        <time>2018-04-21T07:47:03.000Z</time>
      </trkpt>
      <trkpt lat="44.10669" lon="7.39376">
        <ele>2405</ele>
        <time>2018-04-21T07:47:06.000Z</time>
      </trkpt>
      <trkpt lat="44.1067" lon="7.39376">
        <ele>2405</ele>
        <time>2018-04-21T07:47:09.000Z</time>
      </trkpt>
      <trkpt lat="44.1067" lon="7.39376">
        <ele>2405</ele>
        <time>2018-04-21T07:47:11.000Z</time>
      </trkpt>
      <trkpt lat="44.10673" lon="7.39376">
        <ele>2405</ele>
        <time>2018-04-21T07:47:15.000Z</time>
      </trkpt>
      <trkpt lat="44.10675" lon="7.39375">
        <ele>2405</ele>
        <time>2018-04-21T07:47:22.000Z</time>
      </trkpt>
      <trkpt lat="44.10677" lon="7.39375">
        <ele>2406</ele>
        <time>2018-04-21T07:47:23.000Z</time>
      </trkpt>
      <trkpt lat="44.1068" lon="7.39375">
        <ele>2406</ele>
        <time>2018-04-21T07:47:31.000Z</time>
      </trkpt>
      <trkpt lat="44.10683" lon="7.39374">
        <ele>2407</ele>
        <time>2018-04-21T07:47:35.000Z</time>
      </trkpt>
      <trkpt lat="44.10683" lon="7.39374">
        <ele>2407</ele>
        <time>2018-04-21T07:47:38.000Z</time>
      </trkpt>
      <trkpt lat="44.10686" lon="7.39375">
        <ele>2407</ele>
        <time>2018-04-21T07:47:42.000Z</time>
      </trkpt>
      <trkpt lat="44.10687" lon="7.39374">
        <ele>2407</ele>
        <time>2018-04-21T07:47:44.000Z</time>
      </trkpt>
      <trkpt lat="44.10688" lon="7.39374">
        <ele>2407</ele>
        <time>2018-04-21T07:47:49.000Z</time>
      </trkpt>
      <trkpt lat="44.10691" lon="7.39374">
        <ele>2408</ele>
        <time>2018-04-21T07:47:53.000Z</time>
      </trkpt>
      <trkpt lat="44.10692" lon="7.39374">
        <ele>2408</ele>
        <time>2018-04-21T07:47:56.000Z</time>
      </trkpt>
      <trkpt lat="44.10696" lon="7.39374">
        <ele>2409</ele>
        <time>2018-04-21T07:48:02.000Z</time>
      </trkpt>
      <trkpt lat="44.10699" lon="7.39374">
        <ele>2409</ele>
        <time>2018-04-21T07:48:08.000Z</time>
      </trkpt>
      <trkpt lat="44.10702" lon="7.39374">
        <ele>2410</ele>
        <time>2018-04-21T07:48:13.000Z</time>
      </trkpt>
      <trkpt lat="44.10704" lon="7.39374">
        <ele>2410</ele>
        <time>2018-04-21T07:48:15.000Z</time>
      </trkpt>
      <trkpt lat="44.10706" lon="7.39374">
        <ele>2411</ele>
        <time>2018-04-21T07:48:21.000Z</time>
      </trkpt>
      <trkpt lat="44.10707" lon="7.39374">
        <ele>2411</ele>
        <time>2018-04-21T07:48:22.000Z</time>
      </trkpt>
      <trkpt lat="44.1071" lon="7.39374">
        <ele>2412</ele>
        <time>2018-04-21T07:48:28.000Z</time>
      </trkpt>
      <trkpt lat="44.10709" lon="7.39374">
        <ele>2411</ele>
        <time>2018-04-21T07:48:29.000Z</time>
      </trkpt>
      <trkpt lat="44.10712" lon="7.39374">
        <ele>2412</ele>
        <time>2018-04-21T07:48:34.000Z</time>
      </trkpt>
      <trkpt lat="44.10714" lon="7.39374">
        <ele>2412</ele>
        <time>2018-04-21T07:48:37.000Z</time>
      </trkpt>
      <trkpt lat="44.10715" lon="7.39375">
        <ele>2413</ele>
        <time>2018-04-21T07:48:41.000Z</time>
      </trkpt>
      <trkpt lat="44.10716" lon="7.39375">
        <ele>2413</ele>
        <time>2018-04-21T07:48:43.000Z</time>
      </trkpt>
      <trkpt lat="44.10718" lon="7.39375">
        <ele>2413</ele>
        <time>2018-04-21T07:48:46.000Z</time>
      </trkpt>
      <trkpt lat="44.1072" lon="7.39376">
        <ele>2413</ele>
        <time>2018-04-21T07:48:52.000Z</time>
      </trkpt>
      <trkpt lat="44.10721" lon="7.39377">
        <ele>2414</ele>
        <time>2018-04-21T07:48:53.000Z</time>
      </trkpt>
      <trkpt lat="44.10723" lon="7.39377">
        <ele>2414</ele>
        <time>2018-04-21T07:48:59.000Z</time>
      </trkpt>
      <trkpt lat="44.10726" lon="7.39378">
        <ele>2414</ele>
        <time>2018-04-21T07:49:05.000Z</time>
      </trkpt>
      <trkpt lat="44.10727" lon="7.39378">
        <ele>2415</ele>
        <time>2018-04-21T07:49:07.000Z</time>
      </trkpt>
      <trkpt lat="44.10727" lon="7.39378">
        <ele>2415</ele>
        <time>2018-04-21T07:49:10.000Z</time>
      </trkpt>
      <trkpt lat="44.10729" lon="7.39377">
        <ele>2415</ele>
        <time>2018-04-21T07:49:13.000Z</time>
      </trkpt>
      <trkpt lat="44.1073" lon="7.39377">
        <ele>2415</ele>
        <time>2018-04-21T07:49:16.000Z</time>
      </trkpt>
      <trkpt lat="44.10731" lon="7.39377">
        <ele>2415</ele>
        <time>2018-04-21T07:49:20.000Z</time>
      </trkpt>
      <trkpt lat="44.10732" lon="7.39376">
        <ele>2416</ele>
        <time>2018-04-21T07:49:21.000Z</time>
      </trkpt>
      <trkpt lat="44.10733" lon="7.39375">
        <ele>2416</ele>
        <time>2018-04-21T07:49:28.000Z</time>
      </trkpt>
      <trkpt lat="44.10734" lon="7.39376">
        <ele>2416</ele>
        <time>2018-04-21T07:49:35.000Z</time>
      </trkpt>
      <trkpt lat="44.10733" lon="7.39376">
        <ele>2416</ele>
        <time>2018-04-21T07:49:43.000Z</time>
      </trkpt>
      <trkpt lat="44.10733" lon="7.39376">
        <ele>2416</ele>
        <time>2018-04-21T07:49:51.000Z</time>
      </trkpt>
      <trkpt lat="44.10732" lon="7.39378">
        <ele>2415</ele>
        <time>2018-04-21T07:49:53.000Z</time>
      </trkpt>
      <trkpt lat="44.10732" lon="7.39377">
        <ele>2416</ele>
        <time>2018-04-21T07:49:54.000Z</time>
      </trkpt>
      <trkpt lat="44.10732" lon="7.39377">
        <ele>2415</ele>
        <time>2018-04-21T07:50:00.000Z</time>
      </trkpt>
      <trkpt lat="44.10731" lon="7.39378">
        <ele>2415</ele>
        <time>2018-04-21T07:50:01.000Z</time>
      </trkpt>
      <trkpt lat="44.10731" lon="7.39378">
        <ele>2415</ele>
        <time>2018-04-21T07:50:04.000Z</time>
      </trkpt>
      <trkpt lat="44.10732" lon="7.39377">
        <ele>2415</ele>
        <time>2018-04-21T07:50:10.000Z</time>
      </trkpt>
      <trkpt lat="44.10734" lon="7.39376">
        <ele>2416</ele>
        <time>2018-04-21T07:50:13.000Z</time>
      </trkpt>
      <trkpt lat="44.10734" lon="7.39376">
        <ele>2416</ele>
        <time>2018-04-21T07:50:16.000Z</time>
      </trkpt>
      <trkpt lat="44.10734" lon="7.39374">
        <ele>2416</ele>
        <time>2018-04-21T07:50:21.000Z</time>
      </trkpt>
      <trkpt lat="44.10734" lon="7.3937">
        <ele>2417</ele>
        <time>2018-04-21T07:50:26.000Z</time>
      </trkpt>
      <trkpt lat="44.10735" lon="7.3937">
        <ele>2417</ele>
        <time>2018-04-21T07:50:28.000Z</time>
      </trkpt>
      <trkpt lat="44.10734" lon="7.39365">
        <ele>2418</ele>
        <time>2018-04-21T07:50:33.000Z</time>
      </trkpt>
      <trkpt lat="44.10734" lon="7.39365">
        <ele>2418</ele>
        <time>2018-04-21T07:50:34.000Z</time>
      </trkpt>
      <trkpt lat="44.10735" lon="7.39363">
        <ele>2418</ele>
        <time>2018-04-21T07:50:36.000Z</time>
      </trkpt>
      <trkpt lat="44.10735" lon="7.39363">
        <ele>2418</ele>
        <time>2018-04-21T07:50:39.000Z</time>
      </trkpt>
      <trkpt lat="44.10736" lon="7.39363">
        <ele>2419</ele>
        <time>2018-04-21T07:50:41.000Z</time>
      </trkpt>
      <trkpt lat="44.10737" lon="7.39361">
        <ele>2419</ele>
        <time>2018-04-21T07:50:44.000Z</time>
      </trkpt>
      <trkpt lat="44.10739" lon="7.39358">
        <ele>2420</ele>
        <time>2018-04-21T07:50:50.000Z</time>
      </trkpt>
      <trkpt lat="44.10739" lon="7.39357">
        <ele>2421</ele>
        <time>2018-04-21T07:50:51.000Z</time>
      </trkpt>
      <trkpt lat="44.10739" lon="7.39355">
        <ele>2421</ele>
        <time>2018-04-21T07:50:57.000Z</time>
      </trkpt>
      <trkpt lat="44.10739" lon="7.39351">
        <ele>2423</ele>
        <time>2018-04-21T07:51:01.000Z</time>
      </trkpt>
      <trkpt lat="44.10739" lon="7.39351">
        <ele>2423</ele>
        <time>2018-04-21T07:51:03.000Z</time>
      </trkpt>
      <trkpt lat="44.10739" lon="7.39352">
        <ele>2422</ele>
        <time>2018-04-21T07:51:16.000Z</time>
      </trkpt>
      <trkpt lat="44.10739" lon="7.39351">
        <ele>2423</ele>
        <time>2018-04-21T07:51:24.000Z</time>
      </trkpt>
      <trkpt lat="44.10738" lon="7.39349">
        <ele>2423</ele>
        <time>2018-04-21T07:51:29.000Z</time>
      </trkpt>
      <trkpt lat="44.10738" lon="7.39348">
        <ele>2423</ele>
        <time>2018-04-21T07:51:31.000Z</time>
      </trkpt>
      <trkpt lat="44.10738" lon="7.39344">
        <ele>2425</ele>
        <time>2018-04-21T07:51:35.000Z</time>
      </trkpt>
      <trkpt lat="44.10738" lon="7.39344">
        <ele>2425</ele>
        <time>2018-04-21T07:51:36.000Z</time>
      </trkpt>
      <trkpt lat="44.10739" lon="7.39342">
        <ele>2426</ele>
        <time>2018-04-21T07:51:41.000Z</time>
      </trkpt>
      <trkpt lat="44.10742" lon="7.3934">
        <ele>2428</ele>
        <time>2018-04-21T07:51:45.000Z</time>
      </trkpt>
      <trkpt lat="44.10743" lon="7.3934">
        <ele>2429</ele>
        <time>2018-04-21T07:51:48.000Z</time>
      </trkpt>
      <trkpt lat="44.10744" lon="7.39339">
        <ele>2430</ele>
        <time>2018-04-21T07:51:52.000Z</time>
      </trkpt>
      <trkpt lat="44.10745" lon="7.39339">
        <ele>2431</ele>
        <time>2018-04-21T07:51:53.000Z</time>
      </trkpt>
      <trkpt lat="44.10747" lon="7.39338">
        <ele>2432</ele>
        <time>2018-04-21T07:51:59.000Z</time>
      </trkpt>
      <trkpt lat="44.10749" lon="7.39338">
        <ele>2432</ele>
        <time>2018-04-21T07:52:00.000Z</time>
      </trkpt>
      <trkpt lat="44.10751" lon="7.39338">
        <ele>2439</ele>
        <time>2018-04-21T07:52:06.000Z</time>
      </trkpt>
      <trkpt lat="44.10752" lon="7.39339">
        <ele>2439</ele>
        <time>2018-04-21T07:52:09.000Z</time>
      </trkpt>
      <trkpt lat="44.10752" lon="7.39339">
        <ele>2439</ele>
        <time>2018-04-21T07:52:12.000Z</time>
      </trkpt>
      <trkpt lat="44.10754" lon="7.3934">
        <ele>2440</ele>
        <time>2018-04-21T07:52:17.000Z</time>
      </trkpt>
      <trkpt lat="44.10755" lon="7.39341">
        <ele>2440</ele>
        <time>2018-04-21T07:52:19.000Z</time>
      </trkpt>
      <trkpt lat="44.10756" lon="7.39342">
        <ele>2440</ele>
        <time>2018-04-21T07:52:24.000Z</time>
      </trkpt>
      <trkpt lat="44.10757" lon="7.39342">
        <ele>2441</ele>
        <time>2018-04-21T07:52:27.000Z</time>
      </trkpt>
      <trkpt lat="44.10757" lon="7.39342">
        <ele>2441</ele>
        <time>2018-04-21T07:52:29.000Z</time>
      </trkpt>
      <trkpt lat="44.10759" lon="7.39343">
        <ele>2441</ele>
        <time>2018-04-21T07:52:34.000Z</time>
      </trkpt>
      <trkpt lat="44.10761" lon="7.39345">
        <ele>2442</ele>
        <time>2018-04-21T07:52:37.000Z</time>
      </trkpt>
      <trkpt lat="44.10762" lon="7.39346">
        <ele>2442</ele>
        <time>2018-04-21T07:52:43.000Z</time>
      </trkpt>
      <trkpt lat="44.10765" lon="7.39349">
        <ele>2443</ele>
        <time>2018-04-21T07:52:49.000Z</time>
      </trkpt>
      <trkpt lat="44.10765" lon="7.3935">
        <ele>2443</ele>
        <time>2018-04-21T07:52:51.000Z</time>
      </trkpt>
      <trkpt lat="44.10767" lon="7.39351">
        <ele>2444</ele>
        <time>2018-04-21T07:52:56.000Z</time>
      </trkpt>
      <trkpt lat="44.10769" lon="7.39352">
        <ele>2444</ele>
        <time>2018-04-21T07:52:59.000Z</time>
      </trkpt>
      <trkpt lat="44.1077" lon="7.39353">
        <ele>2445</ele>
        <time>2018-04-21T07:53:03.000Z</time>
      </trkpt>
      <trkpt lat="44.1077" lon="7.39353">
        <ele>2444</ele>
        <time>2018-04-21T07:53:08.000Z</time>
      </trkpt>
      <trkpt lat="44.10771" lon="7.39354">
        <ele>2445</ele>
        <time>2018-04-21T07:53:09.000Z</time>
      </trkpt>
      <trkpt lat="44.10774" lon="7.39357">
        <ele>2445</ele>
        <time>2018-04-21T07:53:16.000Z</time>
      </trkpt>
      <trkpt lat="44.10776" lon="7.39358">
        <ele>2446</ele>
        <time>2018-04-21T07:53:18.000Z</time>
      </trkpt>
      <trkpt lat="44.10775" lon="7.39358">
        <ele>2446</ele>
        <time>2018-04-21T07:53:21.000Z</time>
      </trkpt>
      <trkpt lat="44.10776" lon="7.39361">
        <ele>2446</ele>
        <time>2018-04-21T07:53:25.000Z</time>
      </trkpt>
      <trkpt lat="44.10777" lon="7.39362">
        <ele>2446</ele>
        <time>2018-04-21T07:53:26.000Z</time>
      </trkpt>
      <trkpt lat="44.10777" lon="7.39363">
        <ele>2446</ele>
        <time>2018-04-21T07:53:30.000Z</time>
      </trkpt>
      <trkpt lat="44.10778" lon="7.39364">
        <ele>2446</ele>
        <time>2018-04-21T07:53:32.000Z</time>
      </trkpt>
      <trkpt lat="44.10779" lon="7.39367">
        <ele>2446</ele>
        <time>2018-04-21T07:53:39.000Z</time>
      </trkpt>
      <trkpt lat="44.1078" lon="7.39368">
        <ele>2446</ele>
        <time>2018-04-21T07:53:40.000Z</time>
      </trkpt>
      <trkpt lat="44.10782" lon="7.3937">
        <ele>2446</ele>
        <time>2018-04-21T07:53:45.000Z</time>
      </trkpt>
      <trkpt lat="44.10782" lon="7.39369">
        <ele>2446</ele>
        <time>2018-04-21T07:53:46.000Z</time>
      </trkpt>
      <trkpt lat="44.10785" lon="7.3937">
        <ele>2447</ele>
        <time>2018-04-21T07:53:52.000Z</time>
      </trkpt>
      <trkpt lat="44.10785" lon="7.3937">
        <ele>2447</ele>
        <time>2018-04-21T07:53:53.000Z</time>
      </trkpt>
      <trkpt lat="44.10787" lon="7.3937">
        <ele>2448</ele>
        <time>2018-04-21T07:53:57.000Z</time>
      </trkpt>
      <trkpt lat="44.10788" lon="7.39369">
        <ele>2448</ele>
        <time>2018-04-21T07:53:59.000Z</time>
      </trkpt>
      <trkpt lat="44.10789" lon="7.39369">
        <ele>2448</ele>
        <time>2018-04-21T07:54:04.000Z</time>
      </trkpt>
      <trkpt lat="44.10789" lon="7.39368">
        <ele>2448</ele>
        <time>2018-04-21T07:54:13.000Z</time>
      </trkpt>
      <trkpt lat="44.10789" lon="7.39367">
        <ele>2448</ele>
        <time>2018-04-21T07:54:26.000Z</time>
      </trkpt>
      <trkpt lat="44.10789" lon="7.39367">
        <ele>2448</ele>
        <time>2018-04-21T07:54:32.000Z</time>
      </trkpt>
      <trkpt lat="44.10789" lon="7.39365">
        <ele>2448</ele>
        <time>2018-04-21T07:54:40.000Z</time>
      </trkpt>
      <trkpt lat="44.10789" lon="7.39364">
        <ele>2448</ele>
        <time>2018-04-21T07:54:56.000Z</time>
      </trkpt>
      <trkpt lat="44.10789" lon="7.39364">
        <ele>2448</ele>
        <time>2018-04-21T07:55:12.000Z</time>
      </trkpt>
      <trkpt lat="44.10791" lon="7.39362">
        <ele>2449</ele>
        <time>2018-04-21T07:55:22.000Z</time>
      </trkpt>
      <trkpt lat="44.10791" lon="7.39361">
        <ele>2449</ele>
        <time>2018-04-21T07:55:24.000Z</time>
      </trkpt>
      <trkpt lat="44.10795" lon="7.39361">
        <ele>2450</ele>
        <time>2018-04-21T07:55:28.000Z</time>
      </trkpt>
      <trkpt lat="44.10797" lon="7.39362">
        <ele>2451</ele>
        <time>2018-04-21T07:55:34.000Z</time>
      </trkpt>
      <trkpt lat="44.10801" lon="7.39363">
        <ele>2451</ele>
        <time>2018-04-21T07:55:39.000Z</time>
      </trkpt>
      <trkpt lat="44.10801" lon="7.39363">
        <ele>2451</ele>
        <time>2018-04-21T07:55:40.000Z</time>
      </trkpt>
      <trkpt lat="44.10805" lon="7.39365">
        <ele>2452</ele>
        <time>2018-04-21T07:55:47.000Z</time>
      </trkpt>
      <trkpt lat="44.10808" lon="7.39367">
        <ele>2453</ele>
        <time>2018-04-21T07:55:52.000Z</time>
      </trkpt>
      <trkpt lat="44.10809" lon="7.39368">
        <ele>2453</ele>
        <time>2018-04-21T07:55:54.000Z</time>
      </trkpt>
      <trkpt lat="44.10811" lon="7.39369">
        <ele>2453</ele>
        <time>2018-04-21T07:56:00.000Z</time>
      </trkpt>
      <trkpt lat="44.10812" lon="7.3937">
        <ele>2453</ele>
        <time>2018-04-21T07:56:01.000Z</time>
      </trkpt>
      <trkpt lat="44.10814" lon="7.39371">
        <ele>2453</ele>
        <time>2018-04-21T07:56:05.000Z</time>
      </trkpt>
      <trkpt lat="44.10814" lon="7.39371">
        <ele>2454</ele>
        <time>2018-04-21T07:56:08.000Z</time>
      </trkpt>
      <trkpt lat="44.10814" lon="7.39371">
        <ele>2454</ele>
        <time>2018-04-21T07:56:11.000Z</time>
      </trkpt>
      <trkpt lat="44.10814" lon="7.39371">
        <ele>2453</ele>
        <time>2018-04-21T07:56:12.000Z</time>
      </trkpt>
      <trkpt lat="44.10814" lon="7.39371">
        <ele>2454</ele>
        <time>2018-04-21T07:56:19.000Z</time>
      </trkpt>
      <trkpt lat="44.10814" lon="7.39369">
        <ele>2454</ele>
        <time>2018-04-21T07:56:20.000Z</time>
      </trkpt>
      <trkpt lat="44.10815" lon="7.39368">
        <ele>2454</ele>
        <time>2018-04-21T07:56:23.000Z</time>
      </trkpt>
      <trkpt lat="44.10815" lon="7.39364">
        <ele>2455</ele>
        <time>2018-04-21T07:56:28.000Z</time>
      </trkpt>
      <trkpt lat="44.10816" lon="7.39362">
        <ele>2455</ele>
        <time>2018-04-21T07:56:33.000Z</time>
      </trkpt>
      <trkpt lat="44.10817" lon="7.3936">
        <ele>2456</ele>
        <time>2018-04-21T07:56:37.000Z</time>
      </trkpt>
      <trkpt lat="44.10817" lon="7.39359">
        <ele>2456</ele>
        <time>2018-04-21T07:56:38.000Z</time>
      </trkpt>
      <trkpt lat="44.10817" lon="7.39358">
        <ele>2456</ele>
        <time>2018-04-21T07:56:44.000Z</time>
      </trkpt>
      <trkpt lat="44.10818" lon="7.39356">
        <ele>2457</ele>
        <time>2018-04-21T07:56:45.000Z</time>
      </trkpt>
      <trkpt lat="44.10818" lon="7.39355">
        <ele>2457</ele>
        <time>2018-04-21T07:56:49.000Z</time>
      </trkpt>
      <trkpt lat="44.10819" lon="7.39354">
        <ele>2457</ele>
        <time>2018-04-21T07:56:53.000Z</time>
      </trkpt>
      <trkpt lat="44.10819" lon="7.39352">
        <ele>2458</ele>
        <time>2018-04-21T07:56:55.000Z</time>
      </trkpt>
      <trkpt lat="44.1082" lon="7.3935">
        <ele>2459</ele>
        <time>2018-04-21T07:57:01.000Z</time>
      </trkpt>
      <trkpt lat="44.1082" lon="7.39349">
        <ele>2459</ele>
        <time>2018-04-21T07:57:02.000Z</time>
      </trkpt>
      <trkpt lat="44.10821" lon="7.39346">
        <ele>2460</ele>
        <time>2018-04-21T07:57:08.000Z</time>
      </trkpt>
      <trkpt lat="44.10822" lon="7.39343">
        <ele>2461</ele>
        <time>2018-04-21T07:57:14.000Z</time>
      </trkpt>
      <trkpt lat="44.10823" lon="7.3934">
        <ele>2462</ele>
        <time>2018-04-21T07:57:20.000Z</time>
      </trkpt>
      <trkpt lat="44.10823" lon="7.39339">
        <ele>2463</ele>
        <time>2018-04-21T07:57:23.000Z</time>
      </trkpt>
      <trkpt lat="44.10823" lon="7.39337">
        <ele>2464</ele>
        <time>2018-04-21T07:57:26.000Z</time>
      </trkpt>
      <trkpt lat="44.10823" lon="7.39334">
        <ele>2464</ele>
        <time>2018-04-21T07:57:30.000Z</time>
      </trkpt>
      <trkpt lat="44.10823" lon="7.39334">
        <ele>2464</ele>
        <time>2018-04-21T07:57:32.000Z</time>
      </trkpt>
      <trkpt lat="44.10823" lon="7.39331">
        <ele>2471</ele>
        <time>2018-04-21T07:57:37.000Z</time>
      </trkpt>
      <trkpt lat="44.10823" lon="7.39332">
        <ele>2471</ele>
        <time>2018-04-21T07:57:38.000Z</time>
      </trkpt>
      <trkpt lat="44.10823" lon="7.39328">
        <ele>2470</ele>
        <time>2018-04-21T07:57:42.000Z</time>
      </trkpt>
      <trkpt lat="44.10823" lon="7.39329">
        <ele>2471</ele>
        <time>2018-04-21T07:57:43.000Z</time>
      </trkpt>
      <trkpt lat="44.10823" lon="7.39328">
        <ele>2471</ele>
        <time>2018-04-21T07:57:48.000Z</time>
      </trkpt>
      <trkpt lat="44.10822" lon="7.39326">
        <ele>2470</ele>
        <time>2018-04-21T07:57:53.000Z</time>
      </trkpt>
      <trkpt lat="44.10823" lon="7.39324">
        <ele>2470</ele>
        <time>2018-04-21T07:57:59.000Z</time>
      </trkpt>
      <trkpt lat="44.10823" lon="7.39324">
        <ele>2471</ele>
        <time>2018-04-21T07:58:00.000Z</time>
      </trkpt>
      <trkpt lat="44.10823" lon="7.39324">
        <ele>2471</ele>
        <time>2018-04-21T07:58:08.000Z</time>
      </trkpt>
      <trkpt lat="44.10824" lon="7.39324">
        <ele>2471</ele>
        <time>2018-04-21T07:58:14.000Z</time>
      </trkpt>
      <trkpt lat="44.10827" lon="7.39325">
        <ele>2471</ele>
        <time>2018-04-21T07:58:19.000Z</time>
      </trkpt>
      <trkpt lat="44.10831" lon="7.39328">
        <ele>2471</ele>
        <time>2018-04-21T07:58:26.000Z</time>
      </trkpt>
      <trkpt lat="44.10833" lon="7.39329">
        <ele>2472</ele>
        <time>2018-04-21T07:58:28.000Z</time>
      </trkpt>
      <trkpt lat="44.10834" lon="7.3933">
        <ele>2476</ele>
        <time>2018-04-21T07:58:32.000Z</time>
      </trkpt>
      <trkpt lat="44.10835" lon="7.39331">
        <ele>2475</ele>
        <time>2018-04-21T07:58:36.000Z</time>
      </trkpt>
      <trkpt lat="44.10833" lon="7.39331">
        <ele>2472</ele>
        <time>2018-04-21T07:58:37.000Z</time>
      </trkpt>
      <trkpt lat="44.10834" lon="7.39332">
        <ele>2474</ele>
        <time>2018-04-21T07:58:38.000Z</time>
      </trkpt>
      <trkpt lat="44.10836" lon="7.39335">
        <ele>2474</ele>
        <time>2018-04-21T07:58:44.000Z</time>
      </trkpt>
      <trkpt lat="44.10837" lon="7.39335">
        <ele>2475</ele>
        <time>2018-04-21T07:58:45.000Z</time>
      </trkpt>
      <trkpt lat="44.10837" lon="7.39335">
        <ele>2474</ele>
        <time>2018-04-21T07:58:46.000Z</time>
      </trkpt>
      <trkpt lat="44.1084" lon="7.3934">
        <ele>2477</ele>
        <time>2018-04-21T07:58:52.000Z</time>
      </trkpt>
      <trkpt lat="44.10842" lon="7.39343">
        <ele>2479</ele>
        <time>2018-04-21T07:58:58.000Z</time>
      </trkpt>
      <trkpt lat="44.10842" lon="7.39343">
        <ele>2478</ele>
        <time>2018-04-21T07:58:59.000Z</time>
      </trkpt>
      <trkpt lat="44.10842" lon="7.39342">
        <ele>2479</ele>
        <time>2018-04-21T07:59:04.000Z</time>
      </trkpt>
      <trkpt lat="44.10842" lon="7.39342">
        <ele>2478</ele>
        <time>2018-04-21T07:59:05.000Z</time>
      </trkpt>
      <trkpt lat="44.10843" lon="7.3934">
        <ele>2478</ele>
        <time>2018-04-21T07:59:11.000Z</time>
      </trkpt>
      <trkpt lat="44.10844" lon="7.39337">
        <ele>2478</ele>
        <time>2018-04-21T07:59:13.000Z</time>
      </trkpt>
      <trkpt lat="44.10844" lon="7.39337">
        <ele>2478</ele>
        <time>2018-04-21T07:59:16.000Z</time>
      </trkpt>
      <trkpt lat="44.10845" lon="7.39334">
        <ele>2478</ele>
        <time>2018-04-21T07:59:21.000Z</time>
      </trkpt>
      <trkpt lat="44.10846" lon="7.39333">
        <ele>2484</ele>
        <time>2018-04-21T07:59:23.000Z</time>
      </trkpt>
      <trkpt lat="44.10846" lon="7.3933">
        <ele>2485</ele>
        <time>2018-04-21T07:59:28.000Z</time>
      </trkpt>
      <trkpt lat="44.10847" lon="7.39328">
        <ele>2485</ele>
        <time>2018-04-21T07:59:30.000Z</time>
      </trkpt>
      <trkpt lat="44.10847" lon="7.39327">
        <ele>2486</ele>
        <time>2018-04-21T07:59:34.000Z</time>
      </trkpt>
      <trkpt lat="44.10848" lon="7.39322">
        <ele>2488</ele>
        <time>2018-04-21T07:59:40.000Z</time>
      </trkpt>
      <trkpt lat="44.10848" lon="7.39319">
        <ele>2489</ele>
        <time>2018-04-21T07:59:46.000Z</time>
      </trkpt>
      <trkpt lat="44.10848" lon="7.39318">
        <ele>2490</ele>
        <time>2018-04-21T07:59:50.000Z</time>
      </trkpt>
      <trkpt lat="44.10848" lon="7.39317">
        <ele>2490</ele>
        <time>2018-04-21T07:59:51.000Z</time>
      </trkpt>
      <trkpt lat="44.10848" lon="7.39316">
        <ele>2490</ele>
        <time>2018-04-21T07:59:56.000Z</time>
      </trkpt>
      <trkpt lat="44.10849" lon="7.39316">
        <ele>2491</ele>
        <time>2018-04-21T08:00:01.000Z</time>
      </trkpt>
      <trkpt lat="44.10849" lon="7.39316">
        <ele>2491</ele>
        <time>2018-04-21T08:00:02.000Z</time>
      </trkpt>
      <trkpt lat="44.10849" lon="7.39317">
        <ele>2491</ele>
        <time>2018-04-21T08:00:11.000Z</time>
      </trkpt>
      <trkpt lat="44.1085" lon="7.39317">
        <ele>2491</ele>
        <time>2018-04-21T08:00:12.000Z</time>
      </trkpt>
      <trkpt lat="44.10852" lon="7.39319">
        <ele>2491</ele>
        <time>2018-04-21T08:00:18.000Z</time>
      </trkpt>
      <trkpt lat="44.10856" lon="7.39322">
        <ele>2492</ele>
        <time>2018-04-21T08:00:23.000Z</time>
      </trkpt>
      <trkpt lat="44.10857" lon="7.39323">
        <ele>2492</ele>
        <time>2018-04-21T08:00:25.000Z</time>
      </trkpt>
      <trkpt lat="44.10857" lon="7.39324">
        <ele>2492</ele>
        <time>2018-04-21T08:00:29.000Z</time>
      </trkpt>
      <trkpt lat="44.10861" lon="7.39326">
        <ele>2493</ele>
        <time>2018-04-21T08:00:33.000Z</time>
      </trkpt>
      <trkpt lat="44.10862" lon="7.39327">
        <ele>2494</ele>
        <time>2018-04-21T08:00:35.000Z</time>
      </trkpt>
      <trkpt lat="44.10864" lon="7.39329">
        <ele>2494</ele>
        <time>2018-04-21T08:00:40.000Z</time>
      </trkpt>
      <trkpt lat="44.10864" lon="7.39329">
        <ele>2494</ele>
        <time>2018-04-21T08:00:41.000Z</time>
      </trkpt>
      <trkpt lat="44.10866" lon="7.39331">
        <ele>2495</ele>
        <time>2018-04-21T08:00:47.000Z</time>
      </trkpt>
      <trkpt lat="44.10868" lon="7.39332">
        <ele>2496</ele>
        <time>2018-04-21T08:00:49.000Z</time>
      </trkpt>
      <trkpt lat="44.1087" lon="7.39333">
        <ele>2496</ele>
        <time>2018-04-21T08:00:52.000Z</time>
      </trkpt>
      <trkpt lat="44.10872" lon="7.39334">
        <ele>2489</ele>
        <time>2018-04-21T08:00:57.000Z</time>
      </trkpt>
      <trkpt lat="44.10872" lon="7.39335">
        <ele>2489</ele>
        <time>2018-04-21T08:00:59.000Z</time>
      </trkpt>
      <trkpt lat="44.10872" lon="7.39335">
        <ele>2489</ele>
        <time>2018-04-21T08:01:04.000Z</time>
      </trkpt>
      <trkpt lat="44.10872" lon="7.39335">
        <ele>2489</ele>
        <time>2018-04-21T08:01:08.000Z</time>
      </trkpt>
      <trkpt lat="44.10871" lon="7.39335">
        <ele>2489</ele>
        <time>2018-04-21T08:01:16.000Z</time>
      </trkpt>
      <trkpt lat="44.10871" lon="7.39335">
        <ele>2488</ele>
        <time>2018-04-21T08:01:28.000Z</time>
      </trkpt>
      <trkpt lat="44.10874" lon="7.39337">
        <ele>2489</ele>
        <time>2018-04-21T08:01:33.000Z</time>
      </trkpt>
      <trkpt lat="44.10876" lon="7.39339">
        <ele>2490</ele>
        <time>2018-04-21T08:01:39.000Z</time>
      </trkpt>
      <trkpt lat="44.10879" lon="7.39341">
        <ele>2491</ele>
        <time>2018-04-21T08:01:42.000Z</time>
      </trkpt>
      <trkpt lat="44.1088" lon="7.39341">
        <ele>2491</ele>
        <time>2018-04-21T08:01:44.000Z</time>
      </trkpt>
      <trkpt lat="44.10882" lon="7.39343">
        <ele>2492</ele>
        <time>2018-04-21T08:01:48.000Z</time>
      </trkpt>
      <trkpt lat="44.10884" lon="7.39344">
        <ele>2493</ele>
        <time>2018-04-21T08:01:52.000Z</time>
      </trkpt>
      <trkpt lat="44.10885" lon="7.39344">
        <ele>2493</ele>
        <time>2018-04-21T08:01:54.000Z</time>
      </trkpt>
      <trkpt lat="44.10886" lon="7.39345">
        <ele>2493</ele>
        <time>2018-04-21T08:01:57.000Z</time>
      </trkpt>
      <trkpt lat="44.10889" lon="7.39347">
        <ele>2494</ele>
        <time>2018-04-21T08:02:00.000Z</time>
      </trkpt>
      <trkpt lat="44.1089" lon="7.39347">
        <ele>2494</ele>
        <time>2018-04-21T08:02:02.000Z</time>
      </trkpt>
      <trkpt lat="44.1089" lon="7.39348">
        <ele>2495</ele>
        <time>2018-04-21T08:02:03.000Z</time>
      </trkpt>
      <trkpt lat="44.10891" lon="7.39348">
        <ele>2495</ele>
        <time>2018-04-21T08:02:04.000Z</time>
      </trkpt>
      <trkpt lat="44.10892" lon="7.39349">
        <ele>2495</ele>
        <time>2018-04-21T08:02:07.000Z</time>
      </trkpt>
      <trkpt lat="44.10895" lon="7.39351">
        <ele>2496</ele>
        <time>2018-04-21T08:02:12.000Z</time>
      </trkpt>
      <trkpt lat="44.10898" lon="7.39354">
        <ele>2496</ele>
        <time>2018-04-21T08:02:20.000Z</time>
      </trkpt>
      <trkpt lat="44.10899" lon="7.39355">
        <ele>2496</ele>
        <time>2018-04-21T08:02:21.000Z</time>
      </trkpt>
      <trkpt lat="44.10901" lon="7.39358">
        <ele>2496</ele>
        <time>2018-04-21T08:02:27.000Z</time>
      </trkpt>
      <trkpt lat="44.10903" lon="7.39361">
        <ele>2496</ele>
        <time>2018-04-21T08:02:33.000Z</time>
      </trkpt>
      <trkpt lat="44.10903" lon="7.39362">
        <ele>2496</ele>
        <time>2018-04-21T08:02:37.000Z</time>
      </trkpt>
      <trkpt lat="44.10905" lon="7.39364">
        <ele>2496</ele>
        <time>2018-04-21T08:02:43.000Z</time>
      </trkpt>
      <trkpt lat="44.10908" lon="7.39367">
        <ele>2496</ele>
        <time>2018-04-21T08:02:49.000Z</time>
      </trkpt>
      <trkpt lat="44.10908" lon="7.39367">
        <ele>2496</ele>
        <time>2018-04-21T08:02:50.000Z</time>
      </trkpt>
      <trkpt lat="44.1091" lon="7.3937">
        <ele>2496</ele>
        <time>2018-04-21T08:02:54.000Z</time>
      </trkpt>
      <trkpt lat="44.1091" lon="7.3937">
        <ele>2496</ele>
        <time>2018-04-21T08:02:58.000Z</time>
      </trkpt>
      <trkpt lat="44.1091" lon="7.3937">
        <ele>2496</ele>
        <time>2018-04-21T08:02:59.000Z</time>
      </trkpt>
      <trkpt lat="44.1091" lon="7.3937">
        <ele>2496</ele>
        <time>2018-04-21T08:03:09.000Z</time>
      </trkpt>
      <trkpt lat="44.1091" lon="7.3937">
        <ele>2496</ele>
        <time>2018-04-21T08:03:19.000Z</time>
      </trkpt>
      <trkpt lat="44.10912" lon="7.39373">
        <ele>2496</ele>
        <time>2018-04-21T08:03:24.000Z</time>
      </trkpt>
      <trkpt lat="44.10912" lon="7.39373">
        <ele>2496</ele>
        <time>2018-04-21T08:03:25.000Z</time>
      </trkpt>
      <trkpt lat="44.10914" lon="7.39374">
        <ele>2496</ele>
        <time>2018-04-21T08:03:29.000Z</time>
      </trkpt>
      <trkpt lat="44.10917" lon="7.39376">
        <ele>2497</ele>
        <time>2018-04-21T08:03:33.000Z</time>
      </trkpt>
      <trkpt lat="44.10917" lon="7.39377">
        <ele>2521</ele>
        <time>2018-04-21T08:03:34.000Z</time>
      </trkpt>
      <trkpt lat="44.1092" lon="7.39378">
        <ele>2521</ele>
        <time>2018-04-21T08:03:40.000Z</time>
      </trkpt>
      <trkpt lat="44.10921" lon="7.39379">
        <ele>2521</ele>
        <time>2018-04-21T08:03:42.000Z</time>
      </trkpt>
      <trkpt lat="44.10924" lon="7.39381">
        <ele>2521</ele>
        <time>2018-04-21T08:03:48.000Z</time>
      </trkpt>
      <trkpt lat="44.10925" lon="7.39382">
        <ele>2521</ele>
        <time>2018-04-21T08:03:49.000Z</time>
      </trkpt>
      <trkpt lat="44.10926" lon="7.39382">
        <ele>2521</ele>
        <time>2018-04-21T08:03:52.000Z</time>
      </trkpt>
      <trkpt lat="44.10929" lon="7.39385">
        <ele>2521</ele>
        <time>2018-04-21T08:03:57.000Z</time>
      </trkpt>
      <trkpt lat="44.10931" lon="7.39387">
        <ele>2521</ele>
        <time>2018-04-21T08:04:03.000Z</time>
      </trkpt>
      <trkpt lat="44.10932" lon="7.39389">
        <ele>2521</ele>
        <time>2018-04-21T08:04:07.000Z</time>
      </trkpt>
      <trkpt lat="44.10933" lon="7.39389">
        <ele>2521</ele>
        <time>2018-04-21T08:04:08.000Z</time>
      </trkpt>
      <trkpt lat="44.10934" lon="7.39391">
        <ele>2521</ele>
        <time>2018-04-21T08:04:12.000Z</time>
      </trkpt>
      <trkpt lat="44.10935" lon="7.39393">
        <ele>2521</ele>
        <time>2018-04-21T08:04:16.000Z</time>
      </trkpt>
      <trkpt lat="44.10935" lon="7.39393">
        <ele>2521</ele>
        <time>2018-04-21T08:04:18.000Z</time>
      </trkpt>
      <trkpt lat="44.10937" lon="7.39397">
        <ele>2521</ele>
        <time>2018-04-21T08:04:24.000Z</time>
      </trkpt>
      <trkpt lat="44.10938" lon="7.39397">
        <ele>2521</ele>
        <time>2018-04-21T08:04:25.000Z</time>
      </trkpt>
      <trkpt lat="44.10939" lon="7.394">
        <ele>2522</ele>
        <time>2018-04-21T08:04:29.000Z</time>
      </trkpt>
      <trkpt lat="44.1094" lon="7.39401">
        <ele>2522</ele>
        <time>2018-04-21T08:04:32.000Z</time>
      </trkpt>
      <trkpt lat="44.10941" lon="7.39402">
        <ele>2522</ele>
        <time>2018-04-21T08:04:34.000Z</time>
      </trkpt>
      <trkpt lat="44.10942" lon="7.39404">
        <ele>2522</ele>
        <time>2018-04-21T08:04:39.000Z</time>
      </trkpt>
      <trkpt lat="44.10943" lon="7.39405">
        <ele>2522</ele>
        <time>2018-04-21T08:04:40.000Z</time>
      </trkpt>
      <trkpt lat="44.10944" lon="7.39407">
        <ele>2522</ele>
        <time>2018-04-21T08:04:44.000Z</time>
      </trkpt>
      <trkpt lat="44.10945" lon="7.39409">
        <ele>2523</ele>
        <time>2018-04-21T08:04:50.000Z</time>
      </trkpt>
      <trkpt lat="44.10945" lon="7.39408">
        <ele>2523</ele>
        <time>2018-04-21T08:04:56.000Z</time>
      </trkpt>
      <trkpt lat="44.10946" lon="7.39405">
        <ele>2523</ele>
        <time>2018-04-21T08:05:02.000Z</time>
      </trkpt>
      <trkpt lat="44.10947" lon="7.39403">
        <ele>2524</ele>
        <time>2018-04-21T08:05:07.000Z</time>
      </trkpt>
      <trkpt lat="44.10948" lon="7.39402">
        <ele>2524</ele>
        <time>2018-04-21T08:05:09.000Z</time>
      </trkpt>
      <trkpt lat="44.10948" lon="7.39401">
        <ele>2524</ele>
        <time>2018-04-21T08:05:12.000Z</time>
      </trkpt>
      <trkpt lat="44.10948" lon="7.39399">
        <ele>2524</ele>
        <time>2018-04-21T08:05:16.000Z</time>
      </trkpt>
      <trkpt lat="44.10948" lon="7.39398">
        <ele>2524</ele>
        <time>2018-04-21T08:05:18.000Z</time>
      </trkpt>
      <trkpt lat="44.10949" lon="7.39396">
        <ele>2525</ele>
        <time>2018-04-21T08:05:23.000Z</time>
      </trkpt>
      <trkpt lat="44.1095" lon="7.39393">
        <ele>2525</ele>
        <time>2018-04-21T08:05:27.000Z</time>
      </trkpt>
      <trkpt lat="44.1095" lon="7.39392">
        <ele>2525</ele>
        <time>2018-04-21T08:05:29.000Z</time>
      </trkpt>
      <trkpt lat="44.10951" lon="7.39389">
        <ele>2525</ele>
        <time>2018-04-21T08:05:33.000Z</time>
      </trkpt>
      <trkpt lat="44.10952" lon="7.39389">
        <ele>2526</ele>
        <time>2018-04-21T08:05:35.000Z</time>
      </trkpt>
      <trkpt lat="44.10953" lon="7.39387">
        <ele>2526</ele>
        <time>2018-04-21T08:05:41.000Z</time>
      </trkpt>
      <trkpt lat="44.10954" lon="7.39383">
        <ele>2526</ele>
        <time>2018-04-21T08:05:47.000Z</time>
      </trkpt>
      <trkpt lat="44.10955" lon="7.39382">
        <ele>2526</ele>
        <time>2018-04-21T08:05:51.000Z</time>
      </trkpt>
      <trkpt lat="44.10955" lon="7.39382">
        <ele>2527</ele>
        <time>2018-04-21T08:05:53.000Z</time>
      </trkpt>
      <trkpt lat="44.10956" lon="7.39383">
        <ele>2527</ele>
        <time>2018-04-21T08:06:00.000Z</time>
      </trkpt>
      <trkpt lat="44.10956" lon="7.39383">
        <ele>2527</ele>
        <time>2018-04-21T08:06:01.000Z</time>
      </trkpt>
      <trkpt lat="44.10957" lon="7.39385">
        <ele>2527</ele>
        <time>2018-04-21T08:06:07.000Z</time>
      </trkpt>
      <trkpt lat="44.10957" lon="7.39385">
        <ele>2527</ele>
        <time>2018-04-21T08:06:08.000Z</time>
      </trkpt>
      <trkpt lat="44.10958" lon="7.39386">
        <ele>2527</ele>
        <time>2018-04-21T08:06:09.000Z</time>
      </trkpt>
      <trkpt lat="44.1096" lon="7.39389">
        <ele>2527</ele>
        <time>2018-04-21T08:06:13.000Z</time>
      </trkpt>
      <trkpt lat="44.1096" lon="7.39389">
        <ele>2528</ele>
        <time>2018-04-21T08:06:14.000Z</time>
      </trkpt>
      <trkpt lat="44.10962" lon="7.39392">
        <ele>2528</ele>
        <time>2018-04-21T08:06:20.000Z</time>
      </trkpt>
      <trkpt lat="44.10963" lon="7.39394">
        <ele>2528</ele>
        <time>2018-04-21T08:06:22.000Z</time>
      </trkpt>
      <trkpt lat="44.10964" lon="7.39394">
        <ele>2528</ele>
        <time>2018-04-21T08:06:25.000Z</time>
      </trkpt>
      <trkpt lat="44.10964" lon="7.39397">
        <ele>2529</ele>
        <time>2018-04-21T08:06:29.000Z</time>
      </trkpt>
      <trkpt lat="44.10964" lon="7.39398">
        <ele>2529</ele>
        <time>2018-04-21T08:06:30.000Z</time>
      </trkpt>
      <trkpt lat="44.10965" lon="7.39399">
        <ele>2529</ele>
        <time>2018-04-21T08:06:31.000Z</time>
      </trkpt>
      <trkpt lat="44.10966" lon="7.39401">
        <ele>2529</ele>
        <time>2018-04-21T08:06:35.000Z</time>
      </trkpt>
      <trkpt lat="44.10966" lon="7.39402">
        <ele>2529</ele>
        <time>2018-04-21T08:06:38.000Z</time>
      </trkpt>
      <trkpt lat="44.10966" lon="7.39403">
        <ele>2529</ele>
        <time>2018-04-21T08:06:41.000Z</time>
      </trkpt>
      <trkpt lat="44.10968" lon="7.39406">
        <ele>2530</ele>
        <time>2018-04-21T08:06:46.000Z</time>
      </trkpt>
      <trkpt lat="44.10968" lon="7.39407">
        <ele>2530</ele>
        <time>2018-04-21T08:06:48.000Z</time>
      </trkpt>
      <trkpt lat="44.10969" lon="7.3941">
        <ele>2530</ele>
        <time>2018-04-21T08:06:52.000Z</time>
      </trkpt>
      <trkpt lat="44.1097" lon="7.39411">
        <ele>2530</ele>
        <time>2018-04-21T08:06:55.000Z</time>
      </trkpt>
      <trkpt lat="44.1097" lon="7.39411">
        <ele>2530</ele>
        <time>2018-04-21T08:06:59.000Z</time>
      </trkpt>
      <trkpt lat="44.1097" lon="7.39411">
        <ele>2530</ele>
        <time>2018-04-21T08:07:01.000Z</time>
      </trkpt>
      <trkpt lat="44.1097" lon="7.3941">
        <ele>2530</ele>
        <time>2018-04-21T08:07:03.000Z</time>
      </trkpt>
      <trkpt lat="44.10971" lon="7.39409">
        <ele>2531</ele>
        <time>2018-04-21T08:07:08.000Z</time>
      </trkpt>
      <trkpt lat="44.10971" lon="7.39408">
        <ele>2531</ele>
        <time>2018-04-21T08:07:11.000Z</time>
      </trkpt>
      <trkpt lat="44.10972" lon="7.39406">
        <ele>2531</ele>
        <time>2018-04-21T08:07:15.000Z</time>
      </trkpt>
      <trkpt lat="44.10973" lon="7.39403">
        <ele>2531</ele>
        <time>2018-04-21T08:07:20.000Z</time>
      </trkpt>
      <trkpt lat="44.10973" lon="7.39402">
        <ele>2531</ele>
        <time>2018-04-21T08:07:21.000Z</time>
      </trkpt>
      <trkpt lat="44.10974" lon="7.394">
        <ele>2531</ele>
        <time>2018-04-21T08:07:25.000Z</time>
      </trkpt>
      <trkpt lat="44.10974" lon="7.39396">
        <ele>2531</ele>
        <time>2018-04-21T08:07:30.000Z</time>
      </trkpt>
      <trkpt lat="44.10974" lon="7.39397">
        <ele>2531</ele>
        <time>2018-04-21T08:07:31.000Z</time>
      </trkpt>
      <trkpt lat="44.10975" lon="7.39392">
        <ele>2531</ele>
        <time>2018-04-21T08:07:38.000Z</time>
      </trkpt>
      <trkpt lat="44.10976" lon="7.39393">
        <ele>2531</ele>
        <time>2018-04-21T08:07:44.000Z</time>
      </trkpt>
      <trkpt lat="44.10976" lon="7.39393">
        <ele>2531</ele>
        <time>2018-04-21T08:07:50.000Z</time>
      </trkpt>
      <trkpt lat="44.10977" lon="7.39396">
        <ele>2532</ele>
        <time>2018-04-21T08:07:57.000Z</time>
      </trkpt>
      <trkpt lat="44.10978" lon="7.39397">
        <ele>2532</ele>
        <time>2018-04-21T08:08:01.000Z</time>
      </trkpt>
      <trkpt lat="44.10977" lon="7.39398">
        <ele>2532</ele>
        <time>2018-04-21T08:08:03.000Z</time>
      </trkpt>
      <trkpt lat="44.10977" lon="7.39399">
        <ele>2532</ele>
        <time>2018-04-21T08:08:04.000Z</time>
      </trkpt>
      <trkpt lat="44.1098" lon="7.39402">
        <ele>2533</ele>
        <time>2018-04-21T08:08:10.000Z</time>
      </trkpt>
      <trkpt lat="44.10981" lon="7.39402">
        <ele>2533</ele>
        <time>2018-04-21T08:08:11.000Z</time>
      </trkpt>
      <trkpt lat="44.10983" lon="7.39405">
        <ele>2534</ele>
        <time>2018-04-21T08:08:16.000Z</time>
      </trkpt>
      <trkpt lat="44.10984" lon="7.39405">
        <ele>2534</ele>
        <time>2018-04-21T08:08:18.000Z</time>
      </trkpt>
      <trkpt lat="44.10985" lon="7.39407">
        <ele>2535</ele>
        <time>2018-04-21T08:08:21.000Z</time>
      </trkpt>
      <trkpt lat="44.10987" lon="7.39408">
        <ele>2536</ele>
        <time>2018-04-21T08:08:24.000Z</time>
      </trkpt>
      <trkpt lat="44.10988" lon="7.39409">
        <ele>2536</ele>
        <time>2018-04-21T08:08:28.000Z</time>
      </trkpt>
      <trkpt lat="44.10989" lon="7.3941">
        <ele>2537</ele>
        <time>2018-04-21T08:08:29.000Z</time>
      </trkpt>
      <trkpt lat="44.1099" lon="7.3941">
        <ele>2537</ele>
        <time>2018-04-21T08:08:33.000Z</time>
      </trkpt>
      <trkpt lat="44.10992" lon="7.39409">
        <ele>2537</ele>
        <time>2018-04-21T08:08:36.000Z</time>
      </trkpt>
      <trkpt lat="44.10993" lon="7.39409">
        <ele>2538</ele>
        <time>2018-04-21T08:08:38.000Z</time>
      </trkpt>
      <trkpt lat="44.10994" lon="7.3941">
        <ele>2538</ele>
        <time>2018-04-21T08:08:42.000Z</time>
      </trkpt>
      <trkpt lat="44.10996" lon="7.39411">
        <ele>2539</ele>
        <time>2018-04-21T08:08:48.000Z</time>
      </trkpt>
      <trkpt lat="44.10997" lon="7.39411">
        <ele>2539</ele>
        <time>2018-04-21T08:08:49.000Z</time>
      </trkpt>
      <trkpt lat="44.10997" lon="7.39411">
        <ele>2539</ele>
        <time>2018-04-21T08:08:53.000Z</time>
      </trkpt>
      <trkpt lat="44.10998" lon="7.3941">
        <ele>2540</ele>
        <time>2018-04-21T08:08:54.000Z</time>
      </trkpt>
      <trkpt lat="44.10999" lon="7.3941">
        <ele>2539</ele>
        <time>2018-04-21T08:08:58.000Z</time>
      </trkpt>
      <trkpt lat="44.11" lon="7.3941">
        <ele>2544</ele>
        <time>2018-04-21T08:09:01.000Z</time>
      </trkpt>
      <trkpt lat="44.11001" lon="7.3941">
        <ele>2544</ele>
        <time>2018-04-21T08:09:03.000Z</time>
      </trkpt>
      <trkpt lat="44.11003" lon="7.39409">
        <ele>2545</ele>
        <time>2018-04-21T08:09:08.000Z</time>
      </trkpt>
      <trkpt lat="44.11005" lon="7.39408">
        <ele>2545</ele>
        <time>2018-04-21T08:09:16.000Z</time>
      </trkpt>
      <trkpt lat="44.11006" lon="7.39408">
        <ele>2545</ele>
        <time>2018-04-21T08:09:17.000Z</time>
      </trkpt>
      <trkpt lat="44.11008" lon="7.39408">
        <ele>2545</ele>
        <time>2018-04-21T08:09:22.000Z</time>
      </trkpt>
      <trkpt lat="44.11007" lon="7.39408">
        <ele>2545</ele>
        <time>2018-04-21T08:09:23.000Z</time>
      </trkpt>
      <trkpt lat="44.11009" lon="7.39408">
        <ele>2545</ele>
        <time>2018-04-21T08:09:27.000Z</time>
      </trkpt>
      <trkpt lat="44.11011" lon="7.39408">
        <ele>2545</ele>
        <time>2018-04-21T08:09:30.000Z</time>
      </trkpt>
      <trkpt lat="44.11012" lon="7.39407">
        <ele>2546</ele>
        <time>2018-04-21T08:09:33.000Z</time>
      </trkpt>
      <trkpt lat="44.11014" lon="7.39407">
        <ele>2546</ele>
        <time>2018-04-21T08:09:37.000Z</time>
      </trkpt>
      <trkpt lat="44.11014" lon="7.39407">
        <ele>2546</ele>
        <time>2018-04-21T08:09:38.000Z</time>
      </trkpt>
      <trkpt lat="44.11018" lon="7.39406">
        <ele>2546</ele>
        <time>2018-04-21T08:09:44.000Z</time>
      </trkpt>
      <trkpt lat="44.11017" lon="7.39407">
        <ele>2546</ele>
        <time>2018-04-21T08:09:45.000Z</time>
      </trkpt>
      <trkpt lat="44.11019" lon="7.39407">
        <ele>2546</ele>
        <time>2018-04-21T08:09:46.000Z</time>
      </trkpt>
      <trkpt lat="44.1102" lon="7.39407">
        <ele>2547</ele>
        <time>2018-04-21T08:09:48.000Z</time>
      </trkpt>
      <trkpt lat="44.11021" lon="7.39406">
        <ele>2547</ele>
        <time>2018-04-21T08:09:50.000Z</time>
      </trkpt>
      <trkpt lat="44.11022" lon="7.39407">
        <ele>2547</ele>
        <time>2018-04-21T08:09:52.000Z</time>
      </trkpt>
      <trkpt lat="44.11024" lon="7.39408">
        <ele>2547</ele>
        <time>2018-04-21T08:09:58.000Z</time>
      </trkpt>
      <trkpt lat="44.11026" lon="7.39408">
        <ele>2547</ele>
        <time>2018-04-21T08:10:01.000Z</time>
      </trkpt>
      <trkpt lat="44.11026" lon="7.39408">
        <ele>2547</ele>
        <time>2018-04-21T08:10:03.000Z</time>
      </trkpt>
      <trkpt lat="44.11029" lon="7.39409">
        <ele>2548</ele>
        <time>2018-04-21T08:10:07.000Z</time>
      </trkpt>
      <trkpt lat="44.11028" lon="7.39409">
        <ele>2548</ele>
        <time>2018-04-21T08:10:08.000Z</time>
      </trkpt>
      <trkpt lat="44.11032" lon="7.39408">
        <ele>2548</ele>
        <time>2018-04-21T08:10:14.000Z</time>
      </trkpt>
      <trkpt lat="44.11034" lon="7.39408">
        <ele>2548</ele>
        <time>2018-04-21T08:10:19.000Z</time>
      </trkpt>
      <trkpt lat="44.11035" lon="7.39408">
        <ele>2548</ele>
        <time>2018-04-21T08:10:25.000Z</time>
      </trkpt>
      <trkpt lat="44.11036" lon="7.39408">
        <ele>2548</ele>
        <time>2018-04-21T08:10:26.000Z</time>
      </trkpt>
      <trkpt lat="44.11038" lon="7.39408">
        <ele>2549</ele>
        <time>2018-04-21T08:10:31.000Z</time>
      </trkpt>
      <trkpt lat="44.11039" lon="7.39408">
        <ele>2549</ele>
        <time>2018-04-21T08:10:35.000Z</time>
      </trkpt>
      <trkpt lat="44.11041" lon="7.39408">
        <ele>2549</ele>
        <time>2018-04-21T08:10:37.000Z</time>
      </trkpt>
      <trkpt lat="44.11042" lon="7.39408">
        <ele>2549</ele>
        <time>2018-04-21T08:10:42.000Z</time>
      </trkpt>
      <trkpt lat="44.11044" lon="7.39408">
        <ele>2550</ele>
        <time>2018-04-21T08:10:44.000Z</time>
      </trkpt>
      <trkpt lat="44.11047" lon="7.39408">
        <ele>2550</ele>
        <time>2018-04-21T08:10:48.000Z</time>
      </trkpt>
      <trkpt lat="44.1105" lon="7.39409">
        <ele>2550</ele>
        <time>2018-04-21T08:10:53.000Z</time>
      </trkpt>
      <trkpt lat="44.11054" lon="7.3941">
        <ele>2551</ele>
        <time>2018-04-21T08:10:59.000Z</time>
      </trkpt>
      <trkpt lat="44.11054" lon="7.3941">
        <ele>2551</ele>
        <time>2018-04-21T08:11:01.000Z</time>
      </trkpt>
      <trkpt lat="44.11056" lon="7.39411">
        <ele>2551</ele>
        <time>2018-04-21T08:11:06.000Z</time>
      </trkpt>
      <trkpt lat="44.11057" lon="7.39412">
        <ele>2551</ele>
        <time>2018-04-21T08:11:07.000Z</time>
      </trkpt>
      <trkpt lat="44.11059" lon="7.39413">
        <ele>2552</ele>
        <time>2018-04-21T08:11:12.000Z</time>
      </trkpt>
      <trkpt lat="44.1106" lon="7.39413">
        <ele>2552</ele>
        <time>2018-04-21T08:11:15.000Z</time>
      </trkpt>
      <trkpt lat="44.1106" lon="7.39414">
        <ele>2552</ele>
        <time>2018-04-21T08:11:18.000Z</time>
      </trkpt>
      <trkpt lat="44.11062" lon="7.39415">
        <ele>2552</ele>
        <time>2018-04-21T08:11:22.000Z</time>
      </trkpt>
      <trkpt lat="44.11063" lon="7.39415">
        <ele>2552</ele>
        <time>2018-04-21T08:11:23.000Z</time>
      </trkpt>
      <trkpt lat="44.11065" lon="7.39418">
        <ele>2552</ele>
        <time>2018-04-21T08:11:29.000Z</time>
      </trkpt>
      <trkpt lat="44.11065" lon="7.39418">
        <ele>2552</ele>
        <time>2018-04-21T08:11:30.000Z</time>
      </trkpt>
      <trkpt lat="44.11068" lon="7.39419">
        <ele>2553</ele>
        <time>2018-04-21T08:11:38.000Z</time>
      </trkpt>
      <trkpt lat="44.11072" lon="7.39417">
        <ele>2554</ele>
        <time>2018-04-21T08:11:44.000Z</time>
      </trkpt>
      <trkpt lat="44.11073" lon="7.39417">
        <ele>2554</ele>
        <time>2018-04-21T08:11:45.000Z</time>
      </trkpt>
      <trkpt lat="44.11076" lon="7.39416">
        <ele>2554</ele>
        <time>2018-04-21T08:11:48.000Z</time>
      </trkpt>
      <trkpt lat="44.11076" lon="7.39415">
        <ele>2554</ele>
        <time>2018-04-21T08:11:50.000Z</time>
      </trkpt>
      <trkpt lat="44.11076" lon="7.39415">
        <ele>2554</ele>
        <time>2018-04-21T08:11:58.000Z</time>
      </trkpt>
      <trkpt lat="44.1108" lon="7.39412">
        <ele>2555</ele>
        <time>2018-04-21T08:12:04.000Z</time>
      </trkpt>
      <trkpt lat="44.11083" lon="7.39411">
        <ele>2555</ele>
        <time>2018-04-21T08:12:07.000Z</time>
      </trkpt>
      <trkpt lat="44.11085" lon="7.39409">
        <ele>2556</ele>
        <time>2018-04-21T08:12:10.000Z</time>
      </trkpt>
      <trkpt lat="44.1109" lon="7.39406">
        <ele>2556</ele>
        <time>2018-04-21T08:12:16.000Z</time>
      </trkpt>
      <trkpt lat="44.11095" lon="7.39405">
        <ele>2556</ele>
        <time>2018-04-21T08:12:21.000Z</time>
      </trkpt>
      <trkpt lat="44.111" lon="7.39403">
        <ele>2556</ele>
        <time>2018-04-21T08:12:27.000Z</time>
      </trkpt>
      <trkpt lat="44.111" lon="7.39403">
        <ele>2556</ele>
        <time>2018-04-21T08:12:28.000Z</time>
      </trkpt>
      <trkpt lat="44.11101" lon="7.39401">
        <ele>2556</ele>
        <time>2018-04-21T08:12:30.000Z</time>
      </trkpt>
      <trkpt lat="44.11103" lon="7.394">
        <ele>2556</ele>
        <time>2018-04-21T08:12:32.000Z</time>
      </trkpt>
      <trkpt lat="44.11109" lon="7.39398">
        <ele>2555</ele>
        <time>2018-04-21T08:12:39.000Z</time>
      </trkpt>
      <trkpt lat="44.11116" lon="7.39395">
        <ele>2555</ele>
        <time>2018-04-21T08:12:46.000Z</time>
      </trkpt>
      <trkpt lat="44.11119" lon="7.39394">
        <ele>2555</ele>
        <time>2018-04-21T08:12:50.000Z</time>
      </trkpt>
      <trkpt lat="44.11121" lon="7.39393">
        <ele>2555</ele>
        <time>2018-04-21T08:12:52.000Z</time>
      </trkpt>
      <trkpt lat="44.11126" lon="7.3939">
        <ele>2555</ele>
        <time>2018-04-21T08:12:58.000Z</time>
      </trkpt>
      <trkpt lat="44.11131" lon="7.39388">
        <ele>2555</ele>
        <time>2018-04-21T08:13:04.000Z</time>
      </trkpt>
      <trkpt lat="44.11136" lon="7.39384">
        <ele>2555</ele>
        <time>2018-04-21T08:13:11.000Z</time>
      </trkpt>
      <trkpt lat="44.1114" lon="7.39381">
        <ele>2555</ele>
        <time>2018-04-21T08:13:16.000Z</time>
      </trkpt>
      <trkpt lat="44.11141" lon="7.39381">
        <ele>2555</ele>
        <time>2018-04-21T08:13:17.000Z</time>
      </trkpt>
      <trkpt lat="44.11144" lon="7.39379">
        <ele>2555</ele>
        <time>2018-04-21T08:13:21.000Z</time>
      </trkpt>
      <trkpt lat="44.11149" lon="7.39377">
        <ele>2556</ele>
        <time>2018-04-21T08:13:26.000Z</time>
      </trkpt>
      <trkpt lat="44.11153" lon="7.39374">
        <ele>2556</ele>
        <time>2018-04-21T08:13:31.000Z</time>
      </trkpt>
      <trkpt lat="44.11157" lon="7.39373">
        <ele>2556</ele>
        <time>2018-04-21T08:13:35.000Z</time>
      </trkpt>
      <trkpt lat="44.11159" lon="7.39372">
        <ele>2556</ele>
        <time>2018-04-21T08:13:37.000Z</time>
      </trkpt>
      <trkpt lat="44.11162" lon="7.39371">
        <ele>2556</ele>
        <time>2018-04-21T08:13:41.000Z</time>
      </trkpt>
      <trkpt lat="44.11163" lon="7.3937">
        <ele>2556</ele>
        <time>2018-04-21T08:13:42.000Z</time>
      </trkpt>
      <trkpt lat="44.11163" lon="7.39369">
        <ele>2556</ele>
        <time>2018-04-21T08:13:44.000Z</time>
      </trkpt>
      <trkpt lat="44.11164" lon="7.39369">
        <ele>2556</ele>
        <time>2018-04-21T08:13:45.000Z</time>
      </trkpt>
      <trkpt lat="44.1117" lon="7.39365">
        <ele>2553</ele>
        <time>2018-04-21T08:13:52.000Z</time>
      </trkpt>
      <trkpt lat="44.11175" lon="7.39362">
        <ele>2553</ele>
        <time>2018-04-21T08:13:58.000Z</time>
      </trkpt>
      <trkpt lat="44.11179" lon="7.39357">
        <ele>2554</ele>
        <time>2018-04-21T08:14:05.000Z</time>
      </trkpt>
      <trkpt lat="44.11183" lon="7.39352">
        <ele>2554</ele>
        <time>2018-04-21T08:14:12.000Z</time>
      </trkpt>
      <trkpt lat="44.11186" lon="7.39346">
        <ele>2554</ele>
        <time>2018-04-21T08:14:18.000Z</time>
      </trkpt>
      <trkpt lat="44.11187" lon="7.39343">
        <ele>2554</ele>
        <time>2018-04-21T08:14:21.000Z</time>
      </trkpt>
      <trkpt lat="44.11189" lon="7.39338">
        <ele>2554</ele>
        <time>2018-04-21T08:14:26.000Z</time>
      </trkpt>
      <trkpt lat="44.1119" lon="7.39334">
        <ele>2554</ele>
        <time>2018-04-21T08:14:32.000Z</time>
      </trkpt>
      <trkpt lat="44.1119" lon="7.39334">
        <ele>2554</ele>
        <time>2018-04-21T08:14:40.000Z</time>
      </trkpt>
      <trkpt lat="44.11191" lon="7.39333">
        <ele>2555</ele>
        <time>2018-04-21T08:14:43.000Z</time>
      </trkpt>
      <trkpt lat="44.11191" lon="7.39331">
        <ele>2555</ele>
        <time>2018-04-21T08:14:46.000Z</time>
      </trkpt>
      <trkpt lat="44.11191" lon="7.39328">
        <ele>2555</ele>
        <time>2018-04-21T08:14:50.000Z</time>
      </trkpt>
      <trkpt lat="44.11191" lon="7.39325">
        <ele>2555</ele>
        <time>2018-04-21T08:14:53.000Z</time>
      </trkpt>
      <trkpt lat="44.11192" lon="7.39322">
        <ele>2555</ele>
        <time>2018-04-21T08:14:56.000Z</time>
      </trkpt>
      <trkpt lat="44.11192" lon="7.39321">
        <ele>2555</ele>
        <time>2018-04-21T08:14:57.000Z</time>
      </trkpt>
      <trkpt lat="44.11194" lon="7.39311">
        <ele>2554</ele>
        <time>2018-04-21T08:15:05.000Z</time>
      </trkpt>
      <trkpt lat="44.11196" lon="7.39307">
        <ele>2554</ele>
        <time>2018-04-21T08:15:09.000Z</time>
      </trkpt>
      <trkpt lat="44.11197" lon="7.39305">
        <ele>2554</ele>
        <time>2018-04-21T08:15:11.000Z</time>
      </trkpt>
      <trkpt lat="44.112" lon="7.39299">
        <ele>2554</ele>
        <time>2018-04-21T08:15:17.000Z</time>
      </trkpt>
      <trkpt lat="44.11204" lon="7.39293">
        <ele>2554</ele>
        <time>2018-04-21T08:15:23.000Z</time>
      </trkpt>
      <trkpt lat="44.11209" lon="7.39287">
        <ele>2553</ele>
        <time>2018-04-21T08:15:30.000Z</time>
      </trkpt>
      <trkpt lat="44.11212" lon="7.39282">
        <ele>2553</ele>
        <time>2018-04-21T08:15:35.000Z</time>
      </trkpt>
      <trkpt lat="44.11214" lon="7.39281">
        <ele>2553</ele>
        <time>2018-04-21T08:15:37.000Z</time>
      </trkpt>
      <trkpt lat="44.11219" lon="7.39279">
        <ele>2553</ele>
        <time>2018-04-21T08:15:41.000Z</time>
      </trkpt>
      <trkpt lat="44.1122" lon="7.39277">
        <ele>2553</ele>
        <time>2018-04-21T08:15:43.000Z</time>
      </trkpt>
      <trkpt lat="44.11223" lon="7.39272">
        <ele>2554</ele>
        <time>2018-04-21T08:15:48.000Z</time>
      </trkpt>
      <trkpt lat="44.11228" lon="7.39265">
        <ele>2554</ele>
        <time>2018-04-21T08:15:55.000Z</time>
      </trkpt>
      <trkpt lat="44.11231" lon="7.39262">
        <ele>2554</ele>
        <time>2018-04-21T08:15:59.000Z</time>
      </trkpt>
      <trkpt lat="44.11232" lon="7.39261">
        <ele>2554</ele>
        <time>2018-04-21T08:16:01.000Z</time>
      </trkpt>
      <trkpt lat="44.11237" lon="7.39257">
        <ele>2555</ele>
        <time>2018-04-21T08:16:08.000Z</time>
      </trkpt>
      <trkpt lat="44.11244" lon="7.39253">
        <ele>2555</ele>
        <time>2018-04-21T08:16:15.000Z</time>
      </trkpt>
      <trkpt lat="44.11249" lon="7.39251">
        <ele>2556</ele>
        <time>2018-04-21T08:16:20.000Z</time>
      </trkpt>
      <trkpt lat="44.11254" lon="7.39248">
        <ele>2556</ele>
        <time>2018-04-21T08:16:25.000Z</time>
      </trkpt>
      <trkpt lat="44.11256" lon="7.39247">
        <ele>2555</ele>
        <time>2018-04-21T08:16:28.000Z</time>
      </trkpt>
      <trkpt lat="44.11259" lon="7.39246">
        <ele>2555</ele>
        <time>2018-04-21T08:16:31.000Z</time>
      </trkpt>
      <trkpt lat="44.11263" lon="7.39244">
        <ele>2555</ele>
        <time>2018-04-21T08:16:36.000Z</time>
      </trkpt>
      <trkpt lat="44.11268" lon="7.39242">
        <ele>2554</ele>
        <time>2018-04-21T08:16:43.000Z</time>
      </trkpt>
      <trkpt lat="44.1127" lon="7.39241">
        <ele>2554</ele>
        <time>2018-04-21T08:16:45.000Z</time>
      </trkpt>
      <trkpt lat="44.11272" lon="7.3924">
        <ele>2554</ele>
        <time>2018-04-21T08:16:48.000Z</time>
      </trkpt>
      <trkpt lat="44.11276" lon="7.39238">
        <ele>2554</ele>
        <time>2018-04-21T08:16:53.000Z</time>
      </trkpt>
      <trkpt lat="44.11279" lon="7.39236">
        <ele>2553</ele>
        <time>2018-04-21T08:16:57.000Z</time>
      </trkpt>
      <trkpt lat="44.1128" lon="7.39235">
        <ele>2553</ele>
        <time>2018-04-21T08:16:59.000Z</time>
      </trkpt>
      <trkpt lat="44.11282" lon="7.39234">
        <ele>2553</ele>
        <time>2018-04-21T08:17:02.000Z</time>
      </trkpt>
      <trkpt lat="44.11285" lon="7.39232">
        <ele>2553</ele>
        <time>2018-04-21T08:17:06.000Z</time>
      </trkpt>
      <trkpt lat="44.11287" lon="7.39232">
        <ele>2553</ele>
        <time>2018-04-21T08:17:08.000Z</time>
      </trkpt>
      <trkpt lat="44.1129" lon="7.3923">
        <ele>2553</ele>
        <time>2018-04-21T08:17:13.000Z</time>
      </trkpt>
      <trkpt lat="44.11293" lon="7.39228">
        <ele>2552</ele>
        <time>2018-04-21T08:17:18.000Z</time>
      </trkpt>
      <trkpt lat="44.11294" lon="7.39227">
        <ele>2552</ele>
        <time>2018-04-21T08:17:19.000Z</time>
      </trkpt>
      <trkpt lat="44.11297" lon="7.39225">
        <ele>2552</ele>
        <time>2018-04-21T08:17:24.000Z</time>
      </trkpt>
      <trkpt lat="44.11301" lon="7.39223">
        <ele>2552</ele>
        <time>2018-04-21T08:17:29.000Z</time>
      </trkpt>
      <trkpt lat="44.11305" lon="7.39221">
        <ele>2552</ele>
        <time>2018-04-21T08:17:34.000Z</time>
      </trkpt>
      <trkpt lat="44.1131" lon="7.3922">
        <ele>2552</ele>
        <time>2018-04-21T08:17:40.000Z</time>
      </trkpt>
      <trkpt lat="44.11314" lon="7.39218">
        <ele>2551</ele>
        <time>2018-04-21T08:17:45.000Z</time>
      </trkpt>
      <trkpt lat="44.1132" lon="7.39218">
        <ele>2551</ele>
        <time>2018-04-21T08:17:51.000Z</time>
      </trkpt>
      <trkpt lat="44.11324" lon="7.39217">
        <ele>2551</ele>
        <time>2018-04-21T08:17:56.000Z</time>
      </trkpt>
      <trkpt lat="44.1133" lon="7.39216">
        <ele>2551</ele>
        <time>2018-04-21T08:18:02.000Z</time>
      </trkpt>
      <trkpt lat="44.11333" lon="7.39216">
        <ele>2551</ele>
        <time>2018-04-21T08:18:08.000Z</time>
      </trkpt>
      <trkpt lat="44.11338" lon="7.39215">
        <ele>2550</ele>
        <time>2018-04-21T08:18:15.000Z</time>
      </trkpt>
      <trkpt lat="44.11339" lon="7.39215">
        <ele>2550</ele>
        <time>2018-04-21T08:18:16.000Z</time>
      </trkpt>
      <trkpt lat="44.11344" lon="7.39214">
        <ele>2550</ele>
        <time>2018-04-21T08:18:21.000Z</time>
      </trkpt>
      <trkpt lat="44.11347" lon="7.39214">
        <ele>2550</ele>
        <time>2018-04-21T08:18:27.000Z</time>
      </trkpt>
      <trkpt lat="44.1135" lon="7.39214">
        <ele>2550</ele>
        <time>2018-04-21T08:18:30.000Z</time>
      </trkpt>
      <trkpt lat="44.11351" lon="7.39213">
        <ele>2550</ele>
        <time>2018-04-21T08:18:32.000Z</time>
      </trkpt>
      <trkpt lat="44.11354" lon="7.39212">
        <ele>2550</ele>
        <time>2018-04-21T08:18:37.000Z</time>
      </trkpt>
      <trkpt lat="44.11356" lon="7.39211">
        <ele>2550</ele>
        <time>2018-04-21T08:18:40.000Z</time>
      </trkpt>
      <trkpt lat="44.11358" lon="7.3921">
        <ele>2550</ele>
        <time>2018-04-21T08:18:43.000Z</time>
      </trkpt>
      <trkpt lat="44.1136" lon="7.39209">
        <ele>2550</ele>
        <time>2018-04-21T08:18:48.000Z</time>
      </trkpt>
      <trkpt lat="44.11361" lon="7.39209">
        <ele>2550</ele>
        <time>2018-04-21T08:18:50.000Z</time>
      </trkpt>
      <trkpt lat="44.11362" lon="7.39208">
        <ele>2550</ele>
        <time>2018-04-21T08:18:53.000Z</time>
      </trkpt>
      <trkpt lat="44.11363" lon="7.39208">
        <ele>2550</ele>
        <time>2018-04-21T08:18:59.000Z</time>
      </trkpt>
      <trkpt lat="44.11366" lon="7.39206">
        <ele>2550</ele>
        <time>2018-04-21T08:19:04.000Z</time>
      </trkpt>
      <trkpt lat="44.11367" lon="7.39206">
        <ele>2550</ele>
        <time>2018-04-21T08:19:06.000Z</time>
      </trkpt>
      <trkpt lat="44.11368" lon="7.39205">
        <ele>2550</ele>
        <time>2018-04-21T08:19:08.000Z</time>
      </trkpt>
      <trkpt lat="44.1137" lon="7.39204">
        <ele>2550</ele>
        <time>2018-04-21T08:19:12.000Z</time>
      </trkpt>
      <trkpt lat="44.11371" lon="7.39204">
        <ele>2550</ele>
        <time>2018-04-21T08:19:14.000Z</time>
      </trkpt>
      <trkpt lat="44.11374" lon="7.39203">
        <ele>2550</ele>
        <time>2018-04-21T08:19:19.000Z</time>
      </trkpt>
      <trkpt lat="44.11375" lon="7.39202">
        <ele>2551</ele>
        <time>2018-04-21T08:19:21.000Z</time>
      </trkpt>
      <trkpt lat="44.11379" lon="7.39201">
        <ele>2551</ele>
        <time>2018-04-21T08:19:26.000Z</time>
      </trkpt>
      <trkpt lat="44.11382" lon="7.392">
        <ele>2551</ele>
        <time>2018-04-21T08:19:32.000Z</time>
      </trkpt>
      <trkpt lat="44.11383" lon="7.392">
        <ele>2551</ele>
        <time>2018-04-21T08:19:35.000Z</time>
      </trkpt>
      <trkpt lat="44.11385" lon="7.392">
        <ele>2551</ele>
        <time>2018-04-21T08:19:38.000Z</time>
      </trkpt>
      <trkpt lat="44.11389" lon="7.39199">
        <ele>2551</ele>
        <time>2018-04-21T08:19:43.000Z</time>
      </trkpt>
      <trkpt lat="44.11391" lon="7.39199">
        <ele>2551</ele>
        <time>2018-04-21T08:19:46.000Z</time>
      </trkpt>
      <trkpt lat="44.11393" lon="7.39198">
        <ele>2551</ele>
        <time>2018-04-21T08:19:50.000Z</time>
      </trkpt>
      <trkpt lat="44.11398" lon="7.39198">
        <ele>2551</ele>
        <time>2018-04-21T08:19:57.000Z</time>
      </trkpt>
      <trkpt lat="44.11401" lon="7.39197">
        <ele>2551</ele>
        <time>2018-04-21T08:20:03.000Z</time>
      </trkpt>
      <trkpt lat="44.11405" lon="7.39195">
        <ele>2551</ele>
        <time>2018-04-21T08:20:09.000Z</time>
      </trkpt>
      <trkpt lat="44.11408" lon="7.39193">
        <ele>2551</ele>
        <time>2018-04-21T08:20:15.000Z</time>
      </trkpt>
      <trkpt lat="44.11408" lon="7.39194">
        <ele>2551</ele>
        <time>2018-04-21T08:20:16.000Z</time>
      </trkpt>
      <trkpt lat="44.11411" lon="7.39192">
        <ele>2551</ele>
        <time>2018-04-21T08:20:22.000Z</time>
      </trkpt>
      <trkpt lat="44.11414" lon="7.3919">
        <ele>2551</ele>
        <time>2018-04-21T08:20:27.000Z</time>
      </trkpt>
      <trkpt lat="44.11414" lon="7.39189">
        <ele>2551</ele>
        <time>2018-04-21T08:20:30.000Z</time>
      </trkpt>
      <trkpt lat="44.11415" lon="7.39188">
        <ele>2551</ele>
        <time>2018-04-21T08:20:32.000Z</time>
      </trkpt>
      <trkpt lat="44.11417" lon="7.39186">
        <ele>2552</ele>
        <time>2018-04-21T08:20:37.000Z</time>
      </trkpt>
      <trkpt lat="44.11419" lon="7.39185">
        <ele>2552</ele>
        <time>2018-04-21T08:20:41.000Z</time>
      </trkpt>
      <trkpt lat="44.11419" lon="7.39185">
        <ele>2552</ele>
        <time>2018-04-21T08:20:44.000Z</time>
      </trkpt>
      <trkpt lat="44.11423" lon="7.39182">
        <ele>2552</ele>
        <time>2018-04-21T08:20:50.000Z</time>
      </trkpt>
      <trkpt lat="44.11424" lon="7.39181">
        <ele>2552</ele>
        <time>2018-04-21T08:20:53.000Z</time>
      </trkpt>
      <trkpt lat="44.11424" lon="7.39181">
        <ele>2552</ele>
        <time>2018-04-21T08:20:55.000Z</time>
      </trkpt>
      <trkpt lat="44.11426" lon="7.39179">
        <ele>2552</ele>
        <time>2018-04-21T08:21:01.000Z</time>
      </trkpt>
      <trkpt lat="44.11428" lon="7.39178">
        <ele>2552</ele>
        <time>2018-04-21T08:21:03.000Z</time>
      </trkpt>
      <trkpt lat="44.1143" lon="7.39176">
        <ele>2552</ele>
        <time>2018-04-21T08:21:07.000Z</time>
      </trkpt>
      <trkpt lat="44.11432" lon="7.39175">
        <ele>2552</ele>
        <time>2018-04-21T08:21:13.000Z</time>
      </trkpt>
      <trkpt lat="44.11432" lon="7.39173">
        <ele>2552</ele>
        <time>2018-04-21T08:21:14.000Z</time>
      </trkpt>
      <trkpt lat="44.11433" lon="7.39172">
        <ele>2552</ele>
        <time>2018-04-21T08:21:18.000Z</time>
      </trkpt>
      <trkpt lat="44.11435" lon="7.39171">
        <ele>2552</ele>
        <time>2018-04-21T08:21:23.000Z</time>
      </trkpt>
      <trkpt lat="44.11435" lon="7.39171">
        <ele>2552</ele>
        <time>2018-04-21T08:21:36.000Z</time>
      </trkpt>
      <trkpt lat="44.11435" lon="7.39171">
        <ele>2552</ele>
        <time>2018-04-21T08:21:39.000Z</time>
      </trkpt>
      <trkpt lat="44.11438" lon="7.3917">
        <ele>2552</ele>
        <time>2018-04-21T08:21:52.000Z</time>
      </trkpt>
      <trkpt lat="44.11439" lon="7.39169">
        <ele>2552</ele>
        <time>2018-04-21T08:21:57.000Z</time>
      </trkpt>
      <trkpt lat="44.1144" lon="7.39168">
        <ele>2552</ele>
        <time>2018-04-21T08:21:59.000Z</time>
      </trkpt>
      <trkpt lat="44.11441" lon="7.39167">
        <ele>2552</ele>
        <time>2018-04-21T08:22:05.000Z</time>
      </trkpt>
      <trkpt lat="44.11443" lon="7.39166">
        <ele>2576.3</ele>
        <time>2018-04-21T08:22:11.000Z</time>
      </trkpt>
      <trkpt lat="44.11443" lon="7.39166">
        <ele>2576.3</ele>
        <time>2018-04-21T08:22:17.000Z</time>
      </trkpt>
      <trkpt lat="44.11444" lon="7.39165">
        <ele>2576.8</ele>
        <time>2018-04-21T08:22:28.000Z</time>
      </trkpt>
      <trkpt lat="44.11446" lon="7.39165">
        <ele>2577.2</ele>
        <time>2018-04-21T08:22:34.000Z</time>
      </trkpt>
      <trkpt lat="44.11449" lon="7.39164">
        <ele>2578.5</ele>
        <time>2018-04-21T08:22:41.000Z</time>
      </trkpt>
      <trkpt lat="44.11452" lon="7.39163">
        <ele>2579.9</ele>
        <time>2018-04-21T08:22:46.000Z</time>
      </trkpt>
      <trkpt lat="44.11451" lon="7.39163">
        <ele>2579.6</ele>
        <time>2018-04-21T08:22:47.000Z</time>
      </trkpt>
      <trkpt lat="44.11452" lon="7.39163">
        <ele>2579.9</ele>
        <time>2018-04-21T08:22:52.000Z</time>
      </trkpt>
      <trkpt lat="44.11452" lon="7.39163">
        <ele>2579.9</ele>
        <time>2018-04-21T08:22:55.000Z</time>
      </trkpt>
      <trkpt lat="44.11451" lon="7.39163">
        <ele>2579.6</ele>
        <time>2018-04-21T08:22:59.000Z</time>
      </trkpt>
      <trkpt lat="44.11451" lon="7.39162">
        <ele>2580</ele>
        <time>2018-04-21T08:23:07.000Z</time>
      </trkpt>
      <trkpt lat="44.11449" lon="7.3916">
        <ele>2580.4</ele>
        <time>2018-04-21T08:23:12.000Z</time>
      </trkpt>
      <trkpt lat="44.11447" lon="7.39158">
        <ele>2580.8</ele>
        <time>2018-04-21T08:23:18.000Z</time>
      </trkpt>
      <trkpt lat="44.11446" lon="7.39157">
        <ele>2581</ele>
        <time>2018-04-21T08:23:20.000Z</time>
      </trkpt>
      <trkpt lat="44.11445" lon="7.39155">
        <ele>2581.6</ele>
        <time>2018-04-21T08:23:26.000Z</time>
      </trkpt>
      <trkpt lat="44.11443" lon="7.39153">
        <ele>2582.3</ele>
        <time>2018-04-21T08:23:30.000Z</time>
      </trkpt>
      <trkpt lat="44.11442" lon="7.39152">
        <ele>2582.7</ele>
        <time>2018-04-21T08:23:33.000Z</time>
      </trkpt>
      <trkpt lat="44.1144" lon="7.3915">
        <ele>2583.5</ele>
        <time>2018-04-21T08:23:39.000Z</time>
      </trkpt>
      <trkpt lat="44.11439" lon="7.39149">
        <ele>2583.9</ele>
        <time>2018-04-21T08:23:40.000Z</time>
      </trkpt>
      <trkpt lat="44.11438" lon="7.39148">
        <ele>2584.3</ele>
        <time>2018-04-21T08:23:45.000Z</time>
      </trkpt>
      <trkpt lat="44.11436" lon="7.39147">
        <ele>2584.7</ele>
        <time>2018-04-21T08:23:47.000Z</time>
      </trkpt>
      <trkpt lat="44.11434" lon="7.39145">
        <ele>2585.5</ele>
        <time>2018-04-21T08:23:52.000Z</time>
      </trkpt>
      <trkpt lat="44.11432" lon="7.39143">
        <ele>2586.2</ele>
        <time>2018-04-21T08:23:58.000Z</time>
      </trkpt>
      <trkpt lat="44.11431" lon="7.39142">
        <ele>2586.6</ele>
        <time>2018-04-21T08:24:00.000Z</time>
      </trkpt>
      <trkpt lat="44.11428" lon="7.39141">
        <ele>2586.9</ele>
        <time>2018-04-21T08:24:05.000Z</time>
      </trkpt>
      <trkpt lat="44.11426" lon="7.3914">
        <ele>2587.2</ele>
        <time>2018-04-21T08:24:10.000Z</time>
      </trkpt>
      <trkpt lat="44.11426" lon="7.3914">
        <ele>2587.2</ele>
        <time>2018-04-21T08:24:11.000Z</time>
      </trkpt>
      <trkpt lat="44.11426" lon="7.39138">
        <ele>2588</ele>
        <time>2018-04-21T08:24:15.000Z</time>
      </trkpt>
      <trkpt lat="44.11426" lon="7.39138">
        <ele>2588</ele>
        <time>2018-04-21T08:24:18.000Z</time>
      </trkpt>
      <trkpt lat="44.11426" lon="7.39138">
        <ele>2588</ele>
        <time>2018-04-21T08:24:19.000Z</time>
      </trkpt>
      <trkpt lat="44.11425" lon="7.39138">
        <ele>2587.9</ele>
        <time>2018-04-21T08:24:26.000Z</time>
      </trkpt>
      <trkpt lat="44.11428" lon="7.39137">
        <ele>2588.5</ele>
        <time>2018-04-21T08:24:31.000Z</time>
      </trkpt>
      <trkpt lat="44.11429" lon="7.39135">
        <ele>2589.4</ele>
        <time>2018-04-21T08:24:37.000Z</time>
      </trkpt>
      <trkpt lat="44.1143" lon="7.39135">
        <ele>2589.4</ele>
        <time>2018-04-21T08:24:38.000Z</time>
      </trkpt>
      <trkpt lat="44.11432" lon="7.39134">
        <ele>2589.9</ele>
        <time>2018-04-21T08:24:42.000Z</time>
      </trkpt>
      <trkpt lat="44.11435" lon="7.39132">
        <ele>2590.9</ele>
        <time>2018-04-21T08:24:48.000Z</time>
      </trkpt>
      <trkpt lat="44.11435" lon="7.39132">
        <ele>2590.9</ele>
        <time>2018-04-21T08:24:50.000Z</time>
      </trkpt>
      <trkpt lat="44.11437" lon="7.39131">
        <ele>2591.4</ele>
        <time>2018-04-21T08:24:53.000Z</time>
      </trkpt>
      <trkpt lat="44.11439" lon="7.39131">
        <ele>2591.5</ele>
        <time>2018-04-21T08:24:58.000Z</time>
      </trkpt>
      <trkpt lat="44.11439" lon="7.39131">
        <ele>2591.5</ele>
        <time>2018-04-21T08:24:59.000Z</time>
      </trkpt>
      <trkpt lat="44.11443" lon="7.3913">
        <ele>2592.1</ele>
        <time>2018-04-21T08:25:05.000Z</time>
      </trkpt>
      <trkpt lat="44.11445" lon="7.39129">
        <ele>2592.7</ele>
        <time>2018-04-21T08:25:10.000Z</time>
      </trkpt>
      <trkpt lat="44.11446" lon="7.39129">
        <ele>2592.9</ele>
        <time>2018-04-21T08:25:12.000Z</time>
      </trkpt>
      <trkpt lat="44.11447" lon="7.39129">
        <ele>2593.1</ele>
        <time>2018-04-21T08:25:17.000Z</time>
      </trkpt>
      <trkpt lat="44.11449" lon="7.39129">
        <ele>2593.6</ele>
        <time>2018-04-21T08:25:19.000Z</time>
      </trkpt>
      <trkpt lat="44.1145" lon="7.39128">
        <ele>2594.2</ele>
        <time>2018-04-21T08:25:21.000Z</time>
      </trkpt>
      <trkpt lat="44.11451" lon="7.39129">
        <ele>2594</ele>
        <time>2018-04-21T08:25:22.000Z</time>
      </trkpt>
      <trkpt lat="44.11452" lon="7.3913">
        <ele>2593.9</ele>
        <time>2018-04-21T08:25:26.000Z</time>
      </trkpt>
      <trkpt lat="44.11453" lon="7.3913">
        <ele>2594.2</ele>
        <time>2018-04-21T08:25:28.000Z</time>
      </trkpt>
      <trkpt lat="44.11456" lon="7.3913">
        <ele>2594.8</ele>
        <time>2018-04-21T08:25:32.000Z</time>
      </trkpt>
      <trkpt lat="44.11458" lon="7.3913">
        <ele>2595.3</ele>
        <time>2018-04-21T08:25:38.000Z</time>
      </trkpt>
      <trkpt lat="44.11458" lon="7.3913">
        <ele>2595.3</ele>
        <time>2018-04-21T08:25:39.000Z</time>
      </trkpt>
      <trkpt lat="44.11459" lon="7.3913">
        <ele>2595.5</ele>
        <time>2018-04-21T08:25:45.000Z</time>
      </trkpt>
      <trkpt lat="44.11459" lon="7.3913">
        <ele>2595.5</ele>
        <time>2018-04-21T08:25:46.000Z</time>
      </trkpt>
      <trkpt lat="44.11459" lon="7.39131">
        <ele>2595.2</ele>
        <time>2018-04-21T08:25:51.000Z</time>
      </trkpt>
      <trkpt lat="44.11459" lon="7.3913">
        <ele>2595.5</ele>
        <time>2018-04-21T08:25:59.000Z</time>
      </trkpt>
      <trkpt lat="44.1146" lon="7.3913">
        <ele>2595.8</ele>
        <time>2018-04-21T08:26:04.000Z</time>
      </trkpt>
      <trkpt lat="44.11463" lon="7.39131">
        <ele>2596.1</ele>
        <time>2018-04-21T08:26:11.000Z</time>
      </trkpt>
      <trkpt lat="44.11465" lon="7.39131">
        <ele>2596.6</ele>
        <time>2018-04-21T08:26:16.000Z</time>
      </trkpt>
      <trkpt lat="44.11465" lon="7.39131">
        <ele>2596.6</ele>
        <time>2018-04-21T08:26:17.000Z</time>
      </trkpt>
      <trkpt lat="44.11468" lon="7.39131">
        <ele>2597.3</ele>
        <time>2018-04-21T08:26:23.000Z</time>
      </trkpt>
      <trkpt lat="44.1147" lon="7.3913">
        <ele>2598.1</ele>
        <time>2018-04-21T08:26:29.000Z</time>
      </trkpt>
      <trkpt lat="44.11473" lon="7.3913">
        <ele>2598.8</ele>
        <time>2018-04-21T08:26:33.000Z</time>
      </trkpt>
      <trkpt lat="44.11474" lon="7.3913">
        <ele>2599</ele>
        <time>2018-04-21T08:26:35.000Z</time>
      </trkpt>
      <trkpt lat="44.11476" lon="7.3913">
        <ele>2599.5</ele>
        <time>2018-04-21T08:26:39.000Z</time>
      </trkpt>
      <trkpt lat="44.11477" lon="7.39131">
        <ele>2599.5</ele>
        <time>2018-04-21T08:26:41.000Z</time>
      </trkpt>
      <trkpt lat="44.11479" lon="7.3913">
        <ele>2600.3</ele>
        <time>2018-04-21T08:26:46.000Z</time>
      </trkpt>
      <trkpt lat="44.1148" lon="7.3913">
        <ele>2600.5</ele>
        <time>2018-04-21T08:26:47.000Z</time>
      </trkpt>
      <trkpt lat="44.11482" lon="7.3913">
        <ele>2601</ele>
        <time>2018-04-21T08:26:52.000Z</time>
      </trkpt>
      <trkpt lat="44.11484" lon="7.39131">
        <ele>2601.3</ele>
        <time>2018-04-21T08:26:57.000Z</time>
      </trkpt>
      <trkpt lat="44.11485" lon="7.39131">
        <ele>2601.6</ele>
        <time>2018-04-21T08:26:59.000Z</time>
      </trkpt>
      <trkpt lat="44.11488" lon="7.39131">
        <ele>2602.3</ele>
        <time>2018-04-21T08:27:04.000Z</time>
      </trkpt>
      <trkpt lat="44.1149" lon="7.39131">
        <ele>2602.8</ele>
        <time>2018-04-21T08:27:11.000Z</time>
      </trkpt>
      <trkpt lat="44.11493" lon="7.3913">
        <ele>2603.8</ele>
        <time>2018-04-21T08:27:17.000Z</time>
      </trkpt>
      <trkpt lat="44.11494" lon="7.3913">
        <ele>2604.1</ele>
        <time>2018-04-21T08:27:20.000Z</time>
      </trkpt>
      <trkpt lat="44.11495" lon="7.3913">
        <ele>2604.3</ele>
        <time>2018-04-21T08:27:22.000Z</time>
      </trkpt>
      <trkpt lat="44.11498" lon="7.39129">
        <ele>2605.3</ele>
        <time>2018-04-21T08:27:27.000Z</time>
      </trkpt>
      <trkpt lat="44.11499" lon="7.39129">
        <ele>2605.5</ele>
        <time>2018-04-21T08:27:28.000Z</time>
      </trkpt>
      <trkpt lat="44.115" lon="7.39128">
        <ele>2606</ele>
        <time>2018-04-21T08:27:34.000Z</time>
      </trkpt>
      <trkpt lat="44.11501" lon="7.39128">
        <ele>2606.2</ele>
        <time>2018-04-21T08:27:35.000Z</time>
      </trkpt>
      <trkpt lat="44.11504" lon="7.39126">
        <ele>2607.2</ele>
        <time>2018-04-21T08:27:40.000Z</time>
      </trkpt>
      <trkpt lat="44.11504" lon="7.39126">
        <ele>2607.2</ele>
        <time>2018-04-21T08:27:41.000Z</time>
      </trkpt>
      <trkpt lat="44.11507" lon="7.39125">
        <ele>2608</ele>
        <time>2018-04-21T08:27:46.000Z</time>
      </trkpt>
      <trkpt lat="44.1151" lon="7.39125">
        <ele>2608.7</ele>
        <time>2018-04-21T08:27:51.000Z</time>
      </trkpt>
      <trkpt lat="44.11514" lon="7.39125">
        <ele>2609.5</ele>
        <time>2018-04-21T08:27:56.000Z</time>
      </trkpt>
      <trkpt lat="44.11517" lon="7.39125">
        <ele>2610.2</ele>
        <time>2018-04-21T08:28:02.000Z</time>
      </trkpt>
      <trkpt lat="44.11517" lon="7.39125">
        <ele>2610.2</ele>
        <time>2018-04-21T08:28:03.000Z</time>
      </trkpt>
      <trkpt lat="44.11517" lon="7.39125">
        <ele>2610.2</ele>
        <time>2018-04-21T08:28:08.000Z</time>
      </trkpt>
      <trkpt lat="44.11517" lon="7.39125">
        <ele>2610.2</ele>
        <time>2018-04-21T08:28:19.000Z</time>
      </trkpt>
      <trkpt lat="44.11518" lon="7.39124">
        <ele>2610.6</ele>
        <time>2018-04-21T08:28:28.000Z</time>
      </trkpt>
      <trkpt lat="44.11523" lon="7.39126">
        <ele>2611.3</ele>
        <time>2018-04-21T08:28:34.000Z</time>
      </trkpt>
      <trkpt lat="44.11526" lon="7.39127">
        <ele>2611.8</ele>
        <time>2018-04-21T08:28:38.000Z</time>
      </trkpt>
      <trkpt lat="44.11529" lon="7.39128">
        <ele>2612.2</ele>
        <time>2018-04-21T08:28:43.000Z</time>
      </trkpt>
      <trkpt lat="44.11531" lon="7.39129">
        <ele>2612.4</ele>
        <time>2018-04-21T08:28:45.000Z</time>
      </trkpt>
      <trkpt lat="44.11532" lon="7.39129">
        <ele>2612.6</ele>
        <time>2018-04-21T08:28:47.000Z</time>
      </trkpt>
      <trkpt lat="44.11535" lon="7.3913">
        <ele>2612.9</ele>
        <time>2018-04-21T08:28:51.000Z</time>
      </trkpt>
      <trkpt lat="44.11537" lon="7.39131">
        <ele>2613</ele>
        <time>2018-04-21T08:28:54.000Z</time>
      </trkpt>
      <trkpt lat="44.1154" lon="7.39133">
        <ele>2613.1</ele>
        <time>2018-04-21T08:28:58.000Z</time>
      </trkpt>
      <trkpt lat="44.11542" lon="7.39134">
        <ele>2613.2</ele>
        <time>2018-04-21T08:29:02.000Z</time>
      </trkpt>
      <trkpt lat="44.11543" lon="7.39135">
        <ele>2613.1</ele>
        <time>2018-04-21T08:29:03.000Z</time>
      </trkpt>
      <trkpt lat="44.11545" lon="7.39136">
        <ele>2613.2</ele>
        <time>2018-04-21T08:29:07.000Z</time>
      </trkpt>
      <trkpt lat="44.11546" lon="7.39137">
        <ele>2613.1</ele>
        <time>2018-04-21T08:29:08.000Z</time>
      </trkpt>
      <trkpt lat="44.11549" lon="7.39139">
        <ele>2613.1</ele>
        <time>2018-04-21T08:29:12.000Z</time>
      </trkpt>
      <trkpt lat="44.11552" lon="7.3914">
        <ele>2613.5</ele>
        <time>2018-04-21T08:29:18.000Z</time>
      </trkpt>
      <trkpt lat="44.11555" lon="7.39143">
        <ele>2614.1</ele>
        <time>2018-04-21T08:29:23.000Z</time>
      </trkpt>
      <trkpt lat="44.11559" lon="7.39143">
        <ele>2615.1</ele>
        <time>2018-04-21T08:29:28.000Z</time>
      </trkpt>
      <trkpt lat="44.11559" lon="7.39143">
        <ele>2615.1</ele>
        <time>2018-04-21T08:29:29.000Z</time>
      </trkpt>
      <trkpt lat="44.11561" lon="7.39142">
        <ele>2615.6</ele>
        <time>2018-04-21T08:29:38.000Z</time>
      </trkpt>
      <trkpt lat="44.11563" lon="7.39141">
        <ele>2616.2</ele>
        <time>2018-04-21T08:29:41.000Z</time>
      </trkpt>
      <trkpt lat="44.11565" lon="7.39139">
        <ele>2616.7</ele>
        <time>2018-04-21T08:29:44.000Z</time>
      </trkpt>
      <trkpt lat="44.11568" lon="7.39138">
        <ele>2617.8</ele>
        <time>2018-04-21T08:29:49.000Z</time>
      </trkpt>
      <trkpt lat="44.11571" lon="7.39137">
        <ele>2618.9</ele>
        <time>2018-04-21T08:29:54.000Z</time>
      </trkpt>
      <trkpt lat="44.11572" lon="7.39136">
        <ele>2619.4</ele>
        <time>2018-04-21T08:29:55.000Z</time>
      </trkpt>
      <trkpt lat="44.11574" lon="7.39136">
        <ele>2620</ele>
        <time>2018-04-21T08:29:58.000Z</time>
      </trkpt>
      <trkpt lat="44.11578" lon="7.39136">
        <ele>2621.1</ele>
        <time>2018-04-21T08:30:03.000Z</time>
      </trkpt>
      <trkpt lat="44.11581" lon="7.39137">
        <ele>2621.7</ele>
        <time>2018-04-21T08:30:08.000Z</time>
      </trkpt>
      <trkpt lat="44.1158" lon="7.39137">
        <ele>2621.5</ele>
        <time>2018-04-21T08:30:09.000Z</time>
      </trkpt>
      <trkpt lat="44.11582" lon="7.39138">
        <ele>2621.8</ele>
        <time>2018-04-21T08:30:13.000Z</time>
      </trkpt>
      <trkpt lat="44.11585" lon="7.39139">
        <ele>2622.6</ele>
        <time>2018-04-21T08:30:17.000Z</time>
      </trkpt>
      <trkpt lat="44.11586" lon="7.3914">
        <ele>2622.9</ele>
        <time>2018-04-21T08:30:21.000Z</time>
      </trkpt>
      <trkpt lat="44.11589" lon="7.39141">
        <ele>2623.9</ele>
        <time>2018-04-21T08:30:24.000Z</time>
      </trkpt>
      <trkpt lat="44.1159" lon="7.39141">
        <ele>2624.3</ele>
        <time>2018-04-21T08:30:26.000Z</time>
      </trkpt>
      <trkpt lat="44.11592" lon="7.39142">
        <ele>2624.9</ele>
        <time>2018-04-21T08:30:31.000Z</time>
      </trkpt>
      <trkpt lat="44.11594" lon="7.39144">
        <ele>2625.5</ele>
        <time>2018-04-21T08:30:36.000Z</time>
      </trkpt>
      <trkpt lat="44.11597" lon="7.39146">
        <ele>2626.4</ele>
        <time>2018-04-21T08:30:41.000Z</time>
      </trkpt>
      <trkpt lat="44.11598" lon="7.39147">
        <ele>2626.7</ele>
        <time>2018-04-21T08:30:43.000Z</time>
      </trkpt>
      <trkpt lat="44.11598" lon="7.39147">
        <ele>2626.7</ele>
        <time>2018-04-21T08:30:44.000Z</time>
      </trkpt>
      <trkpt lat="44.11599" lon="7.39148">
        <ele>2626.9</ele>
        <time>2018-04-21T08:30:47.000Z</time>
      </trkpt>
      <trkpt lat="44.11602" lon="7.3915">
        <ele>2627.8</ele>
        <time>2018-04-21T08:30:52.000Z</time>
      </trkpt>
      <trkpt lat="44.11603" lon="7.39152">
        <ele>2627.9</ele>
        <time>2018-04-21T08:30:58.000Z</time>
      </trkpt>
      <trkpt lat="44.11604" lon="7.39152">
        <ele>2628.3</ele>
        <time>2018-04-21T08:31:00.000Z</time>
      </trkpt>
      <trkpt lat="44.11605" lon="7.39153">
        <ele>2628.5</ele>
        <time>2018-04-21T08:31:03.000Z</time>
      </trkpt>
      <trkpt lat="44.11607" lon="7.39155">
        <ele>2629</ele>
        <time>2018-04-21T08:31:08.000Z</time>
      </trkpt>
      <trkpt lat="44.11608" lon="7.39155">
        <ele>2629.3</ele>
        <time>2018-04-21T08:31:09.000Z</time>
      </trkpt>
      <trkpt lat="44.1161" lon="7.39156">
        <ele>2629.8</ele>
        <time>2018-04-21T08:31:13.000Z</time>
      </trkpt>
      <trkpt lat="44.1161" lon="7.39156">
        <ele>2629.8</ele>
        <time>2018-04-21T08:31:14.000Z</time>
      </trkpt>
      <trkpt lat="44.11611" lon="7.39157">
        <ele>2630</ele>
        <time>2018-04-21T08:31:19.000Z</time>
      </trkpt>
      <trkpt lat="44.11614" lon="7.39157">
        <ele>2630.4</ele>
        <time>2018-04-21T08:31:24.000Z</time>
      </trkpt>
      <trkpt lat="44.11617" lon="7.39158">
        <ele>2630.6</ele>
        <time>2018-04-21T08:31:29.000Z</time>
      </trkpt>
      <trkpt lat="44.11618" lon="7.39158">
        <ele>2630.7</ele>
        <time>2018-04-21T08:31:31.000Z</time>
      </trkpt>
      <trkpt lat="44.11619" lon="7.39158">
        <ele>2630.8</ele>
        <time>2018-04-21T08:31:34.000Z</time>
      </trkpt>
      <trkpt lat="44.11621" lon="7.39158">
        <ele>2631</ele>
        <time>2018-04-21T08:31:39.000Z</time>
      </trkpt>
      <trkpt lat="44.11621" lon="7.39158">
        <ele>2631</ele>
        <time>2018-04-21T08:31:40.000Z</time>
      </trkpt>
      <trkpt lat="44.11624" lon="7.39157">
        <ele>2631.5</ele>
        <time>2018-04-21T08:31:46.000Z</time>
      </trkpt>
      <trkpt lat="44.11625" lon="7.39157">
        <ele>2631.6</ele>
        <time>2018-04-21T08:31:47.000Z</time>
      </trkpt>
      <trkpt lat="44.11629" lon="7.39157">
        <ele>2632</ele>
        <time>2018-04-21T08:31:54.000Z</time>
      </trkpt>
      <trkpt lat="44.11631" lon="7.39156">
        <ele>2632.4</ele>
        <time>2018-04-21T08:31:59.000Z</time>
      </trkpt>
      <trkpt lat="44.11632" lon="7.39155">
        <ele>2632.7</ele>
        <time>2018-04-21T08:32:00.000Z</time>
      </trkpt>
      <trkpt lat="44.11633" lon="7.39154">
        <ele>2633</ele>
        <time>2018-04-21T08:32:04.000Z</time>
      </trkpt>
      <trkpt lat="44.11635" lon="7.39153">
        <ele>2633.5</ele>
        <time>2018-04-21T08:32:07.000Z</time>
      </trkpt>
      <trkpt lat="44.11636" lon="7.39152">
        <ele>2633.8</ele>
        <time>2018-04-21T08:32:09.000Z</time>
      </trkpt>
      <trkpt lat="44.11638" lon="7.39151">
        <ele>2634.3</ele>
        <time>2018-04-21T08:32:13.000Z</time>
      </trkpt>
      <trkpt lat="44.1164" lon="7.3915">
        <ele>2634.3</ele>
        <time>2018-04-21T08:32:17.000Z</time>
      </trkpt>
      <trkpt lat="44.11643" lon="7.39148">
        <ele>2634.1</ele>
        <time>2018-04-21T08:32:22.000Z</time>
      </trkpt>
      <trkpt lat="44.11646" lon="7.39147">
        <ele>2633.7</ele>
        <time>2018-04-21T08:32:27.000Z</time>
      </trkpt>
      <trkpt lat="44.11648" lon="7.39144">
        <ele>2634.2</ele>
        <time>2018-04-21T08:32:33.000Z</time>
      </trkpt>
      <trkpt lat="44.11648" lon="7.39144">
        <ele>2634.2</ele>
        <time>2018-04-21T08:32:34.000Z</time>
      </trkpt>
      <trkpt lat="44.11648" lon="7.39144">
        <ele>2634.2</ele>
        <time>2018-04-21T08:32:35.000Z</time>
      </trkpt>
      <trkpt lat="44.11648" lon="7.39144">
        <ele>2634.2</ele>
        <time>2018-04-21T08:32:41.000Z</time>
      </trkpt>
      <trkpt lat="44.11648" lon="7.39143">
        <ele>2634.5</ele>
        <time>2018-04-21T08:32:43.000Z</time>
      </trkpt>
      <trkpt lat="44.11648" lon="7.39143">
        <ele>2634.5</ele>
        <time>2018-04-21T08:32:47.000Z</time>
      </trkpt>
      <trkpt lat="44.11648" lon="7.39143">
        <ele>2634.5</ele>
        <time>2018-04-21T08:32:53.000Z</time>
      </trkpt>
      <trkpt lat="44.11648" lon="7.39142">
        <ele>2634.8</ele>
        <time>2018-04-21T08:33:00.000Z</time>
      </trkpt>
      <trkpt lat="44.11648" lon="7.39142">
        <ele>2634.8</ele>
        <time>2018-04-21T08:33:01.000Z</time>
      </trkpt>
      <trkpt lat="44.11647" lon="7.39142">
        <ele>2634.9</ele>
        <time>2018-04-21T08:33:07.000Z</time>
      </trkpt>
      <trkpt lat="44.11647" lon="7.39142">
        <ele>2634.9</ele>
        <time>2018-04-21T08:33:18.000Z</time>
      </trkpt>
      <trkpt lat="44.11648" lon="7.39142">
        <ele>2634.8</ele>
        <time>2018-04-21T08:33:30.000Z</time>
      </trkpt>
      <trkpt lat="44.11648" lon="7.39142">
        <ele>2634.8</ele>
        <time>2018-04-21T08:33:39.000Z</time>
      </trkpt>
      <trkpt lat="44.11649" lon="7.39143">
        <ele>2634.3</ele>
        <time>2018-04-21T08:33:52.000Z</time>
      </trkpt>
      <trkpt lat="44.11649" lon="7.39143">
        <ele>2634.3</ele>
        <time>2018-04-21T08:34:02.000Z</time>
      </trkpt>
      <trkpt lat="44.1165" lon="7.39142">
        <ele>2634.4</ele>
        <time>2018-04-21T08:34:10.000Z</time>
      </trkpt>
      <trkpt lat="44.11649" lon="7.39142">
        <ele>2634.6</ele>
        <time>2018-04-21T08:34:18.000Z</time>
      </trkpt>
      <trkpt lat="44.11649" lon="7.39141">
        <ele>2634.9</ele>
        <time>2018-04-21T08:34:27.000Z</time>
      </trkpt>
      <trkpt lat="44.11649" lon="7.39139">
        <ele>2635.5</ele>
        <time>2018-04-21T08:34:38.000Z</time>
      </trkpt>
      <trkpt lat="44.1165" lon="7.39138">
        <ele>2635.6</ele>
        <time>2018-04-21T08:34:46.000Z</time>
      </trkpt>
      <trkpt lat="44.1165" lon="7.39137">
        <ele>2635.9</ele>
        <time>2018-04-21T08:34:53.000Z</time>
      </trkpt>
      <trkpt lat="44.11649" lon="7.39137">
        <ele>2636</ele>
        <time>2018-04-21T08:34:57.000Z</time>
      </trkpt>
      <trkpt lat="44.11649" lon="7.39138">
        <ele>2635.8</ele>
        <time>2018-04-21T08:35:03.000Z</time>
      </trkpt>
      <trkpt lat="44.11648" lon="7.39138">
        <ele>2635.9</ele>
        <time>2018-04-21T08:35:11.000Z</time>
      </trkpt>
      <trkpt lat="44.11648" lon="7.39138">
        <ele>2635.9</ele>
        <time>2018-04-21T08:35:13.000Z</time>
      </trkpt>
      <trkpt lat="44.11647" lon="7.39139">
        <ele>2635.8</ele>
        <time>2018-04-21T08:35:19.000Z</time>
      </trkpt>
      <trkpt lat="44.11648" lon="7.39139">
        <ele>2635.7</ele>
        <time>2018-04-21T08:35:22.000Z</time>
      </trkpt>
      <trkpt lat="44.11648" lon="7.39139">
        <ele>2635.7</ele>
        <time>2018-04-21T08:35:24.000Z</time>
      </trkpt>
      <trkpt lat="44.11648" lon="7.3914">
        <ele>2635.4</ele>
        <time>2018-04-21T08:35:33.000Z</time>
      </trkpt>
      <trkpt lat="44.11648" lon="7.39139">
        <ele>2635.7</ele>
        <time>2018-04-21T08:35:39.000Z</time>
      </trkpt>
      <trkpt lat="44.11647" lon="7.3914">
        <ele>2635.5</ele>
        <time>2018-04-21T08:35:44.000Z</time>
      </trkpt>
      <trkpt lat="44.11647" lon="7.3914">
        <ele>2635.5</ele>
        <time>2018-04-21T08:35:45.000Z</time>
      </trkpt>
      <trkpt lat="44.11647" lon="7.39141">
        <ele>2635.2</ele>
        <time>2018-04-21T08:35:52.000Z</time>
      </trkpt>
      <trkpt lat="44.11646" lon="7.39141">
        <ele>2635.4</ele>
        <time>2018-04-21T08:35:59.000Z</time>
      </trkpt>
      <trkpt lat="44.11645" lon="7.3914">
        <ele>2635.8</ele>
        <time>2018-04-21T08:36:07.000Z</time>
      </trkpt>
      <trkpt lat="44.11645" lon="7.3914">
        <ele>2635.8</ele>
        <time>2018-04-21T08:36:16.000Z</time>
      </trkpt>
      <trkpt lat="44.11645" lon="7.39139">
        <ele>2636.1</ele>
        <time>2018-04-21T08:36:21.000Z</time>
      </trkpt>
      <trkpt lat="44.11646" lon="7.39138">
        <ele>2636.2</ele>
        <time>2018-04-21T08:36:23.000Z</time>
      </trkpt>
      <trkpt lat="44.1165" lon="7.39136">
        <ele>2636.1</ele>
        <time>2018-04-21T08:36:29.000Z</time>
      </trkpt>
      <trkpt lat="44.11655" lon="7.39132">
        <ele>2636.7</ele>
        <time>2018-04-21T08:36:35.000Z</time>
      </trkpt>
      <trkpt lat="44.11659" lon="7.3913">
        <ele>2637</ele>
        <time>2018-04-21T08:36:40.000Z</time>
      </trkpt>
      <trkpt lat="44.11662" lon="7.39128">
        <ele>2637.5</ele>
        <time>2018-04-21T08:36:43.000Z</time>
      </trkpt>
      <trkpt lat="44.11663" lon="7.39126">
        <ele>2638.2</ele>
        <time>2018-04-21T08:36:46.000Z</time>
      </trkpt>
      <trkpt lat="44.11664" lon="7.39125">
        <ele>2638.5</ele>
        <time>2018-04-21T08:36:49.000Z</time>
      </trkpt>
      <trkpt lat="44.11665" lon="7.39124">
        <ele>2638.9</ele>
        <time>2018-04-21T08:36:51.000Z</time>
      </trkpt>
      <trkpt lat="44.11666" lon="7.39125">
        <ele>2638.5</ele>
        <time>2018-04-21T08:36:55.000Z</time>
      </trkpt>
      <trkpt lat="44.11666" lon="7.39126">
        <ele>2638.1</ele>
        <time>2018-04-21T08:36:57.000Z</time>
      </trkpt>
      <trkpt lat="44.11666" lon="7.39126">
        <ele>2638.1</ele>
        <time>2018-04-21T08:36:58.000Z</time>
      </trkpt>
      <trkpt lat="44.11667" lon="7.39127">
        <ele>2637.6</ele>
        <time>2018-04-21T08:37:00.000Z</time>
      </trkpt>
      <trkpt lat="44.11668" lon="7.39126">
        <ele>2637.8</ele>
        <time>2018-04-21T08:37:04.000Z</time>
      </trkpt>
      <trkpt lat="44.1167" lon="7.39125">
        <ele>2637.8</ele>
        <time>2018-04-21T08:37:10.000Z</time>
      </trkpt>
      <trkpt lat="44.11671" lon="7.39125">
        <ele>2637.6</ele>
        <time>2018-04-21T08:37:16.000Z</time>
      </trkpt>
      <trkpt lat="44.11673" lon="7.39123">
        <ele>2638</ele>
        <time>2018-04-21T08:37:23.000Z</time>
      </trkpt>
      <trkpt lat="44.11676" lon="7.39121">
        <ele>2638.2</ele>
        <time>2018-04-21T08:37:29.000Z</time>
      </trkpt>
      <trkpt lat="44.11678" lon="7.39119">
        <ele>2638.6</ele>
        <time>2018-04-21T08:37:34.000Z</time>
      </trkpt>
      <trkpt lat="44.1168" lon="7.39118">
        <ele>2638.6</ele>
        <time>2018-04-21T08:37:39.000Z</time>
      </trkpt>
      <trkpt lat="44.11682" lon="7.39116">
        <ele>2639.1</ele>
        <time>2018-04-21T08:37:46.000Z</time>
      </trkpt>
      <trkpt lat="44.11682" lon="7.39116">
        <ele>2639.1</ele>
        <time>2018-04-21T08:37:50.000Z</time>
      </trkpt>
      <trkpt lat="44.11686" lon="7.39114">
        <ele>2639.2</ele>
        <time>2018-04-21T08:37:57.000Z</time>
      </trkpt>
      <trkpt lat="44.11692" lon="7.39113">
        <ele>2638.6</ele>
        <time>2018-04-21T08:38:04.000Z</time>
      </trkpt>
      <trkpt lat="44.11693" lon="7.39112">
        <ele>2638.8</ele>
        <time>2018-04-21T08:38:09.000Z</time>
      </trkpt>
      <trkpt lat="44.11696" lon="7.39112">
        <ele>2638</ele>
        <time>2018-04-21T08:38:14.000Z</time>
      </trkpt>
      <trkpt lat="44.11699" lon="7.39111">
        <ele>2637.4</ele>
        <time>2018-04-21T08:38:19.000Z</time>
      </trkpt>
      <trkpt lat="44.11703" lon="7.3911">
        <ele>2636.8</ele>
        <time>2018-04-21T08:38:24.000Z</time>
      </trkpt>
      <trkpt lat="44.11703" lon="7.3911">
        <ele>2636.8</ele>
        <time>2018-04-21T08:38:25.000Z</time>
      </trkpt>
      <trkpt lat="44.11706" lon="7.39109">
        <ele>2636.5</ele>
        <time>2018-04-21T08:38:30.000Z</time>
      </trkpt>
      <trkpt lat="44.1171" lon="7.39108">
        <ele>2635.9</ele>
        <time>2018-04-21T08:38:35.000Z</time>
      </trkpt>
      <trkpt lat="44.11711" lon="7.39108">
        <ele>2635.5</ele>
        <time>2018-04-21T08:38:36.000Z</time>
      </trkpt>
      <trkpt lat="44.11714" lon="7.39108">
        <ele>2634.5</ele>
        <time>2018-04-21T08:38:40.000Z</time>
      </trkpt>
      <trkpt lat="44.11717" lon="7.39107">
        <ele>2634.2</ele>
        <time>2018-04-21T08:38:44.000Z</time>
      </trkpt>
      <trkpt lat="44.11722" lon="7.39106">
        <ele>2633.3</ele>
        <time>2018-04-21T08:38:47.000Z</time>
      </trkpt>
      <trkpt lat="44.11724" lon="7.39105">
        <ele>2633.4</ele>
        <time>2018-04-21T08:38:50.000Z</time>
      </trkpt>
      <trkpt lat="44.11725" lon="7.39105">
        <ele>2633</ele>
        <time>2018-04-21T08:38:54.000Z</time>
      </trkpt>
      <trkpt lat="44.11726" lon="7.39105">
        <ele>2632.6</ele>
        <time>2018-04-21T08:39:00.000Z</time>
      </trkpt>
      <trkpt lat="44.11731" lon="7.39104">
        <ele>2631.4</ele>
        <time>2018-04-21T08:39:06.000Z</time>
      </trkpt>
      <trkpt lat="44.11733" lon="7.39103">
        <ele>2631.3</ele>
        <time>2018-04-21T08:39:10.000Z</time>
      </trkpt>
      <trkpt lat="44.11737" lon="7.39103">
        <ele>2629.7</ele>
        <time>2018-04-21T08:39:15.000Z</time>
      </trkpt>
      <trkpt lat="44.11737" lon="7.39103">
        <ele>2629.7</ele>
        <time>2018-04-21T08:39:16.000Z</time>
      </trkpt>
      <trkpt lat="44.1174" lon="7.39103">
        <ele>2628.5</ele>
        <time>2018-04-21T08:39:20.000Z</time>
      </trkpt>
      <trkpt lat="44.11741" lon="7.39103">
        <ele>2628.1</ele>
        <time>2018-04-21T08:39:27.000Z</time>
      </trkpt>
      <trkpt lat="44.11743" lon="7.39103">
        <ele>2627.2</ele>
        <time>2018-04-21T08:39:33.000Z</time>
      </trkpt>
      <trkpt lat="44.11746" lon="7.39102">
        <ele>2626.6</ele>
        <time>2018-04-21T08:39:38.000Z</time>
      </trkpt>
      <trkpt lat="44.11746" lon="7.39102">
        <ele>2626.6</ele>
        <time>2018-04-21T08:39:39.000Z</time>
      </trkpt>
      <trkpt lat="44.1175" lon="7.391">
        <ele>2626</ele>
        <time>2018-04-21T08:39:45.000Z</time>
      </trkpt>
      <trkpt lat="44.1175" lon="7.391">
        <ele>2626</ele>
        <time>2018-04-21T08:39:46.000Z</time>
      </trkpt>
      <trkpt lat="44.11754" lon="7.39098">
        <ele>2626.3</ele>
        <time>2018-04-21T08:39:52.000Z</time>
      </trkpt>
      <trkpt lat="44.11758" lon="7.39096">
        <ele>2626.5</ele>
        <time>2018-04-21T08:39:58.000Z</time>
      </trkpt>
      <trkpt lat="44.11764" lon="7.39093">
        <ele>2626.6</ele>
        <time>2018-04-21T08:40:06.000Z</time>
      </trkpt>
      <trkpt lat="44.11768" lon="7.3909">
        <ele>2627</ele>
        <time>2018-04-21T08:40:12.000Z</time>
      </trkpt>
      <trkpt lat="44.1177" lon="7.39088">
        <ele>2627.3</ele>
        <time>2018-04-21T08:40:18.000Z</time>
      </trkpt>
      <trkpt lat="44.11772" lon="7.39086">
        <ele>2627.6</ele>
        <time>2018-04-21T08:40:25.000Z</time>
      </trkpt>
      <trkpt lat="44.11775" lon="7.39085">
        <ele>2627.2</ele>
        <time>2018-04-21T08:40:30.000Z</time>
      </trkpt>
      <trkpt lat="44.11778" lon="7.39084">
        <ele>2626.8</ele>
        <time>2018-04-21T08:40:34.000Z</time>
      </trkpt>
      <trkpt lat="44.11782" lon="7.39083">
        <ele>2628</ele>
        <time>2018-04-21T08:40:39.000Z</time>
      </trkpt>
      <trkpt lat="44.11786" lon="7.39082">
        <ele>2629.3</ele>
        <time>2018-04-21T08:40:45.000Z</time>
      </trkpt>
      <trkpt lat="44.11788" lon="7.39082">
        <ele>2629.6</ele>
        <time>2018-04-21T08:40:49.000Z</time>
      </trkpt>
      <trkpt lat="44.11789" lon="7.39081">
        <ele>2630.4</ele>
        <time>2018-04-21T08:40:50.000Z</time>
      </trkpt>
      <trkpt lat="44.11792" lon="7.39081">
        <ele>2630.9</ele>
        <time>2018-04-21T08:40:55.000Z</time>
      </trkpt>
      <trkpt lat="44.11793" lon="7.39081">
        <ele>2631.1</ele>
        <time>2018-04-21T08:40:58.000Z</time>
      </trkpt>
      <trkpt lat="44.11795" lon="7.39081">
        <ele>2631.4</ele>
        <time>2018-04-21T08:41:01.000Z</time>
      </trkpt>
      <trkpt lat="44.11798" lon="7.39082">
        <ele>2631.3</ele>
        <time>2018-04-21T08:41:06.000Z</time>
      </trkpt>
      <trkpt lat="44.11799" lon="7.39082">
        <ele>2631.5</ele>
        <time>2018-04-21T08:41:07.000Z</time>
      </trkpt>
      <trkpt lat="44.11802" lon="7.39082">
        <ele>2632</ele>
        <time>2018-04-21T08:41:13.000Z</time>
      </trkpt>
      <trkpt lat="44.11805" lon="7.39083">
        <ele>2632.1</ele>
        <time>2018-04-21T08:41:18.000Z</time>
      </trkpt>
      <trkpt lat="44.11806" lon="7.39084">
        <ele>2631.7</ele>
        <time>2018-04-21T08:41:20.000Z</time>
      </trkpt>
      <trkpt lat="44.11809" lon="7.39085">
        <ele>2631.6</ele>
        <time>2018-04-21T08:41:26.000Z</time>
      </trkpt>
      <trkpt lat="44.1181" lon="7.39085">
        <ele>2631.8</ele>
        <time>2018-04-21T08:41:28.000Z</time>
      </trkpt>
      <trkpt lat="44.11811" lon="7.39085">
        <ele>2632</ele>
        <time>2018-04-21T08:41:32.000Z</time>
      </trkpt>
      <trkpt lat="44.11812" lon="7.39085">
        <ele>2632.1</ele>
        <time>2018-04-21T08:41:35.000Z</time>
      </trkpt>
      <trkpt lat="44.11813" lon="7.39085">
        <ele>2632.3</ele>
        <time>2018-04-21T08:41:39.000Z</time>
      </trkpt>
      <trkpt lat="44.11815" lon="7.39084">
        <ele>2633.3</ele>
        <time>2018-04-21T08:41:41.000Z</time>
      </trkpt>
      <trkpt lat="44.11817" lon="7.39084">
        <ele>2633.6</ele>
        <time>2018-04-21T08:41:46.000Z</time>
      </trkpt>
      <trkpt lat="44.11818" lon="7.39083">
        <ele>2634.4</ele>
        <time>2018-04-21T08:41:52.000Z</time>
      </trkpt>
      <trkpt lat="44.11819" lon="7.39083">
        <ele>2634.6</ele>
        <time>2018-04-21T08:41:53.000Z</time>
      </trkpt>
      <trkpt lat="44.11821" lon="7.39083">
        <ele>2634.9</ele>
        <time>2018-04-21T08:41:59.000Z</time>
      </trkpt>
      <trkpt lat="44.11823" lon="7.39083">
        <ele>2635.3</ele>
        <time>2018-04-21T08:42:06.000Z</time>
      </trkpt>
      <trkpt lat="44.11826" lon="7.39081">
        <ele>2636.8</ele>
        <time>2018-04-21T08:42:12.000Z</time>
      </trkpt>
      <trkpt lat="44.11828" lon="7.39081">
        <ele>2637.1</ele>
        <time>2018-04-21T08:42:17.000Z</time>
      </trkpt>
      <trkpt lat="44.11829" lon="7.3908">
        <ele>2637.8</ele>
        <time>2018-04-21T08:42:19.000Z</time>
      </trkpt>
      <trkpt lat="44.11831" lon="7.39079">
        <ele>2638.6</ele>
        <time>2018-04-21T08:42:25.000Z</time>
      </trkpt>
      <trkpt lat="44.11834" lon="7.39078">
        <ele>2639.5</ele>
        <time>2018-04-21T08:42:30.000Z</time>
      </trkpt>
      <trkpt lat="44.11835" lon="7.39077">
        <ele>2639.9</ele>
        <time>2018-04-21T08:42:32.000Z</time>
      </trkpt>
      <trkpt lat="44.11836" lon="7.39076">
        <ele>2640.4</ele>
        <time>2018-04-21T08:42:34.000Z</time>
      </trkpt>
      <trkpt lat="44.11839" lon="7.39074">
        <ele>2641.2</ele>
        <time>2018-04-21T08:42:41.000Z</time>
      </trkpt>
      <trkpt lat="44.11841" lon="7.39073">
        <ele>2641.7</ele>
        <time>2018-04-21T08:42:45.000Z</time>
      </trkpt>
      <trkpt lat="44.11842" lon="7.39073">
        <ele>2641.6</ele>
        <time>2018-04-21T08:42:46.000Z</time>
      </trkpt>
      <trkpt lat="44.11843" lon="7.39073">
        <ele>2641.6</ele>
        <time>2018-04-21T08:42:47.000Z</time>
      </trkpt>
      <trkpt lat="44.11845" lon="7.39071">
        <ele>2642.5</ele>
        <time>2018-04-21T08:42:52.000Z</time>
      </trkpt>
      <trkpt lat="44.11848" lon="7.3907">
        <ele>2643</ele>
        <time>2018-04-21T08:42:56.000Z</time>
      </trkpt>
      <trkpt lat="44.11848" lon="7.3907">
        <ele>2643</ele>
        <time>2018-04-21T08:42:57.000Z</time>
      </trkpt>
      <trkpt lat="44.1185" lon="7.39069">
        <ele>2643.4</ele>
        <time>2018-04-21T08:43:00.000Z</time>
      </trkpt>
      <trkpt lat="44.11852" lon="7.39067">
        <ele>2644.4</ele>
        <time>2018-04-21T08:43:06.000Z</time>
      </trkpt>
      <trkpt lat="44.11854" lon="7.39066">
        <ele>2644.8</ele>
        <time>2018-04-21T08:43:11.000Z</time>
      </trkpt>
      <trkpt lat="44.11857" lon="7.39064">
        <ele>2645.8</ele>
        <time>2018-04-21T08:43:17.000Z</time>
      </trkpt>
      <trkpt lat="44.11858" lon="7.39065">
        <ele>2645.3</ele>
        <time>2018-04-21T08:43:18.000Z</time>
      </trkpt>
      <trkpt lat="44.11859" lon="7.39064">
        <ele>2645.8</ele>
        <time>2018-04-21T08:43:22.000Z</time>
      </trkpt>
      <trkpt lat="44.11859" lon="7.39064">
        <ele>2645.8</ele>
        <time>2018-04-21T08:43:24.000Z</time>
      </trkpt>
      <trkpt lat="44.11861" lon="7.39062">
        <ele>2646.8</ele>
        <time>2018-04-21T08:43:28.000Z</time>
      </trkpt>
      <trkpt lat="44.11864" lon="7.39061">
        <ele>2647.2</ele>
        <time>2018-04-21T08:43:34.000Z</time>
      </trkpt>
      <trkpt lat="44.11865" lon="7.3906">
        <ele>2647.6</ele>
        <time>2018-04-21T08:43:35.000Z</time>
      </trkpt>
      <trkpt lat="44.11867" lon="7.39059">
        <ele>2648.1</ele>
        <time>2018-04-21T08:43:40.000Z</time>
      </trkpt>
      <trkpt lat="44.11868" lon="7.39059">
        <ele>2648</ele>
        <time>2018-04-21T08:43:43.000Z</time>
      </trkpt>
      <trkpt lat="44.11869" lon="7.39058">
        <ele>2648.5</ele>
        <time>2018-04-21T08:43:46.000Z</time>
      </trkpt>
      <trkpt lat="44.11873" lon="7.39057">
        <ele>2648.9</ele>
        <time>2018-04-21T08:43:52.000Z</time>
      </trkpt>
      <trkpt lat="44.11875" lon="7.39056">
        <ele>2649.3</ele>
        <time>2018-04-21T08:43:55.000Z</time>
      </trkpt>
      <trkpt lat="44.11876" lon="7.39055">
        <ele>2649.9</ele>
        <time>2018-04-21T08:43:58.000Z</time>
      </trkpt>
      <trkpt lat="44.11878" lon="7.39054">
        <ele>2650.6</ele>
        <time>2018-04-21T08:44:03.000Z</time>
      </trkpt>
      <trkpt lat="44.11883" lon="7.39053">
        <ele>2651.2</ele>
        <time>2018-04-21T08:44:09.000Z</time>
      </trkpt>
      <trkpt lat="44.11883" lon="7.39052">
        <ele>2652</ele>
        <time>2018-04-21T08:44:10.000Z</time>
      </trkpt>
      <trkpt lat="44.11886" lon="7.39051">
        <ele>2652.6</ele>
        <time>2018-04-21T08:44:17.000Z</time>
      </trkpt>
      <trkpt lat="44.11887" lon="7.39051">
        <ele>2652.5</ele>
        <time>2018-04-21T08:44:18.000Z</time>
      </trkpt>
      <trkpt lat="44.1189" lon="7.39049">
        <ele>2653.9</ele>
        <time>2018-04-21T08:44:23.000Z</time>
      </trkpt>
      <trkpt lat="44.11893" lon="7.39048">
        <ele>2654.6</ele>
        <time>2018-04-21T08:44:28.000Z</time>
      </trkpt>
      <trkpt lat="44.11894" lon="7.39048">
        <ele>2654.6</ele>
        <time>2018-04-21T08:44:29.000Z</time>
      </trkpt>
      <trkpt lat="44.11895" lon="7.39047">
        <ele>2655.3</ele>
        <time>2018-04-21T08:44:33.000Z</time>
      </trkpt>
      <trkpt lat="44.11899" lon="7.39046">
        <ele>2655.8</ele>
        <time>2018-04-21T08:44:39.000Z</time>
      </trkpt>
      <trkpt lat="44.119" lon="7.39046">
        <ele>2655.8</ele>
        <time>2018-04-21T08:44:40.000Z</time>
      </trkpt>
      <trkpt lat="44.11901" lon="7.39046">
        <ele>2655.8</ele>
        <time>2018-04-21T08:44:45.000Z</time>
      </trkpt>
      <trkpt lat="44.11905" lon="7.39045">
        <ele>2656.2</ele>
        <time>2018-04-21T08:44:52.000Z</time>
      </trkpt>
      <trkpt lat="44.11904" lon="7.39045">
        <ele>2656.3</ele>
        <time>2018-04-21T08:44:59.000Z</time>
      </trkpt>
      <trkpt lat="44.11904" lon="7.39044">
        <ele>2656.9</ele>
        <time>2018-04-21T08:45:05.000Z</time>
      </trkpt>
      <trkpt lat="44.11903" lon="7.39044">
        <ele>2657</ele>
        <time>2018-04-21T08:45:14.000Z</time>
      </trkpt>
      <trkpt lat="44.11903" lon="7.39044">
        <ele>2657</ele>
        <time>2018-04-21T08:45:25.000Z</time>
      </trkpt>
      <trkpt lat="44.11904" lon="7.39045">
        <ele>2656.3</ele>
        <time>2018-04-21T08:45:30.000Z</time>
      </trkpt>
      <trkpt lat="44.11904" lon="7.39045">
        <ele>2656.3</ele>
        <time>2018-04-21T08:45:32.000Z</time>
      </trkpt>
      <trkpt lat="44.11906" lon="7.39044">
        <ele>2656.8</ele>
        <time>2018-04-21T08:45:38.000Z</time>
      </trkpt>
      <trkpt lat="44.1191" lon="7.39044">
        <ele>2656.6</ele>
        <time>2018-04-21T08:45:44.000Z</time>
      </trkpt>
      <trkpt lat="44.11913" lon="7.39044">
        <ele>2656.4</ele>
        <time>2018-04-21T08:45:49.000Z</time>
      </trkpt>
      <trkpt lat="44.11914" lon="7.39044">
        <ele>2656.4</ele>
        <time>2018-04-21T08:45:50.000Z</time>
      </trkpt>
      <trkpt lat="44.11918" lon="7.39043">
        <ele>2657.3</ele>
        <time>2018-04-21T08:45:57.000Z</time>
      </trkpt>
      <trkpt lat="44.1192" lon="7.39043">
        <ele>2658</ele>
        <time>2018-04-21T08:46:02.000Z</time>
      </trkpt>
      <trkpt lat="44.1192" lon="7.39043">
        <ele>2658</ele>
        <time>2018-04-21T08:46:03.000Z</time>
      </trkpt>
      <trkpt lat="44.11925" lon="7.39043">
        <ele>2659.9</ele>
        <time>2018-04-21T08:46:10.000Z</time>
      </trkpt>
      <trkpt lat="44.11928" lon="7.39044">
        <ele>2660.4</ele>
        <time>2018-04-21T08:46:16.000Z</time>
      </trkpt>
      <trkpt lat="44.11932" lon="7.39046">
        <ele>2660.7</ele>
        <time>2018-04-21T08:46:24.000Z</time>
      </trkpt>
      <trkpt lat="44.11933" lon="7.39046">
        <ele>2661.1</ele>
        <time>2018-04-21T08:46:26.000Z</time>
      </trkpt>
      <trkpt lat="44.11936" lon="7.39048">
        <ele>2660.9</ele>
        <time>2018-04-21T08:46:32.000Z</time>
      </trkpt>
      <trkpt lat="44.11938" lon="7.39049">
        <ele>2661</ele>
        <time>2018-04-21T08:46:36.000Z</time>
      </trkpt>
      <trkpt lat="44.1194" lon="7.3905">
        <ele>2661.1</ele>
        <time>2018-04-21T08:46:41.000Z</time>
      </trkpt>
      <trkpt lat="44.11943" lon="7.39051">
        <ele>2661.5</ele>
        <time>2018-04-21T08:46:47.000Z</time>
      </trkpt>
      <trkpt lat="44.11945" lon="7.39052">
        <ele>2661.6</ele>
        <time>2018-04-21T08:46:49.000Z</time>
      </trkpt>
      <trkpt lat="44.11946" lon="7.39053">
        <ele>2661.5</ele>
        <time>2018-04-21T08:46:52.000Z</time>
      </trkpt>
      <trkpt lat="44.11947" lon="7.39053">
        <ele>2662</ele>
        <time>2018-04-21T08:46:58.000Z</time>
      </trkpt>
      <trkpt lat="44.11951" lon="7.39054">
        <ele>2663.4</ele>
        <time>2018-04-21T08:47:05.000Z</time>
      </trkpt>
      <trkpt lat="44.11952" lon="7.39055">
        <ele>2663.2</ele>
        <time>2018-04-21T08:47:10.000Z</time>
      </trkpt>
      <trkpt lat="44.11955" lon="7.39057">
        <ele>2663.8</ele>
        <time>2018-04-21T08:47:16.000Z</time>
      </trkpt>
      <trkpt lat="44.11957" lon="7.39058">
        <ele>2664.5</ele>
        <time>2018-04-21T08:47:20.000Z</time>
      </trkpt>
      <trkpt lat="44.11958" lon="7.39059">
        <ele>2664.7</ele>
        <time>2018-04-21T08:47:25.000Z</time>
      </trkpt>
      <trkpt lat="44.11959" lon="7.39059">
        <ele>2665.2</ele>
        <time>2018-04-21T08:47:26.000Z</time>
      </trkpt>
      <trkpt lat="44.11962" lon="7.3906">
        <ele>2666.3</ele>
        <time>2018-04-21T08:47:32.000Z</time>
      </trkpt>
      <trkpt lat="44.11963" lon="7.39061">
        <ele>2666.5</ele>
        <time>2018-04-21T08:47:38.000Z</time>
      </trkpt>
      <trkpt lat="44.11966" lon="7.39062">
        <ele>2667.6</ele>
        <time>2018-04-21T08:47:44.000Z</time>
      </trkpt>
      <trkpt lat="44.11966" lon="7.39063">
        <ele>2667.2</ele>
        <time>2018-04-21T08:47:45.000Z</time>
      </trkpt>
      <trkpt lat="44.11968" lon="7.39064">
        <ele>2667.9</ele>
        <time>2018-04-21T08:47:49.000Z</time>
      </trkpt>
      <trkpt lat="44.11971" lon="7.39066">
        <ele>2668.6</ele>
        <time>2018-04-21T08:47:56.000Z</time>
      </trkpt>
      <trkpt lat="44.11973" lon="7.39067">
        <ele>2669.4</ele>
        <time>2018-04-21T08:48:02.000Z</time>
      </trkpt>
      <trkpt lat="44.11976" lon="7.39069">
        <ele>2670.8</ele>
        <time>2018-04-21T08:48:07.000Z</time>
      </trkpt>
      <trkpt lat="44.11978" lon="7.39071">
        <ele>2671.3</ele>
        <time>2018-04-21T08:48:12.000Z</time>
      </trkpt>
      <trkpt lat="44.1198" lon="7.39074">
        <ele>2671.4</ele>
        <time>2018-04-21T08:48:17.000Z</time>
      </trkpt>
      <trkpt lat="44.11982" lon="7.39075">
        <ele>2672.3</ele>
        <time>2018-04-21T08:48:23.000Z</time>
      </trkpt>
      <trkpt lat="44.11983" lon="7.39076">
        <ele>2672.5</ele>
        <time>2018-04-21T08:48:32.000Z</time>
      </trkpt>
      <trkpt lat="44.11985" lon="7.3908">
        <ele>2671.9</ele>
        <time>2018-04-21T08:48:37.000Z</time>
      </trkpt>
      <trkpt lat="44.11986" lon="7.3908">
        <ele>2672.5</ele>
        <time>2018-04-21T08:48:38.000Z</time>
      </trkpt>
      <trkpt lat="44.11987" lon="7.39082">
        <ele>2672.1</ele>
        <time>2018-04-21T08:48:42.000Z</time>
      </trkpt>
      <trkpt lat="44.11987" lon="7.39082">
        <ele>2672.1</ele>
        <time>2018-04-21T08:48:43.000Z</time>
      </trkpt>
      <trkpt lat="44.11989" lon="7.39084">
        <ele>2672.5</ele>
        <time>2018-04-21T08:48:48.000Z</time>
      </trkpt>
      <trkpt lat="44.11992" lon="7.39085">
        <ele>2674</ele>
        <time>2018-04-21T08:48:52.000Z</time>
      </trkpt>
      <trkpt lat="44.11992" lon="7.39086">
        <ele>2673.7</ele>
        <time>2018-04-21T08:48:54.000Z</time>
      </trkpt>
      <trkpt lat="44.11993" lon="7.39087">
        <ele>2674</ele>
        <time>2018-04-21T08:48:57.000Z</time>
      </trkpt>
      <trkpt lat="44.11995" lon="7.39089">
        <ele>2674.6</ele>
        <time>2018-04-21T08:49:00.000Z</time>
      </trkpt>
      <trkpt lat="44.11996" lon="7.3909">
        <ele>2674.9</ele>
        <time>2018-04-21T08:49:04.000Z</time>
      </trkpt>
      <trkpt lat="44.11997" lon="7.39091">
        <ele>2675.2</ele>
        <time>2018-04-21T08:49:06.000Z</time>
      </trkpt>
      <trkpt lat="44.12" lon="7.39093">
        <ele>2676.2</ele>
        <time>2018-04-21T08:49:13.000Z</time>
      </trkpt>
      <trkpt lat="44.12" lon="7.39093">
        <ele>2676.2</ele>
        <time>2018-04-21T08:49:14.000Z</time>
      </trkpt>
      <trkpt lat="44.12002" lon="7.39094">
        <ele>2677.1</ele>
        <time>2018-04-21T08:49:18.000Z</time>
      </trkpt>
      <trkpt lat="44.12004" lon="7.39095">
        <ele>2677.9</ele>
        <time>2018-04-21T08:49:23.000Z</time>
      </trkpt>
      <trkpt lat="44.12006" lon="7.39096">
        <ele>2678.7</ele>
        <time>2018-04-21T08:49:25.000Z</time>
      </trkpt>
      <trkpt lat="44.12007" lon="7.39097">
        <ele>2679</ele>
        <time>2018-04-21T08:49:28.000Z</time>
      </trkpt>
      <trkpt lat="44.12009" lon="7.39099">
        <ele>2679.4</ele>
        <time>2018-04-21T08:49:33.000Z</time>
      </trkpt>
      <trkpt lat="44.12011" lon="7.39099">
        <ele>2680.5</ele>
        <time>2018-04-21T08:49:35.000Z</time>
      </trkpt>
      <trkpt lat="44.12013" lon="7.39101">
        <ele>2681</ele>
        <time>2018-04-21T08:49:40.000Z</time>
      </trkpt>
      <trkpt lat="44.12014" lon="7.39102">
        <ele>2681.2</ele>
        <time>2018-04-21T08:49:43.000Z</time>
      </trkpt>
      <trkpt lat="44.12015" lon="7.39102">
        <ele>2681.7</ele>
        <time>2018-04-21T08:49:47.000Z</time>
      </trkpt>
      <trkpt lat="44.12017" lon="7.39104">
        <ele>2682.1</ele>
        <time>2018-04-21T08:49:51.000Z</time>
      </trkpt>
      <trkpt lat="44.12018" lon="7.39104">
        <ele>2682.6</ele>
        <time>2018-04-21T08:49:53.000Z</time>
      </trkpt>
      <trkpt lat="44.1202" lon="7.39106">
        <ele>2682.9</ele>
        <time>2018-04-21T08:49:58.000Z</time>
      </trkpt>
      <trkpt lat="44.12021" lon="7.39106">
        <ele>2683.5</ele>
        <time>2018-04-21T08:50:01.000Z</time>
      </trkpt>
      <trkpt lat="44.12022" lon="7.39107">
        <ele>2683.6</ele>
        <time>2018-04-21T08:50:03.000Z</time>
      </trkpt>
      <trkpt lat="44.12024" lon="7.39109">
        <ele>2683.9</ele>
        <time>2018-04-21T08:50:09.000Z</time>
      </trkpt>
      <trkpt lat="44.12025" lon="7.3911">
        <ele>2684</ele>
        <time>2018-04-21T08:50:12.000Z</time>
      </trkpt>
      <trkpt lat="44.12025" lon="7.39111">
        <ele>2683.6</ele>
        <time>2018-04-21T08:50:15.000Z</time>
      </trkpt>
      <trkpt lat="44.12027" lon="7.39112">
        <ele>2684.6</ele>
        <time>2018-04-21T08:50:20.000Z</time>
      </trkpt>
      <trkpt lat="44.12028" lon="7.39113">
        <ele>2685</ele>
        <time>2018-04-21T08:50:23.000Z</time>
      </trkpt>
      <trkpt lat="44.12029" lon="7.39113">
        <ele>2685.5</ele>
        <time>2018-04-21T08:50:25.000Z</time>
      </trkpt>
      <trkpt lat="44.12031" lon="7.39115">
        <ele>2686.2</ele>
        <time>2018-04-21T08:50:30.000Z</time>
      </trkpt>
      <trkpt lat="44.12032" lon="7.39115">
        <ele>2686.7</ele>
        <time>2018-04-21T08:50:33.000Z</time>
      </trkpt>
      <trkpt lat="44.12033" lon="7.39116">
        <ele>2687</ele>
        <time>2018-04-21T08:50:36.000Z</time>
      </trkpt>
      <trkpt lat="44.12032" lon="7.39116">
        <ele>2686.6</ele>
        <time>2018-04-21T08:50:43.000Z</time>
      </trkpt>
      <trkpt lat="44.12032" lon="7.39116">
        <ele>2686.6</ele>
        <time>2018-04-21T08:50:44.000Z</time>
      </trkpt>
      <trkpt lat="44.12031" lon="7.39115">
        <ele>2686.2</ele>
        <time>2018-04-21T08:50:57.000Z</time>
      </trkpt>
      <trkpt lat="44.12031" lon="7.39115">
        <ele>2686.2</ele>
        <time>2018-04-21T08:51:13.000Z</time>
      </trkpt>
      <trkpt lat="44.12033" lon="7.39117">
        <ele>2687</ele>
        <time>2018-04-21T08:51:20.000Z</time>
      </trkpt>
      <trkpt lat="44.12034" lon="7.39118">
        <ele>2687.4</ele>
        <time>2018-04-21T08:51:22.000Z</time>
      </trkpt>
      <trkpt lat="44.12035" lon="7.39119">
        <ele>2687.8</ele>
        <time>2018-04-21T08:51:26.000Z</time>
      </trkpt>
      <trkpt lat="44.12037" lon="7.39123">
        <ele>2688.4</ele>
        <time>2018-04-21T08:51:32.000Z</time>
      </trkpt>
      <trkpt lat="44.12036" lon="7.39122">
        <ele>2688</ele>
        <time>2018-04-21T08:51:33.000Z</time>
      </trkpt>
      <trkpt lat="44.12039" lon="7.39125">
        <ele>2689.1</ele>
        <time>2018-04-21T08:51:37.000Z</time>
      </trkpt>
      <trkpt lat="44.12039" lon="7.39125">
        <ele>2689.1</ele>
        <time>2018-04-21T08:51:40.000Z</time>
      </trkpt>
      <trkpt lat="44.1204" lon="7.39127">
        <ele>2689.5</ele>
        <time>2018-04-21T08:51:44.000Z</time>
      </trkpt>
      <trkpt lat="44.12041" lon="7.39129">
        <ele>2689.8</ele>
        <time>2018-04-21T08:51:49.000Z</time>
      </trkpt>
      <trkpt lat="44.12042" lon="7.39129">
        <ele>2690.2</ele>
        <time>2018-04-21T08:51:50.000Z</time>
      </trkpt>
      <trkpt lat="44.12043" lon="7.39132">
        <ele>2690.4</ele>
        <time>2018-04-21T08:51:56.000Z</time>
      </trkpt>
      <trkpt lat="44.12044" lon="7.39132">
        <ele>2690.8</ele>
        <time>2018-04-21T08:52:02.000Z</time>
      </trkpt>
      <trkpt lat="44.12045" lon="7.39132">
        <ele>2691.2</ele>
        <time>2018-04-21T08:52:04.000Z</time>
      </trkpt>
      <trkpt lat="44.12046" lon="7.39131">
        <ele>2691.7</ele>
        <time>2018-04-21T08:52:07.000Z</time>
      </trkpt>
      <trkpt lat="44.12048" lon="7.3913">
        <ele>2692.6</ele>
        <time>2018-04-21T08:52:11.000Z</time>
      </trkpt>
      <trkpt lat="44.12048" lon="7.39129">
        <ele>2692.6</ele>
        <time>2018-04-21T08:52:13.000Z</time>
      </trkpt>
      <trkpt lat="44.1205" lon="7.39127">
        <ele>2693.6</ele>
        <time>2018-04-21T08:52:18.000Z</time>
      </trkpt>
      <trkpt lat="44.12051" lon="7.39126">
        <ele>2694</ele>
        <time>2018-04-21T08:52:19.000Z</time>
      </trkpt>
      <trkpt lat="44.12052" lon="7.39125">
        <ele>2694.5</ele>
        <time>2018-04-21T08:52:23.000Z</time>
      </trkpt>
      <trkpt lat="44.12053" lon="7.39124">
        <ele>2695</ele>
        <time>2018-04-21T08:52:27.000Z</time>
      </trkpt>
      <trkpt lat="44.12054" lon="7.39122">
        <ele>2695.6</ele>
        <time>2018-04-21T08:52:31.000Z</time>
      </trkpt>
      <trkpt lat="44.12055" lon="7.39122">
        <ele>2696</ele>
        <time>2018-04-21T08:52:32.000Z</time>
      </trkpt>
      <trkpt lat="44.12057" lon="7.39121">
        <ele>2696.7</ele>
        <time>2018-04-21T08:52:37.000Z</time>
      </trkpt>
      <trkpt lat="44.12057" lon="7.3912">
        <ele>2696.8</ele>
        <time>2018-04-21T08:52:40.000Z</time>
      </trkpt>
      <trkpt lat="44.12059" lon="7.39119">
        <ele>2697.5</ele>
        <time>2018-04-21T08:52:43.000Z</time>
      </trkpt>
      <trkpt lat="44.1206" lon="7.39119">
        <ele>2697.8</ele>
        <time>2018-04-21T08:52:47.000Z</time>
      </trkpt>
      <trkpt lat="44.1206" lon="7.39119">
        <ele>2697.8</ele>
        <time>2018-04-21T08:52:49.000Z</time>
      </trkpt>
      <trkpt lat="44.12063" lon="7.3912">
        <ele>2698.7</ele>
        <time>2018-04-21T08:52:53.000Z</time>
      </trkpt>
      <trkpt lat="44.12063" lon="7.3912">
        <ele>2698.7</ele>
        <time>2018-04-21T08:52:54.000Z</time>
      </trkpt>
      <trkpt lat="44.12066" lon="7.39121">
        <ele>2699.5</ele>
        <time>2018-04-21T08:53:00.000Z</time>
      </trkpt>
      <trkpt lat="44.12067" lon="7.39122">
        <ele>2699.8</ele>
        <time>2018-04-21T08:53:02.000Z</time>
      </trkpt>
      <trkpt lat="44.12068" lon="7.39123">
        <ele>2700</ele>
        <time>2018-04-21T08:53:06.000Z</time>
      </trkpt>
      <trkpt lat="44.12071" lon="7.39125">
        <ele>2700.7</ele>
        <time>2018-04-21T08:53:12.000Z</time>
      </trkpt>
      <trkpt lat="44.12073" lon="7.39127">
        <ele>2701.1</ele>
        <time>2018-04-21T08:53:18.000Z</time>
      </trkpt>
      <trkpt lat="44.12075" lon="7.39128">
        <ele>2701.7</ele>
        <time>2018-04-21T08:53:24.000Z</time>
      </trkpt>
      <trkpt lat="44.12075" lon="7.39128">
        <ele>2701.7</ele>
        <time>2018-04-21T08:53:27.000Z</time>
      </trkpt>
      <trkpt lat="44.12075" lon="7.39128">
        <ele>2701.7</ele>
        <time>2018-04-21T08:53:30.000Z</time>
      </trkpt>
      <trkpt lat="44.12075" lon="7.39129">
        <ele>2701.6</ele>
        <time>2018-04-21T08:53:41.000Z</time>
      </trkpt>
      <trkpt lat="44.12074" lon="7.3913">
        <ele>2701.2</ele>
        <time>2018-04-21T08:53:48.000Z</time>
      </trkpt>
      <trkpt lat="44.12074" lon="7.3913">
        <ele>2701.2</ele>
        <time>2018-04-21T08:53:54.000Z</time>
      </trkpt>
      <trkpt lat="44.12074" lon="7.3913">
        <ele>2701.2</ele>
        <time>2018-04-21T08:53:58.000Z</time>
      </trkpt>
      <trkpt lat="44.12073" lon="7.39129">
        <ele>2701</ele>
        <time>2018-04-21T08:54:03.000Z</time>
      </trkpt>
      <trkpt lat="44.12075" lon="7.39125">
        <ele>2702</ele>
        <time>2018-04-21T08:54:08.000Z</time>
      </trkpt>
      <trkpt lat="44.12075" lon="7.39125">
        <ele>2702</ele>
        <time>2018-04-21T08:54:09.000Z</time>
      </trkpt>
      <trkpt lat="44.12075" lon="7.39125">
        <ele>2702</ele>
        <time>2018-04-21T08:54:16.000Z</time>
      </trkpt>
      <trkpt lat="44.12076" lon="7.39125">
        <ele>2702.3</ele>
        <time>2018-04-21T08:54:19.000Z</time>
      </trkpt>
      <trkpt lat="44.12078" lon="7.39125">
        <ele>2702.9</ele>
        <time>2018-04-21T08:54:21.000Z</time>
      </trkpt>
      <trkpt lat="44.12079" lon="7.39125">
        <ele>2703.2</ele>
        <time>2018-04-21T08:54:24.000Z</time>
      </trkpt>
      <trkpt lat="44.1208" lon="7.39125">
        <ele>2703.5</ele>
        <time>2018-04-21T08:54:27.000Z</time>
      </trkpt>
      <trkpt lat="44.12083" lon="7.39125">
        <ele>2704.4</ele>
        <time>2018-04-21T08:54:31.000Z</time>
      </trkpt>
      <trkpt lat="44.12084" lon="7.39126">
        <ele>2704.6</ele>
        <time>2018-04-21T08:54:32.000Z</time>
      </trkpt>
      <trkpt lat="44.12087" lon="7.39125">
        <ele>2705.7</ele>
        <time>2018-04-21T08:54:37.000Z</time>
      </trkpt>
      <trkpt lat="44.12089" lon="7.39125">
        <ele>2706.3</ele>
        <time>2018-04-21T08:54:42.000Z</time>
      </trkpt>
      <trkpt lat="44.1209" lon="7.39125">
        <ele>2706.7</ele>
        <time>2018-04-21T08:54:44.000Z</time>
      </trkpt>
      <trkpt lat="44.12091" lon="7.39124">
        <ele>2707.1</ele>
        <time>2018-04-21T08:54:47.000Z</time>
      </trkpt>
      <trkpt lat="44.12093" lon="7.39124">
        <ele>2707.8</ele>
        <time>2018-04-21T08:54:50.000Z</time>
      </trkpt>
      <trkpt lat="44.12094" lon="7.39124">
        <ele>2708.1</ele>
        <time>2018-04-21T08:54:52.000Z</time>
      </trkpt>
      <trkpt lat="44.12096" lon="7.39124">
        <ele>2708.7</ele>
        <time>2018-04-21T08:54:58.000Z</time>
      </trkpt>
      <trkpt lat="44.12098" lon="7.39125">
        <ele>2709.3</ele>
        <time>2018-04-21T08:55:03.000Z</time>
      </trkpt>
      <trkpt lat="44.121" lon="7.39126">
        <ele>2709.7</ele>
        <time>2018-04-21T08:55:06.000Z</time>
      </trkpt>
      <trkpt lat="44.12101" lon="7.39126">
        <ele>2710.1</ele>
        <time>2018-04-21T08:55:07.000Z</time>
      </trkpt>
      <trkpt lat="44.12102" lon="7.39127">
        <ele>2710.2</ele>
        <time>2018-04-21T08:55:10.000Z</time>
      </trkpt>
      <trkpt lat="44.12102" lon="7.39127">
        <ele>2710.2</ele>
        <time>2018-04-21T08:55:12.000Z</time>
      </trkpt>
      <trkpt lat="44.12105" lon="7.39129">
        <ele>2710.9</ele>
        <time>2018-04-21T08:55:18.000Z</time>
      </trkpt>
      <trkpt lat="44.12108" lon="7.39129">
        <ele>2711.8</ele>
        <time>2018-04-21T08:55:24.000Z</time>
      </trkpt>
      <trkpt lat="44.12108" lon="7.39129">
        <ele>2711.8</ele>
        <time>2018-04-21T08:55:27.000Z</time>
      </trkpt>
      <trkpt lat="44.1211" lon="7.39129">
        <ele>2712.4</ele>
        <time>2018-04-21T08:55:29.000Z</time>
      </trkpt>
      <trkpt lat="44.12112" lon="7.3913">
        <ele>2712.9</ele>
        <time>2018-04-21T08:55:35.000Z</time>
      </trkpt>
      <trkpt lat="44.12115" lon="7.39129">
        <ele>2714.1</ele>
        <time>2018-04-21T08:55:41.000Z</time>
      </trkpt>
      <trkpt lat="44.12116" lon="7.39129">
        <ele>2714.4</ele>
        <time>2018-04-21T08:55:46.000Z</time>
      </trkpt>
      <trkpt lat="44.12117" lon="7.39129">
        <ele>2714.8</ele>
        <time>2018-04-21T08:55:47.000Z</time>
      </trkpt>
      <trkpt lat="44.12118" lon="7.39129">
        <ele>2715.1</ele>
        <time>2018-04-21T08:55:53.000Z</time>
      </trkpt>
      <trkpt lat="44.1212" lon="7.39128">
        <ele>2716</ele>
        <time>2018-04-21T08:55:55.000Z</time>
      </trkpt>
      <trkpt lat="44.12122" lon="7.39128">
        <ele>2716.6</ele>
        <time>2018-04-21T08:55:59.000Z</time>
      </trkpt>
      <trkpt lat="44.12123" lon="7.39128">
        <ele>2717</ele>
        <time>2018-04-21T08:56:01.000Z</time>
      </trkpt>
      <trkpt lat="44.12125" lon="7.39128">
        <ele>2717.7</ele>
        <time>2018-04-21T08:56:05.000Z</time>
      </trkpt>
      <trkpt lat="44.12126" lon="7.39128">
        <ele>2718</ele>
        <time>2018-04-21T08:56:08.000Z</time>
      </trkpt>
      <trkpt lat="44.12127" lon="7.39128">
        <ele>2718.3</ele>
        <time>2018-04-21T08:56:11.000Z</time>
      </trkpt>
      <trkpt lat="44.12129" lon="7.39128">
        <ele>2719</ele>
        <time>2018-04-21T08:56:15.000Z</time>
      </trkpt>
      <trkpt lat="44.12129" lon="7.39128">
        <ele>2719</ele>
        <time>2018-04-21T08:56:18.000Z</time>
      </trkpt>
      <trkpt lat="44.12132" lon="7.39128">
        <ele>2720</ele>
        <time>2018-04-21T08:56:23.000Z</time>
      </trkpt>
      <trkpt lat="44.12133" lon="7.39129">
        <ele>2720.2</ele>
        <time>2018-04-21T08:56:25.000Z</time>
      </trkpt>
      <trkpt lat="44.12134" lon="7.39129">
        <ele>2720.5</ele>
        <time>2018-04-21T08:56:29.000Z</time>
      </trkpt>
      <trkpt lat="44.12134" lon="7.39128">
        <ele>2720.7</ele>
        <time>2018-04-21T08:56:33.000Z</time>
      </trkpt>
      <trkpt lat="44.12133" lon="7.3913">
        <ele>2719.9</ele>
        <time>2018-04-21T08:56:46.000Z</time>
      </trkpt>
      <trkpt lat="44.12132" lon="7.39131">
        <ele>2719.4</ele>
        <time>2018-04-21T08:56:54.000Z</time>
      </trkpt>
      <trkpt lat="44.12132" lon="7.39133">
        <ele>2719</ele>
        <time>2018-04-21T08:57:06.000Z</time>
      </trkpt>
      <trkpt lat="44.12132" lon="7.39133">
        <ele>2719</ele>
        <time>2018-04-21T08:57:08.000Z</time>
      </trkpt>
      <trkpt lat="44.12135" lon="7.39133">
        <ele>2720</ele>
        <time>2018-04-21T08:57:12.000Z</time>
      </trkpt>
      <trkpt lat="44.12137" lon="7.39133">
        <ele>2720.6</ele>
        <time>2018-04-21T08:57:16.000Z</time>
      </trkpt>
      <trkpt lat="44.12137" lon="7.39133">
        <ele>2720.6</ele>
        <time>2018-04-21T08:57:17.000Z</time>
      </trkpt>
      <trkpt lat="44.12141" lon="7.39133">
        <ele>2721.9</ele>
        <time>2018-04-21T08:57:22.000Z</time>
      </trkpt>
      <trkpt lat="44.12142" lon="7.39133">
        <ele>2722.2</ele>
        <time>2018-04-21T08:57:24.000Z</time>
      </trkpt>
      <trkpt lat="44.12143" lon="7.39133">
        <ele>2722.5</ele>
        <time>2018-04-21T08:57:27.000Z</time>
      </trkpt>
      <trkpt lat="44.12146" lon="7.39133">
        <ele>2723.4</ele>
        <time>2018-04-21T08:57:31.000Z</time>
      </trkpt>
      <trkpt lat="44.12145" lon="7.39133">
        <ele>2723.1</ele>
        <time>2018-04-21T08:57:32.000Z</time>
      </trkpt>
      <trkpt lat="44.12148" lon="7.39133">
        <ele>2724</ele>
        <time>2018-04-21T08:57:37.000Z</time>
      </trkpt>
      <trkpt lat="44.1215" lon="7.39134">
        <ele>2724.3</ele>
        <time>2018-04-21T08:57:41.000Z</time>
      </trkpt>
      <trkpt lat="44.1215" lon="7.39134">
        <ele>2724.3</ele>
        <time>2018-04-21T08:57:43.000Z</time>
      </trkpt>
      <trkpt lat="44.12152" lon="7.39134">
        <ele>2724.9</ele>
        <time>2018-04-21T08:57:48.000Z</time>
      </trkpt>
      <trkpt lat="44.12154" lon="7.39134">
        <ele>2725.5</ele>
        <time>2018-04-21T08:57:49.000Z</time>
      </trkpt>
      <trkpt lat="44.12156" lon="7.39134">
        <ele>2726.1</ele>
        <time>2018-04-21T08:57:54.000Z</time>
      </trkpt>
      <trkpt lat="44.12158" lon="7.39134">
        <ele>2726.7</ele>
        <time>2018-04-21T08:57:59.000Z</time>
      </trkpt>
      <trkpt lat="44.12157" lon="7.39134">
        <ele>2726.4</ele>
        <time>2018-04-21T08:58:00.000Z</time>
      </trkpt>
      <trkpt lat="44.1216" lon="7.39134">
        <ele>2727.3</ele>
        <time>2018-04-21T08:58:06.000Z</time>
      </trkpt>
      <trkpt lat="44.1216" lon="7.39134">
        <ele>2727.3</ele>
        <time>2018-04-21T08:58:07.000Z</time>
      </trkpt>
      <trkpt lat="44.12162" lon="7.39134">
        <ele>2727.9</ele>
        <time>2018-04-21T08:58:09.000Z</time>
      </trkpt>
      <trkpt lat="44.12162" lon="7.39134">
        <ele>2727.9</ele>
        <time>2018-04-21T08:58:11.000Z</time>
      </trkpt>
      <trkpt lat="44.12164" lon="7.39134">
        <ele>2728.4</ele>
        <time>2018-04-21T08:58:14.000Z</time>
      </trkpt>
      <trkpt lat="44.12165" lon="7.39134">
        <ele>2728.7</ele>
        <time>2018-04-21T08:58:16.000Z</time>
      </trkpt>
      <trkpt lat="44.12166" lon="7.39134">
        <ele>2729</ele>
        <time>2018-04-21T08:58:18.000Z</time>
      </trkpt>
      <trkpt lat="44.12167" lon="7.39133">
        <ele>2729.6</ele>
        <time>2018-04-21T08:58:21.000Z</time>
      </trkpt>
      <trkpt lat="44.12168" lon="7.39133">
        <ele>2730</ele>
        <time>2018-04-21T08:58:25.000Z</time>
      </trkpt>
      <trkpt lat="44.12169" lon="7.39133">
        <ele>2730.3</ele>
        <time>2018-04-21T08:58:26.000Z</time>
      </trkpt>
      <trkpt lat="44.12171" lon="7.39132">
        <ele>2731.3</ele>
        <time>2018-04-21T08:58:31.000Z</time>
      </trkpt>
      <trkpt lat="44.12172" lon="7.39133">
        <ele>2731.4</ele>
        <time>2018-04-21T08:58:35.000Z</time>
      </trkpt>
      <trkpt lat="44.12171" lon="7.39133">
        <ele>2731</ele>
        <time>2018-04-21T08:58:37.000Z</time>
      </trkpt>
      <trkpt lat="44.12171" lon="7.39134">
        <ele>2730.8</ele>
        <time>2018-04-21T08:58:43.000Z</time>
      </trkpt>
      <trkpt lat="44.12172" lon="7.39133">
        <ele>2731.4</ele>
        <time>2018-04-21T08:58:49.000Z</time>
      </trkpt>
      <trkpt lat="44.12171" lon="7.39134">
        <ele>2730.8</ele>
        <time>2018-04-21T08:59:06.000Z</time>
      </trkpt>
      <trkpt lat="44.12168" lon="7.39136">
        <ele>2729.2</ele>
        <time>2018-04-21T08:59:23.000Z</time>
      </trkpt>
      <trkpt lat="44.12167" lon="7.39137">
        <ele>2728.6</ele>
        <time>2018-04-21T08:59:40.000Z</time>
      </trkpt>
      <trkpt lat="44.12167" lon="7.39137">
        <ele>2728.6</ele>
        <time>2018-04-21T08:59:50.000Z</time>
      </trkpt>
      <trkpt lat="44.12166" lon="7.39136">
        <ele>2728.5</ele>
        <time>2018-04-21T08:59:56.000Z</time>
      </trkpt>
      <trkpt lat="44.12165" lon="7.39136">
        <ele>2728.2</ele>
        <time>2018-04-21T09:00:03.000Z</time>
      </trkpt>
      <trkpt lat="44.12165" lon="7.39137">
        <ele>2728</ele>
        <time>2018-04-21T09:00:04.000Z</time>
      </trkpt>
      <trkpt lat="44.12164" lon="7.39137">
        <ele>2727.7</ele>
        <time>2018-04-21T09:00:14.000Z</time>
      </trkpt>
      <trkpt lat="44.12163" lon="7.39137">
        <ele>2727.4</ele>
        <time>2018-04-21T09:00:24.000Z</time>
      </trkpt>
      <trkpt lat="44.12163" lon="7.39137">
        <ele>2727.4</ele>
        <time>2018-04-21T09:00:29.000Z</time>
      </trkpt>
      <trkpt lat="44.12163" lon="7.39138">
        <ele>2727.2</ele>
        <time>2018-04-21T09:00:36.000Z</time>
      </trkpt>
      <trkpt lat="44.12165" lon="7.39136">
        <ele>2728.2</ele>
        <time>2018-04-21T09:00:48.000Z</time>
      </trkpt>
      <trkpt lat="44.12167" lon="7.39134">
        <ele>2729.4</ele>
        <time>2018-04-21T09:00:53.000Z</time>
      </trkpt>
      <trkpt lat="44.12169" lon="7.39132">
        <ele>2730.6</ele>
        <time>2018-04-21T09:00:58.000Z</time>
      </trkpt>
      <trkpt lat="44.12171" lon="7.39128">
        <ele>2732.3</ele>
        <time>2018-04-21T09:01:05.000Z</time>
      </trkpt>
      <trkpt lat="44.12172" lon="7.39125">
        <ele>2733.4</ele>
        <time>2018-04-21T09:01:10.000Z</time>
      </trkpt>
      <trkpt lat="44.12172" lon="7.39124">
        <ele>2733.7</ele>
        <time>2018-04-21T09:01:11.000Z</time>
      </trkpt>
      <trkpt lat="44.12173" lon="7.3912">
        <ele>2735</ele>
        <time>2018-04-21T09:01:16.000Z</time>
      </trkpt>
      <trkpt lat="44.12174" lon="7.39118">
        <ele>2735.9</ele>
        <time>2018-04-21T09:01:19.000Z</time>
      </trkpt>
      <trkpt lat="44.12174" lon="7.39117">
        <ele>2736.2</ele>
        <time>2018-04-21T09:01:21.000Z</time>
      </trkpt>
      <trkpt lat="44.12175" lon="7.39113">
        <ele>2737.5</ele>
        <time>2018-04-21T09:01:26.000Z</time>
      </trkpt>
      <trkpt lat="44.12176" lon="7.39112">
        <ele>2738.1</ele>
        <time>2018-04-21T09:01:29.000Z</time>
      </trkpt>
      <trkpt lat="44.12176" lon="7.39111">
        <ele>2738.4</ele>
        <time>2018-04-21T09:01:30.000Z</time>
      </trkpt>
      <trkpt lat="44.12176" lon="7.39108">
        <ele>2739.6</ele>
        <time>2018-04-21T09:01:35.000Z</time>
      </trkpt>
      <trkpt lat="44.12176" lon="7.39107">
        <ele>2739.9</ele>
        <time>2018-04-21T09:01:36.000Z</time>
      </trkpt>
      <trkpt lat="44.12176" lon="7.39107">
        <ele>2739.9</ele>
        <time>2018-04-21T09:01:41.000Z</time>
      </trkpt>
      <trkpt lat="44.12177" lon="7.39105">
        <ele>2741.1</ele>
        <time>2018-04-21T09:01:48.000Z</time>
      </trkpt>
      <trkpt lat="44.12177" lon="7.39101">
        <ele>2742.6</ele>
        <time>2018-04-21T09:01:55.000Z</time>
      </trkpt>
      <trkpt lat="44.12177" lon="7.39099">
        <ele>2743.4</ele>
        <time>2018-04-21T09:01:58.000Z</time>
      </trkpt>
      <trkpt lat="44.12177" lon="7.39098">
        <ele>2743.7</ele>
        <time>2018-04-21T09:02:01.000Z</time>
      </trkpt>
      <trkpt lat="44.12177" lon="7.39096">
        <ele>2744.5</ele>
        <time>2018-04-21T09:02:06.000Z</time>
      </trkpt>
      <trkpt lat="44.12177" lon="7.39096">
        <ele>2744.5</ele>
        <time>2018-04-21T09:02:07.000Z</time>
      </trkpt>
      <trkpt lat="44.12177" lon="7.39094">
        <ele>2745.3</ele>
        <time>2018-04-21T09:02:11.000Z</time>
      </trkpt>
      <trkpt lat="44.12177" lon="7.39091">
        <ele>2746.4</ele>
        <time>2018-04-21T09:02:16.000Z</time>
      </trkpt>
      <trkpt lat="44.12176" lon="7.39088">
        <ele>2747.2</ele>
        <time>2018-04-21T09:02:21.000Z</time>
      </trkpt>
      <trkpt lat="44.12177" lon="7.39087">
        <ele>2747.9</ele>
        <time>2018-04-21T09:02:24.000Z</time>
      </trkpt>
      <trkpt lat="44.12177" lon="7.39087">
        <ele>2747.9</ele>
        <time>2018-04-21T09:02:25.000Z</time>
      </trkpt>
      <trkpt lat="44.12177" lon="7.39087">
        <ele>2747.9</ele>
        <time>2018-04-21T09:02:32.000Z</time>
      </trkpt>
      <trkpt lat="44.12179" lon="7.39086">
        <ele>2749</ele>
        <time>2018-04-21T09:02:38.000Z</time>
      </trkpt>
      <trkpt lat="44.1218" lon="7.39087">
        <ele>2748.9</ele>
        <time>2018-04-21T09:02:44.000Z</time>
      </trkpt>
      <trkpt lat="44.1218" lon="7.39086">
        <ele>2749.3</ele>
        <time>2018-04-21T09:02:52.000Z</time>
      </trkpt>
      <trkpt lat="44.12181" lon="7.39087">
        <ele>2749.3</ele>
        <time>2018-04-21T09:03:00.000Z</time>
      </trkpt>
      <trkpt lat="44.12185" lon="7.39087">
        <ele>2750.6</ele>
        <time>2018-04-21T09:03:13.000Z</time>
      </trkpt>
      <trkpt lat="44.12185" lon="7.39087">
        <ele>2750.6</ele>
        <time>2018-04-21T09:03:14.000Z</time>
      </trkpt>
      <trkpt lat="44.12187" lon="7.39087">
        <ele>2751.2</ele>
        <time>2018-04-21T09:03:18.000Z</time>
      </trkpt>
      <trkpt lat="44.12189" lon="7.39088">
        <ele>2751.5</ele>
        <time>2018-04-21T09:03:23.000Z</time>
      </trkpt>
      <trkpt lat="44.12189" lon="7.39088">
        <ele>2751.5</ele>
        <time>2018-04-21T09:03:24.000Z</time>
      </trkpt>
      <trkpt lat="44.12191" lon="7.39088">
        <ele>2752.2</ele>
        <time>2018-04-21T09:03:29.000Z</time>
      </trkpt>
      <trkpt lat="44.12192" lon="7.39088">
        <ele>2752.5</ele>
        <time>2018-04-21T09:03:30.000Z</time>
      </trkpt>
      <trkpt lat="44.12194" lon="7.3909">
        <ele>2752.5</ele>
        <time>2018-04-21T09:03:36.000Z</time>
      </trkpt>
      <trkpt lat="44.12194" lon="7.3909">
        <ele>2752.5</ele>
        <time>2018-04-21T09:03:37.000Z</time>
      </trkpt>
      <trkpt lat="44.12196" lon="7.3909">
        <ele>2753.1</ele>
        <time>2018-04-21T09:03:41.000Z</time>
      </trkpt>
      <trkpt lat="44.12197" lon="7.3909">
        <ele>2753.4</ele>
        <time>2018-04-21T09:03:45.000Z</time>
      </trkpt>
      <trkpt lat="44.12196" lon="7.3909">
        <ele>2753.1</ele>
        <time>2018-04-21T09:03:46.000Z</time>
      </trkpt>
      <trkpt lat="44.12196" lon="7.3909">
        <ele>2753.1</ele>
        <time>2018-04-21T09:04:02.000Z</time>
      </trkpt>
      <trkpt lat="44.12197" lon="7.39091">
        <ele>2753.1</ele>
        <time>2018-04-21T09:04:07.000Z</time>
      </trkpt>
      <trkpt lat="44.12198" lon="7.3909">
        <ele>2753.8</ele>
        <time>2018-04-21T09:04:10.000Z</time>
      </trkpt>
      <trkpt lat="44.122" lon="7.39091">
        <ele>2754</ele>
        <time>2018-04-21T09:04:16.000Z</time>
      </trkpt>
      <trkpt lat="44.12201" lon="7.39092">
        <ele>2754</ele>
        <time>2018-04-21T09:04:20.000Z</time>
      </trkpt>
      <trkpt lat="44.12202" lon="7.39092">
        <ele>2754.3</ele>
        <time>2018-04-21T09:04:22.000Z</time>
      </trkpt>
      <trkpt lat="44.12203" lon="7.39092">
        <ele>2754.7</ele>
        <time>2018-04-21T09:04:26.000Z</time>
      </trkpt>
      <trkpt lat="44.12206" lon="7.39091">
        <ele>2756</ele>
        <time>2018-04-21T09:04:32.000Z</time>
      </trkpt>
      <trkpt lat="44.12207" lon="7.39091">
        <ele>2756.3</ele>
        <time>2018-04-21T09:04:38.000Z</time>
      </trkpt>
      <trkpt lat="44.12207" lon="7.3909">
        <ele>2756.7</ele>
        <time>2018-04-21T09:04:42.000Z</time>
      </trkpt>
      <trkpt lat="44.12207" lon="7.39089">
        <ele>2757</ele>
        <time>2018-04-21T09:04:45.000Z</time>
      </trkpt>
      <trkpt lat="44.12206" lon="7.39086">
        <ele>2757.8</ele>
        <time>2018-04-21T09:04:51.000Z</time>
      </trkpt>
      <trkpt lat="44.12205" lon="7.39083">
        <ele>2817</ele>
        <time>2018-04-21T09:04:59.000Z</time>
      </trkpt>
      <trkpt lat="44.12205" lon="7.39082">
        <ele>2817</ele>
        <time>2018-04-21T09:05:00.000Z</time>
      </trkpt>
      <trkpt lat="44.12205" lon="7.39082">
        <ele>2817</ele>
        <time>2018-04-21T09:05:05.000Z</time>
      </trkpt>
      <trkpt lat="44.12204" lon="7.39082">
        <ele>2817</ele>
        <time>2018-04-21T09:05:13.000Z</time>
      </trkpt>
      <trkpt lat="44.12205" lon="7.39083">
        <ele>2817</ele>
        <time>2018-04-21T09:05:28.000Z</time>
      </trkpt>
      <trkpt lat="44.12205" lon="7.39082">
        <ele>2817</ele>
        <time>2018-04-21T09:05:38.000Z</time>
      </trkpt>
      <trkpt lat="44.12203" lon="7.39082">
        <ele>2817</ele>
        <time>2018-04-21T09:05:49.000Z</time>
      </trkpt>
      <trkpt lat="44.12202" lon="7.3908">
        <ele>2817</ele>
        <time>2018-04-21T09:05:56.000Z</time>
      </trkpt>
      <trkpt lat="44.12202" lon="7.39077">
        <ele>2817</ele>
        <time>2018-04-21T09:06:01.000Z</time>
      </trkpt>
      <trkpt lat="44.12202" lon="7.39076">
        <ele>2817</ele>
        <time>2018-04-21T09:06:03.000Z</time>
      </trkpt>
      <trkpt lat="44.12201" lon="7.39074">
        <ele>2817</ele>
        <time>2018-04-21T09:06:07.000Z</time>
      </trkpt>
      <trkpt lat="44.12201" lon="7.39071">
        <ele>2817</ele>
        <time>2018-04-21T09:06:11.000Z</time>
      </trkpt>
      <trkpt lat="44.12201" lon="7.3907">
        <ele>2817</ele>
        <time>2018-04-21T09:06:13.000Z</time>
      </trkpt>
      <trkpt lat="44.12201" lon="7.39069">
        <ele>2817</ele>
        <time>2018-04-21T09:06:17.000Z</time>
      </trkpt>
      <trkpt lat="44.12201" lon="7.39068">
        <ele>2817</ele>
        <time>2018-04-21T09:06:18.000Z</time>
      </trkpt>
      <trkpt lat="44.12201" lon="7.39064">
        <ele>2817</ele>
        <time>2018-04-21T09:06:24.000Z</time>
      </trkpt>
      <trkpt lat="44.12201" lon="7.39063">
        <ele>2817</ele>
        <time>2018-04-21T09:06:27.000Z</time>
      </trkpt>
      <trkpt lat="44.12201" lon="7.39062">
        <ele>2817</ele>
        <time>2018-04-21T09:06:29.000Z</time>
      </trkpt>
      <trkpt lat="44.12201" lon="7.39059">
        <ele>2817</ele>
        <time>2018-04-21T09:06:34.000Z</time>
      </trkpt>
      <trkpt lat="44.12201" lon="7.39058">
        <ele>2817</ele>
        <time>2018-04-21T09:06:37.000Z</time>
      </trkpt>
      <trkpt lat="44.12201" lon="7.39057">
        <ele>2817</ele>
        <time>2018-04-21T09:06:40.000Z</time>
      </trkpt>
      <trkpt lat="44.122" lon="7.39054">
        <ele>2817</ele>
        <time>2018-04-21T09:06:46.000Z</time>
      </trkpt>
      <trkpt lat="44.12199" lon="7.39051">
        <ele>2817</ele>
        <time>2018-04-21T09:06:52.000Z</time>
      </trkpt>
      <trkpt lat="44.12199" lon="7.39049">
        <ele>2817</ele>
        <time>2018-04-21T09:06:57.000Z</time>
      </trkpt>
      <trkpt lat="44.12199" lon="7.39049">
        <ele>2817</ele>
        <time>2018-04-21T09:06:58.000Z</time>
      </trkpt>
      <trkpt lat="44.12199" lon="7.39049">
        <ele>2817</ele>
        <time>2018-04-21T09:07:03.000Z</time>
      </trkpt>
      <trkpt lat="44.122" lon="7.39049">
        <ele>2817</ele>
        <time>2018-04-21T09:07:11.000Z</time>
      </trkpt>
      <trkpt lat="44.12202" lon="7.39048">
        <ele>2817</ele>
        <time>2018-04-21T09:07:21.000Z</time>
      </trkpt>
      <trkpt lat="44.12202" lon="7.39048">
        <ele>2817</ele>
        <time>2018-04-21T09:07:22.000Z</time>
      </trkpt>
      <trkpt lat="44.12205" lon="7.39048">
        <ele>2817</ele>
        <time>2018-04-21T09:07:27.000Z</time>
      </trkpt>
      <trkpt lat="44.12204" lon="7.39048">
        <ele>2817</ele>
        <time>2018-04-21T09:07:29.000Z</time>
      </trkpt>
      <trkpt lat="44.12205" lon="7.39048">
        <ele>2817</ele>
        <time>2018-04-21T09:07:31.000Z</time>
      </trkpt>
      <trkpt lat="44.12205" lon="7.39048">
        <ele>2817</ele>
        <time>2018-04-21T09:07:33.000Z</time>
      </trkpt>
      <trkpt lat="44.12205" lon="7.39048">
        <ele>2817</ele>
        <time>2018-04-21T09:07:41.000Z</time>
      </trkpt>
      <trkpt lat="44.12205" lon="7.39049">
        <ele>2817</ele>
        <time>2018-04-21T09:07:48.000Z</time>
      </trkpt>
      <trkpt lat="44.12205" lon="7.39049">
        <ele>2817</ele>
        <time>2018-04-21T09:08:00.000Z</time>
      </trkpt>
      <trkpt lat="44.12207" lon="7.39049">
        <ele>2817</ele>
        <time>2018-04-21T09:08:07.000Z</time>
      </trkpt>
      <trkpt lat="44.12208" lon="7.3905">
        <ele>2817</ele>
        <time>2018-04-21T09:08:09.000Z</time>
      </trkpt>
      <trkpt lat="44.12209" lon="7.39051">
        <ele>2817</ele>
        <time>2018-04-21T09:08:15.000Z</time>
      </trkpt>
      <trkpt lat="44.12212" lon="7.39051">
        <ele>2817</ele>
        <time>2018-04-21T09:08:22.000Z</time>
      </trkpt>
      <trkpt lat="44.12213" lon="7.39051">
        <ele>2817</ele>
        <time>2018-04-21T09:08:25.000Z</time>
      </trkpt>
      <trkpt lat="44.12214" lon="7.39051">
        <ele>2817</ele>
        <time>2018-04-21T09:08:29.000Z</time>
      </trkpt>
      <trkpt lat="44.12215" lon="7.39051">
        <ele>2817</ele>
        <time>2018-04-21T09:08:33.000Z</time>
      </trkpt>
      <trkpt lat="44.12215" lon="7.3905">
        <ele>2817</ele>
        <time>2018-04-21T09:08:38.000Z</time>
      </trkpt>
      <trkpt lat="44.12214" lon="7.3905">
        <ele>2817</ele>
        <time>2018-04-21T09:08:44.000Z</time>
      </trkpt>
      <trkpt lat="44.12213" lon="7.39048">
        <ele>2817</ele>
        <time>2018-04-21T09:08:49.000Z</time>
      </trkpt>
      <trkpt lat="44.12213" lon="7.39046">
        <ele>2817</ele>
        <time>2018-04-21T09:08:54.000Z</time>
      </trkpt>
      <trkpt lat="44.12213" lon="7.39045">
        <ele>2817</ele>
        <time>2018-04-21T09:08:55.000Z</time>
      </trkpt>
      <trkpt lat="44.12212" lon="7.39043">
        <ele>2817</ele>
        <time>2018-04-21T09:09:00.000Z</time>
      </trkpt>
      <trkpt lat="44.12212" lon="7.39041">
        <ele>2817</ele>
        <time>2018-04-21T09:09:03.000Z</time>
      </trkpt>
      <trkpt lat="44.12212" lon="7.3904">
        <ele>2817</ele>
        <time>2018-04-21T09:09:05.000Z</time>
      </trkpt>
      <trkpt lat="44.12212" lon="7.39037">
        <ele>2817</ele>
        <time>2018-04-21T09:09:11.000Z</time>
      </trkpt>
      <trkpt lat="44.12212" lon="7.39037">
        <ele>2817</ele>
        <time>2018-04-21T09:09:12.000Z</time>
      </trkpt>
      <trkpt lat="44.1221" lon="7.39036">
        <ele>2817</ele>
        <time>2018-04-21T09:09:19.000Z</time>
      </trkpt>
      <trkpt lat="44.1221" lon="7.39035">
        <ele>2817</ele>
        <time>2018-04-21T09:09:22.000Z</time>
      </trkpt>
      <trkpt lat="44.12209" lon="7.39034">
        <ele>2817</ele>
        <time>2018-04-21T09:09:25.000Z</time>
      </trkpt>
      <trkpt lat="44.12208" lon="7.39033">
        <ele>2817</ele>
        <time>2018-04-21T09:09:31.000Z</time>
      </trkpt>
      <trkpt lat="44.12207" lon="7.39032">
        <ele>2817</ele>
        <time>2018-04-21T09:09:34.000Z</time>
      </trkpt>
      <trkpt lat="44.12206" lon="7.39031">
        <ele>2817</ele>
        <time>2018-04-21T09:09:39.000Z</time>
      </trkpt>
      <trkpt lat="44.12207" lon="7.39031">
        <ele>2817</ele>
        <time>2018-04-21T09:09:44.000Z</time>
      </trkpt>
      <trkpt lat="44.12206" lon="7.39031">
        <ele>2817</ele>
        <time>2018-04-21T09:09:51.000Z</time>
      </trkpt>
      <trkpt lat="44.12207" lon="7.39031">
        <ele>2817</ele>
        <time>2018-04-21T09:09:59.000Z</time>
      </trkpt>
      <trkpt lat="44.12207" lon="7.39031">
        <ele>2817</ele>
        <time>2018-04-21T09:10:08.000Z</time>
      </trkpt>
      <trkpt lat="44.1221" lon="7.3903">
        <ele>2817</ele>
        <time>2018-04-21T09:10:15.000Z</time>
      </trkpt>
      <trkpt lat="44.12211" lon="7.39029">
        <ele>2817</ele>
        <time>2018-04-21T09:10:20.000Z</time>
      </trkpt>
      <trkpt lat="44.12213" lon="7.39027">
        <ele>2817</ele>
        <time>2018-04-21T09:10:27.000Z</time>
      </trkpt>
      <trkpt lat="44.12214" lon="7.39027">
        <ele>2817</ele>
        <time>2018-04-21T09:10:28.000Z</time>
      </trkpt>
      <trkpt lat="44.12215" lon="7.39027">
        <ele>2817</ele>
        <time>2018-04-21T09:10:32.000Z</time>
      </trkpt>
      <trkpt lat="44.12215" lon="7.39027">
        <ele>2817</ele>
        <time>2018-04-21T09:10:36.000Z</time>
      </trkpt>
      <trkpt lat="44.12217" lon="7.39026">
        <ele>2817</ele>
        <time>2018-04-21T09:10:41.000Z</time>
      </trkpt>
      <trkpt lat="44.12217" lon="7.39026">
        <ele>2817</ele>
        <time>2018-04-21T09:10:42.000Z</time>
      </trkpt>
      <trkpt lat="44.12219" lon="7.39026">
        <ele>2817</ele>
        <time>2018-04-21T09:10:48.000Z</time>
      </trkpt>
      <trkpt lat="44.1222" lon="7.39025">
        <ele>2817</ele>
        <time>2018-04-21T09:10:50.000Z</time>
      </trkpt>
      <trkpt lat="44.12221" lon="7.39025">
        <ele>2817</ele>
        <time>2018-04-21T09:10:55.000Z</time>
      </trkpt>
      <trkpt lat="44.12221" lon="7.39026">
        <ele>2817</ele>
        <time>2018-04-21T09:11:01.000Z</time>
      </trkpt>
      <trkpt lat="44.12221" lon="7.39026">
        <ele>2817</ele>
        <time>2018-04-21T09:11:04.000Z</time>
      </trkpt>
      <trkpt lat="44.1222" lon="7.39027">
        <ele>2817</ele>
        <time>2018-04-21T09:11:12.000Z</time>
      </trkpt>
      <trkpt lat="44.1222" lon="7.39026">
        <ele>2817</ele>
        <time>2018-04-21T09:11:13.000Z</time>
      </trkpt>
      <trkpt lat="44.1222" lon="7.39027">
        <ele>2817</ele>
        <time>2018-04-21T09:11:20.000Z</time>
      </trkpt>
      <trkpt lat="44.12219" lon="7.39026">
        <ele>2817</ele>
        <time>2018-04-21T09:11:26.000Z</time>
      </trkpt>
      <trkpt lat="44.12218" lon="7.39024">
        <ele>2817</ele>
        <time>2018-04-21T09:11:32.000Z</time>
      </trkpt>
      <trkpt lat="44.12217" lon="7.39023">
        <ele>2817</ele>
        <time>2018-04-21T09:11:33.000Z</time>
      </trkpt>
      <trkpt lat="44.12217" lon="7.39023">
        <ele>2817</ele>
        <time>2018-04-21T09:11:38.000Z</time>
      </trkpt>
      <trkpt lat="44.12215" lon="7.39021">
        <ele>2817</ele>
        <time>2018-04-21T09:11:45.000Z</time>
      </trkpt>
      <trkpt lat="44.12214" lon="7.39021">
        <ele>2817</ele>
        <time>2018-04-21T09:11:53.000Z</time>
      </trkpt>
      <trkpt lat="44.12213" lon="7.3902">
        <ele>2817</ele>
        <time>2018-04-21T09:11:58.000Z</time>
      </trkpt>
      <trkpt lat="44.12213" lon="7.3902">
        <ele>2817</ele>
        <time>2018-04-21T09:11:59.000Z</time>
      </trkpt>
      <trkpt lat="44.12211" lon="7.39018">
        <ele>2817</ele>
        <time>2018-04-21T09:12:07.000Z</time>
      </trkpt>
      <trkpt lat="44.12212" lon="7.39018">
        <ele>2817</ele>
        <time>2018-04-21T09:12:12.000Z</time>
      </trkpt>
      <trkpt lat="44.12212" lon="7.39018">
        <ele>2817</ele>
        <time>2018-04-21T09:12:13.000Z</time>
      </trkpt>
      <trkpt lat="44.12211" lon="7.39019">
        <ele>2817</ele>
        <time>2018-04-21T09:12:27.000Z</time>
      </trkpt>
      <trkpt lat="44.1221" lon="7.39018">
        <ele>2817</ele>
        <time>2018-04-21T09:12:32.000Z</time>
      </trkpt>
      <trkpt lat="44.12208" lon="7.39016">
        <ele>2817</ele>
        <time>2018-04-21T09:12:37.000Z</time>
      </trkpt>
      <trkpt lat="44.12208" lon="7.39016">
        <ele>2817</ele>
        <time>2018-04-21T09:12:40.000Z</time>
      </trkpt>
      <trkpt lat="44.12207" lon="7.39015">
        <ele>2817</ele>
        <time>2018-04-21T09:12:42.000Z</time>
      </trkpt>
      <trkpt lat="44.12207" lon="7.39014">
        <ele>2817</ele>
        <time>2018-04-21T09:12:47.000Z</time>
      </trkpt>
      <trkpt lat="44.12207" lon="7.39015">
        <ele>2817</ele>
        <time>2018-04-21T09:12:52.000Z</time>
      </trkpt>
      <trkpt lat="44.12208" lon="7.39016">
        <ele>2817</ele>
        <time>2018-04-21T09:12:56.000Z</time>
      </trkpt>
      <trkpt lat="44.12208" lon="7.39016">
        <ele>2817</ele>
        <time>2018-04-21T09:13:06.000Z</time>
      </trkpt>
      <trkpt lat="44.1221" lon="7.39015">
        <ele>2817</ele>
        <time>2018-04-21T09:13:15.000Z</time>
      </trkpt>
      <trkpt lat="44.1221" lon="7.39015">
        <ele>2817</ele>
        <time>2018-04-21T09:13:19.000Z</time>
      </trkpt>
      <trkpt lat="44.12213" lon="7.39013">
        <ele>2817</ele>
        <time>2018-04-21T09:13:25.000Z</time>
      </trkpt>
      <trkpt lat="44.12213" lon="7.39013">
        <ele>2817</ele>
        <time>2018-04-21T09:13:26.000Z</time>
      </trkpt>
      <trkpt lat="44.12216" lon="7.3901">
        <ele>2817</ele>
        <time>2018-04-21T09:13:33.000Z</time>
      </trkpt>
      <trkpt lat="44.12217" lon="7.39008">
        <ele>2817</ele>
        <time>2018-04-21T09:13:38.000Z</time>
      </trkpt>
      <trkpt lat="44.12219" lon="7.39006">
        <ele>2817</ele>
        <time>2018-04-21T09:13:45.000Z</time>
      </trkpt>
      <trkpt lat="44.1222" lon="7.39005">
        <ele>2817</ele>
        <time>2018-04-21T09:13:53.000Z</time>
      </trkpt>
      <trkpt lat="44.12221" lon="7.39005">
        <ele>2817</ele>
        <time>2018-04-21T09:13:55.000Z</time>
      </trkpt>
      <trkpt lat="44.12221" lon="7.39004">
        <ele>2817</ele>
        <time>2018-04-21T09:13:59.000Z</time>
      </trkpt>
      <trkpt lat="44.12222" lon="7.39002">
        <ele>2817</ele>
        <time>2018-04-21T09:14:05.000Z</time>
      </trkpt>
      <trkpt lat="44.12222" lon="7.39001">
        <ele>2817</ele>
        <time>2018-04-21T09:14:11.000Z</time>
      </trkpt>
      <trkpt lat="44.12222" lon="7.39001">
        <ele>2817</ele>
        <time>2018-04-21T09:14:22.000Z</time>
      </trkpt>
      <trkpt lat="44.12222" lon="7.39001">
        <ele>2817</ele>
        <time>2018-04-21T09:14:35.000Z</time>
      </trkpt>
      <trkpt lat="44.12225" lon="7.38999">
        <ele>2827</ele>
        <time>2018-04-21T09:14:42.000Z</time>
      </trkpt>
      <trkpt lat="44.12227" lon="7.38997">
        <ele>2826</ele>
        <time>2018-04-21T09:14:47.000Z</time>
      </trkpt>
      <trkpt lat="44.12228" lon="7.38996">
        <ele>2826</ele>
        <time>2018-04-21T09:14:52.000Z</time>
      </trkpt>
      <trkpt lat="44.12229" lon="7.38996">
        <ele>2826</ele>
        <time>2018-04-21T09:14:55.000Z</time>
      </trkpt>
      <trkpt lat="44.12228" lon="7.38997">
        <ele>2826</ele>
        <time>2018-04-21T09:15:00.000Z</time>
      </trkpt>
      <trkpt lat="44.12228" lon="7.38997">
        <ele>2826</ele>
        <time>2018-04-21T09:15:03.000Z</time>
      </trkpt>
      <trkpt lat="44.12228" lon="7.38996">
        <ele>2826</ele>
        <time>2018-04-21T09:15:11.000Z</time>
      </trkpt>
      <trkpt lat="44.12227" lon="7.38997">
        <ele>2826</ele>
        <time>2018-04-21T09:15:19.000Z</time>
      </trkpt>
      <trkpt lat="44.12226" lon="7.38996">
        <ele>2827</ele>
        <time>2018-04-21T09:15:24.000Z</time>
      </trkpt>
      <trkpt lat="44.12224" lon="7.38995">
        <ele>2827</ele>
        <time>2018-04-21T09:15:30.000Z</time>
      </trkpt>
      <trkpt lat="44.12223" lon="7.38994">
        <ele>2827</ele>
        <time>2018-04-21T09:15:36.000Z</time>
      </trkpt>
      <trkpt lat="44.12222" lon="7.38993">
        <ele>2828</ele>
        <time>2018-04-21T09:15:40.000Z</time>
      </trkpt>
      <trkpt lat="44.12222" lon="7.38994">
        <ele>2828</ele>
        <time>2018-04-21T09:15:42.000Z</time>
      </trkpt>
      <trkpt lat="44.12221" lon="7.38993">
        <ele>2828</ele>
        <time>2018-04-21T09:15:48.000Z</time>
      </trkpt>
      <trkpt lat="44.1222" lon="7.38993">
        <ele>2828</ele>
        <time>2018-04-21T09:15:55.000Z</time>
      </trkpt>
      <trkpt lat="44.1222" lon="7.38993">
        <ele>2828</ele>
        <time>2018-04-21T09:15:58.000Z</time>
      </trkpt>
      <trkpt lat="44.12219" lon="7.38993">
        <ele>2828</ele>
        <time>2018-04-21T09:16:03.000Z</time>
      </trkpt>
      <trkpt lat="44.12219" lon="7.38994">
        <ele>2828</ele>
        <time>2018-04-21T09:16:10.000Z</time>
      </trkpt>
      <trkpt lat="44.12219" lon="7.38994">
        <ele>2828</ele>
        <time>2018-04-21T09:16:17.000Z</time>
      </trkpt>
      <trkpt lat="44.12218" lon="7.38993">
        <ele>2828</ele>
        <time>2018-04-21T09:16:23.000Z</time>
      </trkpt>
      <trkpt lat="44.12217" lon="7.38994">
        <ele>2828</ele>
        <time>2018-04-21T09:16:29.000Z</time>
      </trkpt>
      <trkpt lat="44.12216" lon="7.38993">
        <ele>2829</ele>
        <time>2018-04-21T09:16:36.000Z</time>
      </trkpt>
      <trkpt lat="44.12215" lon="7.38993">
        <ele>2829</ele>
        <time>2018-04-21T09:16:43.000Z</time>
      </trkpt>
      <trkpt lat="44.12213" lon="7.38992">
        <ele>2829</ele>
        <time>2018-04-21T09:16:48.000Z</time>
      </trkpt>
      <trkpt lat="44.12213" lon="7.38991">
        <ele>2829</ele>
        <time>2018-04-21T09:16:54.000Z</time>
      </trkpt>
      <trkpt lat="44.12211" lon="7.3899">
        <ele>2830</ele>
        <time>2018-04-21T09:17:00.000Z</time>
      </trkpt>
      <trkpt lat="44.1221" lon="7.3899">
        <ele>2830</ele>
        <time>2018-04-21T09:17:04.000Z</time>
      </trkpt>
      <trkpt lat="44.12211" lon="7.38989">
        <ele>2830</ele>
        <time>2018-04-21T09:17:08.000Z</time>
      </trkpt>
      <trkpt lat="44.12211" lon="7.38989">
        <ele>2830</ele>
        <time>2018-04-21T09:17:14.000Z</time>
      </trkpt>
      <trkpt lat="44.12211" lon="7.38988">
        <ele>2830</ele>
        <time>2018-04-21T09:17:17.000Z</time>
      </trkpt>
      <trkpt lat="44.1221" lon="7.38988">
        <ele>2830</ele>
        <time>2018-04-21T09:17:19.000Z</time>
      </trkpt>
      <trkpt lat="44.1221" lon="7.38988">
        <ele>2830</ele>
        <time>2018-04-21T09:17:23.000Z</time>
      </trkpt>
      <trkpt lat="44.1221" lon="7.38987">
        <ele>2830</ele>
        <time>2018-04-21T09:17:32.000Z</time>
      </trkpt>
      <trkpt lat="44.12212" lon="7.38987">
        <ele>2830</ele>
        <time>2018-04-21T09:17:42.000Z</time>
      </trkpt>
      <trkpt lat="44.12213" lon="7.38987">
        <ele>2830</ele>
        <time>2018-04-21T09:17:48.000Z</time>
      </trkpt>
      <trkpt lat="44.12215" lon="7.38987">
        <ele>2830</ele>
        <time>2018-04-21T09:17:53.000Z</time>
      </trkpt>
      <trkpt lat="44.12216" lon="7.38986">
        <ele>2830</ele>
        <time>2018-04-21T09:17:59.000Z</time>
      </trkpt>
      <trkpt lat="44.12216" lon="7.38986">
        <ele>2830</ele>
        <time>2018-04-21T09:18:00.000Z</time>
      </trkpt>
      <trkpt lat="44.12218" lon="7.38985">
        <ele>2830</ele>
        <time>2018-04-21T09:18:05.000Z</time>
      </trkpt>
      <trkpt lat="44.1222" lon="7.38982">
        <ele>2830</ele>
        <time>2018-04-21T09:18:11.000Z</time>
      </trkpt>
      <trkpt lat="44.1222" lon="7.38982">
        <ele>2830</ele>
        <time>2018-04-21T09:18:13.000Z</time>
      </trkpt>
      <trkpt lat="44.12221" lon="7.38981">
        <ele>2830</ele>
        <time>2018-04-21T09:18:17.000Z</time>
      </trkpt>
      <trkpt lat="44.12222" lon="7.3898">
        <ele>2830</ele>
        <time>2018-04-21T09:18:18.000Z</time>
      </trkpt>
      <trkpt lat="44.12223" lon="7.38978">
        <ele>2830</ele>
        <time>2018-04-21T09:18:24.000Z</time>
      </trkpt>
      <trkpt lat="44.12224" lon="7.38976">
        <ele>2831</ele>
        <time>2018-04-21T09:18:29.000Z</time>
      </trkpt>
      <trkpt lat="44.12224" lon="7.38976">
        <ele>2831</ele>
        <time>2018-04-21T09:18:30.000Z</time>
      </trkpt>
      <trkpt lat="44.12224" lon="7.38974">
        <ele>2831</ele>
        <time>2018-04-21T09:18:37.000Z</time>
      </trkpt>
      <trkpt lat="44.12225" lon="7.38975">
        <ele>2831</ele>
        <time>2018-04-21T09:18:45.000Z</time>
      </trkpt>
      <trkpt lat="44.12225" lon="7.38976">
        <ele>2831</ele>
        <time>2018-04-21T09:18:53.000Z</time>
      </trkpt>
      <trkpt lat="44.12225" lon="7.38976">
        <ele>2830</ele>
        <time>2018-04-21T09:19:01.000Z</time>
      </trkpt>
      <trkpt lat="44.12225" lon="7.38976">
        <ele>2831</ele>
        <time>2018-04-21T09:19:08.000Z</time>
      </trkpt>
      <trkpt lat="44.12223" lon="7.38976">
        <ele>2831</ele>
        <time>2018-04-21T09:19:14.000Z</time>
      </trkpt>
      <trkpt lat="44.12222" lon="7.38975">
        <ele>2831</ele>
        <time>2018-04-21T09:19:19.000Z</time>
      </trkpt>
      <trkpt lat="44.1222" lon="7.38975">
        <ele>2831</ele>
        <time>2018-04-21T09:19:25.000Z</time>
      </trkpt>
      <trkpt lat="44.1222" lon="7.38975">
        <ele>2831</ele>
        <time>2018-04-21T09:19:27.000Z</time>
      </trkpt>
      <trkpt lat="44.12218" lon="7.38974">
        <ele>2832</ele>
        <time>2018-04-21T09:19:33.000Z</time>
      </trkpt>
      <trkpt lat="44.12218" lon="7.38974">
        <ele>2832</ele>
        <time>2018-04-21T09:19:34.000Z</time>
      </trkpt>
      <trkpt lat="44.12216" lon="7.38973">
        <ele>2832</ele>
        <time>2018-04-21T09:19:38.000Z</time>
      </trkpt>
      <trkpt lat="44.12214" lon="7.38972">
        <ele>2832</ele>
        <time>2018-04-21T09:19:43.000Z</time>
      </trkpt>
      <trkpt lat="44.12212" lon="7.3897">
        <ele>2833</ele>
        <time>2018-04-21T09:19:48.000Z</time>
      </trkpt>
      <trkpt lat="44.12211" lon="7.3897">
        <ele>2833</ele>
        <time>2018-04-21T09:19:54.000Z</time>
      </trkpt>
      <trkpt lat="44.1221" lon="7.38969">
        <ele>2833</ele>
        <time>2018-04-21T09:19:55.000Z</time>
      </trkpt>
      <trkpt lat="44.12209" lon="7.38968">
        <ele>2833</ele>
        <time>2018-04-21T09:19:59.000Z</time>
      </trkpt>
      <trkpt lat="44.12208" lon="7.38967">
        <ele>2833</ele>
        <time>2018-04-21T09:20:04.000Z</time>
      </trkpt>
      <trkpt lat="44.12208" lon="7.38967">
        <ele>2833</ele>
        <time>2018-04-21T09:20:07.000Z</time>
      </trkpt>
      <trkpt lat="44.12208" lon="7.38967">
        <ele>2833</ele>
        <time>2018-04-21T09:20:16.000Z</time>
      </trkpt>
      <trkpt lat="44.12208" lon="7.38967">
        <ele>2833</ele>
        <time>2018-04-21T09:20:29.000Z</time>
      </trkpt>
      <trkpt lat="44.12208" lon="7.38967">
        <ele>2833</ele>
        <time>2018-04-21T09:20:30.000Z</time>
      </trkpt>
      <trkpt lat="44.12208" lon="7.38967">
        <ele>2833</ele>
        <time>2018-04-21T09:20:34.000Z</time>
      </trkpt>
      <trkpt lat="44.12208" lon="7.38967">
        <ele>2833</ele>
        <time>2018-04-21T09:20:36.000Z</time>
      </trkpt>
      <trkpt lat="44.12208" lon="7.38967">
        <ele>2833</ele>
        <time>2018-04-21T09:20:41.000Z</time>
      </trkpt>
      <trkpt lat="44.12207" lon="7.38967">
        <ele>2833</ele>
        <time>2018-04-21T09:20:42.000Z</time>
      </trkpt>
      <trkpt lat="44.12206" lon="7.38966">
        <ele>2833</ele>
        <time>2018-04-21T09:20:48.000Z</time>
      </trkpt>
      <trkpt lat="44.12204" lon="7.38965">
        <ele>2833</ele>
        <time>2018-04-21T09:20:52.000Z</time>
      </trkpt>
      <trkpt lat="44.12203" lon="7.38965">
        <ele>2833</ele>
        <time>2018-04-21T09:20:55.000Z</time>
      </trkpt>
      <trkpt lat="44.12201" lon="7.38963">
        <ele>2834</ele>
        <time>2018-04-21T09:21:01.000Z</time>
      </trkpt>
      <trkpt lat="44.122" lon="7.38963">
        <ele>2834</ele>
        <time>2018-04-21T09:21:06.000Z</time>
      </trkpt>
      <trkpt lat="44.122" lon="7.38963">
        <ele>2834</ele>
        <time>2018-04-21T09:21:08.000Z</time>
      </trkpt>
      <trkpt lat="44.12198" lon="7.38962">
        <ele>2834</ele>
        <time>2018-04-21T09:21:12.000Z</time>
      </trkpt>
      <trkpt lat="44.12197" lon="7.38961">
        <ele>2834</ele>
        <time>2018-04-21T09:21:17.000Z</time>
      </trkpt>
      <trkpt lat="44.12195" lon="7.3896">
        <ele>2834</ele>
        <time>2018-04-21T09:21:22.000Z</time>
      </trkpt>
      <trkpt lat="44.12195" lon="7.38959">
        <ele>2834</ele>
        <time>2018-04-21T09:21:23.000Z</time>
      </trkpt>
      <trkpt lat="44.12195" lon="7.3896">
        <ele>2834</ele>
        <time>2018-04-21T09:21:28.000Z</time>
      </trkpt>
      <trkpt lat="44.12195" lon="7.3896">
        <ele>2834</ele>
        <time>2018-04-21T09:21:36.000Z</time>
      </trkpt>
      <trkpt lat="44.12195" lon="7.3896">
        <ele>2834</ele>
        <time>2018-04-21T09:21:37.000Z</time>
      </trkpt>
      <trkpt lat="44.12195" lon="7.3896">
        <ele>2834</ele>
        <time>2018-04-21T09:21:45.000Z</time>
      </trkpt>
      <trkpt lat="44.12195" lon="7.38961">
        <ele>2834</ele>
        <time>2018-04-21T09:21:59.000Z</time>
      </trkpt>
      <trkpt lat="44.12193" lon="7.38959">
        <ele>2834</ele>
        <time>2018-04-21T09:22:05.000Z</time>
      </trkpt>
      <trkpt lat="44.12191" lon="7.38957">
        <ele>2834</ele>
        <time>2018-04-21T09:22:11.000Z</time>
      </trkpt>
      <trkpt lat="44.1219" lon="7.38957">
        <ele>2834</ele>
        <time>2018-04-21T09:22:14.000Z</time>
      </trkpt>
      <trkpt lat="44.12189" lon="7.38956">
        <ele>2834</ele>
        <time>2018-04-21T09:22:16.000Z</time>
      </trkpt>
      <trkpt lat="44.12188" lon="7.38954">
        <ele>2834</ele>
        <time>2018-04-21T09:22:21.000Z</time>
      </trkpt>
      <trkpt lat="44.12188" lon="7.38954">
        <ele>2834</ele>
        <time>2018-04-21T09:22:22.000Z</time>
      </trkpt>
      <trkpt lat="44.12186" lon="7.38952">
        <ele>2834</ele>
        <time>2018-04-21T09:22:28.000Z</time>
      </trkpt>
      <trkpt lat="44.12185" lon="7.38951">
        <ele>2834</ele>
        <time>2018-04-21T09:22:30.000Z</time>
      </trkpt>
      <trkpt lat="44.12185" lon="7.38951">
        <ele>2834</ele>
        <time>2018-04-21T09:22:33.000Z</time>
      </trkpt>
      <trkpt lat="44.12182" lon="7.38947">
        <ele>2834</ele>
        <time>2018-04-21T09:22:40.000Z</time>
      </trkpt>
      <trkpt lat="44.12182" lon="7.38947">
        <ele>2834</ele>
        <time>2018-04-21T09:22:41.000Z</time>
      </trkpt>
      <trkpt lat="44.12182" lon="7.38944">
        <ele>2834</ele>
        <time>2018-04-21T09:22:46.000Z</time>
      </trkpt>
      <trkpt lat="44.12181" lon="7.38943">
        <ele>2834</ele>
        <time>2018-04-21T09:22:48.000Z</time>
      </trkpt>
      <trkpt lat="44.12181" lon="7.38941">
        <ele>2833</ele>
        <time>2018-04-21T09:22:52.000Z</time>
      </trkpt>
      <trkpt lat="44.1218" lon="7.38939">
        <ele>2833</ele>
        <time>2018-04-21T09:23:00.000Z</time>
      </trkpt>
      <trkpt lat="44.1218" lon="7.38939">
        <ele>2833</ele>
        <time>2018-04-21T09:23:02.000Z</time>
      </trkpt>
      <trkpt lat="44.12179" lon="7.38939">
        <ele>2833</ele>
        <time>2018-04-21T09:23:15.000Z</time>
      </trkpt>
      <trkpt lat="44.12178" lon="7.38939">
        <ele>2833</ele>
        <time>2018-04-21T09:23:31.000Z</time>
      </trkpt>
      <trkpt lat="44.12176" lon="7.38935">
        <ele>2833</ele>
        <time>2018-04-21T09:23:39.000Z</time>
      </trkpt>
      <trkpt lat="44.12173" lon="7.38931">
        <ele>2832</ele>
        <time>2018-04-21T09:23:45.000Z</time>
      </trkpt>
      <trkpt lat="44.12172" lon="7.38928">
        <ele>2832</ele>
        <time>2018-04-21T09:23:50.000Z</time>
      </trkpt>
      <trkpt lat="44.12171" lon="7.38927">
        <ele>2832</ele>
        <time>2018-04-21T09:23:52.000Z</time>
      </trkpt>
      <trkpt lat="44.1217" lon="7.38925">
        <ele>2832</ele>
        <time>2018-04-21T09:23:57.000Z</time>
      </trkpt>
      <trkpt lat="44.12168" lon="7.38921">
        <ele>2831</ele>
        <time>2018-04-21T09:24:02.000Z</time>
      </trkpt>
      <trkpt lat="44.12167" lon="7.3892">
        <ele>2831</ele>
        <time>2018-04-21T09:24:08.000Z</time>
      </trkpt>
      <trkpt lat="44.12165" lon="7.38917">
        <ele>2830</ele>
        <time>2018-04-21T09:24:13.000Z</time>
      </trkpt>
      <trkpt lat="44.12162" lon="7.38913">
        <ele>2836</ele>
        <time>2018-04-21T09:24:21.000Z</time>
      </trkpt>
      <trkpt lat="44.12161" lon="7.38912">
        <ele>2837</ele>
        <time>2018-04-21T09:24:24.000Z</time>
      </trkpt>
      <trkpt lat="44.12161" lon="7.3891">
        <ele>2838</ele>
        <time>2018-04-21T09:24:25.000Z</time>
      </trkpt>
      <trkpt lat="44.12158" lon="7.38907">
        <ele>2842</ele>
        <time>2018-04-21T09:24:32.000Z</time>
      </trkpt>
      <trkpt lat="44.12157" lon="7.38905">
        <ele>2843</ele>
        <time>2018-04-21T09:24:35.000Z</time>
      </trkpt>
      <trkpt lat="44.12156" lon="7.38904">
        <ele>2845</ele>
        <time>2018-04-21T09:24:39.000Z</time>
      </trkpt>
      <trkpt lat="44.12154" lon="7.38901">
        <ele>2847</ele>
        <time>2018-04-21T09:24:45.000Z</time>
      </trkpt>
      <trkpt lat="44.12153" lon="7.389">
        <ele>2849</ele>
        <time>2018-04-21T09:24:48.000Z</time>
      </trkpt>
      <trkpt lat="44.12152" lon="7.38899">
        <ele>2849</ele>
        <time>2018-04-21T09:24:51.000Z</time>
      </trkpt>
      <trkpt lat="44.1215" lon="7.38897">
        <ele>2851</ele>
        <time>2018-04-21T09:24:57.000Z</time>
      </trkpt>
      <trkpt lat="44.12149" lon="7.38896">
        <ele>2852</ele>
        <time>2018-04-21T09:24:58.000Z</time>
      </trkpt>
      <trkpt lat="44.12148" lon="7.38895">
        <ele>2852</ele>
        <time>2018-04-21T09:25:04.000Z</time>
      </trkpt>
      <trkpt lat="44.12148" lon="7.38895">
        <ele>2852</ele>
        <time>2018-04-21T09:25:08.000Z</time>
      </trkpt>
      <trkpt lat="44.12149" lon="7.38895">
        <ele>2852</ele>
        <time>2018-04-21T09:25:19.000Z</time>
      </trkpt>
      <trkpt lat="44.12148" lon="7.38895">
        <ele>2852</ele>
        <time>2018-04-21T09:25:30.000Z</time>
      </trkpt>
      <trkpt lat="44.12149" lon="7.38896">
        <ele>2852</ele>
        <time>2018-04-21T09:25:41.000Z</time>
      </trkpt>
      <trkpt lat="44.12149" lon="7.38895">
        <ele>2852</ele>
        <time>2018-04-21T09:25:57.000Z</time>
      </trkpt>
      <trkpt lat="44.12148" lon="7.38894">
        <ele>2853</ele>
        <time>2018-04-21T09:26:13.000Z</time>
      </trkpt>
      <trkpt lat="44.12145" lon="7.38892">
        <ele>2855</ele>
        <time>2018-04-21T09:26:18.000Z</time>
      </trkpt>
      <trkpt lat="44.12143" lon="7.38889">
        <ele>2856</ele>
        <time>2018-04-21T09:26:24.000Z</time>
      </trkpt>
      <trkpt lat="44.12142" lon="7.38889">
        <ele>2857</ele>
        <time>2018-04-21T09:26:26.000Z</time>
      </trkpt>
      <trkpt lat="44.12139" lon="7.38886">
        <ele>2858</ele>
        <time>2018-04-21T09:26:32.000Z</time>
      </trkpt>
      <trkpt lat="44.12138" lon="7.38885">
        <ele>2859</ele>
        <time>2018-04-21T09:26:34.000Z</time>
      </trkpt>
      <trkpt lat="44.12137" lon="7.38884">
        <ele>2859</ele>
        <time>2018-04-21T09:26:37.000Z</time>
      </trkpt>
      <trkpt lat="44.12136" lon="7.38882">
        <ele>2860</ele>
        <time>2018-04-21T09:26:43.000Z</time>
      </trkpt>
      <trkpt lat="44.12135" lon="7.38881">
        <ele>2861</ele>
        <time>2018-04-21T09:26:44.000Z</time>
      </trkpt>
      <trkpt lat="44.12133" lon="7.38879">
        <ele>2861</ele>
        <time>2018-04-21T09:26:50.000Z</time>
      </trkpt>
      <trkpt lat="44.12132" lon="7.38877">
        <ele>2862</ele>
        <time>2018-04-21T09:26:56.000Z</time>
      </trkpt>
      <trkpt lat="44.12131" lon="7.38876">
        <ele>2862</ele>
        <time>2018-04-21T09:26:57.000Z</time>
      </trkpt>
      <trkpt lat="44.12129" lon="7.38875">
        <ele>2863</ele>
        <time>2018-04-21T09:27:01.000Z</time>
      </trkpt>
      <trkpt lat="44.12127" lon="7.38873">
        <ele>2863</ele>
        <time>2018-04-21T09:27:07.000Z</time>
      </trkpt>
      <trkpt lat="44.12125" lon="7.38872">
        <ele>2864</ele>
        <time>2018-04-21T09:27:15.000Z</time>
      </trkpt>
      <trkpt lat="44.12124" lon="7.38872">
        <ele>2864</ele>
        <time>2018-04-21T09:27:19.000Z</time>
      </trkpt>
      <trkpt lat="44.12124" lon="7.38871">
        <ele>2864</ele>
        <time>2018-04-21T09:27:22.000Z</time>
      </trkpt>
      <trkpt lat="44.12121" lon="7.38868">
        <ele>2865</ele>
        <time>2018-04-21T09:27:29.000Z</time>
      </trkpt>
      <trkpt lat="44.1212" lon="7.38867">
        <ele>2865</ele>
        <time>2018-04-21T09:27:34.000Z</time>
      </trkpt>
      <trkpt lat="44.1212" lon="7.38866">
        <ele>2865</ele>
        <time>2018-04-21T09:27:36.000Z</time>
      </trkpt>
      <trkpt lat="44.12118" lon="7.38864">
        <ele>2865</ele>
        <time>2018-04-21T09:27:44.000Z</time>
      </trkpt>
      <trkpt lat="44.12115" lon="7.3886">
        <ele>2866</ele>
        <time>2018-04-21T09:27:53.000Z</time>
      </trkpt>
      <trkpt lat="44.12114" lon="7.38859">
        <ele>2866</ele>
        <time>2018-04-21T09:27:57.000Z</time>
      </trkpt>
      <trkpt lat="44.12113" lon="7.38858">
        <ele>2866</ele>
        <time>2018-04-21T09:27:59.000Z</time>
      </trkpt>
      <trkpt lat="44.12112" lon="7.38857">
        <ele>2866</ele>
        <time>2018-04-21T09:28:13.000Z</time>
      </trkpt>
      <trkpt lat="44.12111" lon="7.38856">
        <ele>2866</ele>
        <time>2018-04-21T09:28:19.000Z</time>
      </trkpt>
      <trkpt lat="44.1211" lon="7.38855">
        <ele>2866</ele>
        <time>2018-04-21T09:28:27.000Z</time>
      </trkpt>
      <trkpt lat="44.12109" lon="7.38853">
        <ele>2866</ele>
        <time>2018-04-21T09:28:33.000Z</time>
      </trkpt>
      <trkpt lat="44.12109" lon="7.38853">
        <ele>2866</ele>
        <time>2018-04-21T09:28:34.000Z</time>
      </trkpt>
      <trkpt lat="44.12108" lon="7.38852">
        <ele>2866</ele>
        <time>2018-04-21T09:28:42.000Z</time>
      </trkpt>
      <trkpt lat="44.12107" lon="7.38851">
        <ele>2866</ele>
        <time>2018-04-21T09:28:58.000Z</time>
      </trkpt>
      <trkpt lat="44.12106" lon="7.38851">
        <ele>2866</ele>
        <time>2018-04-21T09:29:04.000Z</time>
      </trkpt>
      <trkpt lat="44.12105" lon="7.3885">
        <ele>2866</ele>
        <time>2018-04-21T09:29:10.000Z</time>
      </trkpt>
      <trkpt lat="44.12103" lon="7.38848">
        <ele>2866</ele>
        <time>2018-04-21T09:29:17.000Z</time>
      </trkpt>
      <trkpt lat="44.12103" lon="7.38848">
        <ele>2866</ele>
        <time>2018-04-21T09:29:19.000Z</time>
      </trkpt>
      <trkpt lat="44.12102" lon="7.38847">
        <ele>2866</ele>
        <time>2018-04-21T09:29:23.000Z</time>
      </trkpt>
      <trkpt lat="44.12101" lon="7.38845">
        <ele>2866</ele>
        <time>2018-04-21T09:29:30.000Z</time>
      </trkpt>
      <trkpt lat="44.12101" lon="7.38845">
        <ele>2866</ele>
        <time>2018-04-21T09:29:31.000Z</time>
      </trkpt>
      <trkpt lat="44.12101" lon="7.38844">
        <ele>2866</ele>
        <time>2018-04-21T09:29:36.000Z</time>
      </trkpt>
      <trkpt lat="44.121" lon="7.38843">
        <ele>2866</ele>
        <time>2018-04-21T09:29:46.000Z</time>
      </trkpt>
      <trkpt lat="44.12098" lon="7.3884">
        <ele>2866</ele>
        <time>2018-04-21T09:29:53.000Z</time>
      </trkpt>
      <trkpt lat="44.12097" lon="7.38838">
        <ele>2866</ele>
        <time>2018-04-21T09:29:59.000Z</time>
      </trkpt>
      <trkpt lat="44.12096" lon="7.38837">
        <ele>2866</ele>
        <time>2018-04-21T09:30:00.000Z</time>
      </trkpt>
      <trkpt lat="44.12096" lon="7.38836">
        <ele>2866</ele>
        <time>2018-04-21T09:30:05.000Z</time>
      </trkpt>
      <trkpt lat="44.12094" lon="7.38834">
        <ele>2866</ele>
        <time>2018-04-21T09:30:11.000Z</time>
      </trkpt>
      <trkpt lat="44.12093" lon="7.38832">
        <ele>2879</ele>
        <time>2018-04-21T09:30:17.000Z</time>
      </trkpt>
      <trkpt lat="44.12091" lon="7.3883">
        <ele>2878</ele>
        <time>2018-04-21T09:30:24.000Z</time>
      </trkpt>
      <trkpt lat="44.1209" lon="7.38829">
        <ele>2878</ele>
        <time>2018-04-21T09:30:30.000Z</time>
      </trkpt>
      <trkpt lat="44.12091" lon="7.38828">
        <ele>2879</ele>
        <time>2018-04-21T09:30:44.000Z</time>
      </trkpt>
      <trkpt lat="44.12091" lon="7.38828">
        <ele>2879</ele>
        <time>2018-04-21T09:30:55.000Z</time>
      </trkpt>
      <trkpt lat="44.1209" lon="7.38828">
        <ele>2879</ele>
        <time>2018-04-21T09:31:10.000Z</time>
      </trkpt>
      <trkpt lat="44.1209" lon="7.38828">
        <ele>2879</ele>
        <time>2018-04-21T09:31:28.000Z</time>
      </trkpt>
      <trkpt lat="44.1209" lon="7.38828">
        <ele>2879</ele>
        <time>2018-04-21T09:31:39.000Z</time>
      </trkpt>
      <trkpt lat="44.12089" lon="7.38826">
        <ele>2879</ele>
        <time>2018-04-21T09:31:51.000Z</time>
      </trkpt>
      <trkpt lat="44.12088" lon="7.38824">
        <ele>2881</ele>
        <time>2018-04-21T09:31:55.000Z</time>
      </trkpt>
      <trkpt lat="44.12087" lon="7.38822">
        <ele>2882</ele>
        <time>2018-04-21T09:32:03.000Z</time>
      </trkpt>
      <trkpt lat="44.12085" lon="7.38821">
        <ele>2883</ele>
        <time>2018-04-21T09:32:09.000Z</time>
      </trkpt>
      <trkpt lat="44.12084" lon="7.38819">
        <ele>2884</ele>
        <time>2018-04-21T09:32:16.000Z</time>
      </trkpt>
      <trkpt lat="44.12083" lon="7.38819">
        <ele>2885</ele>
        <time>2018-04-21T09:32:17.000Z</time>
      </trkpt>
      <trkpt lat="44.12082" lon="7.38817">
        <ele>2871</ele>
        <time>2018-04-21T09:32:22.000Z</time>
      </trkpt>
      <trkpt lat="44.12081" lon="7.38815">
        <ele>2872</ele>
        <time>2018-04-21T09:32:30.000Z</time>
      </trkpt>
      <trkpt lat="44.12079" lon="7.38813">
        <ele>2873</ele>
        <time>2018-04-21T09:32:34.000Z</time>
      </trkpt>
      <trkpt lat="44.12079" lon="7.38812">
        <ele>2873</ele>
        <time>2018-04-21T09:32:36.000Z</time>
      </trkpt>
      <trkpt lat="44.12078" lon="7.3881">
        <ele>2874</ele>
        <time>2018-04-21T09:32:43.000Z</time>
      </trkpt>
      <trkpt lat="44.12076" lon="7.38809">
        <ele>2874</ele>
        <time>2018-04-21T09:32:49.000Z</time>
      </trkpt>
      <trkpt lat="44.12076" lon="7.38809">
        <ele>2874</ele>
        <time>2018-04-21T09:32:58.000Z</time>
      </trkpt>
      <trkpt lat="44.12076" lon="7.38808">
        <ele>2874</ele>
        <time>2018-04-21T09:33:15.000Z</time>
      </trkpt>
      <trkpt lat="44.12074" lon="7.38806">
        <ele>2875</ele>
        <time>2018-04-21T09:33:21.000Z</time>
      </trkpt>
      <trkpt lat="44.12074" lon="7.38806">
        <ele>2875</ele>
        <time>2018-04-21T09:33:23.000Z</time>
      </trkpt>
      <trkpt lat="44.12072" lon="7.38803">
        <ele>2876</ele>
        <time>2018-04-21T09:33:32.000Z</time>
      </trkpt>
      <trkpt lat="44.12072" lon="7.38803">
        <ele>2876</ele>
        <time>2018-04-21T09:33:40.000Z</time>
      </trkpt>
      <trkpt lat="44.12071" lon="7.38802">
        <ele>2876</ele>
        <time>2018-04-21T09:33:50.000Z</time>
      </trkpt>
      <trkpt lat="44.1207" lon="7.38801">
        <ele>2876</ele>
        <time>2018-04-21T09:33:58.000Z</time>
      </trkpt>
      <trkpt lat="44.1207" lon="7.388">
        <ele>2877</ele>
        <time>2018-04-21T09:34:08.000Z</time>
      </trkpt>
      <trkpt lat="44.12071" lon="7.38799">
        <ele>2877</ele>
        <time>2018-04-21T09:34:18.000Z</time>
      </trkpt>
      <trkpt lat="44.12071" lon="7.388">
        <ele>2877</ele>
        <time>2018-04-21T09:34:27.000Z</time>
      </trkpt>
      <trkpt lat="44.12071" lon="7.388">
        <ele>2877</ele>
        <time>2018-04-21T09:34:34.000Z</time>
      </trkpt>
      <trkpt lat="44.1207" lon="7.388">
        <ele>2877</ele>
        <time>2018-04-21T09:34:42.000Z</time>
      </trkpt>
      <trkpt lat="44.1207" lon="7.388">
        <ele>2876</ele>
        <time>2018-04-21T09:34:50.000Z</time>
      </trkpt>
      <trkpt lat="44.1207" lon="7.38801">
        <ele>2876</ele>
        <time>2018-04-21T09:34:59.000Z</time>
      </trkpt>
      <trkpt lat="44.1207" lon="7.38801">
        <ele>2876</ele>
        <time>2018-04-21T09:35:10.000Z</time>
      </trkpt>
      <trkpt lat="44.12069" lon="7.38802">
        <ele>2876</ele>
        <time>2018-04-21T09:35:18.000Z</time>
      </trkpt>
      <trkpt lat="44.12069" lon="7.38801">
        <ele>2876</ele>
        <time>2018-04-21T09:35:27.000Z</time>
      </trkpt>
      <trkpt lat="44.12069" lon="7.38801">
        <ele>2876</ele>
        <time>2018-04-21T09:35:37.000Z</time>
      </trkpt>
      <trkpt lat="44.1207" lon="7.38801">
        <ele>2876</ele>
        <time>2018-04-21T09:35:48.000Z</time>
      </trkpt>
      <trkpt lat="44.1207" lon="7.38801">
        <ele>2876</ele>
        <time>2018-04-21T09:35:59.000Z</time>
      </trkpt>
      <trkpt lat="44.1207" lon="7.38802">
        <ele>2876</ele>
        <time>2018-04-21T09:36:05.000Z</time>
      </trkpt>
      <trkpt lat="44.1207" lon="7.38802">
        <ele>2876</ele>
        <time>2018-04-21T09:36:08.000Z</time>
      </trkpt>
      <trkpt lat="44.1207" lon="7.38801">
        <ele>2876</ele>
        <time>2018-04-21T09:36:12.000Z</time>
      </trkpt>
      <trkpt lat="44.1207" lon="7.38801">
        <ele>2876</ele>
        <time>2018-04-21T09:36:13.000Z</time>
      </trkpt>
      <trkpt lat="44.1207" lon="7.38801">
        <ele>2876</ele>
        <time>2018-04-21T09:36:20.000Z</time>
      </trkpt>
      <trkpt lat="44.12069" lon="7.38802">
        <ele>2876</ele>
        <time>2018-04-21T09:36:29.000Z</time>
      </trkpt>
      <trkpt lat="44.1207" lon="7.38802">
        <ele>2876</ele>
        <time>2018-04-21T09:36:37.000Z</time>
      </trkpt>
      <trkpt lat="44.1207" lon="7.38802">
        <ele>2876</ele>
        <time>2018-04-21T09:36:47.000Z</time>
      </trkpt>
      <trkpt lat="44.1207" lon="7.38802">
        <ele>2876</ele>
        <time>2018-04-21T09:36:53.000Z</time>
      </trkpt>
      <trkpt lat="44.1207" lon="7.38801">
        <ele>2876</ele>
        <time>2018-04-21T09:36:59.000Z</time>
      </trkpt>
      <trkpt lat="44.1207" lon="7.38801">
        <ele>2876</ele>
        <time>2018-04-21T09:37:07.000Z</time>
      </trkpt>
      <trkpt lat="44.1207" lon="7.38801">
        <ele>2876</ele>
        <time>2018-04-21T09:37:12.000Z</time>
      </trkpt>
      <trkpt lat="44.1207" lon="7.388">
        <ele>2877</ele>
        <time>2018-04-21T09:37:21.000Z</time>
      </trkpt>
      <trkpt lat="44.12069" lon="7.38799">
        <ele>2877</ele>
        <time>2018-04-21T09:37:30.000Z</time>
      </trkpt>
      <trkpt lat="44.12067" lon="7.38797">
        <ele>2878</ele>
        <time>2018-04-21T09:37:36.000Z</time>
      </trkpt>
      <trkpt lat="44.12066" lon="7.38795">
        <ele>2878</ele>
        <time>2018-04-21T09:37:41.000Z</time>
      </trkpt>
      <trkpt lat="44.12065" lon="7.38795">
        <ele>2878</ele>
        <time>2018-04-21T09:37:50.000Z</time>
      </trkpt>
      <trkpt lat="44.12064" lon="7.38793">
        <ele>2878</ele>
        <time>2018-04-21T09:37:58.000Z</time>
      </trkpt>
      <trkpt lat="44.12064" lon="7.38793">
        <ele>2879</ele>
        <time>2018-04-21T09:38:02.000Z</time>
      </trkpt>
      <trkpt lat="44.12063" lon="7.38792">
        <ele>2879</ele>
        <time>2018-04-21T09:38:08.000Z</time>
      </trkpt>
      <trkpt lat="44.12061" lon="7.38789">
        <ele>2880</ele>
        <time>2018-04-21T09:38:14.000Z</time>
      </trkpt>
      <trkpt lat="44.12059" lon="7.38788">
        <ele>2880</ele>
        <time>2018-04-21T09:38:20.000Z</time>
      </trkpt>
      <trkpt lat="44.12059" lon="7.38788">
        <ele>2880</ele>
        <time>2018-04-21T09:38:21.000Z</time>
      </trkpt>
      <trkpt lat="44.12059" lon="7.38788">
        <ele>2880</ele>
        <time>2018-04-21T09:38:28.000Z</time>
      </trkpt>
      <trkpt lat="44.12059" lon="7.38787">
        <ele>2880</ele>
        <time>2018-04-21T09:38:36.000Z</time>
      </trkpt>
      <trkpt lat="44.1206" lon="7.38787">
        <ele>2880</ele>
        <time>2018-04-21T09:38:46.000Z</time>
      </trkpt>
      <trkpt lat="44.12059" lon="7.38786">
        <ele>2880</ele>
        <time>2018-04-21T09:38:55.000Z</time>
      </trkpt>
      <trkpt lat="44.12059" lon="7.38786">
        <ele>2880</ele>
        <time>2018-04-21T09:39:05.000Z</time>
      </trkpt>
      <trkpt lat="44.12058" lon="7.38785">
        <ele>2881</ele>
        <time>2018-04-21T09:39:17.000Z</time>
      </trkpt>
      <trkpt lat="44.12057" lon="7.38784">
        <ele>2881</ele>
        <time>2018-04-21T09:39:23.000Z</time>
      </trkpt>
      <trkpt lat="44.12057" lon="7.38784">
        <ele>2881</ele>
        <time>2018-04-21T09:39:27.000Z</time>
      </trkpt>
      <trkpt lat="44.12056" lon="7.38784">
        <ele>2881</ele>
        <time>2018-04-21T09:39:31.000Z</time>
      </trkpt>
      <trkpt lat="44.12056" lon="7.38783">
        <ele>2881</ele>
        <time>2018-04-21T09:39:40.000Z</time>
      </trkpt>
      <trkpt lat="44.12057" lon="7.38783">
        <ele>2881</ele>
        <time>2018-04-21T09:39:52.000Z</time>
      </trkpt>
      <trkpt lat="44.12057" lon="7.38783">
        <ele>2881</ele>
        <time>2018-04-21T09:40:01.000Z</time>
      </trkpt>
      <trkpt lat="44.12056" lon="7.38783">
        <ele>2881</ele>
        <time>2018-04-21T09:40:13.000Z</time>
      </trkpt>
      <trkpt lat="44.12056" lon="7.38783">
        <ele>2881</ele>
        <time>2018-04-21T09:40:23.000Z</time>
      </trkpt>
      <trkpt lat="44.12055" lon="7.38783">
        <ele>2881</ele>
        <time>2018-04-21T09:40:33.000Z</time>
      </trkpt>
      <trkpt lat="44.12056" lon="7.38782">
        <ele>2881</ele>
        <time>2018-04-21T09:40:43.000Z</time>
      </trkpt>
      <trkpt lat="44.12055" lon="7.38782">
        <ele>2881</ele>
        <time>2018-04-21T09:40:54.000Z</time>
      </trkpt>
      <trkpt lat="44.12056" lon="7.38783">
        <ele>2881</ele>
        <time>2018-04-21T09:41:05.000Z</time>
      </trkpt>
      <trkpt lat="44.12056" lon="7.38783">
        <ele>2881</ele>
        <time>2018-04-21T09:41:17.000Z</time>
      </trkpt>
      <trkpt lat="44.12056" lon="7.38784">
        <ele>2881</ele>
        <time>2018-04-21T09:41:31.000Z</time>
      </trkpt>
      <trkpt lat="44.12055" lon="7.38784">
        <ele>2880</ele>
        <time>2018-04-21T09:41:44.000Z</time>
      </trkpt>
      <trkpt lat="44.12055" lon="7.38785">
        <ele>2880</ele>
        <time>2018-04-21T09:41:57.000Z</time>
      </trkpt>
      <trkpt lat="44.12053" lon="7.38785">
        <ele>2880</ele>
        <time>2018-04-21T09:42:09.000Z</time>
      </trkpt>
      <trkpt lat="44.12053" lon="7.38784">
        <ele>2880</ele>
        <time>2018-04-21T09:42:22.000Z</time>
      </trkpt>
      <trkpt lat="44.12053" lon="7.38784">
        <ele>2880</ele>
        <time>2018-04-21T09:42:34.000Z</time>
      </trkpt>
      <trkpt lat="44.12053" lon="7.38784">
        <ele>2880</ele>
        <time>2018-04-21T09:42:44.000Z</time>
      </trkpt>
      <trkpt lat="44.12052" lon="7.38782">
        <ele>2880</ele>
        <time>2018-04-21T09:42:51.000Z</time>
      </trkpt>
      <trkpt lat="44.1205" lon="7.38779">
        <ele>2881</ele>
        <time>2018-04-21T09:42:56.000Z</time>
      </trkpt>
      <trkpt lat="44.12049" lon="7.38778">
        <ele>2881</ele>
        <time>2018-04-21T09:43:00.000Z</time>
      </trkpt>
      <trkpt lat="44.12049" lon="7.38777">
        <ele>2881</ele>
        <time>2018-04-21T09:43:02.000Z</time>
      </trkpt>
      <trkpt lat="44.12047" lon="7.38775">
        <ele>2882</ele>
        <time>2018-04-21T09:43:06.000Z</time>
      </trkpt>
      <trkpt lat="44.12046" lon="7.38775">
        <ele>2882</ele>
        <time>2018-04-21T09:43:09.000Z</time>
      </trkpt>
      <trkpt lat="44.12046" lon="7.38773">
        <ele>2882</ele>
        <time>2018-04-21T09:43:12.000Z</time>
      </trkpt>
      <trkpt lat="44.12044" lon="7.38771">
        <ele>2882</ele>
        <time>2018-04-21T09:43:17.000Z</time>
      </trkpt>
      <trkpt lat="44.12043" lon="7.38768">
        <ele>2883</ele>
        <time>2018-04-21T09:43:21.000Z</time>
      </trkpt>
      <trkpt lat="44.12041" lon="7.38766">
        <ele>2883</ele>
        <time>2018-04-21T09:43:27.000Z</time>
      </trkpt>
      <trkpt lat="44.12041" lon="7.38765">
        <ele>2883</ele>
        <time>2018-04-21T09:43:29.000Z</time>
      </trkpt>
      <trkpt lat="44.12041" lon="7.38764">
        <ele>2883</ele>
        <time>2018-04-21T09:43:34.000Z</time>
      </trkpt>
      <trkpt lat="44.1204" lon="7.38764">
        <ele>2883</ele>
        <time>2018-04-21T09:43:41.000Z</time>
      </trkpt>
      <trkpt lat="44.1204" lon="7.38764">
        <ele>2883</ele>
        <time>2018-04-21T09:43:50.000Z</time>
      </trkpt>
      <trkpt lat="44.12038" lon="7.38762">
        <ele>2883</ele>
        <time>2018-04-21T09:43:56.000Z</time>
      </trkpt>
      <trkpt lat="44.12036" lon="7.38762">
        <ele>2883</ele>
        <time>2018-04-21T09:44:01.000Z</time>
      </trkpt>
      <trkpt lat="44.12036" lon="7.38761">
        <ele>2883</ele>
        <time>2018-04-21T09:44:02.000Z</time>
      </trkpt>
      <trkpt lat="44.12035" lon="7.38761">
        <ele>2883</ele>
        <time>2018-04-21T09:44:07.000Z</time>
      </trkpt>
      <trkpt lat="44.12036" lon="7.38762">
        <ele>2883</ele>
        <time>2018-04-21T09:44:11.000Z</time>
      </trkpt>
      <trkpt lat="44.12035" lon="7.38761">
        <ele>2883</ele>
        <time>2018-04-21T09:44:14.000Z</time>
      </trkpt>
      <trkpt lat="44.12034" lon="7.38761">
        <ele>2883</ele>
        <time>2018-04-21T09:44:19.000Z</time>
      </trkpt>
      <trkpt lat="44.12035" lon="7.38761">
        <ele>2883</ele>
        <time>2018-04-21T09:44:26.000Z</time>
      </trkpt>
      <trkpt lat="44.12035" lon="7.3876">
        <ele>2883</ele>
        <time>2018-04-21T09:44:33.000Z</time>
      </trkpt>
      <trkpt lat="44.12035" lon="7.3876">
        <ele>2883</ele>
        <time>2018-04-21T09:44:45.000Z</time>
      </trkpt>
      <trkpt lat="44.12035" lon="7.3876">
        <ele>2883</ele>
        <time>2018-04-21T09:44:53.000Z</time>
      </trkpt>
      <trkpt lat="44.12036" lon="7.3876">
        <ele>2883</ele>
        <time>2018-04-21T09:44:57.000Z</time>
      </trkpt>
      <trkpt lat="44.12036" lon="7.3876">
        <ele>2883</ele>
        <time>2018-04-21T09:44:58.000Z</time>
      </trkpt>
      <trkpt lat="44.12037" lon="7.38759">
        <ele>2884</ele>
        <time>2018-04-21T09:45:06.000Z</time>
      </trkpt>
      <trkpt lat="44.12038" lon="7.3876">
        <ele>2884</ele>
        <time>2018-04-21T09:45:13.000Z</time>
      </trkpt>
      <trkpt lat="44.12039" lon="7.38757">
        <ele>2884</ele>
        <time>2018-04-21T09:45:21.000Z</time>
      </trkpt>
      <trkpt lat="44.12039" lon="7.38757">
        <ele>2884</ele>
        <time>2018-04-21T09:45:26.000Z</time>
      </trkpt>
      <trkpt lat="44.1204" lon="7.38757">
        <ele>2885</ele>
        <time>2018-04-21T09:45:32.000Z</time>
      </trkpt>
      <trkpt lat="44.12041" lon="7.38757">
        <ele>2885</ele>
        <time>2018-04-21T09:45:43.000Z</time>
      </trkpt>
      <trkpt lat="44.12042" lon="7.38755">
        <ele>2885</ele>
        <time>2018-04-21T09:45:49.000Z</time>
      </trkpt>
      <trkpt lat="44.12043" lon="7.38754">
        <ele>2886</ele>
        <time>2018-04-21T09:45:54.000Z</time>
      </trkpt>
      <trkpt lat="44.12043" lon="7.38754">
        <ele>2886</ele>
        <time>2018-04-21T09:45:56.000Z</time>
      </trkpt>
      <trkpt lat="44.12044" lon="7.38753">
        <ele>2886</ele>
        <time>2018-04-21T09:46:02.000Z</time>
      </trkpt>
      <trkpt lat="44.12046" lon="7.38754">
        <ele>2886</ele>
        <time>2018-04-21T09:46:11.000Z</time>
      </trkpt>
      <trkpt lat="44.12048" lon="7.38753">
        <ele>2887</ele>
        <time>2018-04-21T09:46:18.000Z</time>
      </trkpt>
      <trkpt lat="44.12049" lon="7.38753">
        <ele>2887</ele>
        <time>2018-04-21T09:46:24.000Z</time>
      </trkpt>
      <trkpt lat="44.12049" lon="7.38753">
        <ele>2888</ele>
        <time>2018-04-21T09:46:27.000Z</time>
      </trkpt>
      <trkpt lat="44.1205" lon="7.38753">
        <ele>2888</ele>
        <time>2018-04-21T09:46:30.000Z</time>
      </trkpt>
      <trkpt lat="44.12052" lon="7.38753">
        <ele>2889</ele>
        <time>2018-04-21T09:46:37.000Z</time>
      </trkpt>
      <trkpt lat="44.12054" lon="7.38752">
        <ele>2889</ele>
        <time>2018-04-21T09:46:43.000Z</time>
      </trkpt>
      <trkpt lat="44.12054" lon="7.38753">
        <ele>2890</ele>
        <time>2018-04-21T09:46:50.000Z</time>
      </trkpt>
      <trkpt lat="44.12055" lon="7.38753">
        <ele>2890</ele>
        <time>2018-04-21T09:46:52.000Z</time>
      </trkpt>
      <trkpt lat="44.12054" lon="7.38754">
        <ele>2889</ele>
        <time>2018-04-21T09:47:00.000Z</time>
      </trkpt>
      <trkpt lat="44.12053" lon="7.38753">
        <ele>2889</ele>
        <time>2018-04-21T09:47:06.000Z</time>
      </trkpt>
      <trkpt lat="44.1205" lon="7.38752">
        <ele>2888</ele>
        <time>2018-04-21T09:47:12.000Z</time>
      </trkpt>
      <trkpt lat="44.12047" lon="7.38749">
        <ele>2913</ele>
        <time>2018-04-21T09:47:18.000Z</time>
      </trkpt>
      <trkpt lat="44.12046" lon="7.38748">
        <ele>2912</ele>
        <time>2018-04-21T09:47:24.000Z</time>
      </trkpt>
      <trkpt lat="44.12045" lon="7.38747">
        <ele>2912</ele>
        <time>2018-04-21T09:47:29.000Z</time>
      </trkpt>
      <trkpt lat="44.12045" lon="7.38746">
        <ele>2912</ele>
        <time>2018-04-21T09:47:30.000Z</time>
      </trkpt>
      <trkpt lat="44.12043" lon="7.38745">
        <ele>2912</ele>
        <time>2018-04-21T09:47:40.000Z</time>
      </trkpt>
      <trkpt lat="44.12042" lon="7.38744">
        <ele>2912</ele>
        <time>2018-04-21T09:47:45.000Z</time>
      </trkpt>
      <trkpt lat="44.12041" lon="7.38743">
        <ele>2912</ele>
        <time>2018-04-21T09:47:49.000Z</time>
      </trkpt>
      <trkpt lat="44.1204" lon="7.38743">
        <ele>2912</ele>
        <time>2018-04-21T09:47:53.000Z</time>
      </trkpt>
      <trkpt lat="44.12037" lon="7.38742">
        <ele>2911</ele>
        <time>2018-04-21T09:47:58.000Z</time>
      </trkpt>
      <trkpt lat="44.12034" lon="7.38741">
        <ele>2910</ele>
        <time>2018-04-21T09:48:04.000Z</time>
      </trkpt>
      <trkpt lat="44.12033" lon="7.38741">
        <ele>2910</ele>
        <time>2018-04-21T09:48:08.000Z</time>
      </trkpt>
      <trkpt lat="44.12033" lon="7.3874">
        <ele>2910</ele>
        <time>2018-04-21T09:48:09.000Z</time>
      </trkpt>
      <trkpt lat="44.12032" lon="7.3874">
        <ele>2910</ele>
        <time>2018-04-21T09:48:12.000Z</time>
      </trkpt>
      <trkpt lat="44.1203" lon="7.38738">
        <ele>2910</ele>
        <time>2018-04-21T09:48:18.000Z</time>
      </trkpt>
      <trkpt lat="44.12029" lon="7.38736">
        <ele>2910</ele>
        <time>2018-04-21T09:48:23.000Z</time>
      </trkpt>
      <trkpt lat="44.12028" lon="7.38735">
        <ele>2910</ele>
        <time>2018-04-21T09:48:27.000Z</time>
      </trkpt>
      <trkpt lat="44.12028" lon="7.38735">
        <ele>2910</ele>
        <time>2018-04-21T09:48:28.000Z</time>
      </trkpt>
      <trkpt lat="44.12028" lon="7.38734">
        <ele>2910</ele>
        <time>2018-04-21T09:48:35.000Z</time>
      </trkpt>
      <trkpt lat="44.12028" lon="7.38734">
        <ele>2910</ele>
        <time>2018-04-21T09:48:41.000Z</time>
      </trkpt>
      <trkpt lat="44.12029" lon="7.38735">
        <ele>2910</ele>
        <time>2018-04-21T09:48:49.000Z</time>
      </trkpt>
      <trkpt lat="44.12029" lon="7.38736">
        <ele>2910</ele>
        <time>2018-04-21T09:48:54.000Z</time>
      </trkpt>
      <trkpt lat="44.1203" lon="7.38736">
        <ele>2910</ele>
        <time>2018-04-21T09:49:07.000Z</time>
      </trkpt>
      <trkpt lat="44.1203" lon="7.38736">
        <ele>2910</ele>
        <time>2018-04-21T09:49:13.000Z</time>
      </trkpt>
      <trkpt lat="44.12031" lon="7.38735">
        <ele>2911</ele>
        <time>2018-04-21T09:49:20.000Z</time>
      </trkpt>
      <trkpt lat="44.12031" lon="7.38735">
        <ele>2911</ele>
        <time>2018-04-21T09:49:21.000Z</time>
      </trkpt>
      <trkpt lat="44.12032" lon="7.38734">
        <ele>2911</ele>
        <time>2018-04-21T09:49:27.000Z</time>
      </trkpt>
      <trkpt lat="44.12033" lon="7.38733">
        <ele>2911</ele>
        <time>2018-04-21T09:49:35.000Z</time>
      </trkpt>
      <trkpt lat="44.12034" lon="7.38733">
        <ele>2911</ele>
        <time>2018-04-21T09:49:41.000Z</time>
      </trkpt>
      <trkpt lat="44.12036" lon="7.38731">
        <ele>2912</ele>
        <time>2018-04-21T09:49:48.000Z</time>
      </trkpt>
      <trkpt lat="44.12036" lon="7.38731">
        <ele>2912</ele>
        <time>2018-04-21T09:49:52.000Z</time>
      </trkpt>
      <trkpt lat="44.12037" lon="7.38731">
        <ele>2912</ele>
        <time>2018-04-21T09:49:54.000Z</time>
      </trkpt>
      <trkpt lat="44.12037" lon="7.38732">
        <ele>2912</ele>
        <time>2018-04-21T09:50:02.000Z</time>
      </trkpt>
      <trkpt lat="44.12036" lon="7.38732">
        <ele>2912</ele>
        <time>2018-04-21T09:50:13.000Z</time>
      </trkpt>
      <trkpt lat="44.12036" lon="7.38732">
        <ele>2912</ele>
        <time>2018-04-21T09:50:22.000Z</time>
      </trkpt>
      <trkpt lat="44.12035" lon="7.38732">
        <ele>2912</ele>
        <time>2018-04-21T09:50:26.000Z</time>
      </trkpt>
      <trkpt lat="44.12034" lon="7.38731">
        <ele>2912</ele>
        <time>2018-04-21T09:50:31.000Z</time>
      </trkpt>
      <trkpt lat="44.12032" lon="7.38731">
        <ele>2912</ele>
        <time>2018-04-21T09:50:35.000Z</time>
      </trkpt>
      <trkpt lat="44.1203" lon="7.38729">
        <ele>2911</ele>
        <time>2018-04-21T09:50:41.000Z</time>
      </trkpt>
      <trkpt lat="44.12028" lon="7.38729">
        <ele>2911</ele>
        <time>2018-04-21T09:50:45.000Z</time>
      </trkpt>
      <trkpt lat="44.12027" lon="7.38728">
        <ele>2911</ele>
        <time>2018-04-21T09:50:48.000Z</time>
      </trkpt>
      <trkpt lat="44.12025" lon="7.38727">
        <ele>2911</ele>
        <time>2018-04-21T09:50:54.000Z</time>
      </trkpt>
      <trkpt lat="44.12024" lon="7.38727">
        <ele>2911</ele>
        <time>2018-04-21T09:50:58.000Z</time>
      </trkpt>
      <trkpt lat="44.12023" lon="7.38726">
        <ele>2911</ele>
        <time>2018-04-21T09:50:59.000Z</time>
      </trkpt>
      <trkpt lat="44.12022" lon="7.38725">
        <ele>2911</ele>
        <time>2018-04-21T09:51:05.000Z</time>
      </trkpt>
      <trkpt lat="44.12021" lon="7.38723">
        <ele>2911</ele>
        <time>2018-04-21T09:51:06.000Z</time>
      </trkpt>
      <trkpt lat="44.12021" lon="7.38723">
        <ele>2911</ele>
        <time>2018-04-21T09:51:09.000Z</time>
      </trkpt>
      <trkpt lat="44.1202" lon="7.38722">
        <ele>2911</ele>
        <time>2018-04-21T09:51:16.000Z</time>
      </trkpt>
      <trkpt lat="44.1202" lon="7.38722">
        <ele>2911</ele>
        <time>2018-04-21T09:51:21.000Z</time>
      </trkpt>
      <trkpt lat="44.12019" lon="7.38722">
        <ele>2911</ele>
        <time>2018-04-21T09:51:22.000Z</time>
      </trkpt>
      <trkpt lat="44.1202" lon="7.38722">
        <ele>2911</ele>
        <time>2018-04-21T09:51:26.000Z</time>
      </trkpt>
      <trkpt lat="44.1202" lon="7.38722">
        <ele>2911</ele>
        <time>2018-04-21T09:51:37.000Z</time>
      </trkpt>
      <trkpt lat="44.1202" lon="7.38723">
        <ele>2911</ele>
        <time>2018-04-21T09:51:45.000Z</time>
      </trkpt>
      <trkpt lat="44.1202" lon="7.38723">
        <ele>2911</ele>
        <time>2018-04-21T09:51:56.000Z</time>
      </trkpt>
      <trkpt lat="44.1202" lon="7.38723">
        <ele>2911</ele>
        <time>2018-04-21T09:52:05.000Z</time>
      </trkpt>
      <trkpt lat="44.1202" lon="7.38723">
        <ele>2911</ele>
        <time>2018-04-21T09:52:09.000Z</time>
      </trkpt>
      <trkpt lat="44.1202" lon="7.38724">
        <ele>2911</ele>
        <time>2018-04-21T09:52:18.000Z</time>
      </trkpt>
      <trkpt lat="44.1202" lon="7.38724">
        <ele>2911</ele>
        <time>2018-04-21T09:52:24.000Z</time>
      </trkpt>
      <trkpt lat="44.1202" lon="7.38723">
        <ele>2911</ele>
        <time>2018-04-21T09:52:32.000Z</time>
      </trkpt>
      <trkpt lat="44.1202" lon="7.38724">
        <ele>2910</ele>
        <time>2018-04-21T09:52:39.000Z</time>
      </trkpt>
      <trkpt lat="44.1202" lon="7.38724">
        <ele>2910</ele>
        <time>2018-04-21T09:52:43.000Z</time>
      </trkpt>
      <trkpt lat="44.1202" lon="7.38725">
        <ele>2910</ele>
        <time>2018-04-21T09:52:53.000Z</time>
      </trkpt>
      <trkpt lat="44.1202" lon="7.38724">
        <ele>2910</ele>
        <time>2018-04-21T09:53:00.000Z</time>
      </trkpt>
      <trkpt lat="44.12019" lon="7.38723">
        <ele>2911</ele>
        <time>2018-04-21T09:53:11.000Z</time>
      </trkpt>
      <trkpt lat="44.12019" lon="7.38723">
        <ele>2911</ele>
        <time>2018-04-21T09:53:18.000Z</time>
      </trkpt>
      <trkpt lat="44.12018" lon="7.38723">
        <ele>2910</ele>
        <time>2018-04-21T09:53:26.000Z</time>
      </trkpt>
      <trkpt lat="44.12018" lon="7.38723">
        <ele>2910</ele>
        <time>2018-04-21T09:53:33.000Z</time>
      </trkpt>
      <trkpt lat="44.12018" lon="7.38723">
        <ele>2910</ele>
        <time>2018-04-21T09:53:39.000Z</time>
      </trkpt>
      <trkpt lat="44.12017" lon="7.38722">
        <ele>2910</ele>
        <time>2018-04-21T09:53:47.000Z</time>
      </trkpt>
      <trkpt lat="44.12017" lon="7.38722">
        <ele>2910</ele>
        <time>2018-04-21T09:53:48.000Z</time>
      </trkpt>
      <trkpt lat="44.12017" lon="7.38722">
        <ele>2910</ele>
        <time>2018-04-21T09:53:56.000Z</time>
      </trkpt>
      <trkpt lat="44.12017" lon="7.38722">
        <ele>2910</ele>
        <time>2018-04-21T09:54:09.000Z</time>
      </trkpt>
      <trkpt lat="44.12018" lon="7.38722">
        <ele>2911</ele>
        <time>2018-04-21T09:54:18.000Z</time>
      </trkpt>
      <trkpt lat="44.12018" lon="7.38722">
        <ele>2911</ele>
        <time>2018-04-21T09:54:27.000Z</time>
      </trkpt>
      <trkpt lat="44.12019" lon="7.38722">
        <ele>2911</ele>
        <time>2018-04-21T09:54:36.000Z</time>
      </trkpt>
      <trkpt lat="44.12019" lon="7.38722">
        <ele>2911</ele>
        <time>2018-04-21T09:54:46.000Z</time>
      </trkpt>
      <trkpt lat="44.1202" lon="7.38722">
        <ele>2911</ele>
        <time>2018-04-21T09:54:52.000Z</time>
      </trkpt>
      <trkpt lat="44.12019" lon="7.38722">
        <ele>2911</ele>
        <time>2018-04-21T09:55:00.000Z</time>
      </trkpt>
      <trkpt lat="44.12019" lon="7.38722">
        <ele>2911</ele>
        <time>2018-04-21T09:55:10.000Z</time>
      </trkpt>
      <trkpt lat="44.12019" lon="7.38723">
        <ele>2911</ele>
        <time>2018-04-21T09:55:21.000Z</time>
      </trkpt>
      <trkpt lat="44.12019" lon="7.38723">
        <ele>2911</ele>
        <time>2018-04-21T09:55:31.000Z</time>
      </trkpt>
      <trkpt lat="44.12019" lon="7.38722">
        <ele>2911</ele>
        <time>2018-04-21T09:55:42.000Z</time>
      </trkpt>
      <trkpt lat="44.12018" lon="7.38723">
        <ele>2910</ele>
        <time>2018-04-21T09:55:55.000Z</time>
      </trkpt>
      <trkpt lat="44.12018" lon="7.38723">
        <ele>2910</ele>
        <time>2018-04-21T09:56:04.000Z</time>
      </trkpt>
      <trkpt lat="44.12018" lon="7.38723">
        <ele>2910</ele>
        <time>2018-04-21T09:56:16.000Z</time>
      </trkpt>
      <trkpt lat="44.12018" lon="7.38723">
        <ele>2910</ele>
        <time>2018-04-21T09:56:26.000Z</time>
      </trkpt>
      <trkpt lat="44.12018" lon="7.38723">
        <ele>2910</ele>
        <time>2018-04-21T09:56:37.000Z</time>
      </trkpt>
      <trkpt lat="44.12018" lon="7.38724">
        <ele>2910</ele>
        <time>2018-04-21T09:56:47.000Z</time>
      </trkpt>
      <trkpt lat="44.12019" lon="7.38724">
        <ele>2910</ele>
        <time>2018-04-21T09:56:53.000Z</time>
      </trkpt>
      <trkpt lat="44.12019" lon="7.38724">
        <ele>2910</ele>
        <time>2018-04-21T09:57:02.000Z</time>
      </trkpt>
      <trkpt lat="44.12019" lon="7.38724">
        <ele>2910</ele>
        <time>2018-04-21T09:57:07.000Z</time>
      </trkpt>
      <trkpt lat="44.12018" lon="7.38723">
        <ele>2910</ele>
        <time>2018-04-21T09:57:13.000Z</time>
      </trkpt>
      <trkpt lat="44.12019" lon="7.38724">
        <ele>2910</ele>
        <time>2018-04-21T09:57:28.000Z</time>
      </trkpt>
      <trkpt lat="44.12019" lon="7.38725">
        <ele>2910</ele>
        <time>2018-04-21T09:57:45.000Z</time>
      </trkpt>
      <trkpt lat="44.1202" lon="7.38725">
        <ele>2910</ele>
        <time>2018-04-21T09:57:56.000Z</time>
      </trkpt>
      <trkpt lat="44.12019" lon="7.38725">
        <ele>2910</ele>
        <time>2018-04-21T09:58:06.000Z</time>
      </trkpt>
      <trkpt lat="44.12019" lon="7.38725">
        <ele>2910</ele>
        <time>2018-04-21T09:58:09.000Z</time>
      </trkpt>
      <trkpt lat="44.12019" lon="7.38725">
        <ele>2910</ele>
        <time>2018-04-21T09:58:17.000Z</time>
      </trkpt>
      <trkpt lat="44.12018" lon="7.38725">
        <ele>2910</ele>
        <time>2018-04-21T09:58:30.000Z</time>
      </trkpt>
      <trkpt lat="44.12018" lon="7.38725">
        <ele>2910</ele>
        <time>2018-04-21T09:58:42.000Z</time>
      </trkpt>
      <trkpt lat="44.12018" lon="7.38725">
        <ele>2910</ele>
        <time>2018-04-21T09:58:54.000Z</time>
      </trkpt>
      <trkpt lat="44.12019" lon="7.38725">
        <ele>2910</ele>
        <time>2018-04-21T09:59:05.000Z</time>
      </trkpt>
      <trkpt lat="44.12019" lon="7.38725">
        <ele>2910</ele>
        <time>2018-04-21T09:59:19.000Z</time>
      </trkpt>
      <trkpt lat="44.12019" lon="7.38724">
        <ele>2910</ele>
        <time>2018-04-21T09:59:30.000Z</time>
      </trkpt>
      <trkpt lat="44.12019" lon="7.38724">
        <ele>2910</ele>
        <time>2018-04-21T09:59:38.000Z</time>
      </trkpt>
      <trkpt lat="44.12018" lon="7.38724">
        <ele>2910</ele>
        <time>2018-04-21T09:59:50.000Z</time>
      </trkpt>
      <trkpt lat="44.12018" lon="7.38723">
        <ele>2910</ele>
        <time>2018-04-21T10:00:03.000Z</time>
      </trkpt>
      <trkpt lat="44.12016" lon="7.38722">
        <ele>2911</ele>
        <time>2018-04-21T10:00:13.000Z</time>
      </trkpt>
      <trkpt lat="44.12016" lon="7.3872">
        <ele>2911</ele>
        <time>2018-04-21T10:00:23.000Z</time>
      </trkpt>
      <trkpt lat="44.12017" lon="7.3872">
        <ele>2911</ele>
        <time>2018-04-21T10:00:24.000Z</time>
      </trkpt>
      <trkpt lat="44.12017" lon="7.38719">
        <ele>2911</ele>
        <time>2018-04-21T10:00:27.000Z</time>
      </trkpt>
      <trkpt lat="44.12017" lon="7.38719">
        <ele>2911</ele>
        <time>2018-04-21T10:00:35.000Z</time>
      </trkpt>
      <trkpt lat="44.12017" lon="7.38719">
        <ele>2911</ele>
        <time>2018-04-21T10:00:40.000Z</time>
      </trkpt>
      <trkpt lat="44.12017" lon="7.38719">
        <ele>2911</ele>
        <time>2018-04-21T10:00:44.000Z</time>
      </trkpt>
      <trkpt lat="44.12017" lon="7.3872">
        <ele>2911</ele>
        <time>2018-04-21T10:00:53.000Z</time>
      </trkpt>
      <trkpt lat="44.12017" lon="7.38721">
        <ele>2911</ele>
        <time>2018-04-21T10:01:11.000Z</time>
      </trkpt>
      <trkpt lat="44.12017" lon="7.38721">
        <ele>2911</ele>
        <time>2018-04-21T10:01:17.000Z</time>
      </trkpt>
      <trkpt lat="44.12017" lon="7.38722">
        <ele>2911</ele>
        <time>2018-04-21T10:01:19.000Z</time>
      </trkpt>
      <trkpt lat="44.12018" lon="7.38722">
        <ele>2911</ele>
        <time>2018-04-21T10:01:25.000Z</time>
      </trkpt>
      <trkpt lat="44.12017" lon="7.38722">
        <ele>2910</ele>
        <time>2018-04-21T10:01:36.000Z</time>
      </trkpt>
      <trkpt lat="44.12017" lon="7.38722">
        <ele>2911</ele>
        <time>2018-04-21T10:01:48.000Z</time>
      </trkpt>
      <trkpt lat="44.12017" lon="7.38722">
        <ele>2910</ele>
        <time>2018-04-21T10:01:56.000Z</time>
      </trkpt>
      <trkpt lat="44.12017" lon="7.38722">
        <ele>2911</ele>
        <time>2018-04-21T10:02:01.000Z</time>
      </trkpt>
      <trkpt lat="44.12017" lon="7.38722">
        <ele>2911</ele>
        <time>2018-04-21T10:02:10.000Z</time>
      </trkpt>
      <trkpt lat="44.12016" lon="7.38721">
        <ele>2911</ele>
        <time>2018-04-21T10:02:17.000Z</time>
      </trkpt>
      <trkpt lat="44.12016" lon="7.38721">
        <ele>2911</ele>
        <time>2018-04-21T10:02:24.000Z</time>
      </trkpt>
      <trkpt lat="44.12016" lon="7.3872">
        <ele>2911</ele>
        <time>2018-04-21T10:02:31.000Z</time>
      </trkpt>
      <trkpt lat="44.12017" lon="7.3872">
        <ele>2911</ele>
        <time>2018-04-21T10:02:38.000Z</time>
      </trkpt>
      <trkpt lat="44.12017" lon="7.38719">
        <ele>2911</ele>
        <time>2018-04-21T10:02:45.000Z</time>
      </trkpt>
      <trkpt lat="44.12017" lon="7.38718">
        <ele>2911</ele>
        <time>2018-04-21T10:02:47.000Z</time>
      </trkpt>
      <trkpt lat="44.12017" lon="7.38718">
        <ele>2912</ele>
        <time>2018-04-21T10:02:54.000Z</time>
      </trkpt>
      <trkpt lat="44.12017" lon="7.38717">
        <ele>2912</ele>
        <time>2018-04-21T10:03:01.000Z</time>
      </trkpt>
      <trkpt lat="44.12018" lon="7.38717">
        <ele>2912</ele>
        <time>2018-04-21T10:03:10.000Z</time>
      </trkpt>
      <trkpt lat="44.12018" lon="7.38717">
        <ele>2912</ele>
        <time>2018-04-21T10:03:18.000Z</time>
      </trkpt>
      <trkpt lat="44.12018" lon="7.38717">
        <ele>2912</ele>
        <time>2018-04-21T10:03:22.000Z</time>
      </trkpt>
      <trkpt lat="44.12019" lon="7.38719">
        <ele>2912</ele>
        <time>2018-04-21T10:03:32.000Z</time>
      </trkpt>
      <trkpt lat="44.12019" lon="7.38719">
        <ele>2912</ele>
        <time>2018-04-21T10:03:42.000Z</time>
      </trkpt>
      <trkpt lat="44.12019" lon="7.38719">
        <ele>2912</ele>
        <time>2018-04-21T10:03:44.000Z</time>
      </trkpt>
      <trkpt lat="44.1202" lon="7.3872">
        <ele>2912</ele>
        <time>2018-04-21T10:03:52.000Z</time>
      </trkpt>
      <trkpt lat="44.1202" lon="7.3872">
        <ele>2911</ele>
        <time>2018-04-21T10:04:08.000Z</time>
      </trkpt>
      <trkpt lat="44.12019" lon="7.3872">
        <ele>2911</ele>
        <time>2018-04-21T10:04:21.000Z</time>
      </trkpt>
      <trkpt lat="44.12019" lon="7.38721">
        <ele>2911</ele>
        <time>2018-04-21T10:04:33.000Z</time>
      </trkpt>
      <trkpt lat="44.12019" lon="7.38721">
        <ele>2911</ele>
        <time>2018-04-21T10:04:46.000Z</time>
      </trkpt>
      <trkpt lat="44.12019" lon="7.38721">
        <ele>2911</ele>
        <time>2018-04-21T10:04:49.000Z</time>
      </trkpt>
      <trkpt lat="44.12018" lon="7.38721">
        <ele>2911</ele>
        <time>2018-04-21T10:04:57.000Z</time>
      </trkpt>
      <trkpt lat="44.12018" lon="7.3872">
        <ele>2911</ele>
        <time>2018-04-21T10:05:05.000Z</time>
      </trkpt>
      <trkpt lat="44.12018" lon="7.3872">
        <ele>2911</ele>
        <time>2018-04-21T10:05:13.000Z</time>
      </trkpt>
      <trkpt lat="44.12019" lon="7.3872">
        <ele>2911</ele>
        <time>2018-04-21T10:05:18.000Z</time>
      </trkpt>
      <trkpt lat="44.12019" lon="7.3872">
        <ele>2911</ele>
        <time>2018-04-21T10:05:26.000Z</time>
      </trkpt>
      <trkpt lat="44.12018" lon="7.38719">
        <ele>2911</ele>
        <time>2018-04-21T10:05:34.000Z</time>
      </trkpt>
      <trkpt lat="44.12019" lon="7.38719">
        <ele>2912</ele>
        <time>2018-04-21T10:05:44.000Z</time>
      </trkpt>
      <trkpt lat="44.1202" lon="7.38719">
        <ele>2912</ele>
        <time>2018-04-21T10:05:56.000Z</time>
      </trkpt>
      <trkpt lat="44.1202" lon="7.38719">
        <ele>2912</ele>
        <time>2018-04-21T10:06:08.000Z</time>
      </trkpt>
      <trkpt lat="44.1202" lon="7.38719">
        <ele>2912</ele>
        <time>2018-04-21T10:06:17.000Z</time>
      </trkpt>
      <trkpt lat="44.1202" lon="7.3872">
        <ele>2912</ele>
        <time>2018-04-21T10:06:26.000Z</time>
      </trkpt>
      <trkpt lat="44.12019" lon="7.3872">
        <ele>2911</ele>
        <time>2018-04-21T10:06:32.000Z</time>
      </trkpt>
      <trkpt lat="44.1202" lon="7.38719">
        <ele>2912</ele>
        <time>2018-04-21T10:06:36.000Z</time>
      </trkpt>
      <trkpt lat="44.1202" lon="7.38719">
        <ele>2912</ele>
        <time>2018-04-21T10:06:44.000Z</time>
      </trkpt>
      <trkpt lat="44.1202" lon="7.38719">
        <ele>2912</ele>
        <time>2018-04-21T10:06:52.000Z</time>
      </trkpt>
      <trkpt lat="44.1202" lon="7.3872">
        <ele>2912</ele>
        <time>2018-04-21T10:06:59.000Z</time>
      </trkpt>
      <trkpt lat="44.1202" lon="7.3872">
        <ele>2912</ele>
        <time>2018-04-21T10:07:00.000Z</time>
      </trkpt>
      <trkpt lat="44.12019" lon="7.38719">
        <ele>2912</ele>
        <time>2018-04-21T10:07:10.000Z</time>
      </trkpt>
      <trkpt lat="44.12019" lon="7.3872">
        <ele>2912</ele>
        <time>2018-04-21T10:07:30.000Z</time>
      </trkpt>
      <trkpt lat="44.1202" lon="7.38718">
        <ele>2912</ele>
        <time>2018-04-21T10:07:37.000Z</time>
      </trkpt>
      <trkpt lat="44.1202" lon="7.38718">
        <ele>2912</ele>
        <time>2018-04-21T10:07:40.000Z</time>
      </trkpt>
      <trkpt lat="44.1202" lon="7.38718">
        <ele>2912</ele>
        <time>2018-04-21T10:07:46.000Z</time>
      </trkpt>
      <trkpt lat="44.1202" lon="7.38718">
        <ele>2912</ele>
        <time>2018-04-21T10:07:54.000Z</time>
      </trkpt>
      <trkpt lat="44.12019" lon="7.38716">
        <ele>2913</ele>
        <time>2018-04-21T10:08:02.000Z</time>
      </trkpt>
      <trkpt lat="44.12019" lon="7.38716">
        <ele>2913</ele>
        <time>2018-04-21T10:08:03.000Z</time>
      </trkpt>
      <trkpt lat="44.1202" lon="7.38714">
        <ele>2913</ele>
        <time>2018-04-21T10:08:08.000Z</time>
      </trkpt>
      <trkpt lat="44.1202" lon="7.38714">
        <ele>2913</ele>
        <time>2018-04-21T10:08:10.000Z</time>
      </trkpt>
      <trkpt lat="44.1202" lon="7.38714">
        <ele>2913</ele>
        <time>2018-04-21T10:08:17.000Z</time>
      </trkpt>
      <trkpt lat="44.1202" lon="7.38715">
        <ele>2913</ele>
        <time>2018-04-21T10:08:26.000Z</time>
      </trkpt>
      <trkpt lat="44.1202" lon="7.38715">
        <ele>2913</ele>
        <time>2018-04-21T10:08:36.000Z</time>
      </trkpt>
      <trkpt lat="44.1202" lon="7.38714">
        <ele>2913</ele>
        <time>2018-04-21T10:08:42.000Z</time>
      </trkpt>
      <trkpt lat="44.1202" lon="7.38713">
        <ele>2913</ele>
        <time>2018-04-21T10:08:43.000Z</time>
      </trkpt>
      <trkpt lat="44.1202" lon="7.38712">
        <ele>2913</ele>
        <time>2018-04-21T10:08:48.000Z</time>
      </trkpt>
      <trkpt lat="44.12019" lon="7.38713">
        <ele>2913</ele>
        <time>2018-04-21T10:08:53.000Z</time>
      </trkpt>
      <trkpt lat="44.12019" lon="7.38713">
        <ele>2913</ele>
        <time>2018-04-21T10:08:54.000Z</time>
      </trkpt>
      <trkpt lat="44.12018" lon="7.38713">
        <ele>2913</ele>
        <time>2018-04-21T10:09:04.000Z</time>
      </trkpt>
      <trkpt lat="44.12018" lon="7.38713">
        <ele>2913</ele>
        <time>2018-04-21T10:09:09.000Z</time>
      </trkpt>
      <trkpt lat="44.12018" lon="7.38713">
        <ele>2913</ele>
        <time>2018-04-21T10:09:12.000Z</time>
      </trkpt>
      <trkpt lat="44.12018" lon="7.38713">
        <ele>2913</ele>
        <time>2018-04-21T10:09:19.000Z</time>
      </trkpt>
      <trkpt lat="44.12018" lon="7.38713">
        <ele>2913</ele>
        <time>2018-04-21T10:09:31.000Z</time>
      </trkpt>
      <trkpt lat="44.12018" lon="7.38712">
        <ele>2913</ele>
        <time>2018-04-21T10:09:40.000Z</time>
      </trkpt>
      <trkpt lat="44.12017" lon="7.38712">
        <ele>2913</ele>
        <time>2018-04-21T10:09:44.000Z</time>
      </trkpt>
      <trkpt lat="44.12015" lon="7.38711">
        <ele>2913</ele>
        <time>2018-04-21T10:09:47.000Z</time>
      </trkpt>
      <trkpt lat="44.12015" lon="7.38711">
        <ele>2913</ele>
        <time>2018-04-21T10:09:49.000Z</time>
      </trkpt>
      <trkpt lat="44.12016" lon="7.38711">
        <ele>2913</ele>
        <time>2018-04-21T10:09:53.000Z</time>
      </trkpt>
      <trkpt lat="44.12016" lon="7.3871">
        <ele>2914</ele>
        <time>2018-04-21T10:09:58.000Z</time>
      </trkpt>
      <trkpt lat="44.12016" lon="7.38711">
        <ele>2913</ele>
        <time>2018-04-21T10:10:07.000Z</time>
      </trkpt>
      <trkpt lat="44.12016" lon="7.3871">
        <ele>2914</ele>
        <time>2018-04-21T10:10:14.000Z</time>
      </trkpt>
      <trkpt lat="44.12016" lon="7.38709">
        <ele>2914</ele>
        <time>2018-04-21T10:10:26.000Z</time>
      </trkpt>
      <trkpt lat="44.12017" lon="7.38709">
        <ele>2914</ele>
        <time>2018-04-21T10:10:49.000Z</time>
      </trkpt>
      <trkpt lat="44.12017" lon="7.38709">
        <ele>2914</ele>
        <time>2018-04-21T10:11:03.000Z</time>
      </trkpt>
      <trkpt lat="44.12017" lon="7.3871">
        <ele>2914</ele>
        <time>2018-04-21T10:11:19.000Z</time>
      </trkpt>
      <trkpt lat="44.12017" lon="7.3871">
        <ele>2914</ele>
        <time>2018-04-21T10:11:37.000Z</time>
      </trkpt>
      <trkpt lat="44.12017" lon="7.3871">
        <ele>2914</ele>
        <time>2018-04-21T10:12:00.000Z</time>
      </trkpt>
      <trkpt lat="44.12017" lon="7.3871">
        <ele>2914</ele>
        <time>2018-04-21T10:12:08.000Z</time>
      </trkpt>
      <trkpt lat="44.12017" lon="7.38709">
        <ele>2914</ele>
        <time>2018-04-21T10:12:22.000Z</time>
      </trkpt>
      <trkpt lat="44.12017" lon="7.3871">
        <ele>2914</ele>
        <time>2018-04-21T10:12:41.000Z</time>
      </trkpt>
      <trkpt lat="44.12018" lon="7.38709">
        <ele>2914</ele>
        <time>2018-04-21T10:12:51.000Z</time>
      </trkpt>
      <trkpt lat="44.12018" lon="7.38709">
        <ele>2914</ele>
        <time>2018-04-21T10:13:01.000Z</time>
      </trkpt>
      <trkpt lat="44.12018" lon="7.38709">
        <ele>2914</ele>
        <time>2018-04-21T10:13:05.000Z</time>
      </trkpt>
      <trkpt lat="44.12018" lon="7.38708">
        <ele>2914</ele>
        <time>2018-04-21T10:13:12.000Z</time>
      </trkpt>
      <trkpt lat="44.12019" lon="7.38708">
        <ele>2914</ele>
        <time>2018-04-21T10:13:22.000Z</time>
      </trkpt>
      <trkpt lat="44.12019" lon="7.38708">
        <ele>2914</ele>
        <time>2018-04-21T10:13:24.000Z</time>
      </trkpt>
      <trkpt lat="44.12018" lon="7.38708">
        <ele>2914</ele>
        <time>2018-04-21T10:13:33.000Z</time>
      </trkpt>
      <trkpt lat="44.12018" lon="7.38708">
        <ele>2914</ele>
        <time>2018-04-21T10:13:43.000Z</time>
      </trkpt>
      <trkpt lat="44.12018" lon="7.38708">
        <ele>2914</ele>
        <time>2018-04-21T10:13:52.000Z</time>
      </trkpt>
      <trkpt lat="44.12018" lon="7.38708">
        <ele>2914</ele>
        <time>2018-04-21T10:14:00.000Z</time>
      </trkpt>
      <trkpt lat="44.12018" lon="7.38707">
        <ele>2915</ele>
        <time>2018-04-21T10:14:04.000Z</time>
      </trkpt>
      <trkpt lat="44.12018" lon="7.38706">
        <ele>2915</ele>
        <time>2018-04-21T10:14:06.000Z</time>
      </trkpt>
      <trkpt lat="44.12018" lon="7.38706">
        <ele>2915</ele>
        <time>2018-04-21T10:14:20.000Z</time>
      </trkpt>
      <trkpt lat="44.12018" lon="7.38707">
        <ele>2915</ele>
        <time>2018-04-21T10:14:42.000Z</time>
      </trkpt>
      <trkpt lat="44.12019" lon="7.38704">
        <ele>2915</ele>
        <time>2018-04-21T10:14:49.000Z</time>
      </trkpt>
      <trkpt lat="44.12019" lon="7.38705">
        <ele>2915</ele>
        <time>2018-04-21T10:14:55.000Z</time>
      </trkpt>
      <trkpt lat="44.12019" lon="7.38705">
        <ele>2915</ele>
        <time>2018-04-21T10:14:57.000Z</time>
      </trkpt>
      <trkpt lat="44.1202" lon="7.38704">
        <ele>2915</ele>
        <time>2018-04-21T10:15:11.000Z</time>
      </trkpt>
      <trkpt lat="44.1202" lon="7.38703">
        <ele>2915</ele>
        <time>2018-04-21T10:15:20.000Z</time>
      </trkpt>
      <trkpt lat="44.1202" lon="7.38703">
        <ele>2915</ele>
        <time>2018-04-21T10:15:21.000Z</time>
      </trkpt>
      <trkpt lat="44.1202" lon="7.38703">
        <ele>2916</ele>
        <time>2018-04-21T10:15:25.000Z</time>
      </trkpt>
      <trkpt lat="44.1202" lon="7.38702">
        <ele>2916</ele>
        <time>2018-04-21T10:15:42.000Z</time>
      </trkpt>
      <trkpt lat="44.1202" lon="7.38701">
        <ele>2916</ele>
        <time>2018-04-21T10:15:50.000Z</time>
      </trkpt>
      <trkpt lat="44.12021" lon="7.387">
        <ele>2916</ele>
        <time>2018-04-21T10:15:57.000Z</time>
      </trkpt>
      <trkpt lat="44.12021" lon="7.387">
        <ele>2916</ele>
        <time>2018-04-21T10:15:58.000Z</time>
      </trkpt>
      <trkpt lat="44.1202" lon="7.387">
        <ele>2916</ele>
        <time>2018-04-21T10:16:09.000Z</time>
      </trkpt>
      <trkpt lat="44.1202" lon="7.387">
        <ele>2916</ele>
        <time>2018-04-21T10:16:21.000Z</time>
      </trkpt>
      <trkpt lat="44.12021" lon="7.38699">
        <ele>2916</ele>
        <time>2018-04-21T10:16:25.000Z</time>
      </trkpt>
      <trkpt lat="44.12021" lon="7.38698">
        <ele>2917</ele>
        <time>2018-04-21T10:16:29.000Z</time>
      </trkpt>
      <trkpt lat="44.12021" lon="7.38698">
        <ele>2917</ele>
        <time>2018-04-21T10:16:31.000Z</time>
      </trkpt>
      <trkpt lat="44.12022" lon="7.38697">
        <ele>2917</ele>
        <time>2018-04-21T10:16:36.000Z</time>
      </trkpt>
      <trkpt lat="44.12022" lon="7.38697">
        <ele>2917</ele>
        <time>2018-04-21T10:16:38.000Z</time>
      </trkpt>
      <trkpt lat="44.12022" lon="7.38697">
        <ele>2917</ele>
        <time>2018-04-21T10:16:47.000Z</time>
      </trkpt>
      <trkpt lat="44.12022" lon="7.38698">
        <ele>2917</ele>
        <time>2018-04-21T10:16:59.000Z</time>
      </trkpt>
      <trkpt lat="44.12021" lon="7.38696">
        <ele>2917</ele>
        <time>2018-04-21T10:17:15.000Z</time>
      </trkpt>
      <trkpt lat="44.12022" lon="7.38695">
        <ele>2917</ele>
        <time>2018-04-21T10:17:18.000Z</time>
      </trkpt>
      <trkpt lat="44.12022" lon="7.38694">
        <ele>2917</ele>
        <time>2018-04-21T10:17:20.000Z</time>
      </trkpt>
      <trkpt lat="44.12022" lon="7.38694">
        <ele>2917</ele>
        <time>2018-04-21T10:17:22.000Z</time>
      </trkpt>
      <trkpt lat="44.12023" lon="7.38693">
        <ele>2918</ele>
        <time>2018-04-21T10:17:27.000Z</time>
      </trkpt>
      <trkpt lat="44.12023" lon="7.38693">
        <ele>2918</ele>
        <time>2018-04-21T10:17:29.000Z</time>
      </trkpt>
      <trkpt lat="44.12023" lon="7.38693">
        <ele>2918</ele>
        <time>2018-04-21T10:17:43.000Z</time>
      </trkpt>
      <trkpt lat="44.12023" lon="7.38692">
        <ele>2918</ele>
        <time>2018-04-21T10:17:47.000Z</time>
      </trkpt>
      <trkpt lat="44.12023" lon="7.38692">
        <ele>2918</ele>
        <time>2018-04-21T10:17:49.000Z</time>
      </trkpt>
      <trkpt lat="44.12023" lon="7.38692">
        <ele>2918</ele>
        <time>2018-04-21T10:18:20.000Z</time>
      </trkpt>
      <trkpt lat="44.12023" lon="7.38692">
        <ele>2918</ele>
        <time>2018-04-21T10:18:36.000Z</time>
      </trkpt>
      <trkpt lat="44.12024" lon="7.38691">
        <ele>2918</ele>
        <time>2018-04-21T10:18:39.000Z</time>
      </trkpt>
      <trkpt lat="44.12024" lon="7.38691">
        <ele>2918</ele>
        <time>2018-04-21T10:18:41.000Z</time>
      </trkpt>
      <trkpt lat="44.12024" lon="7.38689">
        <ele>2918</ele>
        <time>2018-04-21T10:18:48.000Z</time>
      </trkpt>
      <trkpt lat="44.12024" lon="7.38689">
        <ele>2918</ele>
        <time>2018-04-21T10:18:49.000Z</time>
      </trkpt>
      <trkpt lat="44.12025" lon="7.38688">
        <ele>2918</ele>
        <time>2018-04-21T10:18:54.000Z</time>
      </trkpt>
      <trkpt lat="44.12025" lon="7.38688">
        <ele>2918</ele>
        <time>2018-04-21T10:18:55.000Z</time>
      </trkpt>
      <trkpt lat="44.12024" lon="7.38689">
        <ele>2918</ele>
        <time>2018-04-21T10:19:17.000Z</time>
      </trkpt>
      <trkpt lat="44.12025" lon="7.38688">
        <ele>2918</ele>
        <time>2018-04-21T10:19:25.000Z</time>
      </trkpt>
      <trkpt lat="44.12025" lon="7.38687">
        <ele>2919</ele>
        <time>2018-04-21T10:19:29.000Z</time>
      </trkpt>
      <trkpt lat="44.12025" lon="7.38686">
        <ele>2919</ele>
        <time>2018-04-21T10:19:31.000Z</time>
      </trkpt>
      <trkpt lat="44.12026" lon="7.38685">
        <ele>2919</ele>
        <time>2018-04-21T10:19:37.000Z</time>
      </trkpt>
      <trkpt lat="44.12027" lon="7.38683">
        <ele>2919</ele>
        <time>2018-04-21T10:19:41.000Z</time>
      </trkpt>
      <trkpt lat="44.12027" lon="7.38683">
        <ele>2919</ele>
        <time>2018-04-21T10:19:44.000Z</time>
      </trkpt>
      <trkpt lat="44.12027" lon="7.38682">
        <ele>2919</ele>
        <time>2018-04-21T10:19:52.000Z</time>
      </trkpt>
      <trkpt lat="44.12027" lon="7.38682">
        <ele>2919</ele>
        <time>2018-04-21T10:19:53.000Z</time>
      </trkpt>
      <trkpt lat="44.12027" lon="7.38681">
        <ele>2919</ele>
        <time>2018-04-21T10:20:03.000Z</time>
      </trkpt>
      <trkpt lat="44.12028" lon="7.3868">
        <ele>2920</ele>
        <time>2018-04-21T10:20:09.000Z</time>
      </trkpt>
      <trkpt lat="44.12028" lon="7.3868">
        <ele>2920</ele>
        <time>2018-04-21T10:20:10.000Z</time>
      </trkpt>
      <trkpt lat="44.12028" lon="7.38679">
        <ele>2920</ele>
        <time>2018-04-21T10:20:14.000Z</time>
      </trkpt>
      <trkpt lat="44.12029" lon="7.38678">
        <ele>2920</ele>
        <time>2018-04-21T10:20:16.000Z</time>
      </trkpt>
      <trkpt lat="44.12029" lon="7.38678">
        <ele>2920</ele>
        <time>2018-04-21T10:20:18.000Z</time>
      </trkpt>
      <trkpt lat="44.12029" lon="7.38678">
        <ele>2920</ele>
        <time>2018-04-21T10:20:26.000Z</time>
      </trkpt>
      <trkpt lat="44.12029" lon="7.38678">
        <ele>2920</ele>
        <time>2018-04-21T10:20:32.000Z</time>
      </trkpt>
      <trkpt lat="44.12029" lon="7.38677">
        <ele>2920</ele>
        <time>2018-04-21T10:20:35.000Z</time>
      </trkpt>
      <trkpt lat="44.1203" lon="7.38677">
        <ele>2920</ele>
        <time>2018-04-21T10:20:37.000Z</time>
      </trkpt>
      <trkpt lat="44.1203" lon="7.38675">
        <ele>2920</ele>
        <time>2018-04-21T10:20:42.000Z</time>
      </trkpt>
      <trkpt lat="44.12031" lon="7.38675">
        <ele>2920</ele>
        <time>2018-04-21T10:20:43.000Z</time>
      </trkpt>
      <trkpt lat="44.12032" lon="7.38674">
        <ele>2920</ele>
        <time>2018-04-21T10:20:48.000Z</time>
      </trkpt>
      <trkpt lat="44.12032" lon="7.38674">
        <ele>2920</ele>
        <time>2018-04-21T10:20:49.000Z</time>
      </trkpt>
      <trkpt lat="44.12032" lon="7.38674">
        <ele>2920</ele>
        <time>2018-04-21T10:21:02.000Z</time>
      </trkpt>
      <trkpt lat="44.12032" lon="7.38674">
        <ele>2920</ele>
        <time>2018-04-21T10:21:21.000Z</time>
      </trkpt>
      <trkpt lat="44.12033" lon="7.38673">
        <ele>2921</ele>
        <time>2018-04-21T10:21:27.000Z</time>
      </trkpt>
      <trkpt lat="44.12034" lon="7.38673">
        <ele>2921</ele>
        <time>2018-04-21T10:21:33.000Z</time>
      </trkpt>
      <trkpt lat="44.12034" lon="7.38672">
        <ele>2921</ele>
        <time>2018-04-21T10:21:35.000Z</time>
      </trkpt>
      <trkpt lat="44.12036" lon="7.38671">
        <ele>2921</ele>
        <time>2018-04-21T10:21:39.000Z</time>
      </trkpt>
      <trkpt lat="44.12037" lon="7.3867">
        <ele>2921</ele>
        <time>2018-04-21T10:21:45.000Z</time>
      </trkpt>
      <trkpt lat="44.12039" lon="7.38669">
        <ele>2921</ele>
        <time>2018-04-21T10:21:51.000Z</time>
      </trkpt>
      <trkpt lat="44.1204" lon="7.38668">
        <ele>2922</ele>
        <time>2018-04-21T10:21:56.000Z</time>
      </trkpt>
      <trkpt lat="44.1204" lon="7.38668">
        <ele>2922</ele>
        <time>2018-04-21T10:21:59.000Z</time>
      </trkpt>
      <trkpt lat="44.1204" lon="7.38668">
        <ele>2922</ele>
        <time>2018-04-21T10:22:12.000Z</time>
      </trkpt>
      <trkpt lat="44.12043" lon="7.38667">
        <ele>2922</ele>
        <time>2018-04-21T10:22:19.000Z</time>
      </trkpt>
      <trkpt lat="44.12043" lon="7.38667">
        <ele>2922</ele>
        <time>2018-04-21T10:22:21.000Z</time>
      </trkpt>
      <trkpt lat="44.12043" lon="7.38667">
        <ele>2922</ele>
        <time>2018-04-21T10:22:27.000Z</time>
      </trkpt>
      <trkpt lat="44.12044" lon="7.38667">
        <ele>2922</ele>
        <time>2018-04-21T10:22:38.000Z</time>
      </trkpt>
      <trkpt lat="44.12046" lon="7.38669">
        <ele>2923</ele>
        <time>2018-04-21T10:22:43.000Z</time>
      </trkpt>
      <trkpt lat="44.12048" lon="7.38671">
        <ele>2923</ele>
        <time>2018-04-21T10:22:49.000Z</time>
      </trkpt>
      <trkpt lat="44.12048" lon="7.3867">
        <ele>2923</ele>
        <time>2018-04-21T10:22:51.000Z</time>
      </trkpt>
      <trkpt lat="44.1205" lon="7.38668">
        <ele>2923</ele>
        <time>2018-04-21T10:22:56.000Z</time>
      </trkpt>
      <trkpt lat="44.12051" lon="7.38669">
        <ele>2923</ele>
        <time>2018-04-21T10:23:06.000Z</time>
      </trkpt>
      <trkpt lat="44.1205" lon="7.38669">
        <ele>2923</ele>
        <time>2018-04-21T10:23:08.000Z</time>
      </trkpt>
      <trkpt lat="44.12051" lon="7.38669">
        <ele>2923</ele>
        <time>2018-04-21T10:23:15.000Z</time>
      </trkpt>
      <trkpt lat="44.12051" lon="7.3867">
        <ele>2923</ele>
        <time>2018-04-21T10:23:22.000Z</time>
      </trkpt>
      <trkpt lat="44.1205" lon="7.3867">
        <ele>2923</ele>
        <time>2018-04-21T10:23:32.000Z</time>
      </trkpt>
      <trkpt lat="44.1205" lon="7.38671">
        <ele>2923</ele>
        <time>2018-04-21T10:23:44.000Z</time>
      </trkpt>
      <trkpt lat="44.1205" lon="7.38671">
        <ele>2923</ele>
        <time>2018-04-21T10:23:49.000Z</time>
      </trkpt>
      <trkpt lat="44.12049" lon="7.38671">
        <ele>2923</ele>
        <time>2018-04-21T10:23:53.000Z</time>
      </trkpt>
      <trkpt lat="44.12049" lon="7.3867">
        <ele>2923</ele>
        <time>2018-04-21T10:23:55.000Z</time>
      </trkpt>
      <trkpt lat="44.12049" lon="7.3867">
        <ele>2923</ele>
        <time>2018-04-21T10:24:02.000Z</time>
      </trkpt>
      <trkpt lat="44.1205" lon="7.3867">
        <ele>2923</ele>
        <time>2018-04-21T10:24:08.000Z</time>
      </trkpt>
      <trkpt lat="44.1205" lon="7.3867">
        <ele>2923</ele>
        <time>2018-04-21T10:24:11.000Z</time>
      </trkpt>
      <trkpt lat="44.1205" lon="7.3867">
        <ele>2923</ele>
        <time>2018-04-21T10:24:12.000Z</time>
      </trkpt>
      <trkpt lat="44.1205" lon="7.3867">
        <ele>2923</ele>
        <time>2018-04-21T10:24:15.000Z</time>
      </trkpt>
      <trkpt lat="44.1205" lon="7.3867">
        <ele>2923</ele>
        <time>2018-04-21T10:24:20.000Z</time>
      </trkpt>
      <trkpt lat="44.1205" lon="7.38671">
        <ele>2923</ele>
        <time>2018-04-21T10:24:32.000Z</time>
      </trkpt>
      <trkpt lat="44.1205" lon="7.38671">
        <ele>2923</ele>
        <time>2018-04-21T10:24:35.000Z</time>
      </trkpt>
      <trkpt lat="44.12051" lon="7.38673">
        <ele>2923</ele>
        <time>2018-04-21T10:24:42.000Z</time>
      </trkpt>
      <trkpt lat="44.12051" lon="7.38674">
        <ele>2923</ele>
        <time>2018-04-21T10:24:48.000Z</time>
      </trkpt>
      <trkpt lat="44.12051" lon="7.38675">
        <ele>2923</ele>
        <time>2018-04-21T10:25:00.000Z</time>
      </trkpt>
      <trkpt lat="44.12051" lon="7.38675">
        <ele>2923</ele>
        <time>2018-04-21T10:25:10.000Z</time>
      </trkpt>
      <trkpt lat="44.12051" lon="7.38675">
        <ele>2923</ele>
        <time>2018-04-21T10:25:16.000Z</time>
      </trkpt>
      <trkpt lat="44.1205" lon="7.38673">
        <ele>2923</ele>
        <time>2018-04-21T10:25:18.000Z</time>
      </trkpt>
      <trkpt lat="44.1205" lon="7.38671">
        <ele>2923</ele>
        <time>2018-04-21T10:25:22.000Z</time>
      </trkpt>
      <trkpt lat="44.1205" lon="7.38671">
        <ele>2923</ele>
        <time>2018-04-21T10:25:27.000Z</time>
      </trkpt>
      <trkpt lat="44.1205" lon="7.38672">
        <ele>2923</ele>
        <time>2018-04-21T10:25:35.000Z</time>
      </trkpt>
      <trkpt lat="44.1205" lon="7.38672">
        <ele>2923</ele>
        <time>2018-04-21T10:25:46.000Z</time>
      </trkpt>
      <trkpt lat="44.1205" lon="7.38672">
        <ele>2923</ele>
        <time>2018-04-21T10:25:54.000Z</time>
      </trkpt>
      <trkpt lat="44.1205" lon="7.38672">
        <ele>2923</ele>
        <time>2018-04-21T10:26:03.000Z</time>
      </trkpt>
      <trkpt lat="44.1205" lon="7.38672">
        <ele>2923</ele>
        <time>2018-04-21T10:26:14.000Z</time>
      </trkpt>
      <trkpt lat="44.1205" lon="7.38673">
        <ele>2923</ele>
        <time>2018-04-21T10:26:22.000Z</time>
      </trkpt>
      <trkpt lat="44.1205" lon="7.38673">
        <ele>2923</ele>
        <time>2018-04-21T10:26:30.000Z</time>
      </trkpt>
      <trkpt lat="44.12051" lon="7.38673">
        <ele>2923</ele>
        <time>2018-04-21T10:26:38.000Z</time>
      </trkpt>
      <trkpt lat="44.12051" lon="7.38673">
        <ele>2923</ele>
        <time>2018-04-21T10:26:49.000Z</time>
      </trkpt>
      <trkpt lat="44.12051" lon="7.38673">
        <ele>2923</ele>
        <time>2018-04-21T10:26:57.000Z</time>
      </trkpt>
      <trkpt lat="44.12051" lon="7.38674">
        <ele>2923</ele>
        <time>2018-04-21T10:27:07.000Z</time>
      </trkpt>
      <trkpt lat="44.12051" lon="7.38674">
        <ele>2923</ele>
        <time>2018-04-21T10:27:16.000Z</time>
      </trkpt>
      <trkpt lat="44.12051" lon="7.38675">
        <ele>2923</ele>
        <time>2018-04-21T10:27:23.000Z</time>
      </trkpt>
      <trkpt lat="44.12051" lon="7.38675">
        <ele>2923</ele>
        <time>2018-04-21T10:27:32.000Z</time>
      </trkpt>
      <trkpt lat="44.12051" lon="7.38675">
        <ele>2923</ele>
        <time>2018-04-21T10:27:39.000Z</time>
      </trkpt>
      <trkpt lat="44.1205" lon="7.38676">
        <ele>2923</ele>
        <time>2018-04-21T10:27:51.000Z</time>
      </trkpt>
      <trkpt lat="44.1205" lon="7.38675">
        <ele>2923</ele>
        <time>2018-04-21T10:28:00.000Z</time>
      </trkpt>
      <trkpt lat="44.1205" lon="7.38675">
        <ele>2923</ele>
        <time>2018-04-21T10:28:04.000Z</time>
      </trkpt>
      <trkpt lat="44.1205" lon="7.38676">
        <ele>2923</ele>
        <time>2018-04-21T10:28:05.000Z</time>
      </trkpt>
      <trkpt lat="44.1205" lon="7.38676">
        <ele>2923</ele>
        <time>2018-04-21T10:28:12.000Z</time>
      </trkpt>
      <trkpt lat="44.12051" lon="7.38676">
        <ele>2923</ele>
        <time>2018-04-21T10:28:22.000Z</time>
      </trkpt>
      <trkpt lat="44.12051" lon="7.38675">
        <ele>2923</ele>
        <time>2018-04-21T10:28:29.000Z</time>
      </trkpt>
      <trkpt lat="44.12051" lon="7.38674">
        <ele>2923</ele>
        <time>2018-04-21T10:28:37.000Z</time>
      </trkpt>
      <trkpt lat="44.12052" lon="7.38673">
        <ele>2924</ele>
        <time>2018-04-21T10:28:45.000Z</time>
      </trkpt>
      <trkpt lat="44.12056" lon="7.3867">
        <ele>2925</ele>
        <time>2018-04-21T10:28:52.000Z</time>
      </trkpt>
      <trkpt lat="44.12057" lon="7.38667">
        <ele>2934</ele>
        <time>2018-04-21T10:28:58.000Z</time>
      </trkpt>
      <trkpt lat="44.12057" lon="7.38667">
        <ele>2925</ele>
        <time>2018-04-21T10:28:59.000Z</time>
      </trkpt>
      <trkpt lat="44.12057" lon="7.38664">
        <ele>2934</ele>
        <time>2018-04-21T10:29:03.000Z</time>
      </trkpt>
      <trkpt lat="44.12056" lon="7.38663">
        <ele>2934</ele>
        <time>2018-04-21T10:29:05.000Z</time>
      </trkpt>
      <trkpt lat="44.12054" lon="7.3866">
        <ele>2934</ele>
        <time>2018-04-21T10:29:11.000Z</time>
      </trkpt>
      <trkpt lat="44.12052" lon="7.3866">
        <ele>2933</ele>
        <time>2018-04-21T10:29:21.000Z</time>
      </trkpt>
      <trkpt lat="44.12052" lon="7.3866">
        <ele>2933</ele>
        <time>2018-04-21T10:29:23.000Z</time>
      </trkpt>
      <trkpt lat="44.12053" lon="7.38659">
        <ele>2934</ele>
        <time>2018-04-21T10:29:28.000Z</time>
      </trkpt>
      <trkpt lat="44.12052" lon="7.38659">
        <ele>2933</ele>
        <time>2018-04-21T10:29:35.000Z</time>
      </trkpt>
      <trkpt lat="44.12052" lon="7.38658">
        <ele>2933</ele>
        <time>2018-04-21T10:29:43.000Z</time>
      </trkpt>
      <trkpt lat="44.12051" lon="7.38659">
        <ele>2933</ele>
        <time>2018-04-21T10:29:52.000Z</time>
      </trkpt>
      <trkpt lat="44.12051" lon="7.3866">
        <ele>2933</ele>
        <time>2018-04-21T10:30:00.000Z</time>
      </trkpt>
      <trkpt lat="44.12052" lon="7.3866">
        <ele>2933</ele>
        <time>2018-04-21T10:30:12.000Z</time>
      </trkpt>
      <trkpt lat="44.12052" lon="7.3866">
        <ele>2933</ele>
        <time>2018-04-21T10:30:22.000Z</time>
      </trkpt>
      <trkpt lat="44.12052" lon="7.3866">
        <ele>2933</ele>
        <time>2018-04-21T10:30:30.000Z</time>
      </trkpt>
      <trkpt lat="44.12052" lon="7.38659">
        <ele>2933</ele>
        <time>2018-04-21T10:30:32.000Z</time>
      </trkpt>
      <trkpt lat="44.12053" lon="7.38659">
        <ele>2934</ele>
        <time>2018-04-21T10:30:34.000Z</time>
      </trkpt>
      <trkpt lat="44.12053" lon="7.3866">
        <ele>2934</ele>
        <time>2018-04-21T10:30:40.000Z</time>
      </trkpt>
      <trkpt lat="44.12053" lon="7.3866">
        <ele>2934</ele>
        <time>2018-04-21T10:30:51.000Z</time>
      </trkpt>
      <trkpt lat="44.12053" lon="7.38661">
        <ele>2934</ele>
        <time>2018-04-21T10:30:57.000Z</time>
      </trkpt>
      <trkpt lat="44.12054" lon="7.38661">
        <ele>2934</ele>
        <time>2018-04-21T10:31:07.000Z</time>
      </trkpt>
      <trkpt lat="44.12054" lon="7.38662">
        <ele>2934</ele>
        <time>2018-04-21T10:31:18.000Z</time>
      </trkpt>
      <trkpt lat="44.12054" lon="7.38661">
        <ele>2934</ele>
        <time>2018-04-21T10:31:31.000Z</time>
      </trkpt>
      <trkpt lat="44.12053" lon="7.38662">
        <ele>2934</ele>
        <time>2018-04-21T10:31:40.000Z</time>
      </trkpt>
      <trkpt lat="44.12053" lon="7.38662">
        <ele>2934</ele>
        <time>2018-04-21T10:31:48.000Z</time>
      </trkpt>
      <trkpt lat="44.12054" lon="7.38662">
        <ele>2934</ele>
        <time>2018-04-21T10:31:56.000Z</time>
      </trkpt>
      <trkpt lat="44.12053" lon="7.38662">
        <ele>2934</ele>
        <time>2018-04-21T10:32:04.000Z</time>
      </trkpt>
      <trkpt lat="44.12053" lon="7.38662">
        <ele>2934</ele>
        <time>2018-04-21T10:32:06.000Z</time>
      </trkpt>
      <trkpt lat="44.12054" lon="7.38662">
        <ele>2934</ele>
        <time>2018-04-21T10:32:14.000Z</time>
      </trkpt>
      <trkpt lat="44.12053" lon="7.38662">
        <ele>2934</ele>
        <time>2018-04-21T10:32:17.000Z</time>
      </trkpt>
      <trkpt lat="44.12053" lon="7.38662">
        <ele>2934</ele>
        <time>2018-04-21T10:32:21.000Z</time>
      </trkpt>
      <trkpt lat="44.12053" lon="7.38662">
        <ele>2934</ele>
        <time>2018-04-21T10:32:30.000Z</time>
      </trkpt>
      <trkpt lat="44.12053" lon="7.38662">
        <ele>2934</ele>
        <time>2018-04-21T10:32:32.000Z</time>
      </trkpt>
      <trkpt lat="44.12054" lon="7.38661">
        <ele>2934</ele>
        <time>2018-04-21T10:32:42.000Z</time>
      </trkpt>
      <trkpt lat="44.12054" lon="7.38661">
        <ele>2934</ele>
        <time>2018-04-21T10:32:50.000Z</time>
      </trkpt>
      <trkpt lat="44.12053" lon="7.38661">
        <ele>2934</ele>
        <time>2018-04-21T10:33:01.000Z</time>
      </trkpt>
      <trkpt lat="44.12053" lon="7.38661">
        <ele>2934</ele>
        <time>2018-04-21T10:33:06.000Z</time>
      </trkpt>
      <trkpt lat="44.12053" lon="7.38661">
        <ele>2934</ele>
        <time>2018-04-21T10:33:11.000Z</time>
      </trkpt>
      <trkpt lat="44.12053" lon="7.38661">
        <ele>2934</ele>
        <time>2018-04-21T10:33:24.000Z</time>
      </trkpt>
      <trkpt lat="44.12053" lon="7.38661">
        <ele>2934</ele>
        <time>2018-04-21T10:33:34.000Z</time>
      </trkpt>
      <trkpt lat="44.12053" lon="7.38661">
        <ele>2934</ele>
        <time>2018-04-21T10:33:44.000Z</time>
      </trkpt>
      <trkpt lat="44.12053" lon="7.38661">
        <ele>2934</ele>
        <time>2018-04-21T10:33:53.000Z</time>
      </trkpt>
      <trkpt lat="44.12053" lon="7.3866">
        <ele>2934</ele>
        <time>2018-04-21T10:34:01.000Z</time>
      </trkpt>
      <trkpt lat="44.12053" lon="7.3866">
        <ele>2934</ele>
        <time>2018-04-21T10:34:08.000Z</time>
      </trkpt>
      <trkpt lat="44.12053" lon="7.38659">
        <ele>2934</ele>
        <time>2018-04-21T10:34:13.000Z</time>
      </trkpt>
      <trkpt lat="44.12053" lon="7.38659">
        <ele>2934</ele>
        <time>2018-04-21T10:34:22.000Z</time>
      </trkpt>
      <trkpt lat="44.12053" lon="7.38659">
        <ele>2934</ele>
        <time>2018-04-21T10:34:30.000Z</time>
      </trkpt>
      <trkpt lat="44.12053" lon="7.38659">
        <ele>2934</ele>
        <time>2018-04-21T10:34:39.000Z</time>
      </trkpt>
      <trkpt lat="44.12053" lon="7.3866">
        <ele>2934</ele>
        <time>2018-04-21T10:34:53.000Z</time>
      </trkpt>
      <trkpt lat="44.12053" lon="7.3866">
        <ele>2934</ele>
        <time>2018-04-21T10:35:01.000Z</time>
      </trkpt>
      <trkpt lat="44.12053" lon="7.38659">
        <ele>2934</ele>
        <time>2018-04-21T10:35:14.000Z</time>
      </trkpt>
      <trkpt lat="44.12054" lon="7.38659">
        <ele>2934</ele>
        <time>2018-04-21T10:35:20.000Z</time>
      </trkpt>
      <trkpt lat="44.12053" lon="7.38658">
        <ele>2934</ele>
        <time>2018-04-21T10:35:29.000Z</time>
      </trkpt>
      <trkpt lat="44.12054" lon="7.38658">
        <ele>2934</ele>
        <time>2018-04-21T10:35:37.000Z</time>
      </trkpt>
      <trkpt lat="44.12055" lon="7.38659">
        <ele>2934</ele>
        <time>2018-04-21T10:35:46.000Z</time>
      </trkpt>
      <trkpt lat="44.12055" lon="7.38659">
        <ele>2934</ele>
        <time>2018-04-21T10:35:58.000Z</time>
      </trkpt>
      <trkpt lat="44.12055" lon="7.38659">
        <ele>2934</ele>
        <time>2018-04-21T10:36:06.000Z</time>
      </trkpt>
      <trkpt lat="44.12055" lon="7.38659">
        <ele>2934</ele>
        <time>2018-04-21T10:36:12.000Z</time>
      </trkpt>
      <trkpt lat="44.12054" lon="7.3866">
        <ele>2934</ele>
        <time>2018-04-21T10:36:24.000Z</time>
      </trkpt>
      <trkpt lat="44.12055" lon="7.38659">
        <ele>2934</ele>
        <time>2018-04-21T10:36:29.000Z</time>
      </trkpt>
      <trkpt lat="44.12055" lon="7.38659">
        <ele>2934</ele>
        <time>2018-04-21T10:36:39.000Z</time>
      </trkpt>
      <trkpt lat="44.12055" lon="7.38659">
        <ele>2934</ele>
        <time>2018-04-21T10:36:46.000Z</time>
      </trkpt>
      <trkpt lat="44.12055" lon="7.38658">
        <ele>2934</ele>
        <time>2018-04-21T10:36:57.000Z</time>
      </trkpt>
      <trkpt lat="44.12055" lon="7.38659">
        <ele>2934</ele>
        <time>2018-04-21T10:37:09.000Z</time>
      </trkpt>
      <trkpt lat="44.12054" lon="7.3866">
        <ele>2934</ele>
        <time>2018-04-21T10:37:16.000Z</time>
      </trkpt>
      <trkpt lat="44.12054" lon="7.3866">
        <ele>2934</ele>
        <time>2018-04-21T10:37:25.000Z</time>
      </trkpt>
      <trkpt lat="44.12055" lon="7.3866">
        <ele>2934</ele>
        <time>2018-04-21T10:37:35.000Z</time>
      </trkpt>
      <trkpt lat="44.12055" lon="7.38659">
        <ele>2934</ele>
        <time>2018-04-21T10:37:48.000Z</time>
      </trkpt>
      <trkpt lat="44.12057" lon="7.38658">
        <ele>2934</ele>
        <time>2018-04-21T10:38:09.000Z</time>
      </trkpt>
      <trkpt lat="44.12056" lon="7.38658">
        <ele>2934</ele>
        <time>2018-04-21T10:38:17.000Z</time>
      </trkpt>
      <trkpt lat="44.12056" lon="7.38658">
        <ele>2934</ele>
        <time>2018-04-21T10:38:25.000Z</time>
      </trkpt>
      <trkpt lat="44.12056" lon="7.38658">
        <ele>2934</ele>
        <time>2018-04-21T10:38:35.000Z</time>
      </trkpt>
      <trkpt lat="44.12056" lon="7.38658">
        <ele>2934</ele>
        <time>2018-04-21T10:38:50.000Z</time>
      </trkpt>
      <trkpt lat="44.12057" lon="7.38657">
        <ele>2934</ele>
        <time>2018-04-21T10:39:05.000Z</time>
      </trkpt>
      <trkpt lat="44.12057" lon="7.38657">
        <ele>2934</ele>
        <time>2018-04-21T10:39:18.000Z</time>
      </trkpt>
      <trkpt lat="44.12056" lon="7.38657">
        <ele>2934</ele>
        <time>2018-04-21T10:39:27.000Z</time>
      </trkpt>
      <trkpt lat="44.12056" lon="7.38656">
        <ele>2934</ele>
        <time>2018-04-21T10:39:35.000Z</time>
      </trkpt>
      <trkpt lat="44.12056" lon="7.38656">
        <ele>2934</ele>
        <time>2018-04-21T10:39:45.000Z</time>
      </trkpt>
      <trkpt lat="44.12055" lon="7.38656">
        <ele>2934</ele>
        <time>2018-04-21T10:39:51.000Z</time>
      </trkpt>
      <trkpt lat="44.12055" lon="7.38657">
        <ele>2934</ele>
        <time>2018-04-21T10:39:58.000Z</time>
      </trkpt>
      <trkpt lat="44.12055" lon="7.38657">
        <ele>2934</ele>
        <time>2018-04-21T10:40:08.000Z</time>
      </trkpt>
      <trkpt lat="44.12054" lon="7.38657">
        <ele>2934</ele>
        <time>2018-04-21T10:40:17.000Z</time>
      </trkpt>
      <trkpt lat="44.12055" lon="7.38658">
        <ele>2934</ele>
        <time>2018-04-21T10:40:27.000Z</time>
      </trkpt>
      <trkpt lat="44.12054" lon="7.38659">
        <ele>2934</ele>
        <time>2018-04-21T10:40:34.000Z</time>
      </trkpt>
      <trkpt lat="44.12054" lon="7.3866">
        <ele>2934</ele>
        <time>2018-04-21T10:40:40.000Z</time>
      </trkpt>
      <trkpt lat="44.12054" lon="7.3866">
        <ele>2934</ele>
        <time>2018-04-21T10:40:41.000Z</time>
      </trkpt>
      <trkpt lat="44.12054" lon="7.38661">
        <ele>2934</ele>
        <time>2018-04-21T10:40:52.000Z</time>
      </trkpt>
      <trkpt lat="44.12054" lon="7.38661">
        <ele>2934</ele>
        <time>2018-04-21T10:40:54.000Z</time>
      </trkpt>
      <trkpt lat="44.12054" lon="7.38661">
        <ele>2934</ele>
        <time>2018-04-21T10:40:59.000Z</time>
      </trkpt>
      <trkpt lat="44.12054" lon="7.38661">
        <ele>2934</ele>
        <time>2018-04-21T10:41:08.000Z</time>
      </trkpt>
      <trkpt lat="44.12054" lon="7.3866">
        <ele>2934</ele>
        <time>2018-04-21T10:41:19.000Z</time>
      </trkpt>
      <trkpt lat="44.12054" lon="7.3866">
        <ele>2934</ele>
        <time>2018-04-21T10:41:29.000Z</time>
      </trkpt>
      <trkpt lat="44.12054" lon="7.38659">
        <ele>2934</ele>
        <time>2018-04-21T10:41:39.000Z</time>
      </trkpt>
      <trkpt lat="44.12054" lon="7.38659">
        <ele>2934</ele>
        <time>2018-04-21T10:41:48.000Z</time>
      </trkpt>
      <trkpt lat="44.12054" lon="7.38659">
        <ele>2934</ele>
        <time>2018-04-21T10:41:58.000Z</time>
      </trkpt>
      <trkpt lat="44.12054" lon="7.38659">
        <ele>2934</ele>
        <time>2018-04-21T10:42:10.000Z</time>
      </trkpt>
      <trkpt lat="44.12054" lon="7.38659">
        <ele>2934</ele>
        <time>2018-04-21T10:42:18.000Z</time>
      </trkpt>
      <trkpt lat="44.12056" lon="7.38658">
        <ele>2934</ele>
        <time>2018-04-21T10:42:27.000Z</time>
      </trkpt>
      <trkpt lat="44.12056" lon="7.38657">
        <ele>2934</ele>
        <time>2018-04-21T10:42:35.000Z</time>
      </trkpt>
      <trkpt lat="44.12056" lon="7.38657">
        <ele>2934</ele>
        <time>2018-04-21T10:42:47.000Z</time>
      </trkpt>
      <trkpt lat="44.12056" lon="7.38657">
        <ele>2934</ele>
        <time>2018-04-21T10:42:53.000Z</time>
      </trkpt>
      <trkpt lat="44.12056" lon="7.38657">
        <ele>2934</ele>
        <time>2018-04-21T10:43:03.000Z</time>
      </trkpt>
      <trkpt lat="44.12056" lon="7.38657">
        <ele>2934</ele>
        <time>2018-04-21T10:43:12.000Z</time>
      </trkpt>
      <trkpt lat="44.12056" lon="7.38657">
        <ele>2934</ele>
        <time>2018-04-21T10:43:23.000Z</time>
      </trkpt>
      <trkpt lat="44.12056" lon="7.38657">
        <ele>2934</ele>
        <time>2018-04-21T10:43:33.000Z</time>
      </trkpt>
      <trkpt lat="44.12055" lon="7.38656">
        <ele>2934</ele>
        <time>2018-04-21T10:43:42.000Z</time>
      </trkpt>
      <trkpt lat="44.12056" lon="7.38656">
        <ele>2934</ele>
        <time>2018-04-21T10:43:59.000Z</time>
      </trkpt>
      <trkpt lat="44.12055" lon="7.38657">
        <ele>2934</ele>
        <time>2018-04-21T10:44:05.000Z</time>
      </trkpt>
      <trkpt lat="44.12056" lon="7.38656">
        <ele>2934</ele>
        <time>2018-04-21T10:44:16.000Z</time>
      </trkpt>
      <trkpt lat="44.12056" lon="7.38656">
        <ele>2934</ele>
        <time>2018-04-21T10:44:34.000Z</time>
      </trkpt>
      <trkpt lat="44.12057" lon="7.38655">
        <ele>2934</ele>
        <time>2018-04-21T10:44:40.000Z</time>
      </trkpt>
      <trkpt lat="44.12057" lon="7.38655">
        <ele>2934</ele>
        <time>2018-04-21T10:44:48.000Z</time>
      </trkpt>
      <trkpt lat="44.12057" lon="7.38655">
        <ele>2934</ele>
        <time>2018-04-21T10:45:03.000Z</time>
      </trkpt>
      <trkpt lat="44.12057" lon="7.38656">
        <ele>2934</ele>
        <time>2018-04-21T10:45:12.000Z</time>
      </trkpt>
      <trkpt lat="44.12057" lon="7.38656">
        <ele>2934</ele>
        <time>2018-04-21T10:45:21.000Z</time>
      </trkpt>
      <trkpt lat="44.12057" lon="7.38656">
        <ele>2934</ele>
        <time>2018-04-21T10:45:26.000Z</time>
      </trkpt>
      <trkpt lat="44.12057" lon="7.38656">
        <ele>2934</ele>
        <time>2018-04-21T10:45:33.000Z</time>
      </trkpt>
      <trkpt lat="44.12057" lon="7.38656">
        <ele>2934</ele>
        <time>2018-04-21T10:45:41.000Z</time>
      </trkpt>
      <trkpt lat="44.12057" lon="7.38656">
        <ele>2934</ele>
        <time>2018-04-21T10:45:54.000Z</time>
      </trkpt>
      <trkpt lat="44.12057" lon="7.38657">
        <ele>2934</ele>
        <time>2018-04-21T10:46:12.000Z</time>
      </trkpt>
      <trkpt lat="44.12057" lon="7.38657">
        <ele>2934</ele>
        <time>2018-04-21T10:46:21.000Z</time>
      </trkpt>
      <trkpt lat="44.12056" lon="7.38657">
        <ele>2934</ele>
        <time>2018-04-21T10:46:35.000Z</time>
      </trkpt>
      <trkpt lat="44.12055" lon="7.3866">
        <ele>2934</ele>
        <time>2018-04-21T10:46:57.000Z</time>
      </trkpt>
      <trkpt lat="44.12055" lon="7.3866">
        <ele>2934</ele>
        <time>2018-04-21T10:47:09.000Z</time>
      </trkpt>
      <trkpt lat="44.12056" lon="7.3866">
        <ele>2934</ele>
        <time>2018-04-21T10:47:20.000Z</time>
      </trkpt>
      <trkpt lat="44.12055" lon="7.3866">
        <ele>2934</ele>
        <time>2018-04-21T10:47:27.000Z</time>
      </trkpt>
      <trkpt lat="44.12055" lon="7.3866">
        <ele>2934</ele>
        <time>2018-04-21T10:47:47.000Z</time>
      </trkpt>
      <trkpt lat="44.12054" lon="7.3866">
        <ele>2934</ele>
        <time>2018-04-21T10:48:10.000Z</time>
      </trkpt>
      <trkpt lat="44.12054" lon="7.38664">
        <ele>2934</ele>
        <time>2018-04-21T10:48:20.000Z</time>
      </trkpt>
      <trkpt lat="44.12054" lon="7.38665">
        <ele>2934</ele>
        <time>2018-04-21T10:48:25.000Z</time>
      </trkpt>
      <trkpt lat="44.12054" lon="7.38666">
        <ele>2934</ele>
        <time>2018-04-21T10:48:36.000Z</time>
      </trkpt>
      <trkpt lat="44.12053" lon="7.38668">
        <ele>2924</ele>
        <time>2018-04-21T10:48:45.000Z</time>
      </trkpt>
      <trkpt lat="44.12051" lon="7.38669">
        <ele>2924</ele>
        <time>2018-04-21T10:49:00.000Z</time>
      </trkpt>
      <trkpt lat="44.12051" lon="7.38668">
        <ele>2924</ele>
        <time>2018-04-21T10:49:17.000Z</time>
      </trkpt>
      <trkpt lat="44.12052" lon="7.38667">
        <ele>2924</ele>
        <time>2018-04-21T10:49:36.000Z</time>
      </trkpt>
      <trkpt lat="44.12053" lon="7.38667">
        <ele>2924</ele>
        <time>2018-04-21T10:49:51.000Z</time>
      </trkpt>
      <trkpt lat="44.12054" lon="7.38667">
        <ele>2924</ele>
        <time>2018-04-21T10:50:05.000Z</time>
      </trkpt>
      <trkpt lat="44.12053" lon="7.38667">
        <ele>2924</ele>
        <time>2018-04-21T10:50:12.000Z</time>
      </trkpt>
      <trkpt lat="44.12053" lon="7.38667">
        <ele>2924</ele>
        <time>2018-04-21T10:50:18.000Z</time>
      </trkpt>
      <trkpt lat="44.12053" lon="7.38666">
        <ele>2934</ele>
        <time>2018-04-21T10:50:38.000Z</time>
      </trkpt>
      <trkpt lat="44.12053" lon="7.38666">
        <ele>2934</ele>
        <time>2018-04-21T10:50:57.000Z</time>
      </trkpt>
      <trkpt lat="44.12053" lon="7.38665">
        <ele>2934</ele>
        <time>2018-04-21T10:51:07.000Z</time>
      </trkpt>
      <trkpt lat="44.12053" lon="7.38665">
        <ele>2933</ele>
        <time>2018-04-21T10:51:18.000Z</time>
      </trkpt>
      <trkpt lat="44.12052" lon="7.38666">
        <ele>2933</ele>
        <time>2018-04-21T10:51:27.000Z</time>
      </trkpt>
      <trkpt lat="44.12052" lon="7.38666">
        <ele>2933</ele>
        <time>2018-04-21T10:51:31.000Z</time>
      </trkpt>
      <trkpt lat="44.12052" lon="7.38667">
        <ele>2924</ele>
        <time>2018-04-21T10:51:42.000Z</time>
      </trkpt>
      <trkpt lat="44.12052" lon="7.38667">
        <ele>2924</ele>
        <time>2018-04-21T10:51:56.000Z</time>
      </trkpt>
      <trkpt lat="44.12052" lon="7.38666">
        <ele>2933</ele>
        <time>2018-04-21T10:52:07.000Z</time>
      </trkpt>
      <trkpt lat="44.12052" lon="7.38666">
        <ele>2933</ele>
        <time>2018-04-21T10:52:26.000Z</time>
      </trkpt>
      <trkpt lat="44.12052" lon="7.38669">
        <ele>2924</ele>
        <time>2018-04-21T10:52:43.000Z</time>
      </trkpt>
      <trkpt lat="44.12052" lon="7.38669">
        <ele>2924</ele>
        <time>2018-04-21T10:52:44.000Z</time>
      </trkpt>
      <trkpt lat="44.12051" lon="7.3867">
        <ele>2924</ele>
        <time>2018-04-21T10:52:53.000Z</time>
      </trkpt>
      <trkpt lat="44.12051" lon="7.3867">
        <ele>2923</ele>
        <time>2018-04-21T10:53:14.000Z</time>
      </trkpt>
      <trkpt lat="44.12051" lon="7.38669">
        <ele>2924</ele>
        <time>2018-04-21T10:53:25.000Z</time>
      </trkpt>
      <trkpt lat="44.12051" lon="7.38669">
        <ele>2924</ele>
        <time>2018-04-21T10:53:38.000Z</time>
      </trkpt>
      <trkpt lat="44.12051" lon="7.38669">
        <ele>2923</ele>
        <time>2018-04-21T10:53:48.000Z</time>
      </trkpt>
      <trkpt lat="44.12052" lon="7.38668">
        <ele>2924</ele>
        <time>2018-04-21T10:53:59.000Z</time>
      </trkpt>
      <trkpt lat="44.12053" lon="7.38666">
        <ele>2934</ele>
        <time>2018-04-21T10:54:09.000Z</time>
      </trkpt>
      <trkpt lat="44.12053" lon="7.38666">
        <ele>2934</ele>
        <time>2018-04-21T10:54:27.000Z</time>
      </trkpt>
      <trkpt lat="44.12053" lon="7.38665">
        <ele>2933</ele>
        <time>2018-04-21T10:54:42.000Z</time>
      </trkpt>
      <trkpt lat="44.12053" lon="7.38665">
        <ele>2933</ele>
        <time>2018-04-21T10:55:00.000Z</time>
      </trkpt>
      <trkpt lat="44.12052" lon="7.38665">
        <ele>2933</ele>
        <time>2018-04-21T10:55:17.000Z</time>
      </trkpt>
      <trkpt lat="44.12052" lon="7.38664">
        <ele>2933</ele>
        <time>2018-04-21T10:55:26.000Z</time>
      </trkpt>
      <trkpt lat="44.12053" lon="7.38663">
        <ele>2934</ele>
        <time>2018-04-21T10:55:37.000Z</time>
      </trkpt>
      <trkpt lat="44.12055" lon="7.38661">
        <ele>2934</ele>
        <time>2018-04-21T10:55:48.000Z</time>
      </trkpt>
      <trkpt lat="44.12055" lon="7.38661">
        <ele>2934</ele>
        <time>2018-04-21T10:55:49.000Z</time>
      </trkpt>
      <trkpt lat="44.12056" lon="7.3866">
        <ele>2934</ele>
        <time>2018-04-21T10:56:08.000Z</time>
      </trkpt>
      <trkpt lat="44.12056" lon="7.38659">
        <ele>2934</ele>
        <time>2018-04-21T10:56:21.000Z</time>
      </trkpt>
      <trkpt lat="44.12056" lon="7.38658">
        <ele>2934</ele>
        <time>2018-04-21T10:56:37.000Z</time>
      </trkpt>
      <trkpt lat="44.12056" lon="7.38658">
        <ele>2934</ele>
        <time>2018-04-21T10:56:45.000Z</time>
      </trkpt>
      <trkpt lat="44.12056" lon="7.38655">
        <ele>2934</ele>
        <time>2018-04-21T10:57:05.000Z</time>
      </trkpt>
      <trkpt lat="44.12056" lon="7.38652">
        <ele>2934</ele>
        <time>2018-04-21T10:57:21.000Z</time>
      </trkpt>
      <trkpt lat="44.12057" lon="7.38648">
        <ele>2934</ele>
        <time>2018-04-21T10:57:37.000Z</time>
      </trkpt>
      <trkpt lat="44.12058" lon="7.38647">
        <ele>2934</ele>
        <time>2018-04-21T10:57:43.000Z</time>
      </trkpt>
      <trkpt lat="44.12058" lon="7.38648">
        <ele>2934</ele>
        <time>2018-04-21T10:57:56.000Z</time>
      </trkpt>
      <trkpt lat="44.12059" lon="7.38649">
        <ele>2934</ele>
        <time>2018-04-21T10:58:09.000Z</time>
      </trkpt>
      <trkpt lat="44.12059" lon="7.3865">
        <ele>2934</ele>
        <time>2018-04-21T10:58:19.000Z</time>
      </trkpt>
      <trkpt lat="44.12062" lon="7.3865">
        <ele>2934</ele>
        <time>2018-04-21T10:58:32.000Z</time>
      </trkpt>
      <trkpt lat="44.12062" lon="7.38651">
        <ele>2934</ele>
        <time>2018-04-21T10:58:42.000Z</time>
      </trkpt>
      <trkpt lat="44.1206" lon="7.38652">
        <ele>2934</ele>
        <time>2018-04-21T10:58:51.000Z</time>
      </trkpt>
      <trkpt lat="44.12058" lon="7.38653">
        <ele>2934</ele>
        <time>2018-04-21T10:58:56.000Z</time>
      </trkpt>
      <trkpt lat="44.12058" lon="7.38652">
        <ele>2934</ele>
        <time>2018-04-21T10:58:58.000Z</time>
      </trkpt>
      <trkpt lat="44.12057" lon="7.38651">
        <ele>2934</ele>
        <time>2018-04-21T10:59:16.000Z</time>
      </trkpt>
      <trkpt lat="44.12057" lon="7.38651">
        <ele>2934</ele>
        <time>2018-04-21T10:59:38.000Z</time>
      </trkpt>
      <trkpt lat="44.12056" lon="7.38651">
        <ele>2934</ele>
        <time>2018-04-21T11:00:00.000Z</time>
      </trkpt>
      <trkpt lat="44.12056" lon="7.38651">
        <ele>2934</ele>
        <time>2018-04-21T11:00:16.000Z</time>
      </trkpt>
      <trkpt lat="44.12057" lon="7.3865">
        <ele>2934</ele>
        <time>2018-04-21T11:00:27.000Z</time>
      </trkpt>
      <trkpt lat="44.12058" lon="7.3865">
        <ele>2934</ele>
        <time>2018-04-21T11:00:36.000Z</time>
      </trkpt>
      <trkpt lat="44.12057" lon="7.3865">
        <ele>2934</ele>
        <time>2018-04-21T11:00:41.000Z</time>
      </trkpt>
      <trkpt lat="44.12056" lon="7.38652">
        <ele>2934</ele>
        <time>2018-04-21T11:00:57.000Z</time>
      </trkpt>
      <trkpt lat="44.12055" lon="7.38656">
        <ele>2934</ele>
        <time>2018-04-21T11:01:13.000Z</time>
      </trkpt>
      <trkpt lat="44.12055" lon="7.38657">
        <ele>2934</ele>
        <time>2018-04-21T11:01:24.000Z</time>
      </trkpt>
      <trkpt lat="44.12056" lon="7.38653">
        <ele>2934</ele>
        <time>2018-04-21T11:01:42.000Z</time>
      </trkpt>
      <trkpt lat="44.12056" lon="7.38652">
        <ele>2934</ele>
        <time>2018-04-21T11:01:57.000Z</time>
      </trkpt>
      <trkpt lat="44.12056" lon="7.38651">
        <ele>2934</ele>
        <time>2018-04-21T11:02:16.000Z</time>
      </trkpt>
      <trkpt lat="44.12057" lon="7.38651">
        <ele>2934</ele>
        <time>2018-04-21T11:02:31.000Z</time>
      </trkpt>
      <trkpt lat="44.12057" lon="7.38651">
        <ele>2934</ele>
        <time>2018-04-21T11:02:51.000Z</time>
      </trkpt>
      <trkpt lat="44.12056" lon="7.38651">
        <ele>2934</ele>
        <time>2018-04-21T11:03:00.000Z</time>
      </trkpt>
      <trkpt lat="44.12057" lon="7.38651">
        <ele>2934</ele>
        <time>2018-04-21T11:03:03.000Z</time>
      </trkpt>
      <trkpt lat="44.12055" lon="7.38653">
        <ele>2934</ele>
        <time>2018-04-21T11:03:04.000Z</time>
      </trkpt>
      <trkpt lat="44.12055" lon="7.38654">
        <ele>2934</ele>
        <time>2018-04-21T11:03:05.000Z</time>
      </trkpt>
      <trkpt lat="44.12055" lon="7.38654">
        <ele>2934</ele>
        <time>2018-04-21T11:03:13.000Z</time>
      </trkpt>
      <trkpt lat="44.12056" lon="7.38653">
        <ele>2934</ele>
        <time>2018-04-21T11:03:31.000Z</time>
      </trkpt>
      <trkpt lat="44.12057" lon="7.38653">
        <ele>2934</ele>
        <time>2018-04-21T11:03:49.000Z</time>
      </trkpt>
      <trkpt lat="44.12056" lon="7.38655">
        <ele>2934</ele>
        <time>2018-04-21T11:04:08.000Z</time>
      </trkpt>
      <trkpt lat="44.12056" lon="7.38656">
        <ele>2934</ele>
        <time>2018-04-21T11:04:22.000Z</time>
      </trkpt>
      <trkpt lat="44.12055" lon="7.38656">
        <ele>2934</ele>
        <time>2018-04-21T11:04:31.000Z</time>
      </trkpt>
      <trkpt lat="44.12056" lon="7.38656">
        <ele>2934</ele>
        <time>2018-04-21T11:04:42.000Z</time>
      </trkpt>
      <trkpt lat="44.12055" lon="7.38657">
        <ele>2934</ele>
        <time>2018-04-21T11:04:57.000Z</time>
      </trkpt>
      <trkpt lat="44.12055" lon="7.38658">
        <ele>2934</ele>
        <time>2018-04-21T11:05:19.000Z</time>
      </trkpt>
      <trkpt lat="44.12054" lon="7.38659">
        <ele>2934</ele>
        <time>2018-04-21T11:05:43.000Z</time>
      </trkpt>
      <trkpt lat="44.12054" lon="7.38659">
        <ele>2934</ele>
        <time>2018-04-21T11:05:55.000Z</time>
      </trkpt>
      <trkpt lat="44.12054" lon="7.38659">
        <ele>2934</ele>
        <time>2018-04-21T11:06:06.000Z</time>
      </trkpt>
      <trkpt lat="44.12055" lon="7.38659">
        <ele>2934</ele>
        <time>2018-04-21T11:06:14.000Z</time>
      </trkpt>
      <trkpt lat="44.12054" lon="7.38658">
        <ele>2934</ele>
        <time>2018-04-21T11:06:32.000Z</time>
      </trkpt>
      <trkpt lat="44.12055" lon="7.38658">
        <ele>2934</ele>
        <time>2018-04-21T11:06:40.000Z</time>
      </trkpt>
      <trkpt lat="44.12057" lon="7.38657">
        <ele>2934</ele>
        <time>2018-04-21T11:06:57.000Z</time>
      </trkpt>
      <trkpt lat="44.12058" lon="7.38657">
        <ele>2934</ele>
        <time>2018-04-21T11:07:08.000Z</time>
      </trkpt>
      <trkpt lat="44.12057" lon="7.38657">
        <ele>2934</ele>
        <time>2018-04-21T11:07:21.000Z</time>
      </trkpt>
      <trkpt lat="44.12056" lon="7.38658">
        <ele>2934</ele>
        <time>2018-04-21T11:07:38.000Z</time>
      </trkpt>
      <trkpt lat="44.12057" lon="7.38658">
        <ele>2934</ele>
        <time>2018-04-21T11:07:46.000Z</time>
      </trkpt>
      <trkpt lat="44.12057" lon="7.38657">
        <ele>2934</ele>
        <time>2018-04-21T11:08:04.000Z</time>
      </trkpt>
      <trkpt lat="44.12056" lon="7.38658">
        <ele>2934</ele>
        <time>2018-04-21T11:08:22.000Z</time>
      </trkpt>
      <trkpt lat="44.12055" lon="7.38658">
        <ele>2934</ele>
        <time>2018-04-21T11:08:36.000Z</time>
      </trkpt>
      <trkpt lat="44.12055" lon="7.38658">
        <ele>2934</ele>
        <time>2018-04-21T11:08:42.000Z</time>
      </trkpt>
      <trkpt lat="44.12054" lon="7.38658">
        <ele>2934</ele>
        <time>2018-04-21T11:08:53.000Z</time>
      </trkpt>
      <trkpt lat="44.12054" lon="7.38659">
        <ele>2934</ele>
        <time>2018-04-21T11:08:57.000Z</time>
      </trkpt>
      <trkpt lat="44.12054" lon="7.38659">
        <ele>2934</ele>
        <time>2018-04-21T11:09:07.000Z</time>
      </trkpt>
      <trkpt lat="44.12055" lon="7.38658">
        <ele>2934</ele>
        <time>2018-04-21T11:09:12.000Z</time>
      </trkpt>
      <trkpt lat="44.12055" lon="7.38658">
        <ele>2934</ele>
        <time>2018-04-21T11:09:18.000Z</time>
      </trkpt>
      <trkpt lat="44.12055" lon="7.38658">
        <ele>2934</ele>
        <time>2018-04-21T11:09:29.000Z</time>
      </trkpt>
      <trkpt lat="44.12055" lon="7.38658">
        <ele>2934</ele>
        <time>2018-04-21T11:09:48.000Z</time>
      </trkpt>
      <trkpt lat="44.12055" lon="7.38657">
        <ele>2934</ele>
        <time>2018-04-21T11:10:03.000Z</time>
      </trkpt>
      <trkpt lat="44.12055" lon="7.38657">
        <ele>2934</ele>
        <time>2018-04-21T11:10:12.000Z</time>
      </trkpt>
      <trkpt lat="44.12054" lon="7.38657">
        <ele>2934</ele>
        <time>2018-04-21T11:10:27.000Z</time>
      </trkpt>
      <trkpt lat="44.12055" lon="7.38657">
        <ele>2934</ele>
        <time>2018-04-21T11:10:43.000Z</time>
      </trkpt>
      <trkpt lat="44.12055" lon="7.38657">
        <ele>2934</ele>
        <time>2018-04-21T11:10:51.000Z</time>
      </trkpt>
      <trkpt lat="44.12055" lon="7.38659">
        <ele>2934</ele>
        <time>2018-04-21T11:10:58.000Z</time>
      </trkpt>
      <trkpt lat="44.12053" lon="7.38663">
        <ele>2934</ele>
        <time>2018-04-21T11:11:04.000Z</time>
      </trkpt>
      <trkpt lat="44.12053" lon="7.38663">
        <ele>2934</ele>
        <time>2018-04-21T11:11:14.000Z</time>
      </trkpt>
      <trkpt lat="44.12053" lon="7.38662">
        <ele>2934</ele>
        <time>2018-04-21T11:11:23.000Z</time>
      </trkpt>
      <trkpt lat="44.12055" lon="7.38661">
        <ele>2934</ele>
        <time>2018-04-21T11:11:34.000Z</time>
      </trkpt>
      <trkpt lat="44.12059" lon="7.38658">
        <ele>2934</ele>
        <time>2018-04-21T11:11:45.000Z</time>
      </trkpt>
      <trkpt lat="44.12059" lon="7.38658">
        <ele>2934</ele>
        <time>2018-04-21T11:11:59.000Z</time>
      </trkpt>
      <trkpt lat="44.12059" lon="7.38657">
        <ele>2934</ele>
        <time>2018-04-21T11:12:06.000Z</time>
      </trkpt>
      <trkpt lat="44.12059" lon="7.38657">
        <ele>2934</ele>
        <time>2018-04-21T11:12:07.000Z</time>
      </trkpt>
      <trkpt lat="44.12058" lon="7.38657">
        <ele>2934</ele>
        <time>2018-04-21T11:12:17.000Z</time>
      </trkpt>
      <trkpt lat="44.12057" lon="7.38658">
        <ele>2934</ele>
        <time>2018-04-21T11:12:34.000Z</time>
      </trkpt>
      <trkpt lat="44.12056" lon="7.38659">
        <ele>2934</ele>
        <time>2018-04-21T11:12:52.000Z</time>
      </trkpt>
      <trkpt lat="44.12055" lon="7.38659">
        <ele>2934</ele>
        <time>2018-04-21T11:13:05.000Z</time>
      </trkpt>
      <trkpt lat="44.12055" lon="7.3866">
        <ele>2934</ele>
        <time>2018-04-21T11:13:23.000Z</time>
      </trkpt>
      <trkpt lat="44.12054" lon="7.38661">
        <ele>2934</ele>
        <time>2018-04-21T11:13:41.000Z</time>
      </trkpt>
      <trkpt lat="44.12054" lon="7.3866">
        <ele>2934</ele>
        <time>2018-04-21T11:13:57.000Z</time>
      </trkpt>
      <trkpt lat="44.12055" lon="7.38658">
        <ele>2934</ele>
        <time>2018-04-21T11:14:08.000Z</time>
      </trkpt>
      <trkpt lat="44.12054" lon="7.38659">
        <ele>2934</ele>
        <time>2018-04-21T11:14:19.000Z</time>
      </trkpt>
      <trkpt lat="44.12054" lon="7.38659">
        <ele>2934</ele>
        <time>2018-04-21T11:14:33.000Z</time>
      </trkpt>
      <trkpt lat="44.12054" lon="7.38659">
        <ele>2934</ele>
        <time>2018-04-21T11:14:44.000Z</time>
      </trkpt>
      <trkpt lat="44.12054" lon="7.38658">
        <ele>2934</ele>
        <time>2018-04-21T11:14:53.000Z</time>
      </trkpt>
      <trkpt lat="44.12054" lon="7.38658">
        <ele>2934</ele>
        <time>2018-04-21T11:15:01.000Z</time>
      </trkpt>
      <trkpt lat="44.12053" lon="7.38659">
        <ele>2934</ele>
        <time>2018-04-21T11:15:11.000Z</time>
      </trkpt>
      <trkpt lat="44.12054" lon="7.38659">
        <ele>2934</ele>
        <time>2018-04-21T11:15:16.000Z</time>
      </trkpt>
      <trkpt lat="44.12054" lon="7.38659">
        <ele>2934</ele>
        <time>2018-04-21T11:15:27.000Z</time>
      </trkpt>
      <trkpt lat="44.12053" lon="7.38659">
        <ele>2934</ele>
        <time>2018-04-21T11:15:36.000Z</time>
      </trkpt>
      <trkpt lat="44.12053" lon="7.38659">
        <ele>2934</ele>
        <time>2018-04-21T11:15:40.000Z</time>
      </trkpt>
      <trkpt lat="44.12053" lon="7.38659">
        <ele>2934</ele>
        <time>2018-04-21T11:15:47.000Z</time>
      </trkpt>
      <trkpt lat="44.12053" lon="7.38658">
        <ele>2934</ele>
        <time>2018-04-21T11:15:58.000Z</time>
      </trkpt>
      <trkpt lat="44.12053" lon="7.38658">
        <ele>2934</ele>
        <time>2018-04-21T11:16:08.000Z</time>
      </trkpt>
      <trkpt lat="44.12053" lon="7.38658">
        <ele>2934</ele>
        <time>2018-04-21T11:16:15.000Z</time>
      </trkpt>
      <trkpt lat="44.12053" lon="7.38659">
        <ele>2934</ele>
        <time>2018-04-21T11:16:24.000Z</time>
      </trkpt>
      <trkpt lat="44.12053" lon="7.3866">
        <ele>2934</ele>
        <time>2018-04-21T11:16:36.000Z</time>
      </trkpt>
      <trkpt lat="44.12053" lon="7.38661">
        <ele>2934</ele>
        <time>2018-04-21T11:16:45.000Z</time>
      </trkpt>
      <trkpt lat="44.12052" lon="7.38663">
        <ele>2933</ele>
        <time>2018-04-21T11:16:55.000Z</time>
      </trkpt>
      <trkpt lat="44.12051" lon="7.38665">
        <ele>2933</ele>
        <time>2018-04-21T11:17:02.000Z</time>
      </trkpt>
      <trkpt lat="44.1205" lon="7.38668">
        <ele>2923</ele>
        <time>2018-04-21T11:17:08.000Z</time>
      </trkpt>
      <trkpt lat="44.1205" lon="7.38668">
        <ele>2923</ele>
        <time>2018-04-21T11:17:14.000Z</time>
      </trkpt>
      <trkpt lat="44.12049" lon="7.3867">
        <ele>2923</ele>
        <time>2018-04-21T11:17:22.000Z</time>
      </trkpt>
      <trkpt lat="44.12047" lon="7.38673">
        <ele>2922</ele>
        <time>2018-04-21T11:17:29.000Z</time>
      </trkpt>
      <trkpt lat="44.12047" lon="7.38674">
        <ele>2922</ele>
        <time>2018-04-21T11:17:36.000Z</time>
      </trkpt>
      <trkpt lat="44.12047" lon="7.38674">
        <ele>2922</ele>
        <time>2018-04-21T11:17:37.000Z</time>
      </trkpt>
      <trkpt lat="44.12048" lon="7.38673">
        <ele>2922</ele>
        <time>2018-04-21T11:17:44.000Z</time>
      </trkpt>
      <trkpt lat="44.12049" lon="7.3867">
        <ele>2923</ele>
        <time>2018-04-21T11:17:53.000Z</time>
      </trkpt>
      <trkpt lat="44.12049" lon="7.3867">
        <ele>2923</ele>
        <time>2018-04-21T11:18:00.000Z</time>
      </trkpt>
      <trkpt lat="44.12049" lon="7.3867">
        <ele>2923</ele>
        <time>2018-04-21T11:18:07.000Z</time>
      </trkpt>
      <trkpt lat="44.12049" lon="7.3867">
        <ele>2923</ele>
        <time>2018-04-21T11:18:09.000Z</time>
      </trkpt>
      <trkpt lat="44.1205" lon="7.38669">
        <ele>2923</ele>
        <time>2018-04-21T11:18:16.000Z</time>
      </trkpt>
      <trkpt lat="44.1205" lon="7.38669">
        <ele>2923</ele>
        <time>2018-04-21T11:18:20.000Z</time>
      </trkpt>
      <trkpt lat="44.12051" lon="7.38667">
        <ele>2924</ele>
        <time>2018-04-21T11:18:25.000Z</time>
      </trkpt>
      <trkpt lat="44.12052" lon="7.38666">
        <ele>2933</ele>
        <time>2018-04-21T11:18:31.000Z</time>
      </trkpt>
      <trkpt lat="44.12054" lon="7.38663">
        <ele>2934</ele>
        <time>2018-04-21T11:18:38.000Z</time>
      </trkpt>
      <trkpt lat="44.12053" lon="7.38664">
        <ele>2934</ele>
        <time>2018-04-21T11:18:39.000Z</time>
      </trkpt>
      <trkpt lat="44.12056" lon="7.38661">
        <ele>2934</ele>
        <time>2018-04-21T11:18:46.000Z</time>
      </trkpt>
      <trkpt lat="44.12057" lon="7.3866">
        <ele>2934</ele>
        <time>2018-04-21T11:18:56.000Z</time>
      </trkpt>
      <trkpt lat="44.12057" lon="7.38659">
        <ele>2934</ele>
        <time>2018-04-21T11:19:02.000Z</time>
      </trkpt>
      <trkpt lat="44.12058" lon="7.38657">
        <ele>2934</ele>
        <time>2018-04-21T11:19:09.000Z</time>
      </trkpt>
      <trkpt lat="44.12057" lon="7.38657">
        <ele>2934</ele>
        <time>2018-04-21T11:19:28.000Z</time>
      </trkpt>
      <trkpt lat="44.12057" lon="7.38657">
        <ele>2934</ele>
        <time>2018-04-21T11:19:33.000Z</time>
      </trkpt>
      <trkpt lat="44.12056" lon="7.38656">
        <ele>2934</ele>
        <time>2018-04-21T11:19:38.000Z</time>
      </trkpt>
      <trkpt lat="44.12057" lon="7.38657">
        <ele>2934</ele>
        <time>2018-04-21T11:19:43.000Z</time>
      </trkpt>
      <trkpt lat="44.12056" lon="7.38658">
        <ele>2934</ele>
        <time>2018-04-21T11:19:50.000Z</time>
      </trkpt>
      <trkpt lat="44.12056" lon="7.38658">
        <ele>2934</ele>
        <time>2018-04-21T11:19:51.000Z</time>
      </trkpt>
      <trkpt lat="44.12056" lon="7.38658">
        <ele>2934</ele>
        <time>2018-04-21T11:19:57.000Z</time>
      </trkpt>
      <trkpt lat="44.12055" lon="7.38658">
        <ele>2934</ele>
        <time>2018-04-21T11:20:07.000Z</time>
      </trkpt>
      <trkpt lat="44.12054" lon="7.38659">
        <ele>2934</ele>
        <time>2018-04-21T11:20:19.000Z</time>
      </trkpt>
      <trkpt lat="44.12051" lon="7.38659">
        <ele>2933</ele>
        <time>2018-04-21T11:20:24.000Z</time>
      </trkpt>
      <trkpt lat="44.12052" lon="7.38659">
        <ele>2933</ele>
        <time>2018-04-21T11:20:28.000Z</time>
      </trkpt>
      <trkpt lat="44.12052" lon="7.38659">
        <ele>2933</ele>
        <time>2018-04-21T11:20:30.000Z</time>
      </trkpt>
      <trkpt lat="44.12054" lon="7.38658">
        <ele>2934</ele>
        <time>2018-04-21T11:20:38.000Z</time>
      </trkpt>
      <trkpt lat="44.12055" lon="7.38657">
        <ele>2934</ele>
        <time>2018-04-21T11:20:45.000Z</time>
      </trkpt>
      <trkpt lat="44.12056" lon="7.38657">
        <ele>2934</ele>
        <time>2018-04-21T11:20:51.000Z</time>
      </trkpt>
      <trkpt lat="44.12056" lon="7.38657">
        <ele>2934</ele>
        <time>2018-04-21T11:20:54.000Z</time>
      </trkpt>
      <trkpt lat="44.12057" lon="7.38656">
        <ele>2934</ele>
        <time>2018-04-21T11:21:06.000Z</time>
      </trkpt>
      <trkpt lat="44.12057" lon="7.38657">
        <ele>2934</ele>
        <time>2018-04-21T11:21:18.000Z</time>
      </trkpt>
      <trkpt lat="44.12056" lon="7.38657">
        <ele>2934</ele>
        <time>2018-04-21T11:21:27.000Z</time>
      </trkpt>
      <trkpt lat="44.12056" lon="7.38657">
        <ele>2934</ele>
        <time>2018-04-21T11:21:31.000Z</time>
      </trkpt>
      <trkpt lat="44.12056" lon="7.38657">
        <ele>2934</ele>
        <time>2018-04-21T11:21:34.000Z</time>
      </trkpt>
      <trkpt lat="44.12056" lon="7.38657">
        <ele>2934</ele>
        <time>2018-04-21T11:21:44.000Z</time>
      </trkpt>
      <trkpt lat="44.12056" lon="7.38657">
        <ele>2934</ele>
        <time>2018-04-21T11:21:45.000Z</time>
      </trkpt>
      <trkpt lat="44.12056" lon="7.38657">
        <ele>2934</ele>
        <time>2018-04-21T11:21:59.000Z</time>
      </trkpt>
      <trkpt lat="44.12056" lon="7.38657">
        <ele>2934</ele>
        <time>2018-04-21T11:22:07.000Z</time>
      </trkpt>
      <trkpt lat="44.12056" lon="7.38658">
        <ele>2934</ele>
        <time>2018-04-21T11:22:15.000Z</time>
      </trkpt>
      <trkpt lat="44.12056" lon="7.38657">
        <ele>2934</ele>
        <time>2018-04-21T11:22:16.000Z</time>
      </trkpt>
      <trkpt lat="44.12056" lon="7.38657">
        <ele>2934</ele>
        <time>2018-04-21T11:22:22.000Z</time>
      </trkpt>
      <trkpt lat="44.12057" lon="7.38656">
        <ele>2934</ele>
        <time>2018-04-21T11:22:28.000Z</time>
      </trkpt>
      <trkpt lat="44.12057" lon="7.38655">
        <ele>2934</ele>
        <time>2018-04-21T11:22:35.000Z</time>
      </trkpt>
      <trkpt lat="44.12057" lon="7.38653">
        <ele>2934</ele>
        <time>2018-04-21T11:22:41.000Z</time>
      </trkpt>
      <trkpt lat="44.12057" lon="7.38652">
        <ele>2934</ele>
        <time>2018-04-21T11:22:42.000Z</time>
      </trkpt>
      <trkpt lat="44.12056" lon="7.3865">
        <ele>2934</ele>
        <time>2018-04-21T11:22:47.000Z</time>
      </trkpt>
      <trkpt lat="44.12051" lon="7.38648">
        <ele>2933</ele>
        <time>2018-04-21T11:22:52.000Z</time>
      </trkpt>
      <trkpt lat="44.12035" lon="7.38639">
        <ele>2932</ele>
        <time>2018-04-21T11:22:57.000Z</time>
      </trkpt>
      <trkpt lat="44.12026" lon="7.38635">
        <ele>2931</ele>
        <time>2018-04-21T11:22:59.000Z</time>
      </trkpt>
      <trkpt lat="44.12022" lon="7.38633">
        <ele>2931</ele>
        <time>2018-04-21T11:23:00.000Z</time>
      </trkpt>
      <trkpt lat="44.12018" lon="7.38632">
        <ele>2931</ele>
        <time>2018-04-21T11:23:01.000Z</time>
      </trkpt>
      <trkpt lat="44.1201" lon="7.38628">
        <ele>2930</ele>
        <time>2018-04-21T11:23:03.000Z</time>
      </trkpt>
      <trkpt lat="44.12006" lon="7.38627">
        <ele>2930</ele>
        <time>2018-04-21T11:23:04.000Z</time>
      </trkpt>
      <trkpt lat="44.11996" lon="7.38623">
        <ele>2920</ele>
        <time>2018-04-21T11:23:06.000Z</time>
      </trkpt>
      <trkpt lat="44.1199" lon="7.38622">
        <ele>2920</ele>
        <time>2018-04-21T11:23:07.000Z</time>
      </trkpt>
      <trkpt lat="44.11984" lon="7.38622">
        <ele>2919</ele>
        <time>2018-04-21T11:23:08.000Z</time>
      </trkpt>
      <trkpt lat="44.11979" lon="7.38623">
        <ele>2919</ele>
        <time>2018-04-21T11:23:09.000Z</time>
      </trkpt>
      <trkpt lat="44.11967" lon="7.38622">
        <ele>2918</ele>
        <time>2018-04-21T11:23:11.000Z</time>
      </trkpt>
      <trkpt lat="44.11965" lon="7.3861">
        <ele>2917</ele>
        <time>2018-04-21T11:23:13.000Z</time>
      </trkpt>
      <trkpt lat="44.11961" lon="7.386">
        <ele>2917</ele>
        <time>2018-04-21T11:23:15.000Z</time>
      </trkpt>
      <trkpt lat="44.11956" lon="7.38599">
        <ele>2916</ele>
        <time>2018-04-21T11:23:16.000Z</time>
      </trkpt>
      <trkpt lat="44.11952" lon="7.38595">
        <ele>2915</ele>
        <time>2018-04-21T11:23:17.000Z</time>
      </trkpt>
      <trkpt lat="44.11949" lon="7.38589">
        <ele>2914</ele>
        <time>2018-04-21T11:23:18.000Z</time>
      </trkpt>
      <trkpt lat="44.11946" lon="7.38585">
        <ele>2913</ele>
        <time>2018-04-21T11:23:19.000Z</time>
      </trkpt>
      <trkpt lat="44.11941" lon="7.38585">
        <ele>2912</ele>
        <time>2018-04-21T11:23:20.000Z</time>
      </trkpt>
      <trkpt lat="44.11935" lon="7.38584">
        <ele>2910</ele>
        <time>2018-04-21T11:23:21.000Z</time>
      </trkpt>
      <trkpt lat="44.11931" lon="7.38583">
        <ele>2908</ele>
        <time>2018-04-21T11:23:22.000Z</time>
      </trkpt>
      <trkpt lat="44.11926" lon="7.38585">
        <ele>2906</ele>
        <time>2018-04-21T11:23:23.000Z</time>
      </trkpt>
      <trkpt lat="44.11921" lon="7.38588">
        <ele>2905</ele>
        <time>2018-04-21T11:23:24.000Z</time>
      </trkpt>
      <trkpt lat="44.11918" lon="7.3859">
        <ele>2905</ele>
        <time>2018-04-21T11:23:25.000Z</time>
      </trkpt>
      <trkpt lat="44.11916" lon="7.38592">
        <ele>2898</ele>
        <time>2018-04-21T11:23:26.000Z</time>
      </trkpt>
      <trkpt lat="44.11915" lon="7.38593">
        <ele>2897</ele>
        <time>2018-04-21T11:23:27.000Z</time>
      </trkpt>
      <trkpt lat="44.11915" lon="7.38593">
        <ele>2897</ele>
        <time>2018-04-21T11:23:28.000Z</time>
      </trkpt>
      <trkpt lat="44.11915" lon="7.38593">
        <ele>2897</ele>
        <time>2018-04-21T11:23:30.000Z</time>
      </trkpt>
      <trkpt lat="44.11915" lon="7.38593">
        <ele>2897</ele>
        <time>2018-04-21T11:23:34.000Z</time>
      </trkpt>
      <trkpt lat="44.11912" lon="7.38595">
        <ele>2896</ele>
        <time>2018-04-21T11:23:44.000Z</time>
      </trkpt>
      <trkpt lat="44.11906" lon="7.38601">
        <ele>2895</ele>
        <time>2018-04-21T11:23:48.000Z</time>
      </trkpt>
      <trkpt lat="44.11901" lon="7.38605">
        <ele>2893</ele>
        <time>2018-04-21T11:23:50.000Z</time>
      </trkpt>
      <trkpt lat="44.11897" lon="7.38608">
        <ele>2892</ele>
        <time>2018-04-21T11:23:51.000Z</time>
      </trkpt>
      <trkpt lat="44.11893" lon="7.38606">
        <ele>2892</ele>
        <time>2018-04-21T11:23:52.000Z</time>
      </trkpt>
      <trkpt lat="44.11892" lon="7.386">
        <ele>2891</ele>
        <time>2018-04-21T11:23:53.000Z</time>
      </trkpt>
      <trkpt lat="44.1189" lon="7.3859">
        <ele>2891</ele>
        <time>2018-04-21T11:23:55.000Z</time>
      </trkpt>
      <trkpt lat="44.11886" lon="7.38591">
        <ele>2889</ele>
        <time>2018-04-21T11:23:56.000Z</time>
      </trkpt>
      <trkpt lat="44.11881" lon="7.38592">
        <ele>2888</ele>
        <time>2018-04-21T11:23:57.000Z</time>
      </trkpt>
      <trkpt lat="44.11877" lon="7.38588">
        <ele>2886</ele>
        <time>2018-04-21T11:23:58.000Z</time>
      </trkpt>
      <trkpt lat="44.11876" lon="7.38582">
        <ele>2881</ele>
        <time>2018-04-21T11:23:59.000Z</time>
      </trkpt>
      <trkpt lat="44.11873" lon="7.38578">
        <ele>2880</ele>
        <time>2018-04-21T11:24:00.000Z</time>
      </trkpt>
      <trkpt lat="44.11868" lon="7.38579">
        <ele>2877</ele>
        <time>2018-04-21T11:24:01.000Z</time>
      </trkpt>
      <trkpt lat="44.11862" lon="7.3858">
        <ele>2875</ele>
        <time>2018-04-21T11:24:02.000Z</time>
      </trkpt>
      <trkpt lat="44.11857" lon="7.38575">
        <ele>2874</ele>
        <time>2018-04-21T11:24:03.000Z</time>
      </trkpt>
      <trkpt lat="44.11855" lon="7.38568">
        <ele>2873</ele>
        <time>2018-04-21T11:24:04.000Z</time>
      </trkpt>
      <trkpt lat="44.11855" lon="7.38561">
        <ele>2874</ele>
        <time>2018-04-21T11:24:05.000Z</time>
      </trkpt>
      <trkpt lat="44.11854" lon="7.38555">
        <ele>2875</ele>
        <time>2018-04-21T11:24:06.000Z</time>
      </trkpt>
      <trkpt lat="44.11848" lon="7.38555">
        <ele>2873</ele>
        <time>2018-04-21T11:24:07.000Z</time>
      </trkpt>
      <trkpt lat="44.11843" lon="7.38558">
        <ele>2872</ele>
        <time>2018-04-21T11:24:08.000Z</time>
      </trkpt>
      <trkpt lat="44.11836" lon="7.38558">
        <ele>2871</ele>
        <time>2018-04-21T11:24:09.000Z</time>
      </trkpt>
      <trkpt lat="44.11832" lon="7.38554">
        <ele>2851</ele>
        <time>2018-04-21T11:24:10.000Z</time>
      </trkpt>
      <trkpt lat="44.11827" lon="7.38549">
        <ele>2850</ele>
        <time>2018-04-21T11:24:11.000Z</time>
      </trkpt>
      <trkpt lat="44.11821" lon="7.38545">
        <ele>2849</ele>
        <time>2018-04-21T11:24:12.000Z</time>
      </trkpt>
      <trkpt lat="44.11816" lon="7.3854">
        <ele>2849</ele>
        <time>2018-04-21T11:24:13.000Z</time>
      </trkpt>
      <trkpt lat="44.1181" lon="7.38538">
        <ele>2848</ele>
        <time>2018-04-21T11:24:14.000Z</time>
      </trkpt>
      <trkpt lat="44.11808" lon="7.38538">
        <ele>2847</ele>
        <time>2018-04-21T11:24:15.000Z</time>
      </trkpt>
      <trkpt lat="44.11806" lon="7.38538">
        <ele>2847</ele>
        <time>2018-04-21T11:24:16.000Z</time>
      </trkpt>
      <trkpt lat="44.11804" lon="7.38539">
        <ele>2847</ele>
        <time>2018-04-21T11:24:17.000Z</time>
      </trkpt>
      <trkpt lat="44.11801" lon="7.38539">
        <ele>2847</ele>
        <time>2018-04-21T11:24:18.000Z</time>
      </trkpt>
      <trkpt lat="44.11799" lon="7.3854">
        <ele>2846</ele>
        <time>2018-04-21T11:24:19.000Z</time>
      </trkpt>
      <trkpt lat="44.11796" lon="7.3854">
        <ele>2846</ele>
        <time>2018-04-21T11:24:20.000Z</time>
      </trkpt>
      <trkpt lat="44.11779" lon="7.38541">
        <ele>2843</ele>
        <time>2018-04-21T11:24:24.000Z</time>
      </trkpt>
      <trkpt lat="44.11773" lon="7.38526">
        <ele>2841</ele>
        <time>2018-04-21T11:24:26.000Z</time>
      </trkpt>
      <trkpt lat="44.11768" lon="7.38521">
        <ele>2840</ele>
        <time>2018-04-21T11:24:27.000Z</time>
      </trkpt>
      <trkpt lat="44.1176" lon="7.38518">
        <ele>2838</ele>
        <time>2018-04-21T11:24:28.000Z</time>
      </trkpt>
      <trkpt lat="44.11753" lon="7.38511">
        <ele>2835</ele>
        <time>2018-04-21T11:24:29.000Z</time>
      </trkpt>
      <trkpt lat="44.11746" lon="7.38506">
        <ele>2830</ele>
        <time>2018-04-21T11:24:30.000Z</time>
      </trkpt>
      <trkpt lat="44.11736" lon="7.38503">
        <ele>2829</ele>
        <time>2018-04-21T11:24:31.000Z</time>
      </trkpt>
      <trkpt lat="44.11727" lon="7.38501">
        <ele>2829</ele>
        <time>2018-04-21T11:24:32.000Z</time>
      </trkpt>
      <trkpt lat="44.11718" lon="7.385">
        <ele>2831</ele>
        <time>2018-04-21T11:24:33.000Z</time>
      </trkpt>
      <trkpt lat="44.11711" lon="7.38502">
        <ele>2828</ele>
        <time>2018-04-21T11:24:34.000Z</time>
      </trkpt>
      <trkpt lat="44.11704" lon="7.38506">
        <ele>2827</ele>
        <time>2018-04-21T11:24:35.000Z</time>
      </trkpt>
      <trkpt lat="44.11695" lon="7.38502">
        <ele>2827</ele>
        <time>2018-04-21T11:24:37.000Z</time>
      </trkpt>
      <trkpt lat="44.11695" lon="7.38497">
        <ele>2832</ele>
        <time>2018-04-21T11:24:40.000Z</time>
      </trkpt>
      <trkpt lat="44.11696" lon="7.38497">
        <ele>2832</ele>
        <time>2018-04-21T11:24:45.000Z</time>
      </trkpt>
      <trkpt lat="44.11696" lon="7.38497">
        <ele>2832</ele>
        <time>2018-04-21T11:25:00.000Z</time>
      </trkpt>
      <trkpt lat="44.11698" lon="7.38496">
        <ele>2832</ele>
        <time>2018-04-21T11:25:11.000Z</time>
      </trkpt>
      <trkpt lat="44.11697" lon="7.38488">
        <ele>2832</ele>
        <time>2018-04-21T11:25:15.000Z</time>
      </trkpt>
      <trkpt lat="44.11695" lon="7.38484">
        <ele>2832</ele>
        <time>2018-04-21T11:25:16.000Z</time>
      </trkpt>
      <trkpt lat="44.11691" lon="7.38478">
        <ele>2832</ele>
        <time>2018-04-21T11:25:18.000Z</time>
      </trkpt>
      <trkpt lat="44.11683" lon="7.38486">
        <ele>2832</ele>
        <time>2018-04-21T11:25:20.000Z</time>
      </trkpt>
      <trkpt lat="44.11678" lon="7.38491">
        <ele>2832</ele>
        <time>2018-04-21T11:25:21.000Z</time>
      </trkpt>
      <trkpt lat="44.11674" lon="7.38496">
        <ele>2832</ele>
        <time>2018-04-21T11:25:22.000Z</time>
      </trkpt>
      <trkpt lat="44.1167" lon="7.38501">
        <ele>2826</ele>
        <time>2018-04-21T11:25:23.000Z</time>
      </trkpt>
      <trkpt lat="44.11666" lon="7.38505">
        <ele>2817</ele>
        <time>2018-04-21T11:25:24.000Z</time>
      </trkpt>
      <trkpt lat="44.11661" lon="7.38506">
        <ele>2817</ele>
        <time>2018-04-21T11:25:25.000Z</time>
      </trkpt>
      <trkpt lat="44.11659" lon="7.38498">
        <ele>2800.6</ele>
        <time>2018-04-21T11:25:27.000Z</time>
      </trkpt>
      <trkpt lat="44.11653" lon="7.38494">
        <ele>2796.5</ele>
        <time>2018-04-21T11:25:29.000Z</time>
      </trkpt>
      <trkpt lat="44.11649" lon="7.38492">
        <ele>2793.8</ele>
        <time>2018-04-21T11:25:30.000Z</time>
      </trkpt>
      <trkpt lat="44.11648" lon="7.38486">
        <ele>2790</ele>
        <time>2018-04-21T11:25:31.000Z</time>
      </trkpt>
      <trkpt lat="44.11649" lon="7.38479">
        <ele>2786.6</ele>
        <time>2018-04-21T11:25:32.000Z</time>
      </trkpt>
      <trkpt lat="44.1165" lon="7.38473">
        <ele>2783.8</ele>
        <time>2018-04-21T11:25:33.000Z</time>
      </trkpt>
      <trkpt lat="44.11649" lon="7.38468">
        <ele>2781.3</ele>
        <time>2018-04-21T11:25:34.000Z</time>
      </trkpt>
      <trkpt lat="44.11647" lon="7.38465">
        <ele>2779</ele>
        <time>2018-04-21T11:25:35.000Z</time>
      </trkpt>
      <trkpt lat="44.11642" lon="7.38461">
        <ele>2774.5</ele>
        <time>2018-04-21T11:25:36.000Z</time>
      </trkpt>
      <trkpt lat="44.1164" lon="7.38453">
        <ele>2770.1</ele>
        <time>2018-04-21T11:25:37.000Z</time>
      </trkpt>
      <trkpt lat="44.1164" lon="7.38445">
        <ele>2767</ele>
        <time>2018-04-21T11:25:38.000Z</time>
      </trkpt>
      <trkpt lat="44.11639" lon="7.38437">
        <ele>2765.3</ele>
        <time>2018-04-21T11:25:39.000Z</time>
      </trkpt>
      <trkpt lat="44.11636" lon="7.38433">
        <ele>2763.4</ele>
        <time>2018-04-21T11:25:40.000Z</time>
      </trkpt>
      <trkpt lat="44.11629" lon="7.38432">
        <ele>2759.9</ele>
        <time>2018-04-21T11:25:41.000Z</time>
      </trkpt>
      <trkpt lat="44.11623" lon="7.38425">
        <ele>2756.1</ele>
        <time>2018-04-21T11:25:42.000Z</time>
      </trkpt>
      <trkpt lat="44.11619" lon="7.38416">
        <ele>2753</ele>
        <time>2018-04-21T11:25:43.000Z</time>
      </trkpt>
      <trkpt lat="44.11615" lon="7.38406">
        <ele>2752.1</ele>
        <time>2018-04-21T11:25:44.000Z</time>
      </trkpt>
      <trkpt lat="44.11611" lon="7.38398">
        <ele>2751</ele>
        <time>2018-04-21T11:25:45.000Z</time>
      </trkpt>
      <trkpt lat="44.11607" lon="7.38391">
        <ele>2749.9</ele>
        <time>2018-04-21T11:25:46.000Z</time>
      </trkpt>
      <trkpt lat="44.11603" lon="7.38384">
        <ele>2748.7</ele>
        <time>2018-04-21T11:25:48.000Z</time>
      </trkpt>
      <trkpt lat="44.11602" lon="7.38385">
        <ele>2748.1</ele>
        <time>2018-04-21T11:25:50.000Z</time>
      </trkpt>
      <trkpt lat="44.11602" lon="7.38385">
        <ele>2748.1</ele>
        <time>2018-04-21T11:25:53.000Z</time>
      </trkpt>
      <trkpt lat="44.11602" lon="7.38388">
        <ele>2747.8</ele>
        <time>2018-04-21T11:26:06.000Z</time>
      </trkpt>
      <trkpt lat="44.11601" lon="7.38391">
        <ele>2747.1</ele>
        <time>2018-04-21T11:26:15.000Z</time>
      </trkpt>
      <trkpt lat="44.11599" lon="7.38393">
        <ele>2746</ele>
        <time>2018-04-21T11:26:16.000Z</time>
      </trkpt>
      <trkpt lat="44.11595" lon="7.384">
        <ele>2743.7</ele>
        <time>2018-04-21T11:26:18.000Z</time>
      </trkpt>
      <trkpt lat="44.11586" lon="7.38407">
        <ele>2739.5</ele>
        <time>2018-04-21T11:26:20.000Z</time>
      </trkpt>
      <trkpt lat="44.11583" lon="7.38415">
        <ele>2737.9</ele>
        <time>2018-04-21T11:26:21.000Z</time>
      </trkpt>
      <trkpt lat="44.11578" lon="7.38418">
        <ele>2736.4</ele>
        <time>2018-04-21T11:26:22.000Z</time>
      </trkpt>
      <trkpt lat="44.11573" lon="7.38418">
        <ele>2734.5</ele>
        <time>2018-04-21T11:26:23.000Z</time>
      </trkpt>
      <trkpt lat="44.11567" lon="7.38416">
        <ele>2731.5</ele>
        <time>2018-04-21T11:26:24.000Z</time>
      </trkpt>
      <trkpt lat="44.11562" lon="7.3841">
        <ele>2728.7</ele>
        <time>2018-04-21T11:26:25.000Z</time>
      </trkpt>
      <trkpt lat="44.1156" lon="7.38402">
        <ele>2726.6</ele>
        <time>2018-04-21T11:26:26.000Z</time>
      </trkpt>
      <trkpt lat="44.1156" lon="7.38395">
        <ele>2725.6</ele>
        <time>2018-04-21T11:26:27.000Z</time>
      </trkpt>
      <trkpt lat="44.11559" lon="7.3839">
        <ele>2724.3</ele>
        <time>2018-04-21T11:26:28.000Z</time>
      </trkpt>
      <trkpt lat="44.11558" lon="7.38384">
        <ele>2723.7</ele>
        <time>2018-04-21T11:26:29.000Z</time>
      </trkpt>
      <trkpt lat="44.11554" lon="7.3838">
        <ele>2721.6</ele>
        <time>2018-04-21T11:26:30.000Z</time>
      </trkpt>
      <trkpt lat="44.1155" lon="7.38382">
        <ele>2719.9</ele>
        <time>2018-04-21T11:26:31.000Z</time>
      </trkpt>
      <trkpt lat="44.11542" lon="7.38384">
        <ele>2716.7</ele>
        <time>2018-04-21T11:26:33.000Z</time>
      </trkpt>
      <trkpt lat="44.11539" lon="7.38379">
        <ele>2714.9</ele>
        <time>2018-04-21T11:26:34.000Z</time>
      </trkpt>
      <trkpt lat="44.11536" lon="7.38375">
        <ele>2713</ele>
        <time>2018-04-21T11:26:35.000Z</time>
      </trkpt>
      <trkpt lat="44.11532" lon="7.38373">
        <ele>2710.7</ele>
        <time>2018-04-21T11:26:36.000Z</time>
      </trkpt>
      <trkpt lat="44.11529" lon="7.38368">
        <ele>2708.2</ele>
        <time>2018-04-21T11:26:37.000Z</time>
      </trkpt>
      <trkpt lat="44.11527" lon="7.38361">
        <ele>2705.7</ele>
        <time>2018-04-21T11:26:38.000Z</time>
      </trkpt>
      <trkpt lat="44.11523" lon="7.38357">
        <ele>2703.5</ele>
        <time>2018-04-21T11:26:39.000Z</time>
      </trkpt>
      <trkpt lat="44.1152" lon="7.38351">
        <ele>2700.9</ele>
        <time>2018-04-21T11:26:40.000Z</time>
      </trkpt>
      <trkpt lat="44.11519" lon="7.38343">
        <ele>2698.3</ele>
        <time>2018-04-21T11:26:41.000Z</time>
      </trkpt>
      <trkpt lat="44.11517" lon="7.38337">
        <ele>2695.8</ele>
        <time>2018-04-21T11:26:42.000Z</time>
      </trkpt>
      <trkpt lat="44.11514" lon="7.38335">
        <ele>2694.1</ele>
        <time>2018-04-21T11:26:43.000Z</time>
      </trkpt>
      <trkpt lat="44.11511" lon="7.38332">
        <ele>2691.9</ele>
        <time>2018-04-21T11:26:44.000Z</time>
      </trkpt>
      <trkpt lat="44.11508" lon="7.38327">
        <ele>2689</ele>
        <time>2018-04-21T11:26:45.000Z</time>
      </trkpt>
      <trkpt lat="44.11504" lon="7.38325">
        <ele>2686.5</ele>
        <time>2018-04-21T11:26:46.000Z</time>
      </trkpt>
      <trkpt lat="44.11501" lon="7.3832">
        <ele>2683.2</ele>
        <time>2018-04-21T11:26:47.000Z</time>
      </trkpt>
      <trkpt lat="44.115" lon="7.38318">
        <ele>2681.9</ele>
        <time>2018-04-21T11:26:48.000Z</time>
      </trkpt>
      <trkpt lat="44.115" lon="7.38317">
        <ele>2681.5</ele>
        <time>2018-04-21T11:26:49.000Z</time>
      </trkpt>
      <trkpt lat="44.11499" lon="7.38317">
        <ele>2681.2</ele>
        <time>2018-04-21T11:26:50.000Z</time>
      </trkpt>
      <trkpt lat="44.11499" lon="7.38317">
        <ele>2681.2</ele>
        <time>2018-04-21T11:26:51.000Z</time>
      </trkpt>
      <trkpt lat="44.115" lon="7.38318">
        <ele>2681.9</ele>
        <time>2018-04-21T11:26:52.000Z</time>
      </trkpt>
      <trkpt lat="44.115" lon="7.38318">
        <ele>2681.9</ele>
        <time>2018-04-21T11:26:53.000Z</time>
      </trkpt>
      <trkpt lat="44.115" lon="7.38318">
        <ele>2681.9</ele>
        <time>2018-04-21T11:26:55.000Z</time>
      </trkpt>
      <trkpt lat="44.11501" lon="7.38318">
        <ele>2682.4</ele>
        <time>2018-04-21T11:27:02.000Z</time>
      </trkpt>
      <trkpt lat="44.11501" lon="7.38318">
        <ele>2682.4</ele>
        <time>2018-04-21T11:27:04.000Z</time>
      </trkpt>
      <trkpt lat="44.11501" lon="7.38318">
        <ele>2682.4</ele>
        <time>2018-04-21T11:27:07.000Z</time>
      </trkpt>
      <trkpt lat="44.11501" lon="7.38318">
        <ele>2682.4</ele>
        <time>2018-04-21T11:27:14.000Z</time>
      </trkpt>
      <trkpt lat="44.11501" lon="7.38316">
        <ele>2681.6</ele>
        <time>2018-04-21T11:27:16.000Z</time>
      </trkpt>
      <trkpt lat="44.11496" lon="7.3831">
        <ele>2677.2</ele>
        <time>2018-04-21T11:27:18.000Z</time>
      </trkpt>
      <trkpt lat="44.1149" lon="7.38303">
        <ele>2671.6</ele>
        <time>2018-04-21T11:27:20.000Z</time>
      </trkpt>
      <trkpt lat="44.11486" lon="7.38298">
        <ele>2667.7</ele>
        <time>2018-04-21T11:27:21.000Z</time>
      </trkpt>
      <trkpt lat="44.11479" lon="7.38282">
        <ele>2657.3</ele>
        <time>2018-04-21T11:27:24.000Z</time>
      </trkpt>
      <trkpt lat="44.11477" lon="7.38277">
        <ele>2654.2</ele>
        <time>2018-04-21T11:27:25.000Z</time>
      </trkpt>
      <trkpt lat="44.11473" lon="7.38272">
        <ele>2650.5</ele>
        <time>2018-04-21T11:27:26.000Z</time>
      </trkpt>
      <trkpt lat="44.1147" lon="7.38265">
        <ele>2647.2</ele>
        <time>2018-04-21T11:27:27.000Z</time>
      </trkpt>
      <trkpt lat="44.11466" lon="7.38258">
        <ele>2643.8</ele>
        <time>2018-04-21T11:27:28.000Z</time>
      </trkpt>
      <trkpt lat="44.11458" lon="7.38253">
        <ele>2639.9</ele>
        <time>2018-04-21T11:27:29.000Z</time>
      </trkpt>
      <trkpt lat="44.11451" lon="7.38246">
        <ele>2636.5</ele>
        <time>2018-04-21T11:27:30.000Z</time>
      </trkpt>
      <trkpt lat="44.11444" lon="7.38236">
        <ele>2633.4</ele>
        <time>2018-04-21T11:27:31.000Z</time>
      </trkpt>
      <trkpt lat="44.11438" lon="7.38225">
        <ele>2630.1</ele>
        <time>2018-04-21T11:27:32.000Z</time>
      </trkpt>
      <trkpt lat="44.11431" lon="7.38212">
        <ele>2627.5</ele>
        <time>2018-04-21T11:27:33.000Z</time>
      </trkpt>
      <trkpt lat="44.11425" lon="7.382">
        <ele>2626.1</ele>
        <time>2018-04-21T11:27:34.000Z</time>
      </trkpt>
      <trkpt lat="44.11419" lon="7.3819">
        <ele>2624.8</ele>
        <time>2018-04-21T11:27:35.000Z</time>
      </trkpt>
      <trkpt lat="44.11414" lon="7.3818">
        <ele>2623.8</ele>
        <time>2018-04-21T11:27:36.000Z</time>
      </trkpt>
      <trkpt lat="44.11408" lon="7.38174">
        <ele>2622.2</ele>
        <time>2018-04-21T11:27:37.000Z</time>
      </trkpt>
      <trkpt lat="44.11396" lon="7.38172">
        <ele>2618.9</ele>
        <time>2018-04-21T11:27:39.000Z</time>
      </trkpt>
      <trkpt lat="44.11384" lon="7.38177">
        <ele>2615.3</ele>
        <time>2018-04-21T11:27:41.000Z</time>
      </trkpt>
      <trkpt lat="44.11379" lon="7.38179">
        <ele>2614</ele>
        <time>2018-04-21T11:27:42.000Z</time>
      </trkpt>
      <trkpt lat="44.11372" lon="7.38181">
        <ele>2612.3</ele>
        <time>2018-04-21T11:27:43.000Z</time>
      </trkpt>
      <trkpt lat="44.11365" lon="7.38182">
        <ele>2610.6</ele>
        <time>2018-04-21T11:27:44.000Z</time>
      </trkpt>
      <trkpt lat="44.11359" lon="7.38181">
        <ele>2608.6</ele>
        <time>2018-04-21T11:27:45.000Z</time>
      </trkpt>
      <trkpt lat="44.11354" lon="7.38178">
        <ele>2606.1</ele>
        <time>2018-04-21T11:27:46.000Z</time>
      </trkpt>
      <trkpt lat="44.11348" lon="7.38177">
        <ele>2603.3</ele>
        <time>2018-04-21T11:27:47.000Z</time>
      </trkpt>
      <trkpt lat="44.11342" lon="7.38174">
        <ele>2600.2</ele>
        <time>2018-04-21T11:27:48.000Z</time>
      </trkpt>
      <trkpt lat="44.1134" lon="7.38169">
        <ele>2598.5</ele>
        <time>2018-04-21T11:27:49.000Z</time>
      </trkpt>
      <trkpt lat="44.11339" lon="7.38165">
        <ele>2597.5</ele>
        <time>2018-04-21T11:27:50.000Z</time>
      </trkpt>
      <trkpt lat="44.11339" lon="7.38166">
        <ele>2597.6</ele>
        <time>2018-04-21T11:27:51.000Z</time>
      </trkpt>
      <trkpt lat="44.11339" lon="7.38165">
        <ele>2597.5</ele>
        <time>2018-04-21T11:27:52.000Z</time>
      </trkpt>
      <trkpt lat="44.11339" lon="7.38167">
        <ele>2597.7</ele>
        <time>2018-04-21T11:27:56.000Z</time>
      </trkpt>
      <trkpt lat="44.11339" lon="7.38167">
        <ele>2597.7</ele>
        <time>2018-04-21T11:28:06.000Z</time>
      </trkpt>
      <trkpt lat="44.11338" lon="7.38167">
        <ele>2597.2</ele>
        <time>2018-04-21T11:28:09.000Z</time>
      </trkpt>
      <trkpt lat="44.11338" lon="7.38167">
        <ele>2597.2</ele>
        <time>2018-04-21T11:28:14.000Z</time>
      </trkpt>
      <trkpt lat="44.11336" lon="7.38163">
        <ele>2595.9</ele>
        <time>2018-04-21T11:28:16.000Z</time>
      </trkpt>
      <trkpt lat="44.11333" lon="7.38159">
        <ele>2594</ele>
        <time>2018-04-21T11:28:17.000Z</time>
      </trkpt>
      <trkpt lat="44.11324" lon="7.38157">
        <ele>2589.7</ele>
        <time>2018-04-21T11:28:19.000Z</time>
      </trkpt>
      <trkpt lat="44.11317" lon="7.38154">
        <ele>2586</ele>
        <time>2018-04-21T11:28:20.000Z</time>
      </trkpt>
      <trkpt lat="44.11309" lon="7.38153">
        <ele>2582.2</ele>
        <time>2018-04-21T11:28:21.000Z</time>
      </trkpt>
      <trkpt lat="44.11301" lon="7.38151">
        <ele>2578.8</ele>
        <time>2018-04-21T11:28:22.000Z</time>
      </trkpt>
      <trkpt lat="44.11295" lon="7.38145">
        <ele>2575.8</ele>
        <time>2018-04-21T11:28:23.000Z</time>
      </trkpt>
      <trkpt lat="44.1129" lon="7.38135">
        <ele>2572.7</ele>
        <time>2018-04-21T11:28:24.000Z</time>
      </trkpt>
      <trkpt lat="44.11284" lon="7.38125">
        <ele>2569.7</ele>
        <time>2018-04-21T11:28:25.000Z</time>
      </trkpt>
      <trkpt lat="44.11276" lon="7.38114">
        <ele>2566.1</ele>
        <time>2018-04-21T11:28:26.000Z</time>
      </trkpt>
      <trkpt lat="44.11269" lon="7.38104">
        <ele>2565.1</ele>
        <time>2018-04-21T11:28:27.000Z</time>
      </trkpt>
      <trkpt lat="44.11263" lon="7.38094">
        <ele>2564.4</ele>
        <time>2018-04-21T11:28:28.000Z</time>
      </trkpt>
      <trkpt lat="44.11256" lon="7.38085">
        <ele>2563.3</ele>
        <time>2018-04-21T11:28:29.000Z</time>
      </trkpt>
      <trkpt lat="44.1125" lon="7.38077">
        <ele>2562.7</ele>
        <time>2018-04-21T11:28:30.000Z</time>
      </trkpt>
      <trkpt lat="44.11244" lon="7.38068">
        <ele>2550</ele>
        <time>2018-04-21T11:28:31.000Z</time>
      </trkpt>
      <trkpt lat="44.11239" lon="7.38061">
        <ele>2550</ele>
        <time>2018-04-21T11:28:32.000Z</time>
      </trkpt>
      <trkpt lat="44.11234" lon="7.38056">
        <ele>2550</ele>
        <time>2018-04-21T11:28:33.000Z</time>
      </trkpt>
      <trkpt lat="44.11229" lon="7.38051">
        <ele>2550</ele>
        <time>2018-04-21T11:28:34.000Z</time>
      </trkpt>
      <trkpt lat="44.11224" lon="7.38046">
        <ele>2550</ele>
        <time>2018-04-21T11:28:35.000Z</time>
      </trkpt>
      <trkpt lat="44.11216" lon="7.38039">
        <ele>2550</ele>
        <time>2018-04-21T11:28:37.000Z</time>
      </trkpt>
      <trkpt lat="44.11211" lon="7.38032">
        <ele>2550</ele>
        <time>2018-04-21T11:28:39.000Z</time>
      </trkpt>
      <trkpt lat="44.11203" lon="7.38007">
        <ele>2550</ele>
        <time>2018-04-21T11:28:45.000Z</time>
      </trkpt>
      <trkpt lat="44.11203" lon="7.38002">
        <ele>2550</ele>
        <time>2018-04-21T11:28:48.000Z</time>
      </trkpt>
      <trkpt lat="44.11204" lon="7.38002">
        <ele>2550</ele>
        <time>2018-04-21T11:28:57.000Z</time>
      </trkpt>
      <trkpt lat="44.11204" lon="7.38003">
        <ele>2550</ele>
        <time>2018-04-21T11:28:58.000Z</time>
      </trkpt>
      <trkpt lat="44.11205" lon="7.38004">
        <ele>2550</ele>
        <time>2018-04-21T11:29:10.000Z</time>
      </trkpt>
      <trkpt lat="44.11205" lon="7.38003">
        <ele>2550</ele>
        <time>2018-04-21T11:29:23.000Z</time>
      </trkpt>
      <trkpt lat="44.11194" lon="7.37996">
        <ele>2548</ele>
        <time>2018-04-21T11:29:26.000Z</time>
      </trkpt>
      <trkpt lat="44.11182" lon="7.37992">
        <ele>2548</ele>
        <time>2018-04-21T11:29:28.000Z</time>
      </trkpt>
      <trkpt lat="44.11176" lon="7.37988">
        <ele>2548</ele>
        <time>2018-04-21T11:29:29.000Z</time>
      </trkpt>
      <trkpt lat="44.11173" lon="7.37983">
        <ele>2547</ele>
        <time>2018-04-21T11:29:30.000Z</time>
      </trkpt>
      <trkpt lat="44.11171" lon="7.37978">
        <ele>2547</ele>
        <time>2018-04-21T11:29:31.000Z</time>
      </trkpt>
      <trkpt lat="44.11167" lon="7.37975">
        <ele>2546</ele>
        <time>2018-04-21T11:29:32.000Z</time>
      </trkpt>
      <trkpt lat="44.11163" lon="7.37972">
        <ele>2537</ele>
        <time>2018-04-21T11:29:33.000Z</time>
      </trkpt>
      <trkpt lat="44.11159" lon="7.37971">
        <ele>2536</ele>
        <time>2018-04-21T11:29:34.000Z</time>
      </trkpt>
      <trkpt lat="44.11155" lon="7.37968">
        <ele>2535</ele>
        <time>2018-04-21T11:29:35.000Z</time>
      </trkpt>
      <trkpt lat="44.1115" lon="7.37964">
        <ele>2534</ele>
        <time>2018-04-21T11:29:36.000Z</time>
      </trkpt>
      <trkpt lat="44.11145" lon="7.3796">
        <ele>2533</ele>
        <time>2018-04-21T11:29:37.000Z</time>
      </trkpt>
      <trkpt lat="44.11142" lon="7.37953">
        <ele>2531</ele>
        <time>2018-04-21T11:29:38.000Z</time>
      </trkpt>
      <trkpt lat="44.11141" lon="7.37943">
        <ele>2530</ele>
        <time>2018-04-21T11:29:39.000Z</time>
      </trkpt>
      <trkpt lat="44.11141" lon="7.37935">
        <ele>2529</ele>
        <time>2018-04-21T11:29:40.000Z</time>
      </trkpt>
      <trkpt lat="44.11141" lon="7.37926">
        <ele>2529</ele>
        <time>2018-04-21T11:29:41.000Z</time>
      </trkpt>
      <trkpt lat="44.11141" lon="7.37917">
        <ele>2528</ele>
        <time>2018-04-21T11:29:42.000Z</time>
      </trkpt>
      <trkpt lat="44.11141" lon="7.37908">
        <ele>2516</ele>
        <time>2018-04-21T11:29:43.000Z</time>
      </trkpt>
      <trkpt lat="44.11142" lon="7.379">
        <ele>2515</ele>
        <time>2018-04-21T11:29:44.000Z</time>
      </trkpt>
      <trkpt lat="44.11142" lon="7.37892">
        <ele>2514</ele>
        <time>2018-04-21T11:29:45.000Z</time>
      </trkpt>
      <trkpt lat="44.11143" lon="7.37884">
        <ele>2513</ele>
        <time>2018-04-21T11:29:46.000Z</time>
      </trkpt>
      <trkpt lat="44.11142" lon="7.37876">
        <ele>2512</ele>
        <time>2018-04-21T11:29:47.000Z</time>
      </trkpt>
      <trkpt lat="44.11139" lon="7.3787">
        <ele>2510</ele>
        <time>2018-04-21T11:29:48.000Z</time>
      </trkpt>
      <trkpt lat="44.11135" lon="7.37865">
        <ele>2510</ele>
        <time>2018-04-21T11:29:49.000Z</time>
      </trkpt>
      <trkpt lat="44.1113" lon="7.37862">
        <ele>2509</ele>
        <time>2018-04-21T11:29:50.000Z</time>
      </trkpt>
      <trkpt lat="44.11124" lon="7.37859">
        <ele>2507</ele>
        <time>2018-04-21T11:29:51.000Z</time>
      </trkpt>
      <trkpt lat="44.11116" lon="7.37856">
        <ele>2506</ele>
        <time>2018-04-21T11:29:52.000Z</time>
      </trkpt>
      <trkpt lat="44.11108" lon="7.3785">
        <ele>2504</ele>
        <time>2018-04-21T11:29:53.000Z</time>
      </trkpt>
      <trkpt lat="44.111" lon="7.37844">
        <ele>2501</ele>
        <time>2018-04-21T11:29:54.000Z</time>
      </trkpt>
      <trkpt lat="44.11094" lon="7.37835">
        <ele>2497</ele>
        <time>2018-04-21T11:29:55.000Z</time>
      </trkpt>
      <trkpt lat="44.11089" lon="7.37826">
        <ele>2488</ele>
        <time>2018-04-21T11:29:56.000Z</time>
      </trkpt>
      <trkpt lat="44.11085" lon="7.37822">
        <ele>2487</ele>
        <time>2018-04-21T11:29:57.000Z</time>
      </trkpt>
      <trkpt lat="44.11079" lon="7.37819">
        <ele>2483</ele>
        <time>2018-04-21T11:29:58.000Z</time>
      </trkpt>
      <trkpt lat="44.11074" lon="7.37814">
        <ele>2480</ele>
        <time>2018-04-21T11:29:59.000Z</time>
      </trkpt>
      <trkpt lat="44.11072" lon="7.37807">
        <ele>2478</ele>
        <time>2018-04-21T11:30:00.000Z</time>
      </trkpt>
      <trkpt lat="44.11069" lon="7.37798">
        <ele>2475</ele>
        <time>2018-04-21T11:30:01.000Z</time>
      </trkpt>
      <trkpt lat="44.11065" lon="7.37791">
        <ele>2474</ele>
        <time>2018-04-21T11:30:02.000Z</time>
      </trkpt>
      <trkpt lat="44.11061" lon="7.37784">
        <ele>2472</ele>
        <time>2018-04-21T11:30:03.000Z</time>
      </trkpt>
      <trkpt lat="44.11057" lon="7.37778">
        <ele>2471</ele>
        <time>2018-04-21T11:30:04.000Z</time>
      </trkpt>
      <trkpt lat="44.11053" lon="7.37771">
        <ele>2470</ele>
        <time>2018-04-21T11:30:05.000Z</time>
      </trkpt>
      <trkpt lat="44.11048" lon="7.37766">
        <ele>2469</ele>
        <time>2018-04-21T11:30:06.000Z</time>
      </trkpt>
      <trkpt lat="44.11045" lon="7.37761">
        <ele>2469</ele>
        <time>2018-04-21T11:30:07.000Z</time>
      </trkpt>
      <trkpt lat="44.11043" lon="7.37758">
        <ele>2468</ele>
        <time>2018-04-21T11:30:08.000Z</time>
      </trkpt>
      <trkpt lat="44.11042" lon="7.37757">
        <ele>2468</ele>
        <time>2018-04-21T11:30:09.000Z</time>
      </trkpt>
      <trkpt lat="44.11043" lon="7.37757">
        <ele>2468</ele>
        <time>2018-04-21T11:30:10.000Z</time>
      </trkpt>
      <trkpt lat="44.11043" lon="7.37757">
        <ele>2468</ele>
        <time>2018-04-21T11:30:11.000Z</time>
      </trkpt>
      <trkpt lat="44.11043" lon="7.37757">
        <ele>2468</ele>
        <time>2018-04-21T11:30:12.000Z</time>
      </trkpt>
      <trkpt lat="44.11044" lon="7.37757">
        <ele>2468</ele>
        <time>2018-04-21T11:30:18.000Z</time>
      </trkpt>
      <trkpt lat="44.11044" lon="7.37759">
        <ele>2468</ele>
        <time>2018-04-21T11:30:31.000Z</time>
      </trkpt>
      <trkpt lat="44.11045" lon="7.37759">
        <ele>2468</ele>
        <time>2018-04-21T11:30:45.000Z</time>
      </trkpt>
      <trkpt lat="44.11045" lon="7.37759">
        <ele>2469</ele>
        <time>2018-04-21T11:30:46.000Z</time>
      </trkpt>
      <trkpt lat="44.11045" lon="7.3776">
        <ele>2469</ele>
        <time>2018-04-21T11:30:53.000Z</time>
      </trkpt>
      <trkpt lat="44.11045" lon="7.3776">
        <ele>2469</ele>
        <time>2018-04-21T11:31:01.000Z</time>
      </trkpt>
      <trkpt lat="44.11044" lon="7.3776">
        <ele>2469</ele>
        <time>2018-04-21T11:31:13.000Z</time>
      </trkpt>
      <trkpt lat="44.11042" lon="7.3776">
        <ele>2468</ele>
        <time>2018-04-21T11:31:14.000Z</time>
      </trkpt>
      <trkpt lat="44.11031" lon="7.37753">
        <ele>2467</ele>
        <time>2018-04-21T11:31:18.000Z</time>
      </trkpt>
      <trkpt lat="44.11028" lon="7.37749">
        <ele>2446</ele>
        <time>2018-04-21T11:31:19.000Z</time>
      </trkpt>
      <trkpt lat="44.11028" lon="7.37744">
        <ele>2446</ele>
        <time>2018-04-21T11:31:20.000Z</time>
      </trkpt>
      <trkpt lat="44.11025" lon="7.37738">
        <ele>2445</ele>
        <time>2018-04-21T11:31:21.000Z</time>
      </trkpt>
      <trkpt lat="44.11023" lon="7.37732">
        <ele>2444</ele>
        <time>2018-04-21T11:31:22.000Z</time>
      </trkpt>
      <trkpt lat="44.11018" lon="7.37729">
        <ele>2444</ele>
        <time>2018-04-21T11:31:23.000Z</time>
      </trkpt>
      <trkpt lat="44.11015" lon="7.37725">
        <ele>2443</ele>
        <time>2018-04-21T11:31:24.000Z</time>
      </trkpt>
      <trkpt lat="44.11014" lon="7.37723">
        <ele>2443</ele>
        <time>2018-04-21T11:31:25.000Z</time>
      </trkpt>
      <trkpt lat="44.11012" lon="7.37722">
        <ele>2442</ele>
        <time>2018-04-21T11:31:26.000Z</time>
      </trkpt>
      <trkpt lat="44.11012" lon="7.37721">
        <ele>2442</ele>
        <time>2018-04-21T11:31:27.000Z</time>
      </trkpt>
      <trkpt lat="44.11012" lon="7.37721">
        <ele>2442</ele>
        <time>2018-04-21T11:31:28.000Z</time>
      </trkpt>
      <trkpt lat="44.11011" lon="7.3772">
        <ele>2441</ele>
        <time>2018-04-21T11:31:29.000Z</time>
      </trkpt>
      <trkpt lat="44.11008" lon="7.37714">
        <ele>2439</ele>
        <time>2018-04-21T11:31:32.000Z</time>
      </trkpt>
      <trkpt lat="44.11007" lon="7.37713">
        <ele>2439</ele>
        <time>2018-04-21T11:31:35.000Z</time>
      </trkpt>
      <trkpt lat="44.11008" lon="7.37712">
        <ele>2439</ele>
        <time>2018-04-21T11:31:37.000Z</time>
      </trkpt>
      <trkpt lat="44.11008" lon="7.37713">
        <ele>2439</ele>
        <time>2018-04-21T11:31:43.000Z</time>
      </trkpt>
      <trkpt lat="44.11006" lon="7.37711">
        <ele>2439</ele>
        <time>2018-04-21T11:32:05.000Z</time>
      </trkpt>
      <trkpt lat="44.11001" lon="7.37707">
        <ele>2437</ele>
        <time>2018-04-21T11:32:08.000Z</time>
      </trkpt>
      <trkpt lat="44.11" lon="7.37707">
        <ele>2429</ele>
        <time>2018-04-21T11:32:09.000Z</time>
      </trkpt>
      <trkpt lat="44.11" lon="7.37707">
        <ele>2429</ele>
        <time>2018-04-21T11:32:13.000Z</time>
      </trkpt>
      <trkpt lat="44.11" lon="7.37707">
        <ele>2429</ele>
        <time>2018-04-21T11:32:14.000Z</time>
      </trkpt>
      <trkpt lat="44.10999" lon="7.37708">
        <ele>2429</ele>
        <time>2018-04-21T11:32:24.000Z</time>
      </trkpt>
      <trkpt lat="44.10994" lon="7.37712">
        <ele>2430</ele>
        <time>2018-04-21T11:32:31.000Z</time>
      </trkpt>
      <trkpt lat="44.10988" lon="7.37717">
        <ele>2431</ele>
        <time>2018-04-21T11:32:36.000Z</time>
      </trkpt>
      <trkpt lat="44.10984" lon="7.37719">
        <ele>2431</ele>
        <time>2018-04-21T11:32:42.000Z</time>
      </trkpt>
      <trkpt lat="44.10975" lon="7.37722">
        <ele>2431</ele>
        <time>2018-04-21T11:32:46.000Z</time>
      </trkpt>
      <trkpt lat="44.10957" lon="7.37734">
        <ele>2429</ele>
        <time>2018-04-21T11:32:50.000Z</time>
      </trkpt>
      <trkpt lat="44.1095" lon="7.37738">
        <ele>2428</ele>
        <time>2018-04-21T11:32:52.000Z</time>
      </trkpt>
      <trkpt lat="44.10946" lon="7.3774">
        <ele>2427</ele>
        <time>2018-04-21T11:32:53.000Z</time>
      </trkpt>
      <trkpt lat="44.10942" lon="7.37742">
        <ele>2427</ele>
        <time>2018-04-21T11:32:54.000Z</time>
      </trkpt>
      <trkpt lat="44.10938" lon="7.3774">
        <ele>2426</ele>
        <time>2018-04-21T11:32:55.000Z</time>
      </trkpt>
      <trkpt lat="44.10938" lon="7.37735">
        <ele>2425</ele>
        <time>2018-04-21T11:32:56.000Z</time>
      </trkpt>
      <trkpt lat="44.10935" lon="7.3773">
        <ele>2425</ele>
        <time>2018-04-21T11:32:57.000Z</time>
      </trkpt>
      <trkpt lat="44.10933" lon="7.37722">
        <ele>2423</ele>
        <time>2018-04-21T11:32:58.000Z</time>
      </trkpt>
      <trkpt lat="44.10935" lon="7.37715">
        <ele>2422</ele>
        <time>2018-04-21T11:32:59.000Z</time>
      </trkpt>
      <trkpt lat="44.10936" lon="7.37708">
        <ele>2421</ele>
        <time>2018-04-21T11:33:00.000Z</time>
      </trkpt>
      <trkpt lat="44.10935" lon="7.37701">
        <ele>2419</ele>
        <time>2018-04-21T11:33:01.000Z</time>
      </trkpt>
      <trkpt lat="44.10932" lon="7.37696">
        <ele>2417</ele>
        <time>2018-04-21T11:33:02.000Z</time>
      </trkpt>
      <trkpt lat="44.10929" lon="7.37693">
        <ele>2416</ele>
        <time>2018-04-21T11:33:03.000Z</time>
      </trkpt>
      <trkpt lat="44.10927" lon="7.37694">
        <ele>2415</ele>
        <time>2018-04-21T11:33:04.000Z</time>
      </trkpt>
      <trkpt lat="44.10928" lon="7.37694">
        <ele>2416</ele>
        <time>2018-04-21T11:33:05.000Z</time>
      </trkpt>
      <trkpt lat="44.10925" lon="7.37692">
        <ele>2415</ele>
        <time>2018-04-21T11:33:06.000Z</time>
      </trkpt>
      <trkpt lat="44.10924" lon="7.37687">
        <ele>2413</ele>
        <time>2018-04-21T11:33:07.000Z</time>
      </trkpt>
      <trkpt lat="44.10926" lon="7.37682">
        <ele>2411</ele>
        <time>2018-04-21T11:33:08.000Z</time>
      </trkpt>
      <trkpt lat="44.10928" lon="7.37676">
        <ele>2409</ele>
        <time>2018-04-21T11:33:09.000Z</time>
      </trkpt>
      <trkpt lat="44.10931" lon="7.37672">
        <ele>2409</ele>
        <time>2018-04-21T11:33:10.000Z</time>
      </trkpt>
      <trkpt lat="44.10933" lon="7.37668">
        <ele>2409</ele>
        <time>2018-04-21T11:33:11.000Z</time>
      </trkpt>
      <trkpt lat="44.10934" lon="7.37663">
        <ele>2397</ele>
        <time>2018-04-21T11:33:12.000Z</time>
      </trkpt>
      <trkpt lat="44.10934" lon="7.37657">
        <ele>2397</ele>
        <time>2018-04-21T11:33:13.000Z</time>
      </trkpt>
      <trkpt lat="44.10932" lon="7.3765">
        <ele>2397</ele>
        <time>2018-04-21T11:33:14.000Z</time>
      </trkpt>
      <trkpt lat="44.10928" lon="7.37646">
        <ele>2396</ele>
        <time>2018-04-21T11:33:15.000Z</time>
      </trkpt>
      <trkpt lat="44.10922" lon="7.37647">
        <ele>2396</ele>
        <time>2018-04-21T11:33:16.000Z</time>
      </trkpt>
      <trkpt lat="44.10915" lon="7.37649">
        <ele>2384</ele>
        <time>2018-04-21T11:33:17.000Z</time>
      </trkpt>
      <trkpt lat="44.10911" lon="7.37646">
        <ele>2382</ele>
        <time>2018-04-21T11:33:18.000Z</time>
      </trkpt>
      <trkpt lat="44.10907" lon="7.37641">
        <ele>2380</ele>
        <time>2018-04-21T11:33:19.000Z</time>
      </trkpt>
      <trkpt lat="44.10903" lon="7.3764">
        <ele>2379</ele>
        <time>2018-04-21T11:33:20.000Z</time>
      </trkpt>
      <trkpt lat="44.10899" lon="7.37641">
        <ele>2378</ele>
        <time>2018-04-21T11:33:21.000Z</time>
      </trkpt>
      <trkpt lat="44.10897" lon="7.37644">
        <ele>2378</ele>
        <time>2018-04-21T11:33:22.000Z</time>
      </trkpt>
      <trkpt lat="44.10898" lon="7.37643">
        <ele>2378</ele>
        <time>2018-04-21T11:33:23.000Z</time>
      </trkpt>
      <trkpt lat="44.10897" lon="7.37644">
        <ele>2378</ele>
        <time>2018-04-21T11:33:24.000Z</time>
      </trkpt>
      <trkpt lat="44.10897" lon="7.37644">
        <ele>2378</ele>
        <time>2018-04-21T11:33:25.000Z</time>
      </trkpt>
      <trkpt lat="44.10897" lon="7.37645">
        <ele>2378</ele>
        <time>2018-04-21T11:33:27.000Z</time>
      </trkpt>
      <trkpt lat="44.10896" lon="7.37646">
        <ele>2378</ele>
        <time>2018-04-21T11:33:36.000Z</time>
      </trkpt>
      <trkpt lat="44.10894" lon="7.37647">
        <ele>2378</ele>
        <time>2018-04-21T11:33:44.000Z</time>
      </trkpt>
      <trkpt lat="44.10893" lon="7.37648">
        <ele>2378</ele>
        <time>2018-04-21T11:33:45.000Z</time>
      </trkpt>
      <trkpt lat="44.10884" lon="7.37648">
        <ele>2375</ele>
        <time>2018-04-21T11:33:48.000Z</time>
      </trkpt>
      <trkpt lat="44.10882" lon="7.37644">
        <ele>2374</ele>
        <time>2018-04-21T11:33:49.000Z</time>
      </trkpt>
      <trkpt lat="44.10878" lon="7.37645">
        <ele>2373</ele>
        <time>2018-04-21T11:33:51.000Z</time>
      </trkpt>
      <trkpt lat="44.10877" lon="7.37646">
        <ele>2373</ele>
        <time>2018-04-21T11:33:52.000Z</time>
      </trkpt>
      <trkpt lat="44.10878" lon="7.37646">
        <ele>2373</ele>
        <time>2018-04-21T11:33:53.000Z</time>
      </trkpt>
      <trkpt lat="44.10877" lon="7.37646">
        <ele>2373</ele>
        <time>2018-04-21T11:33:54.000Z</time>
      </trkpt>
      <trkpt lat="44.10877" lon="7.37646">
        <ele>2373</ele>
        <time>2018-04-21T11:33:55.000Z</time>
      </trkpt>
      <trkpt lat="44.10877" lon="7.37646">
        <ele>2373</ele>
        <time>2018-04-21T11:33:57.000Z</time>
      </trkpt>
      <trkpt lat="44.10875" lon="7.37649">
        <ele>2372</ele>
        <time>2018-04-21T11:34:13.000Z</time>
      </trkpt>
      <trkpt lat="44.10869" lon="7.37655">
        <ele>2370</ele>
        <time>2018-04-21T11:34:15.000Z</time>
      </trkpt>
      <trkpt lat="44.10865" lon="7.37659">
        <ele>2369</ele>
        <time>2018-04-21T11:34:16.000Z</time>
      </trkpt>
      <trkpt lat="44.10861" lon="7.37663">
        <ele>2368</ele>
        <time>2018-04-21T11:34:17.000Z</time>
      </trkpt>
      <trkpt lat="44.10857" lon="7.37667">
        <ele>2375</ele>
        <time>2018-04-21T11:34:18.000Z</time>
      </trkpt>
      <trkpt lat="44.10853" lon="7.37672">
        <ele>2373</ele>
        <time>2018-04-21T11:34:19.000Z</time>
      </trkpt>
      <trkpt lat="44.1085" lon="7.37675">
        <ele>2372</ele>
        <time>2018-04-21T11:34:20.000Z</time>
      </trkpt>
      <trkpt lat="44.10846" lon="7.37678">
        <ele>2371</ele>
        <time>2018-04-21T11:34:21.000Z</time>
      </trkpt>
      <trkpt lat="44.10842" lon="7.37674">
        <ele>2367</ele>
        <time>2018-04-21T11:34:22.000Z</time>
      </trkpt>
      <trkpt lat="44.1084" lon="7.3767">
        <ele>2364</ele>
        <time>2018-04-21T11:34:23.000Z</time>
      </trkpt>
      <trkpt lat="44.10836" lon="7.37669">
        <ele>2359</ele>
        <time>2018-04-21T11:34:24.000Z</time>
      </trkpt>
      <trkpt lat="44.1083" lon="7.3767">
        <ele>2352</ele>
        <time>2018-04-21T11:34:25.000Z</time>
      </trkpt>
      <trkpt lat="44.10824" lon="7.37672">
        <ele>2350</ele>
        <time>2018-04-21T11:34:26.000Z</time>
      </trkpt>
      <trkpt lat="44.10819" lon="7.37677">
        <ele>2348</ele>
        <time>2018-04-21T11:34:27.000Z</time>
      </trkpt>
      <trkpt lat="44.10813" lon="7.37682">
        <ele>2346</ele>
        <time>2018-04-21T11:34:28.000Z</time>
      </trkpt>
      <trkpt lat="44.10802" lon="7.37688">
        <ele>2342</ele>
        <time>2018-04-21T11:34:30.000Z</time>
      </trkpt>
      <trkpt lat="44.10797" lon="7.3769">
        <ele>2341</ele>
        <time>2018-04-21T11:34:31.000Z</time>
      </trkpt>
      <trkpt lat="44.10792" lon="7.37686">
        <ele>2339</ele>
        <time>2018-04-21T11:34:32.000Z</time>
      </trkpt>
      <trkpt lat="44.10788" lon="7.37684">
        <ele>2338</ele>
        <time>2018-04-21T11:34:33.000Z</time>
      </trkpt>
      <trkpt lat="44.10784" lon="7.37688">
        <ele>2337</ele>
        <time>2018-04-21T11:34:34.000Z</time>
      </trkpt>
      <trkpt lat="44.10779" lon="7.3769">
        <ele>2335</ele>
        <time>2018-04-21T11:34:35.000Z</time>
      </trkpt>
      <trkpt lat="44.10774" lon="7.37686">
        <ele>2333</ele>
        <time>2018-04-21T11:34:36.000Z</time>
      </trkpt>
      <trkpt lat="44.10771" lon="7.3768">
        <ele>2331</ele>
        <time>2018-04-21T11:34:37.000Z</time>
      </trkpt>
      <trkpt lat="44.10771" lon="7.37678">
        <ele>2330</ele>
        <time>2018-04-21T11:34:38.000Z</time>
      </trkpt>
      <trkpt lat="44.10771" lon="7.37679">
        <ele>2331</ele>
        <time>2018-04-21T11:34:39.000Z</time>
      </trkpt>
      <trkpt lat="44.10771" lon="7.37679">
        <ele>2331</ele>
        <time>2018-04-21T11:34:47.000Z</time>
      </trkpt>
      <trkpt lat="44.1077" lon="7.3768">
        <ele>2330</ele>
        <time>2018-04-21T11:35:00.000Z</time>
      </trkpt>
      <trkpt lat="44.10767" lon="7.37683">
        <ele>2330</ele>
        <time>2018-04-21T11:35:02.000Z</time>
      </trkpt>
      <trkpt lat="44.10764" lon="7.37695">
        <ele>2332</ele>
        <time>2018-04-21T11:35:04.000Z</time>
      </trkpt>
      <trkpt lat="44.10762" lon="7.37702">
        <ele>2332</ele>
        <time>2018-04-21T11:35:05.000Z</time>
      </trkpt>
      <trkpt lat="44.1076" lon="7.37705">
        <ele>2332</ele>
        <time>2018-04-21T11:35:06.000Z</time>
      </trkpt>
      <trkpt lat="44.10757" lon="7.3771">
        <ele>2332</ele>
        <time>2018-04-21T11:35:07.000Z</time>
      </trkpt>
      <trkpt lat="44.10754" lon="7.37715">
        <ele>2332</ele>
        <time>2018-04-21T11:35:08.000Z</time>
      </trkpt>
      <trkpt lat="44.10751" lon="7.3772">
        <ele>2331</ele>
        <time>2018-04-21T11:35:09.000Z</time>
      </trkpt>
      <trkpt lat="44.10747" lon="7.37727">
        <ele>2307</ele>
        <time>2018-04-21T11:35:10.000Z</time>
      </trkpt>
      <trkpt lat="44.10743" lon="7.37732">
        <ele>2308</ele>
        <time>2018-04-21T11:35:11.000Z</time>
      </trkpt>
      <trkpt lat="44.10737" lon="7.37738">
        <ele>2308</ele>
        <time>2018-04-21T11:35:12.000Z</time>
      </trkpt>
      <trkpt lat="44.10733" lon="7.37744">
        <ele>2308</ele>
        <time>2018-04-21T11:35:13.000Z</time>
      </trkpt>
      <trkpt lat="44.10729" lon="7.3775">
        <ele>2306</ele>
        <time>2018-04-21T11:35:14.000Z</time>
      </trkpt>
      <trkpt lat="44.10725" lon="7.37755">
        <ele>2316</ele>
        <time>2018-04-21T11:35:15.000Z</time>
      </trkpt>
      <trkpt lat="44.10721" lon="7.37758">
        <ele>2315</ele>
        <time>2018-04-21T11:35:16.000Z</time>
      </trkpt>
      <trkpt lat="44.10717" lon="7.37761">
        <ele>2315</ele>
        <time>2018-04-21T11:35:17.000Z</time>
      </trkpt>
      <trkpt lat="44.10713" lon="7.37764">
        <ele>2314</ele>
        <time>2018-04-21T11:35:18.000Z</time>
      </trkpt>
      <trkpt lat="44.10706" lon="7.37769">
        <ele>2313</ele>
        <time>2018-04-21T11:35:20.000Z</time>
      </trkpt>
      <trkpt lat="44.10701" lon="7.37771">
        <ele>2312</ele>
        <time>2018-04-21T11:35:21.000Z</time>
      </trkpt>
      <trkpt lat="44.10693" lon="7.37773">
        <ele>2310</ele>
        <time>2018-04-21T11:35:23.000Z</time>
      </trkpt>
      <trkpt lat="44.10685" lon="7.37775">
        <ele>2309</ele>
        <time>2018-04-21T11:35:25.000Z</time>
      </trkpt>
      <trkpt lat="44.10672" lon="7.37775">
        <ele>2306</ele>
        <time>2018-04-21T11:35:28.000Z</time>
      </trkpt>
      <trkpt lat="44.10667" lon="7.37775">
        <ele>2306</ele>
        <time>2018-04-21T11:35:29.000Z</time>
      </trkpt>
      <trkpt lat="44.10662" lon="7.37775">
        <ele>2298</ele>
        <time>2018-04-21T11:35:30.000Z</time>
      </trkpt>
      <trkpt lat="44.10657" lon="7.37774">
        <ele>2298</ele>
        <time>2018-04-21T11:35:31.000Z</time>
      </trkpt>
      <trkpt lat="44.10652" lon="7.37772">
        <ele>2298</ele>
        <time>2018-04-21T11:35:32.000Z</time>
      </trkpt>
      <trkpt lat="44.10648" lon="7.3777">
        <ele>2298</ele>
        <time>2018-04-21T11:35:33.000Z</time>
      </trkpt>
      <trkpt lat="44.10638" lon="7.37762">
        <ele>2298</ele>
        <time>2018-04-21T11:35:36.000Z</time>
      </trkpt>
      <trkpt lat="44.10632" lon="7.37757">
        <ele>2298</ele>
        <time>2018-04-21T11:35:38.000Z</time>
      </trkpt>
      <trkpt lat="44.10625" lon="7.37751">
        <ele>2297</ele>
        <time>2018-04-21T11:35:40.000Z</time>
      </trkpt>
      <trkpt lat="44.10617" lon="7.37739">
        <ele>2279</ele>
        <time>2018-04-21T11:35:43.000Z</time>
      </trkpt>
      <trkpt lat="44.10618" lon="7.37734">
        <ele>2278</ele>
        <time>2018-04-21T11:35:44.000Z</time>
      </trkpt>
      <trkpt lat="44.10619" lon="7.37729">
        <ele>2278</ele>
        <time>2018-04-21T11:35:45.000Z</time>
      </trkpt>
      <trkpt lat="44.10618" lon="7.37724">
        <ele>2277</ele>
        <time>2018-04-21T11:35:46.000Z</time>
      </trkpt>
      <trkpt lat="44.10614" lon="7.37718">
        <ele>2276</ele>
        <time>2018-04-21T11:35:47.000Z</time>
      </trkpt>
      <trkpt lat="44.1061" lon="7.37712">
        <ele>2274</ele>
        <time>2018-04-21T11:35:48.000Z</time>
      </trkpt>
      <trkpt lat="44.10605" lon="7.37707">
        <ele>2273</ele>
        <time>2018-04-21T11:35:49.000Z</time>
      </trkpt>
      <trkpt lat="44.106" lon="7.37703">
        <ele>2272</ele>
        <time>2018-04-21T11:35:50.000Z</time>
      </trkpt>
      <trkpt lat="44.10596" lon="7.377">
        <ele>2271</ele>
        <time>2018-04-21T11:35:51.000Z</time>
      </trkpt>
      <trkpt lat="44.10592" lon="7.37697">
        <ele>2269</ele>
        <time>2018-04-21T11:35:52.000Z</time>
      </trkpt>
      <trkpt lat="44.10588" lon="7.37694">
        <ele>2268</ele>
        <time>2018-04-21T11:35:53.000Z</time>
      </trkpt>
      <trkpt lat="44.10585" lon="7.37692">
        <ele>2267</ele>
        <time>2018-04-21T11:35:54.000Z</time>
      </trkpt>
      <trkpt lat="44.10581" lon="7.3769">
        <ele>2269</ele>
        <time>2018-04-21T11:35:55.000Z</time>
      </trkpt>
      <trkpt lat="44.10579" lon="7.37689">
        <ele>2269</ele>
        <time>2018-04-21T11:35:56.000Z</time>
      </trkpt>
      <trkpt lat="44.10576" lon="7.37688">
        <ele>2268</ele>
        <time>2018-04-21T11:35:57.000Z</time>
      </trkpt>
      <trkpt lat="44.10571" lon="7.37685">
        <ele>2268</ele>
        <time>2018-04-21T11:35:59.000Z</time>
      </trkpt>
      <trkpt lat="44.10568" lon="7.37682">
        <ele>2268</ele>
        <time>2018-04-21T11:36:01.000Z</time>
      </trkpt>
      <trkpt lat="44.10562" lon="7.37676">
        <ele>2269</ele>
        <time>2018-04-21T11:36:04.000Z</time>
      </trkpt>
      <trkpt lat="44.10557" lon="7.37673">
        <ele>2269</ele>
        <time>2018-04-21T11:36:06.000Z</time>
      </trkpt>
      <trkpt lat="44.10552" lon="7.37669">
        <ele>2270</ele>
        <time>2018-04-21T11:36:08.000Z</time>
      </trkpt>
      <trkpt lat="44.10546" lon="7.37664">
        <ele>2251</ele>
        <time>2018-04-21T11:36:11.000Z</time>
      </trkpt>
      <trkpt lat="44.1054" lon="7.3766">
        <ele>2251</ele>
        <time>2018-04-21T11:36:14.000Z</time>
      </trkpt>
      <trkpt lat="44.10538" lon="7.37659">
        <ele>2252</ele>
        <time>2018-04-21T11:36:15.000Z</time>
      </trkpt>
      <trkpt lat="44.10535" lon="7.37657">
        <ele>2252</ele>
        <time>2018-04-21T11:36:17.000Z</time>
      </trkpt>
      <trkpt lat="44.10533" lon="7.37655">
        <ele>2252</ele>
        <time>2018-04-21T11:36:19.000Z</time>
      </trkpt>
      <trkpt lat="44.10527" lon="7.37649">
        <ele>2252</ele>
        <time>2018-04-21T11:36:21.000Z</time>
      </trkpt>
      <trkpt lat="44.10523" lon="7.37645">
        <ele>2252</ele>
        <time>2018-04-21T11:36:22.000Z</time>
      </trkpt>
      <trkpt lat="44.10515" lon="7.37634">
        <ele>2250</ele>
        <time>2018-04-21T11:36:24.000Z</time>
      </trkpt>
      <trkpt lat="44.10509" lon="7.37621">
        <ele>2247</ele>
        <time>2018-04-21T11:36:26.000Z</time>
      </trkpt>
      <trkpt lat="44.10504" lon="7.37613">
        <ele>2244</ele>
        <time>2018-04-21T11:36:27.000Z</time>
      </trkpt>
      <trkpt lat="44.105" lon="7.37606">
        <ele>2242</ele>
        <time>2018-04-21T11:36:28.000Z</time>
      </trkpt>
      <trkpt lat="44.10498" lon="7.37598">
        <ele>2247</ele>
        <time>2018-04-21T11:36:29.000Z</time>
      </trkpt>
      <trkpt lat="44.10494" lon="7.37589">
        <ele>2242</ele>
        <time>2018-04-21T11:36:30.000Z</time>
      </trkpt>
      <trkpt lat="44.10489" lon="7.37582">
        <ele>2231</ele>
        <time>2018-04-21T11:36:31.000Z</time>
      </trkpt>
      <trkpt lat="44.10483" lon="7.37575">
        <ele>2230</ele>
        <time>2018-04-21T11:36:32.000Z</time>
      </trkpt>
      <trkpt lat="44.10478" lon="7.37568">
        <ele>2229</ele>
        <time>2018-04-21T11:36:33.000Z</time>
      </trkpt>
      <trkpt lat="44.10473" lon="7.37561">
        <ele>2228</ele>
        <time>2018-04-21T11:36:34.000Z</time>
      </trkpt>
      <trkpt lat="44.10469" lon="7.37555">
        <ele>2227</ele>
        <time>2018-04-21T11:36:35.000Z</time>
      </trkpt>
      <trkpt lat="44.10465" lon="7.3755">
        <ele>2226</ele>
        <time>2018-04-21T11:36:36.000Z</time>
      </trkpt>
      <trkpt lat="44.10461" lon="7.37546">
        <ele>2226</ele>
        <time>2018-04-21T11:36:37.000Z</time>
      </trkpt>
      <trkpt lat="44.10458" lon="7.37543">
        <ele>2226</ele>
        <time>2018-04-21T11:36:38.000Z</time>
      </trkpt>
      <trkpt lat="44.10456" lon="7.37541">
        <ele>2225</ele>
        <time>2018-04-21T11:36:39.000Z</time>
      </trkpt>
      <trkpt lat="44.10454" lon="7.3754">
        <ele>2225</ele>
        <time>2018-04-21T11:36:40.000Z</time>
      </trkpt>
      <trkpt lat="44.10454" lon="7.37539">
        <ele>2225</ele>
        <time>2018-04-21T11:36:42.000Z</time>
      </trkpt>
      <trkpt lat="44.10454" lon="7.37539">
        <ele>2225</ele>
        <time>2018-04-21T11:36:44.000Z</time>
      </trkpt>
      <trkpt lat="44.10454" lon="7.37539">
        <ele>2225</ele>
        <time>2018-04-21T11:36:52.000Z</time>
      </trkpt>
      <trkpt lat="44.10454" lon="7.37539">
        <ele>2225</ele>
        <time>2018-04-21T11:37:00.000Z</time>
      </trkpt>
      <trkpt lat="44.10453" lon="7.3754">
        <ele>2225</ele>
        <time>2018-04-21T11:37:07.000Z</time>
      </trkpt>
      <trkpt lat="44.10453" lon="7.3754">
        <ele>2225</ele>
        <time>2018-04-21T11:37:10.000Z</time>
      </trkpt>
      <trkpt lat="44.10453" lon="7.37541">
        <ele>2226</ele>
        <time>2018-04-21T11:37:18.000Z</time>
      </trkpt>
      <trkpt lat="44.10451" lon="7.3754">
        <ele>2226</ele>
        <time>2018-04-21T11:37:26.000Z</time>
      </trkpt>
      <trkpt lat="44.10446" lon="7.37533">
        <ele>2224</ele>
        <time>2018-04-21T11:37:31.000Z</time>
      </trkpt>
      <trkpt lat="44.10443" lon="7.37529">
        <ele>2223</ele>
        <time>2018-04-21T11:37:32.000Z</time>
      </trkpt>
      <trkpt lat="44.10444" lon="7.37524">
        <ele>2222</ele>
        <time>2018-04-21T11:37:33.000Z</time>
      </trkpt>
      <trkpt lat="44.10444" lon="7.37518">
        <ele>2221</ele>
        <time>2018-04-21T11:37:34.000Z</time>
      </trkpt>
      <trkpt lat="44.10438" lon="7.37514">
        <ele>2220</ele>
        <time>2018-04-21T11:37:36.000Z</time>
      </trkpt>
      <trkpt lat="44.10435" lon="7.3751">
        <ele>2220</ele>
        <time>2018-04-21T11:37:37.000Z</time>
      </trkpt>
      <trkpt lat="44.10437" lon="7.37506">
        <ele>2219</ele>
        <time>2018-04-21T11:37:38.000Z</time>
      </trkpt>
      <trkpt lat="44.1044" lon="7.37503">
        <ele>2219</ele>
        <time>2018-04-21T11:37:39.000Z</time>
      </trkpt>
      <trkpt lat="44.10441" lon="7.37499">
        <ele>2204</ele>
        <time>2018-04-21T11:37:40.000Z</time>
      </trkpt>
      <trkpt lat="44.1044" lon="7.37496">
        <ele>2204</ele>
        <time>2018-04-21T11:37:41.000Z</time>
      </trkpt>
      <trkpt lat="44.10437" lon="7.37495">
        <ele>2204</ele>
        <time>2018-04-21T11:37:42.000Z</time>
      </trkpt>
      <trkpt lat="44.10434" lon="7.37491">
        <ele>2204</ele>
        <time>2018-04-21T11:37:43.000Z</time>
      </trkpt>
      <trkpt lat="44.10436" lon="7.37487">
        <ele>2203</ele>
        <time>2018-04-21T11:37:44.000Z</time>
      </trkpt>
      <trkpt lat="44.10436" lon="7.37482">
        <ele>2202</ele>
        <time>2018-04-21T11:37:45.000Z</time>
      </trkpt>
      <trkpt lat="44.10433" lon="7.37478">
        <ele>2202</ele>
        <time>2018-04-21T11:37:46.000Z</time>
      </trkpt>
      <trkpt lat="44.10428" lon="7.37475">
        <ele>2202</ele>
        <time>2018-04-21T11:37:47.000Z</time>
      </trkpt>
      <trkpt lat="44.10422" lon="7.37473">
        <ele>2202</ele>
        <time>2018-04-21T11:37:48.000Z</time>
      </trkpt>
      <trkpt lat="44.10416" lon="7.37472">
        <ele>2206</ele>
        <time>2018-04-21T11:37:49.000Z</time>
      </trkpt>
      <trkpt lat="44.1041" lon="7.37468">
        <ele>2206</ele>
        <time>2018-04-21T11:37:50.000Z</time>
      </trkpt>
      <trkpt lat="44.10405" lon="7.37466">
        <ele>2205</ele>
        <time>2018-04-21T11:37:51.000Z</time>
      </trkpt>
      <trkpt lat="44.104" lon="7.37463">
        <ele>2205</ele>
        <time>2018-04-21T11:37:52.000Z</time>
      </trkpt>
      <trkpt lat="44.10392" lon="7.37456">
        <ele>2204</ele>
        <time>2018-04-21T11:37:54.000Z</time>
      </trkpt>
      <trkpt lat="44.10389" lon="7.37451">
        <ele>2203</ele>
        <time>2018-04-21T11:37:55.000Z</time>
      </trkpt>
      <trkpt lat="44.10386" lon="7.37446">
        <ele>2202</ele>
        <time>2018-04-21T11:37:56.000Z</time>
      </trkpt>
      <trkpt lat="44.10378" lon="7.37433">
        <ele>2201</ele>
        <time>2018-04-21T11:37:58.000Z</time>
      </trkpt>
      <trkpt lat="44.10374" lon="7.37428">
        <ele>2200</ele>
        <time>2018-04-21T11:37:59.000Z</time>
      </trkpt>
      <trkpt lat="44.10369" lon="7.37423">
        <ele>2200</ele>
        <time>2018-04-21T11:38:00.000Z</time>
      </trkpt>
      <trkpt lat="44.10366" lon="7.37418">
        <ele>2200</ele>
        <time>2018-04-21T11:38:01.000Z</time>
      </trkpt>
      <trkpt lat="44.1036" lon="7.37407">
        <ele>2181</ele>
        <time>2018-04-21T11:38:03.000Z</time>
      </trkpt>
      <trkpt lat="44.10354" lon="7.37397">
        <ele>2180</ele>
        <time>2018-04-21T11:38:05.000Z</time>
      </trkpt>
      <trkpt lat="44.1035" lon="7.37389">
        <ele>2179</ele>
        <time>2018-04-21T11:38:07.000Z</time>
      </trkpt>
      <trkpt lat="44.10348" lon="7.37387">
        <ele>2178</ele>
        <time>2018-04-21T11:38:08.000Z</time>
      </trkpt>
      <trkpt lat="44.10346" lon="7.37381">
        <ele>2177</ele>
        <time>2018-04-21T11:38:10.000Z</time>
      </trkpt>
      <trkpt lat="44.10341" lon="7.37369">
        <ele>2175</ele>
        <time>2018-04-21T11:38:13.000Z</time>
      </trkpt>
      <trkpt lat="44.10339" lon="7.37364">
        <ele>2174</ele>
        <time>2018-04-21T11:38:14.000Z</time>
      </trkpt>
      <trkpt lat="44.10336" lon="7.37356">
        <ele>2172</ele>
        <time>2018-04-21T11:38:16.000Z</time>
      </trkpt>
      <trkpt lat="44.10333" lon="7.37348">
        <ele>2181</ele>
        <time>2018-04-21T11:38:18.000Z</time>
      </trkpt>
      <trkpt lat="44.10331" lon="7.37344">
        <ele>2178</ele>
        <time>2018-04-21T11:38:20.000Z</time>
      </trkpt>
      <trkpt lat="44.10331" lon="7.37343">
        <ele>2178</ele>
        <time>2018-04-21T11:38:21.000Z</time>
      </trkpt>
      <trkpt lat="44.1033" lon="7.37342">
        <ele>2176</ele>
        <time>2018-04-21T11:38:24.000Z</time>
      </trkpt>
      <trkpt lat="44.10329" lon="7.37341">
        <ele>2176</ele>
        <time>2018-04-21T11:38:25.000Z</time>
      </trkpt>
      <trkpt lat="44.10329" lon="7.37339">
        <ele>2174</ele>
        <time>2018-04-21T11:38:27.000Z</time>
      </trkpt>
      <trkpt lat="44.10328" lon="7.37337">
        <ele>2174</ele>
        <time>2018-04-21T11:38:29.000Z</time>
      </trkpt>
      <trkpt lat="44.10327" lon="7.37333">
        <ele>2168</ele>
        <time>2018-04-21T11:38:33.000Z</time>
      </trkpt>
      <trkpt lat="44.10324" lon="7.37325">
        <ele>2170</ele>
        <time>2018-04-21T11:38:37.000Z</time>
      </trkpt>
      <trkpt lat="44.10321" lon="7.37318">
        <ele>2172</ele>
        <time>2018-04-21T11:38:39.000Z</time>
      </trkpt>
      <trkpt lat="44.10319" lon="7.37314">
        <ele>2172</ele>
        <time>2018-04-21T11:38:40.000Z</time>
      </trkpt>
      <trkpt lat="44.10318" lon="7.37304">
        <ele>2172</ele>
        <time>2018-04-21T11:38:43.000Z</time>
      </trkpt>
      <trkpt lat="44.10318" lon="7.37302">
        <ele>2172</ele>
        <time>2018-04-21T11:38:44.000Z</time>
      </trkpt>
      <trkpt lat="44.10318" lon="7.37301">
        <ele>2172</ele>
        <time>2018-04-21T11:38:45.000Z</time>
      </trkpt>
      <trkpt lat="44.10317" lon="7.373">
        <ele>2172</ele>
        <time>2018-04-21T11:38:48.000Z</time>
      </trkpt>
      <trkpt lat="44.10316" lon="7.37299">
        <ele>2172</ele>
        <time>2018-04-21T11:38:51.000Z</time>
      </trkpt>
      <trkpt lat="44.10316" lon="7.37298">
        <ele>2172</ele>
        <time>2018-04-21T11:38:55.000Z</time>
      </trkpt>
      <trkpt lat="44.10316" lon="7.37298">
        <ele>2172</ele>
        <time>2018-04-21T11:38:58.000Z</time>
      </trkpt>
      <trkpt lat="44.10315" lon="7.37299">
        <ele>2172</ele>
        <time>2018-04-21T11:39:04.000Z</time>
      </trkpt>
      <trkpt lat="44.10315" lon="7.37299">
        <ele>2173</ele>
        <time>2018-04-21T11:39:06.000Z</time>
      </trkpt>
      <trkpt lat="44.10315" lon="7.37299">
        <ele>2173</ele>
        <time>2018-04-21T11:39:11.000Z</time>
      </trkpt>
      <trkpt lat="44.10312" lon="7.37298">
        <ele>2173</ele>
        <time>2018-04-21T11:39:16.000Z</time>
      </trkpt>
      <trkpt lat="44.10308" lon="7.37291">
        <ele>2173</ele>
        <time>2018-04-21T11:39:21.000Z</time>
      </trkpt>
      <trkpt lat="44.10303" lon="7.3728">
        <ele>2173</ele>
        <time>2018-04-21T11:39:25.000Z</time>
      </trkpt>
      <trkpt lat="44.103" lon="7.37275">
        <ele>2173</ele>
        <time>2018-04-21T11:39:26.000Z</time>
      </trkpt>
      <trkpt lat="44.10298" lon="7.37269">
        <ele>2172</ele>
        <time>2018-04-21T11:39:27.000Z</time>
      </trkpt>
      <trkpt lat="44.10295" lon="7.37257">
        <ele>2172</ele>
        <time>2018-04-21T11:39:29.000Z</time>
      </trkpt>
      <trkpt lat="44.10293" lon="7.37245">
        <ele>2162</ele>
        <time>2018-04-21T11:39:31.000Z</time>
      </trkpt>
      <trkpt lat="44.10289" lon="7.37232">
        <ele>2163</ele>
        <time>2018-04-21T11:39:33.000Z</time>
      </trkpt>
      <trkpt lat="44.10289" lon="7.37226">
        <ele>2163</ele>
        <time>2018-04-21T11:39:34.000Z</time>
      </trkpt>
      <trkpt lat="44.10288" lon="7.37221">
        <ele>2163</ele>
        <time>2018-04-21T11:39:35.000Z</time>
      </trkpt>
      <trkpt lat="44.10287" lon="7.37213">
        <ele>2162</ele>
        <time>2018-04-21T11:39:37.000Z</time>
      </trkpt>
      <trkpt lat="44.10286" lon="7.37206">
        <ele>2162</ele>
        <time>2018-04-21T11:39:39.000Z</time>
      </trkpt>
      <trkpt lat="44.10287" lon="7.37196">
        <ele>2162</ele>
        <time>2018-04-21T11:39:42.000Z</time>
      </trkpt>
      <trkpt lat="44.10288" lon="7.37189">
        <ele>2161</ele>
        <time>2018-04-21T11:39:44.000Z</time>
      </trkpt>
      <trkpt lat="44.10288" lon="7.37182">
        <ele>2161</ele>
        <time>2018-04-21T11:39:46.000Z</time>
      </trkpt>
      <trkpt lat="44.10289" lon="7.37169">
        <ele>2160</ele>
        <time>2018-04-21T11:39:49.000Z</time>
      </trkpt>
      <trkpt lat="44.10289" lon="7.37164">
        <ele>2156</ele>
        <time>2018-04-21T11:39:50.000Z</time>
      </trkpt>
      <trkpt lat="44.10288" lon="7.3714">
        <ele>2155</ele>
        <time>2018-04-21T11:39:54.000Z</time>
      </trkpt>
      <trkpt lat="44.10287" lon="7.37133">
        <ele>2155</ele>
        <time>2018-04-21T11:39:55.000Z</time>
      </trkpt>
      <trkpt lat="44.10286" lon="7.37127">
        <ele>2155</ele>
        <time>2018-04-21T11:39:56.000Z</time>
      </trkpt>
      <trkpt lat="44.10285" lon="7.37121">
        <ele>2154</ele>
        <time>2018-04-21T11:39:57.000Z</time>
      </trkpt>
      <trkpt lat="44.10285" lon="7.37115">
        <ele>2154</ele>
        <time>2018-04-21T11:39:59.000Z</time>
      </trkpt>
      <trkpt lat="44.10285" lon="7.37113">
        <ele>2154</ele>
        <time>2018-04-21T11:40:00.000Z</time>
      </trkpt>
      <trkpt lat="44.10284" lon="7.37111">
        <ele>2154</ele>
        <time>2018-04-21T11:40:03.000Z</time>
      </trkpt>
      <trkpt lat="44.10284" lon="7.37108">
        <ele>2154</ele>
        <time>2018-04-21T11:40:10.000Z</time>
      </trkpt>
      <trkpt lat="44.10286" lon="7.37101">
        <ele>2154</ele>
        <time>2018-04-21T11:40:16.000Z</time>
      </trkpt>
      <trkpt lat="44.10286" lon="7.37099">
        <ele>2154</ele>
        <time>2018-04-21T11:40:17.000Z</time>
      </trkpt>
      <trkpt lat="44.10286" lon="7.37093">
        <ele>2153</ele>
        <time>2018-04-21T11:40:21.000Z</time>
      </trkpt>
      <trkpt lat="44.10285" lon="7.37082">
        <ele>2148</ele>
        <time>2018-04-21T11:40:26.000Z</time>
      </trkpt>
      <trkpt lat="44.10285" lon="7.37078">
        <ele>2148</ele>
        <time>2018-04-21T11:40:27.000Z</time>
      </trkpt>
      <trkpt lat="44.10282" lon="7.3706">
        <ele>2147</ele>
        <time>2018-04-21T11:40:32.000Z</time>
      </trkpt>
      <trkpt lat="44.1028" lon="7.37051">
        <ele>2147</ele>
        <time>2018-04-21T11:40:35.000Z</time>
      </trkpt>
      <trkpt lat="44.10279" lon="7.37047">
        <ele>2146</ele>
        <time>2018-04-21T11:40:37.000Z</time>
      </trkpt>
      <trkpt lat="44.10278" lon="7.37046">
        <ele>2146</ele>
        <time>2018-04-21T11:40:41.000Z</time>
      </trkpt>
      <trkpt lat="44.10276" lon="7.37047">
        <ele>2147</ele>
        <time>2018-04-21T11:40:53.000Z</time>
      </trkpt>
      <trkpt lat="44.10276" lon="7.37046">
        <ele>2146</ele>
        <time>2018-04-21T11:40:59.000Z</time>
      </trkpt>
      <trkpt lat="44.10276" lon="7.37046">
        <ele>2146</ele>
        <time>2018-04-21T11:41:07.000Z</time>
      </trkpt>
      <trkpt lat="44.10277" lon="7.37047">
        <ele>2146</ele>
        <time>2018-04-21T11:41:10.000Z</time>
      </trkpt>
      <trkpt lat="44.10277" lon="7.37047">
        <ele>2146</ele>
        <time>2018-04-21T11:41:13.000Z</time>
      </trkpt>
      <trkpt lat="44.10278" lon="7.37047">
        <ele>2146</ele>
        <time>2018-04-21T11:41:14.000Z</time>
      </trkpt>
      <trkpt lat="44.10277" lon="7.37047">
        <ele>2146</ele>
        <time>2018-04-21T11:41:20.000Z</time>
      </trkpt>
      <trkpt lat="44.10276" lon="7.37047">
        <ele>2147</ele>
        <time>2018-04-21T11:41:27.000Z</time>
      </trkpt>
      <trkpt lat="44.10276" lon="7.37047">
        <ele>2147</ele>
        <time>2018-04-21T11:41:32.000Z</time>
      </trkpt>
      <trkpt lat="44.10277" lon="7.37047">
        <ele>2146</ele>
        <time>2018-04-21T11:41:38.000Z</time>
      </trkpt>
      <trkpt lat="44.10278" lon="7.37047">
        <ele>2146</ele>
        <time>2018-04-21T11:41:43.000Z</time>
      </trkpt>
      <trkpt lat="44.10277" lon="7.37047">
        <ele>2147</ele>
        <time>2018-04-21T11:41:48.000Z</time>
      </trkpt>
      <trkpt lat="44.10277" lon="7.37048">
        <ele>2147</ele>
        <time>2018-04-21T11:41:57.000Z</time>
      </trkpt>
      <trkpt lat="44.10278" lon="7.37048">
        <ele>2147</ele>
        <time>2018-04-21T11:42:06.000Z</time>
      </trkpt>
      <trkpt lat="44.10278" lon="7.37047">
        <ele>2146</ele>
        <time>2018-04-21T11:42:12.000Z</time>
      </trkpt>
      <trkpt lat="44.10279" lon="7.37046">
        <ele>2146</ele>
        <time>2018-04-21T11:42:16.000Z</time>
      </trkpt>
      <trkpt lat="44.1028" lon="7.37044">
        <ele>2146</ele>
        <time>2018-04-21T11:42:22.000Z</time>
      </trkpt>
      <trkpt lat="44.1028" lon="7.37043">
        <ele>2146</ele>
        <time>2018-04-21T11:42:28.000Z</time>
      </trkpt>
      <trkpt lat="44.10281" lon="7.37044">
        <ele>2146</ele>
        <time>2018-04-21T11:42:36.000Z</time>
      </trkpt>
      <trkpt lat="44.10281" lon="7.37043">
        <ele>2146</ele>
        <time>2018-04-21T11:42:40.000Z</time>
      </trkpt>
      <trkpt lat="44.10281" lon="7.37044">
        <ele>2146</ele>
        <time>2018-04-21T11:42:47.000Z</time>
      </trkpt>
      <trkpt lat="44.1028" lon="7.37045">
        <ele>2146</ele>
        <time>2018-04-21T11:42:55.000Z</time>
      </trkpt>
      <trkpt lat="44.10278" lon="7.37046">
        <ele>2146</ele>
        <time>2018-04-21T11:43:02.000Z</time>
      </trkpt>
      <trkpt lat="44.10277" lon="7.37047">
        <ele>2146</ele>
        <time>2018-04-21T11:43:15.000Z</time>
      </trkpt>
      <trkpt lat="44.10276" lon="7.37044">
        <ele>2146</ele>
        <time>2018-04-21T11:43:21.000Z</time>
      </trkpt>
      <trkpt lat="44.10272" lon="7.37039">
        <ele>2146</ele>
        <time>2018-04-21T11:43:27.000Z</time>
      </trkpt>
      <trkpt lat="44.10267" lon="7.37032">
        <ele>2146</ele>
        <time>2018-04-21T11:43:31.000Z</time>
      </trkpt>
      <trkpt lat="44.10255" lon="7.37014">
        <ele>2145</ele>
        <time>2018-04-21T11:43:36.000Z</time>
      </trkpt>
      <trkpt lat="44.10245" lon="7.36999">
        <ele>2143</ele>
        <time>2018-04-21T11:43:39.000Z</time>
      </trkpt>
      <trkpt lat="44.10239" lon="7.36991">
        <ele>2141</ele>
        <time>2018-04-21T11:43:41.000Z</time>
      </trkpt>
      <trkpt lat="44.10236" lon="7.36987">
        <ele>2141</ele>
        <time>2018-04-21T11:43:42.000Z</time>
      </trkpt>
      <trkpt lat="44.1023" lon="7.3698">
        <ele>2139</ele>
        <time>2018-04-21T11:43:44.000Z</time>
      </trkpt>
      <trkpt lat="44.1022" lon="7.3697">
        <ele>2138</ele>
        <time>2018-04-21T11:43:47.000Z</time>
      </trkpt>
      <trkpt lat="44.10213" lon="7.36964">
        <ele>2138</ele>
        <time>2018-04-21T11:43:49.000Z</time>
      </trkpt>
      <trkpt lat="44.10211" lon="7.36961">
        <ele>2138</ele>
        <time>2018-04-21T11:43:50.000Z</time>
      </trkpt>
      <trkpt lat="44.10205" lon="7.36952">
        <ele>2137</ele>
        <time>2018-04-21T11:43:53.000Z</time>
      </trkpt>
      <trkpt lat="44.10196" lon="7.3694">
        <ele>2136</ele>
        <time>2018-04-21T11:43:56.000Z</time>
      </trkpt>
      <trkpt lat="44.10186" lon="7.36928">
        <ele>2135</ele>
        <time>2018-04-21T11:43:58.000Z</time>
      </trkpt>
      <trkpt lat="44.10177" lon="7.36913">
        <ele>2127</ele>
        <time>2018-04-21T11:44:00.000Z</time>
      </trkpt>
      <trkpt lat="44.10174" lon="7.36906">
        <ele>2127</ele>
        <time>2018-04-21T11:44:01.000Z</time>
      </trkpt>
      <trkpt lat="44.1017" lon="7.36899">
        <ele>2125</ele>
        <time>2018-04-21T11:44:02.000Z</time>
      </trkpt>
      <trkpt lat="44.10164" lon="7.36885">
        <ele>2136</ele>
        <time>2018-04-21T11:44:04.000Z</time>
      </trkpt>
      <trkpt lat="44.10157" lon="7.36869">
        <ele>2135</ele>
        <time>2018-04-21T11:44:06.000Z</time>
      </trkpt>
      <trkpt lat="44.10153" lon="7.36861">
        <ele>2134</ele>
        <time>2018-04-21T11:44:07.000Z</time>
      </trkpt>
      <trkpt lat="44.10149" lon="7.36853">
        <ele>2133</ele>
        <time>2018-04-21T11:44:08.000Z</time>
      </trkpt>
      <trkpt lat="44.10143" lon="7.3684">
        <ele>2132</ele>
        <time>2018-04-21T11:44:10.000Z</time>
      </trkpt>
      <trkpt lat="44.10142" lon="7.36835">
        <ele>2132</ele>
        <time>2018-04-21T11:44:11.000Z</time>
      </trkpt>
      <trkpt lat="44.10142" lon="7.36829">
        <ele>2123</ele>
        <time>2018-04-21T11:44:12.000Z</time>
      </trkpt>
      <trkpt lat="44.1014" lon="7.36821">
        <ele>2124</ele>
        <time>2018-04-21T11:44:14.000Z</time>
      </trkpt>
      <trkpt lat="44.10139" lon="7.36818">
        <ele>2124</ele>
        <time>2018-04-21T11:44:15.000Z</time>
      </trkpt>
      <trkpt lat="44.10136" lon="7.36804">
        <ele>2124</ele>
        <time>2018-04-21T11:44:18.000Z</time>
      </trkpt>
      <trkpt lat="44.10135" lon="7.36798">
        <ele>2124</ele>
        <time>2018-04-21T11:44:19.000Z</time>
      </trkpt>
      <trkpt lat="44.10134" lon="7.36791">
        <ele>2124</ele>
        <time>2018-04-21T11:44:20.000Z</time>
      </trkpt>
      <trkpt lat="44.10132" lon="7.36777">
        <ele>2123</ele>
        <time>2018-04-21T11:44:22.000Z</time>
      </trkpt>
      <trkpt lat="44.10131" lon="7.36774">
        <ele>2122</ele>
        <time>2018-04-21T11:44:23.000Z</time>
      </trkpt>
      <trkpt lat="44.1013" lon="7.36771">
        <ele>2123</ele>
        <time>2018-04-21T11:44:26.000Z</time>
      </trkpt>
      <trkpt lat="44.10129" lon="7.36771">
        <ele>2123</ele>
        <time>2018-04-21T11:44:27.000Z</time>
      </trkpt>
      <trkpt lat="44.10128" lon="7.36769">
        <ele>2123</ele>
        <time>2018-04-21T11:44:29.000Z</time>
      </trkpt>
      <trkpt lat="44.10126" lon="7.36766">
        <ele>2123</ele>
        <time>2018-04-21T11:44:32.000Z</time>
      </trkpt>
      <trkpt lat="44.10126" lon="7.36765">
        <ele>2123</ele>
        <time>2018-04-21T11:44:33.000Z</time>
      </trkpt>
      <trkpt lat="44.10124" lon="7.3676">
        <ele>2123</ele>
        <time>2018-04-21T11:44:37.000Z</time>
      </trkpt>
      <trkpt lat="44.10122" lon="7.36746">
        <ele>2113</ele>
        <time>2018-04-21T11:44:41.000Z</time>
      </trkpt>
      <trkpt lat="44.10123" lon="7.36739">
        <ele>2113</ele>
        <time>2018-04-21T11:44:42.000Z</time>
      </trkpt>
      <trkpt lat="44.10124" lon="7.3672">
        <ele>2111</ele>
        <time>2018-04-21T11:44:45.000Z</time>
      </trkpt>
      <trkpt lat="44.10123" lon="7.36714">
        <ele>2110</ele>
        <time>2018-04-21T11:44:46.000Z</time>
      </trkpt>
      <trkpt lat="44.10122" lon="7.36706">
        <ele>2110</ele>
        <time>2018-04-21T11:44:47.000Z</time>
      </trkpt>
      <trkpt lat="44.10115" lon="7.3669">
        <ele>2109</ele>
        <time>2018-04-21T11:44:49.000Z</time>
      </trkpt>
      <trkpt lat="44.1011" lon="7.36681">
        <ele>2108</ele>
        <time>2018-04-21T11:44:50.000Z</time>
      </trkpt>
      <trkpt lat="44.101" lon="7.36664">
        <ele>2099</ele>
        <time>2018-04-21T11:44:52.000Z</time>
      </trkpt>
      <trkpt lat="44.10096" lon="7.36657">
        <ele>2099</ele>
        <time>2018-04-21T11:44:53.000Z</time>
      </trkpt>
      <trkpt lat="44.10091" lon="7.36648">
        <ele>2097</ele>
        <time>2018-04-21T11:44:54.000Z</time>
      </trkpt>
      <trkpt lat="44.10087" lon="7.36641">
        <ele>2096</ele>
        <time>2018-04-21T11:44:55.000Z</time>
      </trkpt>
      <trkpt lat="44.10084" lon="7.36636">
        <ele>2094</ele>
        <time>2018-04-21T11:44:56.000Z</time>
      </trkpt>
      <trkpt lat="44.1008" lon="7.36631">
        <ele>2096</ele>
        <time>2018-04-21T11:44:57.000Z</time>
      </trkpt>
      <trkpt lat="44.10078" lon="7.36628">
        <ele>2095</ele>
        <time>2018-04-21T11:44:58.000Z</time>
      </trkpt>
      <trkpt lat="44.10075" lon="7.36624">
        <ele>2095</ele>
        <time>2018-04-21T11:45:00.000Z</time>
      </trkpt>
      <trkpt lat="44.10073" lon="7.3662">
        <ele>2094</ele>
        <time>2018-04-21T11:45:02.000Z</time>
      </trkpt>
      <trkpt lat="44.10074" lon="7.36609">
        <ele>2091</ele>
        <time>2018-04-21T11:45:04.000Z</time>
      </trkpt>
      <trkpt lat="44.10077" lon="7.36605">
        <ele>2089</ele>
        <time>2018-04-21T11:45:05.000Z</time>
      </trkpt>
      <trkpt lat="44.10085" lon="7.36598">
        <ele>2085</ele>
        <time>2018-04-21T11:45:07.000Z</time>
      </trkpt>
      <trkpt lat="44.10089" lon="7.36596">
        <ele>2084</ele>
        <time>2018-04-21T11:45:08.000Z</time>
      </trkpt>
      <trkpt lat="44.10091" lon="7.36595">
        <ele>2084</ele>
        <time>2018-04-21T11:45:09.000Z</time>
      </trkpt>
      <trkpt lat="44.10092" lon="7.36595">
        <ele>2084</ele>
        <time>2018-04-21T11:45:10.000Z</time>
      </trkpt>
      <trkpt lat="44.10092" lon="7.36594">
        <ele>2084</ele>
        <time>2018-04-21T11:45:11.000Z</time>
      </trkpt>
      <trkpt lat="44.10094" lon="7.36593">
        <ele>2084</ele>
        <time>2018-04-21T11:45:13.000Z</time>
      </trkpt>
      <trkpt lat="44.10098" lon="7.3659">
        <ele>2085</ele>
        <time>2018-04-21T11:45:16.000Z</time>
      </trkpt>
      <trkpt lat="44.10107" lon="7.36579">
        <ele>2073</ele>
        <time>2018-04-21T11:45:20.000Z</time>
      </trkpt>
      <trkpt lat="44.10105" lon="7.36575">
        <ele>2072</ele>
        <time>2018-04-21T11:45:21.000Z</time>
      </trkpt>
      <trkpt lat="44.10102" lon="7.36573">
        <ele>2072</ele>
        <time>2018-04-21T11:45:22.000Z</time>
      </trkpt>
      <trkpt lat="44.10099" lon="7.36569">
        <ele>2072</ele>
        <time>2018-04-21T11:45:23.000Z</time>
      </trkpt>
      <trkpt lat="44.10098" lon="7.36564">
        <ele>2071</ele>
        <time>2018-04-21T11:45:24.000Z</time>
      </trkpt>
      <trkpt lat="44.10096" lon="7.36558">
        <ele>2070</ele>
        <time>2018-04-21T11:45:25.000Z</time>
      </trkpt>
      <trkpt lat="44.10093" lon="7.36553">
        <ele>2069</ele>
        <time>2018-04-21T11:45:26.000Z</time>
      </trkpt>
      <trkpt lat="44.10089" lon="7.36545">
        <ele>2067</ele>
        <time>2018-04-21T11:45:27.000Z</time>
      </trkpt>
      <trkpt lat="44.10084" lon="7.36541">
        <ele>2066</ele>
        <time>2018-04-21T11:45:28.000Z</time>
      </trkpt>
      <trkpt lat="44.10078" lon="7.3654">
        <ele>2062</ele>
        <time>2018-04-21T11:45:29.000Z</time>
      </trkpt>
      <trkpt lat="44.10072" lon="7.36537">
        <ele>2061</ele>
        <time>2018-04-21T11:45:30.000Z</time>
      </trkpt>
      <trkpt lat="44.10068" lon="7.36531">
        <ele>2060</ele>
        <time>2018-04-21T11:45:31.000Z</time>
      </trkpt>
      <trkpt lat="44.10064" lon="7.36525">
        <ele>2059</ele>
        <time>2018-04-21T11:45:32.000Z</time>
      </trkpt>
      <trkpt lat="44.1006" lon="7.36518">
        <ele>2057</ele>
        <time>2018-04-21T11:45:33.000Z</time>
      </trkpt>
      <trkpt lat="44.10055" lon="7.36514">
        <ele>2057</ele>
        <time>2018-04-21T11:45:34.000Z</time>
      </trkpt>
      <trkpt lat="44.10049" lon="7.36513">
        <ele>2057</ele>
        <time>2018-04-21T11:45:35.000Z</time>
      </trkpt>
      <trkpt lat="44.10044" lon="7.3651">
        <ele>2056</ele>
        <time>2018-04-21T11:45:36.000Z</time>
      </trkpt>
      <trkpt lat="44.10041" lon="7.36502">
        <ele>2055</ele>
        <time>2018-04-21T11:45:37.000Z</time>
      </trkpt>
      <trkpt lat="44.10042" lon="7.36482">
        <ele>2035</ele>
        <time>2018-04-21T11:45:39.000Z</time>
      </trkpt>
      <trkpt lat="44.10039" lon="7.36471">
        <ele>2034</ele>
        <time>2018-04-21T11:45:40.000Z</time>
      </trkpt>
      <trkpt lat="44.10035" lon="7.36462">
        <ele>2032</ele>
        <time>2018-04-21T11:45:41.000Z</time>
      </trkpt>
      <trkpt lat="44.10029" lon="7.36452">
        <ele>2030</ele>
        <time>2018-04-21T11:45:42.000Z</time>
      </trkpt>
      <trkpt lat="44.10025" lon="7.36446">
        <ele>2029</ele>
        <time>2018-04-21T11:45:43.000Z</time>
      </trkpt>
      <trkpt lat="44.1002" lon="7.3644">
        <ele>2027</ele>
        <time>2018-04-21T11:45:44.000Z</time>
      </trkpt>
      <trkpt lat="44.10016" lon="7.36434">
        <ele>2025</ele>
        <time>2018-04-21T11:45:45.000Z</time>
      </trkpt>
      <trkpt lat="44.10014" lon="7.36429">
        <ele>2023</ele>
        <time>2018-04-21T11:45:46.000Z</time>
      </trkpt>
      <trkpt lat="44.10013" lon="7.36428">
        <ele>2023</ele>
        <time>2018-04-21T11:45:48.000Z</time>
      </trkpt>
      <trkpt lat="44.10012" lon="7.36426">
        <ele>2022</ele>
        <time>2018-04-21T11:45:49.000Z</time>
      </trkpt>
      <trkpt lat="44.10013" lon="7.36427">
        <ele>2022</ele>
        <time>2018-04-21T11:45:55.000Z</time>
      </trkpt>
      <trkpt lat="44.10013" lon="7.36428">
        <ele>2023</ele>
        <time>2018-04-21T11:46:02.000Z</time>
      </trkpt>
      <trkpt lat="44.10012" lon="7.36431">
        <ele>2023</ele>
        <time>2018-04-21T11:46:17.000Z</time>
      </trkpt>
      <trkpt lat="44.10012" lon="7.36432">
        <ele>2024</ele>
        <time>2018-04-21T11:46:23.000Z</time>
      </trkpt>
      <trkpt lat="44.10012" lon="7.36432">
        <ele>2024</ele>
        <time>2018-04-21T11:46:25.000Z</time>
      </trkpt>
      <trkpt lat="44.10011" lon="7.36433">
        <ele>2024</ele>
        <time>2018-04-21T11:46:33.000Z</time>
      </trkpt>
      <trkpt lat="44.10012" lon="7.36433">
        <ele>2024</ele>
        <time>2018-04-21T11:46:39.000Z</time>
      </trkpt>
      <trkpt lat="44.10012" lon="7.36433">
        <ele>2024</ele>
        <time>2018-04-21T11:46:40.000Z</time>
      </trkpt>
      <trkpt lat="44.10012" lon="7.36432">
        <ele>2024</ele>
        <time>2018-04-21T11:46:47.000Z</time>
      </trkpt>
      <trkpt lat="44.10012" lon="7.36432">
        <ele>2024</ele>
        <time>2018-04-21T11:46:50.000Z</time>
      </trkpt>
      <trkpt lat="44.10013" lon="7.36432">
        <ele>2024</ele>
        <time>2018-04-21T11:47:03.000Z</time>
      </trkpt>
      <trkpt lat="44.10011" lon="7.36436">
        <ele>2025</ele>
        <time>2018-04-21T11:47:10.000Z</time>
      </trkpt>
      <trkpt lat="44.10006" lon="7.36447">
        <ele>2027</ele>
        <time>2018-04-21T11:47:13.000Z</time>
      </trkpt>
      <trkpt lat="44.10004" lon="7.3645">
        <ele>2028</ele>
        <time>2018-04-21T11:47:14.000Z</time>
      </trkpt>
      <trkpt lat="44.1" lon="7.36453">
        <ele>2029</ele>
        <time>2018-04-21T11:47:16.000Z</time>
      </trkpt>
      <trkpt lat="44.09995" lon="7.36457">
        <ele>2019</ele>
        <time>2018-04-21T11:47:19.000Z</time>
      </trkpt>
      <trkpt lat="44.09982" lon="7.36455">
        <ele>2018</ele>
        <time>2018-04-21T11:47:23.000Z</time>
      </trkpt>
      <trkpt lat="44.09978" lon="7.36452">
        <ele>2017</ele>
        <time>2018-04-21T11:47:24.000Z</time>
      </trkpt>
      <trkpt lat="44.09968" lon="7.36446">
        <ele>2016</ele>
        <time>2018-04-21T11:47:26.000Z</time>
      </trkpt>
      <trkpt lat="44.09962" lon="7.36441">
        <ele>2015</ele>
        <time>2018-04-21T11:47:27.000Z</time>
      </trkpt>
      <trkpt lat="44.09957" lon="7.36438">
        <ele>2014</ele>
        <time>2018-04-21T11:47:28.000Z</time>
      </trkpt>
      <trkpt lat="44.09952" lon="7.36437">
        <ele>2013</ele>
        <time>2018-04-21T11:47:29.000Z</time>
      </trkpt>
      <trkpt lat="44.09945" lon="7.36436">
        <ele>2012</ele>
        <time>2018-04-21T11:47:30.000Z</time>
      </trkpt>
      <trkpt lat="44.0994" lon="7.36437">
        <ele>2011</ele>
        <time>2018-04-21T11:47:31.000Z</time>
      </trkpt>
      <trkpt lat="44.09935" lon="7.36438">
        <ele>2010</ele>
        <time>2018-04-21T11:47:32.000Z</time>
      </trkpt>
      <trkpt lat="44.0993" lon="7.36439">
        <ele>2009</ele>
        <time>2018-04-21T11:47:33.000Z</time>
      </trkpt>
      <trkpt lat="44.09926" lon="7.36439">
        <ele>2009</ele>
        <time>2018-04-21T11:47:34.000Z</time>
      </trkpt>
      <trkpt lat="44.09922" lon="7.36438">
        <ele>2008</ele>
        <time>2018-04-21T11:47:35.000Z</time>
      </trkpt>
      <trkpt lat="44.09918" lon="7.36438">
        <ele>2008</ele>
        <time>2018-04-21T11:47:36.000Z</time>
      </trkpt>
      <trkpt lat="44.09914" lon="7.36437">
        <ele>1999</ele>
        <time>2018-04-21T11:47:37.000Z</time>
      </trkpt>
      <trkpt lat="44.09904" lon="7.36433">
        <ele>1998</ele>
        <time>2018-04-21T11:47:39.000Z</time>
      </trkpt>
      <trkpt lat="44.09894" lon="7.36431">
        <ele>1997</ele>
        <time>2018-04-21T11:47:41.000Z</time>
      </trkpt>
      <trkpt lat="44.09887" lon="7.3643">
        <ele>1997</ele>
        <time>2018-04-21T11:47:42.000Z</time>
      </trkpt>
      <trkpt lat="44.09881" lon="7.3643">
        <ele>1996</ele>
        <time>2018-04-21T11:47:43.000Z</time>
      </trkpt>
      <trkpt lat="44.0987" lon="7.36424">
        <ele>1994</ele>
        <time>2018-04-21T11:47:45.000Z</time>
      </trkpt>
      <trkpt lat="44.09865" lon="7.3642">
        <ele>1993</ele>
        <time>2018-04-21T11:47:46.000Z</time>
      </trkpt>
      <trkpt lat="44.0986" lon="7.36419">
        <ele>1992</ele>
        <time>2018-04-21T11:47:47.000Z</time>
      </trkpt>
      <trkpt lat="44.09855" lon="7.36419">
        <ele>1990</ele>
        <time>2018-04-21T11:47:48.000Z</time>
      </trkpt>
      <trkpt lat="44.09851" lon="7.3642">
        <ele>1989</ele>
        <time>2018-04-21T11:47:49.000Z</time>
      </trkpt>
      <trkpt lat="44.09847" lon="7.36421">
        <ele>1987</ele>
        <time>2018-04-21T11:47:50.000Z</time>
      </trkpt>
      <trkpt lat="44.09843" lon="7.36423">
        <ele>1986</ele>
        <time>2018-04-21T11:47:51.000Z</time>
      </trkpt>
      <trkpt lat="44.09839" lon="7.36425">
        <ele>1985</ele>
        <time>2018-04-21T11:47:52.000Z</time>
      </trkpt>
      <trkpt lat="44.09836" lon="7.36426">
        <ele>1985</ele>
        <time>2018-04-21T11:47:53.000Z</time>
      </trkpt>
      <trkpt lat="44.09828" lon="7.36429">
        <ele>1980</ele>
        <time>2018-04-21T11:47:55.000Z</time>
      </trkpt>
      <trkpt lat="44.0982" lon="7.36432">
        <ele>1980</ele>
        <time>2018-04-21T11:47:57.000Z</time>
      </trkpt>
      <trkpt lat="44.09813" lon="7.36435">
        <ele>1980</ele>
        <time>2018-04-21T11:47:59.000Z</time>
      </trkpt>
      <trkpt lat="44.09809" lon="7.36437">
        <ele>1980</ele>
        <time>2018-04-21T11:48:01.000Z</time>
      </trkpt>
      <trkpt lat="44.09804" lon="7.36438">
        <ele>1980</ele>
        <time>2018-04-21T11:48:03.000Z</time>
      </trkpt>
      <trkpt lat="44.09802" lon="7.36438">
        <ele>1980</ele>
        <time>2018-04-21T11:48:04.000Z</time>
      </trkpt>
      <trkpt lat="44.09799" lon="7.36438">
        <ele>1979</ele>
        <time>2018-04-21T11:48:05.000Z</time>
      </trkpt>
      <trkpt lat="44.09794" lon="7.36439">
        <ele>1979</ele>
        <time>2018-04-21T11:48:07.000Z</time>
      </trkpt>
      <trkpt lat="44.09794" lon="7.36439">
        <ele>1979</ele>
        <time>2018-04-21T11:48:09.000Z</time>
      </trkpt>
      <trkpt lat="44.09794" lon="7.36439">
        <ele>1979</ele>
        <time>2018-04-21T11:48:11.000Z</time>
      </trkpt>
      <trkpt lat="44.09794" lon="7.36439">
        <ele>1979</ele>
        <time>2018-04-21T11:48:17.000Z</time>
      </trkpt>
      <trkpt lat="44.09785" lon="7.36437">
        <ele>1977</ele>
        <time>2018-04-21T11:48:20.000Z</time>
      </trkpt>
      <trkpt lat="44.09775" lon="7.36439">
        <ele>1975</ele>
        <time>2018-04-21T11:48:22.000Z</time>
      </trkpt>
      <trkpt lat="44.0977" lon="7.36439">
        <ele>1975</ele>
        <time>2018-04-21T11:48:23.000Z</time>
      </trkpt>
      <trkpt lat="44.09766" lon="7.3644">
        <ele>1974</ele>
        <time>2018-04-21T11:48:24.000Z</time>
      </trkpt>
      <trkpt lat="44.0976" lon="7.3644">
        <ele>1973</ele>
        <time>2018-04-21T11:48:25.000Z</time>
      </trkpt>
      <trkpt lat="44.0975" lon="7.36443">
        <ele>1973</ele>
        <time>2018-04-21T11:48:27.000Z</time>
      </trkpt>
      <trkpt lat="44.09747" lon="7.36443">
        <ele>1966</ele>
        <time>2018-04-21T11:48:28.000Z</time>
      </trkpt>
      <trkpt lat="44.09743" lon="7.36444">
        <ele>1966</ele>
        <time>2018-04-21T11:48:29.000Z</time>
      </trkpt>
      <trkpt lat="44.0974" lon="7.36443">
        <ele>1966</ele>
        <time>2018-04-21T11:48:30.000Z</time>
      </trkpt>
      <trkpt lat="44.09731" lon="7.36442">
        <ele>1966</ele>
        <time>2018-04-21T11:48:32.000Z</time>
      </trkpt>
      <trkpt lat="44.09725" lon="7.36442">
        <ele>1966</ele>
        <time>2018-04-21T11:48:34.000Z</time>
      </trkpt>
      <trkpt lat="44.09724" lon="7.36441">
        <ele>1966</ele>
        <time>2018-04-21T11:48:35.000Z</time>
      </trkpt>
      <trkpt lat="44.09722" lon="7.36441">
        <ele>1966</ele>
        <time>2018-04-21T11:48:36.000Z</time>
      </trkpt>
      <trkpt lat="44.09719" lon="7.36441">
        <ele>1966</ele>
        <time>2018-04-21T11:48:39.000Z</time>
      </trkpt>
      <trkpt lat="44.09719" lon="7.36441">
        <ele>1966</ele>
        <time>2018-04-21T11:48:41.000Z</time>
      </trkpt>
      <trkpt lat="44.09719" lon="7.36441">
        <ele>1966</ele>
        <time>2018-04-21T11:48:44.000Z</time>
      </trkpt>
      <trkpt lat="44.09719" lon="7.36441">
        <ele>1966</ele>
        <time>2018-04-21T11:48:58.000Z</time>
      </trkpt>
      <trkpt lat="44.09718" lon="7.3644">
        <ele>1966</ele>
        <time>2018-04-21T11:49:06.000Z</time>
      </trkpt>
      <trkpt lat="44.09714" lon="7.36437">
        <ele>1965</ele>
        <time>2018-04-21T11:49:08.000Z</time>
      </trkpt>
      <trkpt lat="44.09709" lon="7.36431">
        <ele>1964</ele>
        <time>2018-04-21T11:49:10.000Z</time>
      </trkpt>
      <trkpt lat="44.0971" lon="7.36427">
        <ele>1963</ele>
        <time>2018-04-21T11:49:11.000Z</time>
      </trkpt>
      <trkpt lat="44.09715" lon="7.36416">
        <ele>1941</ele>
        <time>2018-04-21T11:49:13.000Z</time>
      </trkpt>
      <trkpt lat="44.09715" lon="7.36411">
        <ele>1941</ele>
        <time>2018-04-21T11:49:14.000Z</time>
      </trkpt>
      <trkpt lat="44.09715" lon="7.36406">
        <ele>1940</ele>
        <time>2018-04-21T11:49:15.000Z</time>
      </trkpt>
      <trkpt lat="44.09712" lon="7.36404">
        <ele>1939</ele>
        <time>2018-04-21T11:49:16.000Z</time>
      </trkpt>
      <trkpt lat="44.09707" lon="7.36402">
        <ele>1939</ele>
        <time>2018-04-21T11:49:17.000Z</time>
      </trkpt>
      <trkpt lat="44.09702" lon="7.36401">
        <ele>1938</ele>
        <time>2018-04-21T11:49:18.000Z</time>
      </trkpt>
      <trkpt lat="44.09697" lon="7.36399">
        <ele>1938</ele>
        <time>2018-04-21T11:49:19.000Z</time>
      </trkpt>
      <trkpt lat="44.09693" lon="7.36394">
        <ele>1937</ele>
        <time>2018-04-21T11:49:20.000Z</time>
      </trkpt>
      <trkpt lat="44.09691" lon="7.36388">
        <ele>1936</ele>
        <time>2018-04-21T11:49:21.000Z</time>
      </trkpt>
      <trkpt lat="44.09694" lon="7.36379">
        <ele>1935</ele>
        <time>2018-04-21T11:49:22.000Z</time>
      </trkpt>
      <trkpt lat="44.09696" lon="7.36372">
        <ele>1933</ele>
        <time>2018-04-21T11:49:23.000Z</time>
      </trkpt>
      <trkpt lat="44.09695" lon="7.36362">
        <ele>1931</ele>
        <time>2018-04-21T11:49:24.000Z</time>
      </trkpt>
      <trkpt lat="44.09691" lon="7.36355">
        <ele>1929</ele>
        <time>2018-04-21T11:49:25.000Z</time>
      </trkpt>
      <trkpt lat="44.09687" lon="7.3635">
        <ele>1928</ele>
        <time>2018-04-21T11:49:26.000Z</time>
      </trkpt>
      <trkpt lat="44.09681" lon="7.36346">
        <ele>1925</ele>
        <time>2018-04-21T11:49:27.000Z</time>
      </trkpt>
      <trkpt lat="44.09675" lon="7.36341">
        <ele>1921</ele>
        <time>2018-04-21T11:49:28.000Z</time>
      </trkpt>
      <trkpt lat="44.09672" lon="7.36334">
        <ele>1918</ele>
        <time>2018-04-21T11:49:29.000Z</time>
      </trkpt>
      <trkpt lat="44.09668" lon="7.36327">
        <ele>1913</ele>
        <time>2018-04-21T11:49:30.000Z</time>
      </trkpt>
      <trkpt lat="44.09664" lon="7.3632">
        <ele>1910</ele>
        <time>2018-04-21T11:49:31.000Z</time>
      </trkpt>
      <trkpt lat="44.09657" lon="7.36314">
        <ele>1909</ele>
        <time>2018-04-21T11:49:32.000Z</time>
      </trkpt>
      <trkpt lat="44.09651" lon="7.36308">
        <ele>1908</ele>
        <time>2018-04-21T11:49:33.000Z</time>
      </trkpt>
      <trkpt lat="44.09647" lon="7.36301">
        <ele>1906</ele>
        <time>2018-04-21T11:49:34.000Z</time>
      </trkpt>
      <trkpt lat="44.09643" lon="7.36294">
        <ele>1906</ele>
        <time>2018-04-21T11:49:35.000Z</time>
      </trkpt>
      <trkpt lat="44.09641" lon="7.36286">
        <ele>1905</ele>
        <time>2018-04-21T11:49:36.000Z</time>
      </trkpt>
      <trkpt lat="44.09639" lon="7.36276">
        <ele>1904</ele>
        <time>2018-04-21T11:49:37.000Z</time>
      </trkpt>
      <trkpt lat="44.09637" lon="7.36267">
        <ele>1903</ele>
        <time>2018-04-21T11:49:38.000Z</time>
      </trkpt>
      <trkpt lat="44.09635" lon="7.36248">
        <ele>1894</ele>
        <time>2018-04-21T11:49:40.000Z</time>
      </trkpt>
      <trkpt lat="44.09634" lon="7.3623">
        <ele>1894</ele>
        <time>2018-04-21T11:49:42.000Z</time>
      </trkpt>
      <trkpt lat="44.09634" lon="7.36213">
        <ele>1893</ele>
        <time>2018-04-21T11:49:44.000Z</time>
      </trkpt>
      <trkpt lat="44.09634" lon="7.36199">
        <ele>1892</ele>
        <time>2018-04-21T11:49:46.000Z</time>
      </trkpt>
      <trkpt lat="44.09633" lon="7.36192">
        <ele>1892</ele>
        <time>2018-04-21T11:49:47.000Z</time>
      </trkpt>
      <trkpt lat="44.09632" lon="7.36186">
        <ele>1891</ele>
        <time>2018-04-21T11:49:48.000Z</time>
      </trkpt>
      <trkpt lat="44.09629" lon="7.36174">
        <ele>1891</ele>
        <time>2018-04-21T11:49:50.000Z</time>
      </trkpt>
      <trkpt lat="44.09628" lon="7.36167">
        <ele>1891</ele>
        <time>2018-04-21T11:49:51.000Z</time>
      </trkpt>
      <trkpt lat="44.09626" lon="7.36158">
        <ele>1886</ele>
        <time>2018-04-21T11:49:52.000Z</time>
      </trkpt>
      <trkpt lat="44.09625" lon="7.3615">
        <ele>1886</ele>
        <time>2018-04-21T11:49:53.000Z</time>
      </trkpt>
      <trkpt lat="44.09623" lon="7.36142">
        <ele>1886</ele>
        <time>2018-04-21T11:49:54.000Z</time>
      </trkpt>
      <trkpt lat="44.09621" lon="7.36135">
        <ele>1886</ele>
        <time>2018-04-21T11:49:55.000Z</time>
      </trkpt>
      <trkpt lat="44.09619" lon="7.36128">
        <ele>1886</ele>
        <time>2018-04-21T11:49:56.000Z</time>
      </trkpt>
      <trkpt lat="44.09617" lon="7.36121">
        <ele>1885</ele>
        <time>2018-04-21T11:49:57.000Z</time>
      </trkpt>
      <trkpt lat="44.09615" lon="7.36114">
        <ele>1885</ele>
        <time>2018-04-21T11:49:58.000Z</time>
      </trkpt>
      <trkpt lat="44.09614" lon="7.36108">
        <ele>1885</ele>
        <time>2018-04-21T11:49:59.000Z</time>
      </trkpt>
      <trkpt lat="44.09613" lon="7.36102">
        <ele>1884</ele>
        <time>2018-04-21T11:50:00.000Z</time>
      </trkpt>
      <trkpt lat="44.09613" lon="7.36096">
        <ele>1884</ele>
        <time>2018-04-21T11:50:02.000Z</time>
      </trkpt>
      <trkpt lat="44.09613" lon="7.36096">
        <ele>1884</ele>
        <time>2018-04-21T11:50:05.000Z</time>
      </trkpt>
      <trkpt lat="44.09613" lon="7.36096">
        <ele>1884</ele>
        <time>2018-04-21T11:50:06.000Z</time>
      </trkpt>
      <trkpt lat="44.09613" lon="7.36098">
        <ele>1884</ele>
        <time>2018-04-21T11:50:14.000Z</time>
      </trkpt>
      <trkpt lat="44.09611" lon="7.361">
        <ele>1884</ele>
        <time>2018-04-21T11:50:33.000Z</time>
      </trkpt>
      <trkpt lat="44.09612" lon="7.36099">
        <ele>1884</ele>
        <time>2018-04-21T11:50:38.000Z</time>
      </trkpt>
      <trkpt lat="44.09613" lon="7.36092">
        <ele>1884</ele>
        <time>2018-04-21T11:50:44.000Z</time>
      </trkpt>
      <trkpt lat="44.09612" lon="7.36085">
        <ele>1884</ele>
        <time>2018-04-21T11:50:49.000Z</time>
      </trkpt>
      <trkpt lat="44.09605" lon="7.36066">
        <ele>1882</ele>
        <time>2018-04-21T11:50:54.000Z</time>
      </trkpt>
      <trkpt lat="44.09597" lon="7.3605">
        <ele>1881</ele>
        <time>2018-04-21T11:50:57.000Z</time>
      </trkpt>
      <trkpt lat="44.0959" lon="7.36043">
        <ele>1881</ele>
        <time>2018-04-21T11:50:59.000Z</time>
      </trkpt>
      <trkpt lat="44.09583" lon="7.36037">
        <ele>1874</ele>
        <time>2018-04-21T11:51:01.000Z</time>
      </trkpt>
      <trkpt lat="44.09575" lon="7.3603">
        <ele>1874</ele>
        <time>2018-04-21T11:51:03.000Z</time>
      </trkpt>
      <trkpt lat="44.09571" lon="7.36028">
        <ele>1873</ele>
        <time>2018-04-21T11:51:04.000Z</time>
      </trkpt>
      <trkpt lat="44.09568" lon="7.36026">
        <ele>1873</ele>
        <time>2018-04-21T11:51:05.000Z</time>
      </trkpt>
      <trkpt lat="44.0956" lon="7.36022">
        <ele>1873</ele>
        <time>2018-04-21T11:51:08.000Z</time>
      </trkpt>
      <trkpt lat="44.09557" lon="7.36021">
        <ele>1873</ele>
        <time>2018-04-21T11:51:09.000Z</time>
      </trkpt>
      <trkpt lat="44.09554" lon="7.36018">
        <ele>1873</ele>
        <time>2018-04-21T11:51:11.000Z</time>
      </trkpt>
      <trkpt lat="44.09546" lon="7.36015">
        <ele>1872</ele>
        <time>2018-04-21T11:51:14.000Z</time>
      </trkpt>
      <trkpt lat="44.09543" lon="7.36014">
        <ele>1872</ele>
        <time>2018-04-21T11:51:15.000Z</time>
      </trkpt>
      <trkpt lat="44.09541" lon="7.36015">
        <ele>1872</ele>
        <time>2018-04-21T11:51:17.000Z</time>
      </trkpt>
      <trkpt lat="44.09541" lon="7.36015">
        <ele>1872</ele>
        <time>2018-04-21T11:51:18.000Z</time>
      </trkpt>
      <trkpt lat="44.09541" lon="7.36015">
        <ele>1872</ele>
        <time>2018-04-21T11:51:23.000Z</time>
      </trkpt>
      <trkpt lat="44.09541" lon="7.36016">
        <ele>1872</ele>
        <time>2018-04-21T11:51:42.000Z</time>
      </trkpt>
      <trkpt lat="44.09541" lon="7.36017">
        <ele>1872</ele>
        <time>2018-04-21T11:51:50.000Z</time>
      </trkpt>
      <trkpt lat="44.09542" lon="7.36017">
        <ele>1872</ele>
        <time>2018-04-21T11:51:57.000Z</time>
      </trkpt>
      <trkpt lat="44.09542" lon="7.36017">
        <ele>1872</ele>
        <time>2018-04-21T11:51:58.000Z</time>
      </trkpt>
      <trkpt lat="44.09541" lon="7.36017">
        <ele>1872</ele>
        <time>2018-04-21T11:52:03.000Z</time>
      </trkpt>
      <trkpt lat="44.09541" lon="7.36018">
        <ele>1872</ele>
        <time>2018-04-21T11:52:10.000Z</time>
      </trkpt>
      <trkpt lat="44.0954" lon="7.36016">
        <ele>1872</ele>
        <time>2018-04-21T11:52:15.000Z</time>
      </trkpt>
      <trkpt lat="44.0954" lon="7.36014">
        <ele>1872</ele>
        <time>2018-04-21T11:52:24.000Z</time>
      </trkpt>
      <trkpt lat="44.09541" lon="7.3601">
        <ele>1872</ele>
        <time>2018-04-21T11:52:32.000Z</time>
      </trkpt>
      <trkpt lat="44.09541" lon="7.36006">
        <ele>1872</ele>
        <time>2018-04-21T11:52:38.000Z</time>
      </trkpt>
      <trkpt lat="44.09541" lon="7.36007">
        <ele>1872</ele>
        <time>2018-04-21T11:52:52.000Z</time>
      </trkpt>
      <trkpt lat="44.09541" lon="7.36006">
        <ele>1872</ele>
        <time>2018-04-21T11:53:08.000Z</time>
      </trkpt>
      <trkpt lat="44.09541" lon="7.36006">
        <ele>1872</ele>
        <time>2018-04-21T11:53:15.000Z</time>
      </trkpt>
      <trkpt lat="44.09541" lon="7.36006">
        <ele>1872</ele>
        <time>2018-04-21T11:53:18.000Z</time>
      </trkpt>
      <trkpt lat="44.09541" lon="7.36006">
        <ele>1872</ele>
        <time>2018-04-21T11:53:26.000Z</time>
      </trkpt>
      <trkpt lat="44.09541" lon="7.36006">
        <ele>1872</ele>
        <time>2018-04-21T11:53:34.000Z</time>
      </trkpt>
      <trkpt lat="44.09541" lon="7.36006">
        <ele>1872</ele>
        <time>2018-04-21T11:53:42.000Z</time>
      </trkpt>
      <trkpt lat="44.09541" lon="7.36006">
        <ele>1872</ele>
        <time>2018-04-21T11:53:51.000Z</time>
      </trkpt>
      <trkpt lat="44.09541" lon="7.36006">
        <ele>1872</ele>
        <time>2018-04-21T11:53:58.000Z</time>
      </trkpt>
      <trkpt lat="44.09541" lon="7.36006">
        <ele>1872</ele>
        <time>2018-04-21T11:54:08.000Z</time>
      </trkpt>
      <trkpt lat="44.09542" lon="7.36007">
        <ele>1872</ele>
        <time>2018-04-21T11:54:14.000Z</time>
      </trkpt>
      <trkpt lat="44.09542" lon="7.36007">
        <ele>1872</ele>
        <time>2018-04-21T11:54:24.000Z</time>
      </trkpt>
      <trkpt lat="44.09542" lon="7.36007">
        <ele>1872</ele>
        <time>2018-04-21T11:54:25.000Z</time>
      </trkpt>
      <trkpt lat="44.09541" lon="7.36007">
        <ele>1872</ele>
        <time>2018-04-21T11:54:33.000Z</time>
      </trkpt>
      <trkpt lat="44.09541" lon="7.36007">
        <ele>1872</ele>
        <time>2018-04-21T11:54:46.000Z</time>
      </trkpt>
      <trkpt lat="44.09541" lon="7.36008">
        <ele>1872</ele>
        <time>2018-04-21T11:54:55.000Z</time>
      </trkpt>
      <trkpt lat="44.0954" lon="7.36008">
        <ele>1872</ele>
        <time>2018-04-21T11:55:07.000Z</time>
      </trkpt>
      <trkpt lat="44.09541" lon="7.36008">
        <ele>1872</ele>
        <time>2018-04-21T11:55:12.000Z</time>
      </trkpt>
      <trkpt lat="44.09541" lon="7.36008">
        <ele>1872</ele>
        <time>2018-04-21T11:55:14.000Z</time>
      </trkpt>
      <trkpt lat="44.09543" lon="7.36008">
        <ele>1872</ele>
        <time>2018-04-21T11:55:24.000Z</time>
      </trkpt>
      <trkpt lat="44.09543" lon="7.36008">
        <ele>1872</ele>
        <time>2018-04-21T11:55:25.000Z</time>
      </trkpt>
      <trkpt lat="44.09544" lon="7.36008">
        <ele>1872</ele>
        <time>2018-04-21T11:55:31.000Z</time>
      </trkpt>
      <trkpt lat="44.09544" lon="7.36007">
        <ele>1872</ele>
        <time>2018-04-21T11:55:40.000Z</time>
      </trkpt>
      <trkpt lat="44.09544" lon="7.36006">
        <ele>1872</ele>
        <time>2018-04-21T11:55:47.000Z</time>
      </trkpt>
      <trkpt lat="44.09544" lon="7.36006">
        <ele>1872</ele>
        <time>2018-04-21T11:55:55.000Z</time>
      </trkpt>
      <trkpt lat="44.09543" lon="7.36005">
        <ele>1872</ele>
        <time>2018-04-21T11:56:07.000Z</time>
      </trkpt>
      <trkpt lat="44.09543" lon="7.36006">
        <ele>1872</ele>
        <time>2018-04-21T11:56:11.000Z</time>
      </trkpt>
      <trkpt lat="44.09543" lon="7.36005">
        <ele>1872</ele>
        <time>2018-04-21T11:56:14.000Z</time>
      </trkpt>
      <trkpt lat="44.09543" lon="7.36005">
        <ele>1872</ele>
        <time>2018-04-21T11:56:20.000Z</time>
      </trkpt>
      <trkpt lat="44.09544" lon="7.36005">
        <ele>1872</ele>
        <time>2018-04-21T11:56:28.000Z</time>
      </trkpt>
      <trkpt lat="44.09544" lon="7.36006">
        <ele>1872</ele>
        <time>2018-04-21T11:56:37.000Z</time>
      </trkpt>
      <trkpt lat="44.09544" lon="7.36006">
        <ele>1872</ele>
        <time>2018-04-21T11:56:43.000Z</time>
      </trkpt>
      <trkpt lat="44.09544" lon="7.36006">
        <ele>1872</ele>
        <time>2018-04-21T11:56:48.000Z</time>
      </trkpt>
      <trkpt lat="44.09543" lon="7.36007">
        <ele>1872</ele>
        <time>2018-04-21T11:56:57.000Z</time>
      </trkpt>
      <trkpt lat="44.09542" lon="7.36008">
        <ele>1872</ele>
        <time>2018-04-21T11:57:02.000Z</time>
      </trkpt>
      <trkpt lat="44.09543" lon="7.36008">
        <ele>1872</ele>
        <time>2018-04-21T11:57:03.000Z</time>
      </trkpt>
      <trkpt lat="44.09542" lon="7.36007">
        <ele>1872</ele>
        <time>2018-04-21T11:57:06.000Z</time>
      </trkpt>
      <trkpt lat="44.09542" lon="7.36007">
        <ele>1872</ele>
        <time>2018-04-21T11:57:08.000Z</time>
      </trkpt>
      <trkpt lat="44.09543" lon="7.36004">
        <ele>1872</ele>
        <time>2018-04-21T11:57:11.000Z</time>
      </trkpt>
      <trkpt lat="44.09543" lon="7.36004">
        <ele>1872</ele>
        <time>2018-04-21T11:57:14.000Z</time>
      </trkpt>
      <trkpt lat="44.09545" lon="7.36">
        <ele>1872</ele>
        <time>2018-04-21T11:57:20.000Z</time>
      </trkpt>
      <trkpt lat="44.09547" lon="7.35997">
        <ele>1868</ele>
        <time>2018-04-21T11:57:26.000Z</time>
      </trkpt>
      <trkpt lat="44.09548" lon="7.35996">
        <ele>1868</ele>
        <time>2018-04-21T11:57:27.000Z</time>
      </trkpt>
      <trkpt lat="44.09552" lon="7.35992">
        <ele>1869</ele>
        <time>2018-04-21T11:57:34.000Z</time>
      </trkpt>
      <trkpt lat="44.09556" lon="7.35989">
        <ele>1869</ele>
        <time>2018-04-21T11:57:42.000Z</time>
      </trkpt>
      <trkpt lat="44.09558" lon="7.35987">
        <ele>1869</ele>
        <time>2018-04-21T11:57:47.000Z</time>
      </trkpt>
      <trkpt lat="44.09559" lon="7.35987">
        <ele>1869</ele>
        <time>2018-04-21T11:57:49.000Z</time>
      </trkpt>
      <trkpt lat="44.09561" lon="7.35988">
        <ele>1869</ele>
        <time>2018-04-21T11:57:54.000Z</time>
      </trkpt>
      <trkpt lat="44.09564" lon="7.35986">
        <ele>1870</ele>
        <time>2018-04-21T11:57:59.000Z</time>
      </trkpt>
      <trkpt lat="44.09565" lon="7.35985">
        <ele>1870</ele>
        <time>2018-04-21T11:58:02.000Z</time>
      </trkpt>
      <trkpt lat="44.09565" lon="7.35985">
        <ele>1870</ele>
        <time>2018-04-21T11:58:09.000Z</time>
      </trkpt>
      <trkpt lat="44.09564" lon="7.35985">
        <ele>1870</ele>
        <time>2018-04-21T11:58:20.000Z</time>
      </trkpt>
      <trkpt lat="44.09565" lon="7.35984">
        <ele>1870</ele>
        <time>2018-04-21T11:58:26.000Z</time>
      </trkpt>
      <trkpt lat="44.09566" lon="7.35982">
        <ele>1870</ele>
        <time>2018-04-21T11:58:31.000Z</time>
      </trkpt>
      <trkpt lat="44.09567" lon="7.3598">
        <ele>1870</ele>
        <time>2018-04-21T11:58:34.000Z</time>
      </trkpt>
      <trkpt lat="44.09568" lon="7.35978">
        <ele>1870</ele>
        <time>2018-04-21T11:58:40.000Z</time>
      </trkpt>
      <trkpt lat="44.09569" lon="7.35977">
        <ele>1870</ele>
        <time>2018-04-21T11:58:42.000Z</time>
      </trkpt>
      <trkpt lat="44.09569" lon="7.35975">
        <ele>1870</ele>
        <time>2018-04-21T11:58:47.000Z</time>
      </trkpt>
      <trkpt lat="44.09569" lon="7.35975">
        <ele>1870</ele>
        <time>2018-04-21T11:58:49.000Z</time>
      </trkpt>
      <trkpt lat="44.09569" lon="7.35973">
        <ele>1870</ele>
        <time>2018-04-21T11:58:59.000Z</time>
      </trkpt>
      <trkpt lat="44.09569" lon="7.35972">
        <ele>1870</ele>
        <time>2018-04-21T11:59:00.000Z</time>
      </trkpt>
      <trkpt lat="44.09568" lon="7.35972">
        <ele>1870</ele>
        <time>2018-04-21T11:59:06.000Z</time>
      </trkpt>
      <trkpt lat="44.09567" lon="7.35973">
        <ele>1870</ele>
        <time>2018-04-21T11:59:12.000Z</time>
      </trkpt>
      <trkpt lat="44.09566" lon="7.35971">
        <ele>1870</ele>
        <time>2018-04-21T11:59:15.000Z</time>
      </trkpt>
      <trkpt lat="44.09567" lon="7.35971">
        <ele>1870</ele>
        <time>2018-04-21T11:59:17.000Z</time>
      </trkpt>
      <trkpt lat="44.09568" lon="7.3597">
        <ele>1870</ele>
        <time>2018-04-21T11:59:24.000Z</time>
      </trkpt>
      <trkpt lat="44.09568" lon="7.35968">
        <ele>1870</ele>
        <time>2018-04-21T11:59:30.000Z</time>
      </trkpt>
      <trkpt lat="44.09568" lon="7.35968">
        <ele>1870</ele>
        <time>2018-04-21T11:59:31.000Z</time>
      </trkpt>
      <trkpt lat="44.09568" lon="7.35965">
        <ele>1870</ele>
        <time>2018-04-21T11:59:36.000Z</time>
      </trkpt>
      <trkpt lat="44.09569" lon="7.35961">
        <ele>1870</ele>
        <time>2018-04-21T11:59:43.000Z</time>
      </trkpt>
      <trkpt lat="44.09569" lon="7.35958">
        <ele>1870</ele>
        <time>2018-04-21T11:59:49.000Z</time>
      </trkpt>
      <trkpt lat="44.09569" lon="7.35951">
        <ele>1871</ele>
        <time>2018-04-21T11:59:55.000Z</time>
      </trkpt>
      <trkpt lat="44.0957" lon="7.35948">
        <ele>1871</ele>
        <time>2018-04-21T11:59:59.000Z</time>
      </trkpt>
      <trkpt lat="44.09571" lon="7.35946">
        <ele>1871</ele>
        <time>2018-04-21T12:00:02.000Z</time>
      </trkpt>
      <trkpt lat="44.09572" lon="7.35943">
        <ele>1872</ele>
        <time>2018-04-21T12:00:09.000Z</time>
      </trkpt>
      <trkpt lat="44.09571" lon="7.35941">
        <ele>1872</ele>
        <time>2018-04-21T12:00:11.000Z</time>
      </trkpt>
      <trkpt lat="44.09572" lon="7.35938">
        <ele>1873</ele>
        <time>2018-04-21T12:00:15.000Z</time>
      </trkpt>
      <trkpt lat="44.09573" lon="7.35934">
        <ele>1873</ele>
        <time>2018-04-21T12:00:22.000Z</time>
      </trkpt>
      <trkpt lat="44.09573" lon="7.35932">
        <ele>1874</ele>
        <time>2018-04-21T12:00:24.000Z</time>
      </trkpt>
      <trkpt lat="44.09573" lon="7.35929">
        <ele>1874</ele>
        <time>2018-04-21T12:00:30.000Z</time>
      </trkpt>
      <trkpt lat="44.09573" lon="7.35928">
        <ele>1874</ele>
        <time>2018-04-21T12:00:32.000Z</time>
      </trkpt>
      <trkpt lat="44.09573" lon="7.35928">
        <ele>1874</ele>
        <time>2018-04-21T12:00:37.000Z</time>
      </trkpt>
      <trkpt lat="44.09573" lon="7.35926">
        <ele>1875</ele>
        <time>2018-04-21T12:00:44.000Z</time>
      </trkpt>
      <trkpt lat="44.09573" lon="7.35924">
        <ele>1875</ele>
        <time>2018-04-21T12:00:45.000Z</time>
      </trkpt>
      <trkpt lat="44.09572" lon="7.35922">
        <ele>1875</ele>
        <time>2018-04-21T12:00:50.000Z</time>
      </trkpt>
      <trkpt lat="44.09572" lon="7.35922">
        <ele>1875</ele>
        <time>2018-04-21T12:00:51.000Z</time>
      </trkpt>
      <trkpt lat="44.09573" lon="7.35919">
        <ele>1876</ele>
        <time>2018-04-21T12:00:56.000Z</time>
      </trkpt>
      <trkpt lat="44.09574" lon="7.35917">
        <ele>1876</ele>
        <time>2018-04-21T12:01:01.000Z</time>
      </trkpt>
      <trkpt lat="44.09576" lon="7.35915">
        <ele>1878</ele>
        <time>2018-04-21T12:01:06.000Z</time>
      </trkpt>
      <trkpt lat="44.09577" lon="7.3591">
        <ele>1878</ele>
        <time>2018-04-21T12:01:14.000Z</time>
      </trkpt>
      <trkpt lat="44.09578" lon="7.35908">
        <ele>1878</ele>
        <time>2018-04-21T12:01:16.000Z</time>
      </trkpt>
      <trkpt lat="44.09579" lon="7.35906">
        <ele>1878</ele>
        <time>2018-04-21T12:01:21.000Z</time>
      </trkpt>
      <trkpt lat="44.0958" lon="7.35903">
        <ele>1877</ele>
        <time>2018-04-21T12:01:27.000Z</time>
      </trkpt>
      <trkpt lat="44.09582" lon="7.35902">
        <ele>1877</ele>
        <time>2018-04-21T12:01:28.000Z</time>
      </trkpt>
      <trkpt lat="44.09584" lon="7.35899">
        <ele>1890</ele>
        <time>2018-04-21T12:01:35.000Z</time>
      </trkpt>
      <trkpt lat="44.09585" lon="7.35893">
        <ele>1892</ele>
        <time>2018-04-21T12:01:42.000Z</time>
      </trkpt>
      <trkpt lat="44.09586" lon="7.35889">
        <ele>1894</ele>
        <time>2018-04-21T12:01:49.000Z</time>
      </trkpt>
      <trkpt lat="44.09588" lon="7.35885">
        <ele>1895</ele>
        <time>2018-04-21T12:01:54.000Z</time>
      </trkpt>
      <trkpt lat="44.09589" lon="7.35879">
        <ele>1896</ele>
        <time>2018-04-21T12:02:01.000Z</time>
      </trkpt>
      <trkpt lat="44.09588" lon="7.35873">
        <ele>1896</ele>
        <time>2018-04-21T12:02:09.000Z</time>
      </trkpt>
      <trkpt lat="44.09586" lon="7.35866">
        <ele>1896</ele>
        <time>2018-04-21T12:02:18.000Z</time>
      </trkpt>
      <trkpt lat="44.09585" lon="7.3586">
        <ele>1896</ele>
        <time>2018-04-21T12:02:26.000Z</time>
      </trkpt>
      <trkpt lat="44.09585" lon="7.3586">
        <ele>1896</ele>
        <time>2018-04-21T12:02:28.000Z</time>
      </trkpt>
      <trkpt lat="44.09585" lon="7.35858">
        <ele>1896</ele>
        <time>2018-04-21T12:02:31.000Z</time>
      </trkpt>
      <trkpt lat="44.09585" lon="7.35856">
        <ele>1896</ele>
        <time>2018-04-21T12:02:39.000Z</time>
      </trkpt>
      <trkpt lat="44.09584" lon="7.35852">
        <ele>1896</ele>
        <time>2018-04-21T12:02:46.000Z</time>
      </trkpt>
      <trkpt lat="44.09584" lon="7.3585">
        <ele>1896</ele>
        <time>2018-04-21T12:02:49.000Z</time>
      </trkpt>
      <trkpt lat="44.09583" lon="7.35847">
        <ele>1884</ele>
        <time>2018-04-21T12:02:55.000Z</time>
      </trkpt>
      <trkpt lat="44.09583" lon="7.35845">
        <ele>1884</ele>
        <time>2018-04-21T12:03:01.000Z</time>
      </trkpt>
      <trkpt lat="44.09583" lon="7.35844">
        <ele>1885</ele>
        <time>2018-04-21T12:03:04.000Z</time>
      </trkpt>
      <trkpt lat="44.09584" lon="7.35841">
        <ele>1894</ele>
        <time>2018-04-21T12:03:09.000Z</time>
      </trkpt>
      <trkpt lat="44.09584" lon="7.3584">
        <ele>1893</ele>
        <time>2018-04-21T12:03:18.000Z</time>
      </trkpt>
      <trkpt lat="44.09585" lon="7.35838">
        <ele>1893</ele>
        <time>2018-04-21T12:03:24.000Z</time>
      </trkpt>
      <trkpt lat="44.09585" lon="7.35835">
        <ele>1892</ele>
        <time>2018-04-21T12:03:31.000Z</time>
      </trkpt>
      <trkpt lat="44.09585" lon="7.35835">
        <ele>1892</ele>
        <time>2018-04-21T12:03:34.000Z</time>
      </trkpt>
      <trkpt lat="44.09586" lon="7.35832">
        <ele>1894</ele>
        <time>2018-04-21T12:03:41.000Z</time>
      </trkpt>
      <trkpt lat="44.09586" lon="7.35831">
        <ele>1894</ele>
        <time>2018-04-21T12:03:43.000Z</time>
      </trkpt>
      <trkpt lat="44.09587" lon="7.35828">
        <ele>1897</ele>
        <time>2018-04-21T12:03:48.000Z</time>
      </trkpt>
      <trkpt lat="44.09588" lon="7.35828">
        <ele>1897</ele>
        <time>2018-04-21T12:03:51.000Z</time>
      </trkpt>
      <trkpt lat="44.09588" lon="7.35825">
        <ele>1898</ele>
        <time>2018-04-21T12:03:54.000Z</time>
      </trkpt>
      <trkpt lat="44.09588" lon="7.35821">
        <ele>1901</ele>
        <time>2018-04-21T12:04:00.000Z</time>
      </trkpt>
      <trkpt lat="44.09589" lon="7.3582">
        <ele>1901</ele>
        <time>2018-04-21T12:04:02.000Z</time>
      </trkpt>
      <trkpt lat="44.09589" lon="7.35818">
        <ele>1902</ele>
        <time>2018-04-21T12:04:06.000Z</time>
      </trkpt>
      <trkpt lat="44.0959" lon="7.35814">
        <ele>1904</ele>
        <time>2018-04-21T12:04:13.000Z</time>
      </trkpt>
      <trkpt lat="44.0959" lon="7.35812">
        <ele>1904</ele>
        <time>2018-04-21T12:04:19.000Z</time>
      </trkpt>
      <trkpt lat="44.0959" lon="7.35811">
        <ele>1905</ele>
        <time>2018-04-21T12:04:21.000Z</time>
      </trkpt>
      <trkpt lat="44.0959" lon="7.35808">
        <ele>1906</ele>
        <time>2018-04-21T12:04:26.000Z</time>
      </trkpt>
      <trkpt lat="44.0959" lon="7.35807">
        <ele>1906</ele>
        <time>2018-04-21T12:04:32.000Z</time>
      </trkpt>
      <trkpt lat="44.0959" lon="7.35805">
        <ele>1906</ele>
        <time>2018-04-21T12:04:40.000Z</time>
      </trkpt>
      <trkpt lat="44.0959" lon="7.35805">
        <ele>1906</ele>
        <time>2018-04-21T12:04:45.000Z</time>
      </trkpt>
      <trkpt lat="44.09591" lon="7.35807">
        <ele>1906</ele>
        <time>2018-04-21T12:05:00.000Z</time>
      </trkpt>
      <trkpt lat="44.0959" lon="7.35804">
        <ele>1907</ele>
        <time>2018-04-21T12:05:10.000Z</time>
      </trkpt>
      <trkpt lat="44.0959" lon="7.35799">
        <ele>1908</ele>
        <time>2018-04-21T12:05:18.000Z</time>
      </trkpt>
      <trkpt lat="44.0959" lon="7.35797">
        <ele>1908</ele>
        <time>2018-04-21T12:05:25.000Z</time>
      </trkpt>
      <trkpt lat="44.0959" lon="7.35792">
        <ele>1909</ele>
        <time>2018-04-21T12:05:35.000Z</time>
      </trkpt>
      <trkpt lat="44.0959" lon="7.35791">
        <ele>1909</ele>
        <time>2018-04-21T12:05:37.000Z</time>
      </trkpt>
      <trkpt lat="44.0959" lon="7.3579">
        <ele>1909</ele>
        <time>2018-04-21T12:05:42.000Z</time>
      </trkpt>
      <trkpt lat="44.09589" lon="7.35786">
        <ele>1909</ele>
        <time>2018-04-21T12:05:50.000Z</time>
      </trkpt>
      <trkpt lat="44.09588" lon="7.35781">
        <ele>1909</ele>
        <time>2018-04-21T12:05:59.000Z</time>
      </trkpt>
      <trkpt lat="44.09587" lon="7.35778">
        <ele>1909</ele>
        <time>2018-04-21T12:06:06.000Z</time>
      </trkpt>
      <trkpt lat="44.09587" lon="7.35776">
        <ele>1909</ele>
        <time>2018-04-21T12:06:12.000Z</time>
      </trkpt>
      <trkpt lat="44.09586" lon="7.35769">
        <ele>1908</ele>
        <time>2018-04-21T12:06:21.000Z</time>
      </trkpt>
      <trkpt lat="44.09586" lon="7.35764">
        <ele>1908</ele>
        <time>2018-04-21T12:06:30.000Z</time>
      </trkpt>
      <trkpt lat="44.09586" lon="7.35761">
        <ele>1907</ele>
        <time>2018-04-21T12:06:35.000Z</time>
      </trkpt>
      <trkpt lat="44.09586" lon="7.35759">
        <ele>1906</ele>
        <time>2018-04-21T12:06:40.000Z</time>
      </trkpt>
      <trkpt lat="44.09586" lon="7.35756">
        <ele>1906</ele>
        <time>2018-04-21T12:06:45.000Z</time>
      </trkpt>
      <trkpt lat="44.09586" lon="7.35756">
        <ele>1906</ele>
        <time>2018-04-21T12:06:47.000Z</time>
      </trkpt>
      <trkpt lat="44.09584" lon="7.35751">
        <ele>1903</ele>
        <time>2018-04-21T12:06:54.000Z</time>
      </trkpt>
      <trkpt lat="44.09582" lon="7.35745">
        <ele>1901</ele>
        <time>2018-04-21T12:07:03.000Z</time>
      </trkpt>
      <trkpt lat="44.09579" lon="7.3574">
        <ele>1899</ele>
        <time>2018-04-21T12:07:10.000Z</time>
      </trkpt>
      <trkpt lat="44.09579" lon="7.3574">
        <ele>1899</ele>
        <time>2018-04-21T12:07:11.000Z</time>
      </trkpt>
      <trkpt lat="44.09577" lon="7.35738">
        <ele>1898</ele>
        <time>2018-04-21T12:07:17.000Z</time>
      </trkpt>
      <trkpt lat="44.09575" lon="7.35734">
        <ele>1898</ele>
        <time>2018-04-21T12:07:22.000Z</time>
      </trkpt>
      <trkpt lat="44.09574" lon="7.35729">
        <ele>1897</ele>
        <time>2018-04-21T12:07:30.000Z</time>
      </trkpt>
      <trkpt lat="44.09572" lon="7.35724">
        <ele>1896</ele>
        <time>2018-04-21T12:07:39.000Z</time>
      </trkpt>
      <trkpt lat="44.09572" lon="7.35724">
        <ele>1896</ele>
        <time>2018-04-21T12:07:49.000Z</time>
      </trkpt>
      <trkpt lat="44.09572" lon="7.35724">
        <ele>1896</ele>
        <time>2018-04-21T12:08:01.000Z</time>
      </trkpt>
      <trkpt lat="44.09572" lon="7.35724">
        <ele>1896</ele>
        <time>2018-04-21T12:08:09.000Z</time>
      </trkpt>
      <trkpt lat="44.09573" lon="7.35724">
        <ele>1897</ele>
        <time>2018-04-21T12:08:27.000Z</time>
      </trkpt>
      <trkpt lat="44.09573" lon="7.35724">
        <ele>1897</ele>
        <time>2018-04-21T12:08:31.000Z</time>
      </trkpt>
      <trkpt lat="44.09572" lon="7.35724">
        <ele>1896</ele>
        <time>2018-04-21T12:08:37.000Z</time>
      </trkpt>
      <trkpt lat="44.09572" lon="7.35724">
        <ele>1896</ele>
        <time>2018-04-21T12:08:46.000Z</time>
      </trkpt>
      <trkpt lat="44.09571" lon="7.35722">
        <ele>1896</ele>
        <time>2018-04-21T12:08:58.000Z</time>
      </trkpt>
      <trkpt lat="44.09568" lon="7.35715">
        <ele>1896</ele>
        <time>2018-04-21T12:09:07.000Z</time>
      </trkpt>
      <trkpt lat="44.09568" lon="7.35712">
        <ele>1896</ele>
        <time>2018-04-21T12:09:12.000Z</time>
      </trkpt>
      <trkpt lat="44.09568" lon="7.35708">
        <ele>1896</ele>
        <time>2018-04-21T12:09:18.000Z</time>
      </trkpt>
      <trkpt lat="44.09569" lon="7.35706">
        <ele>1896</ele>
        <time>2018-04-21T12:09:22.000Z</time>
      </trkpt>
      <trkpt lat="44.0957" lon="7.35701">
        <ele>1897</ele>
        <time>2018-04-21T12:09:31.000Z</time>
      </trkpt>
      <trkpt lat="44.0957" lon="7.357">
        <ele>1897</ele>
        <time>2018-04-21T12:09:33.000Z</time>
      </trkpt>
      <trkpt lat="44.0957" lon="7.35697">
        <ele>1897</ele>
        <time>2018-04-21T12:09:39.000Z</time>
      </trkpt>
      <trkpt lat="44.09569" lon="7.35693">
        <ele>1898</ele>
        <time>2018-04-21T12:09:46.000Z</time>
      </trkpt>
      <trkpt lat="44.09569" lon="7.35688">
        <ele>1899</ele>
        <time>2018-04-21T12:09:52.000Z</time>
      </trkpt>
      <trkpt lat="44.09568" lon="7.35686">
        <ele>1899</ele>
        <time>2018-04-21T12:09:56.000Z</time>
      </trkpt>
      <trkpt lat="44.09568" lon="7.3568">
        <ele>1900</ele>
        <time>2018-04-21T12:10:02.000Z</time>
      </trkpt>
      <trkpt lat="44.09568" lon="7.35678">
        <ele>1900</ele>
        <time>2018-04-21T12:10:03.000Z</time>
      </trkpt>
      <trkpt lat="44.09569" lon="7.35674">
        <ele>1901</ele>
        <time>2018-04-21T12:10:08.000Z</time>
      </trkpt>
      <trkpt lat="44.09571" lon="7.35668">
        <ele>1903</ele>
        <time>2018-04-21T12:10:16.000Z</time>
      </trkpt>
      <trkpt lat="44.09571" lon="7.35661">
        <ele>1905</ele>
        <time>2018-04-21T12:10:24.000Z</time>
      </trkpt>
      <trkpt lat="44.09569" lon="7.35652">
        <ele>1904</ele>
        <time>2018-04-21T12:10:32.000Z</time>
      </trkpt>
      <trkpt lat="44.09568" lon="7.35644">
        <ele>1903</ele>
        <time>2018-04-21T12:10:40.000Z</time>
      </trkpt>
      <trkpt lat="44.09568" lon="7.35636">
        <ele>1903</ele>
        <time>2018-04-21T12:10:49.000Z</time>
      </trkpt>
      <trkpt lat="44.09569" lon="7.3563">
        <ele>1903</ele>
        <time>2018-04-21T12:10:57.000Z</time>
      </trkpt>
      <trkpt lat="44.0957" lon="7.35628">
        <ele>1903</ele>
        <time>2018-04-21T12:11:04.000Z</time>
      </trkpt>
      <trkpt lat="44.0957" lon="7.35627">
        <ele>1903</ele>
        <time>2018-04-21T12:11:10.000Z</time>
      </trkpt>
      <trkpt lat="44.09571" lon="7.35627">
        <ele>1903</ele>
        <time>2018-04-21T12:11:13.000Z</time>
      </trkpt>
      <trkpt lat="44.09571" lon="7.35627">
        <ele>1903</ele>
        <time>2018-04-21T12:11:17.000Z</time>
      </trkpt>
      <trkpt lat="44.09572" lon="7.35626">
        <ele>1904</ele>
        <time>2018-04-21T12:11:25.000Z</time>
      </trkpt>
      <trkpt lat="44.09573" lon="7.35626">
        <ele>1904</ele>
        <time>2018-04-21T12:11:32.000Z</time>
      </trkpt>
      <trkpt lat="44.09573" lon="7.35624">
        <ele>1904</ele>
        <time>2018-04-21T12:11:46.000Z</time>
      </trkpt>
      <trkpt lat="44.09574" lon="7.35622">
        <ele>1904</ele>
        <time>2018-04-21T12:11:53.000Z</time>
      </trkpt>
      <trkpt lat="44.09574" lon="7.35622">
        <ele>1904</ele>
        <time>2018-04-21T12:12:09.000Z</time>
      </trkpt>
      <trkpt lat="44.09574" lon="7.35621">
        <ele>1904</ele>
        <time>2018-04-21T12:12:12.000Z</time>
      </trkpt>
    </trkseg>
  </trk>
</gpx>